<?xml version="1.0" encoding="UTF-8" standalone="no" ?>
<gpx xmlns="http://www.topografix.com/GPX/1/1" xmlns:xsi="http://www.w3.org/2001/XMLSchema-instance" xsi:schemaLocation="http://www.topografix.com/GPX/1/1 http://www.topografix.com/GPX/1/1/gpx.xsd" version="1.1" creator="VisuGPX - https://www.visugpx.com">
  <metadata>
    <name>Parcours RCY journée de la rando</name>
    <desc><![CDATA[Menée par Jean Luc]]></desc>
  </metadata>
  <trk>
    <name><![CDATA[SityTrail - Parcours RCY journée de la rando]]></name>
    <desc><![CDATA[Menée par Jean Luc]]></desc>
    <trkseg>
      <trkpt lat="48.71471" lon="2.48956">
        <ele>39</ele>
        <time>2022-09-25T07:25:18.928Z</time>
      </trkpt>
      <trkpt lat="48.7148" lon="2.48953">
        <ele>39</ele>
        <time>2022-09-25T07:26:01.958Z</time>
      </trkpt>
      <trkpt lat="48.71483" lon="2.48955">
        <ele>39</ele>
        <time>2022-09-25T07:26:06.955Z</time>
      </trkpt>
      <trkpt lat="48.71483" lon="2.48957">
        <ele>39</ele>
        <time>2022-09-25T07:26:10.970Z</time>
      </trkpt>
      <trkpt lat="48.71486" lon="2.4896">
        <ele>40</ele>
        <time>2022-09-25T07:26:15.967Z</time>
      </trkpt>
      <trkpt lat="48.71491" lon="2.48967">
        <ele>39</ele>
        <time>2022-09-25T07:26:20.968Z</time>
      </trkpt>
      <trkpt lat="48.71499" lon="2.48975">
        <ele>39</ele>
        <time>2022-09-25T07:28:04.964Z</time>
      </trkpt>
      <trkpt lat="48.715" lon="2.48977">
        <ele>39</ele>
        <time>2022-09-25T07:28:08.979Z</time>
      </trkpt>
      <trkpt lat="48.71505" lon="2.48983">
        <ele>39</ele>
        <time>2022-09-25T07:28:13.985Z</time>
      </trkpt>
      <trkpt lat="48.7151" lon="2.48988">
        <ele>41</ele>
        <time>2022-09-25T07:28:18.974Z</time>
      </trkpt>
      <trkpt lat="48.71514" lon="2.48991">
        <ele>40</ele>
        <time>2022-09-25T07:28:22.982Z</time>
      </trkpt>
      <trkpt lat="48.7152" lon="2.48997">
        <ele>40</ele>
        <time>2022-09-25T07:28:27.968Z</time>
      </trkpt>
      <trkpt lat="48.71527" lon="2.49001">
        <ele>40</ele>
        <time>2022-09-25T07:28:32.969Z</time>
      </trkpt>
      <trkpt lat="48.71532" lon="2.49007">
        <ele>40</ele>
        <time>2022-09-25T07:28:37.976Z</time>
      </trkpt>
      <trkpt lat="48.71539" lon="2.49012">
        <ele>40</ele>
        <time>2022-09-25T07:28:42.970Z</time>
      </trkpt>
      <trkpt lat="48.71545" lon="2.49016">
        <ele>43</ele>
        <time>2022-09-25T07:28:47.968Z</time>
      </trkpt>
      <trkpt lat="48.7155" lon="2.4902">
        <ele>43</ele>
        <time>2022-09-25T07:28:51.978Z</time>
      </trkpt>
      <trkpt lat="48.71556" lon="2.49024">
        <ele>43</ele>
        <time>2022-09-25T07:28:56.950Z</time>
      </trkpt>
      <trkpt lat="48.7156" lon="2.49027">
        <ele>43</ele>
        <time>2022-09-25T07:29:00.974Z</time>
      </trkpt>
      <trkpt lat="48.71564" lon="2.49031">
        <ele>43</ele>
        <time>2022-09-25T07:29:05.974Z</time>
      </trkpt>
      <trkpt lat="48.71568" lon="2.49035">
        <ele>43</ele>
        <time>2022-09-25T07:29:09.991Z</time>
      </trkpt>
      <trkpt lat="48.71574" lon="2.49041">
        <ele>44</ele>
        <time>2022-09-25T07:29:14.963Z</time>
      </trkpt>
      <trkpt lat="48.7158" lon="2.49045">
        <ele>46</ele>
        <time>2022-09-25T07:29:18.962Z</time>
      </trkpt>
      <trkpt lat="48.71585" lon="2.49047">
        <ele>46</ele>
        <time>2022-09-25T07:29:23.948Z</time>
      </trkpt>
      <trkpt lat="48.7159" lon="2.49051">
        <ele>46</ele>
        <time>2022-09-25T07:29:28.961Z</time>
      </trkpt>
      <trkpt lat="48.71595" lon="2.49057">
        <ele>46</ele>
        <time>2022-09-25T07:29:32.968Z</time>
      </trkpt>
      <trkpt lat="48.71602" lon="2.49059">
        <ele>45</ele>
        <time>2022-09-25T07:29:37.973Z</time>
      </trkpt>
      <trkpt lat="48.71608" lon="2.49062">
        <ele>45</ele>
        <time>2022-09-25T07:29:42.961Z</time>
      </trkpt>
      <trkpt lat="48.71612" lon="2.49065">
        <ele>45</ele>
        <time>2022-09-25T07:29:46.972Z</time>
      </trkpt>
      <trkpt lat="48.71617" lon="2.49073">
        <ele>46</ele>
        <time>2022-09-25T07:29:51.969Z</time>
      </trkpt>
      <trkpt lat="48.71623" lon="2.49079">
        <ele>46</ele>
        <time>2022-09-25T07:29:56.986Z</time>
      </trkpt>
      <trkpt lat="48.71624" lon="2.49085">
        <ele>46</ele>
        <time>2022-09-25T07:30:01.965Z</time>
      </trkpt>
      <trkpt lat="48.71627" lon="2.49093">
        <ele>47</ele>
        <time>2022-09-25T07:30:06.970Z</time>
      </trkpt>
      <trkpt lat="48.71631" lon="2.49101">
        <ele>49</ele>
        <time>2022-09-25T07:30:11.947Z</time>
      </trkpt>
      <trkpt lat="48.71633" lon="2.49106">
        <ele>49</ele>
        <time>2022-09-25T07:30:15.980Z</time>
      </trkpt>
      <trkpt lat="48.71636" lon="2.49111">
        <ele>49</ele>
        <time>2022-09-25T07:30:20.962Z</time>
      </trkpt>
      <trkpt lat="48.71638" lon="2.49115">
        <ele>49</ele>
        <time>2022-09-25T07:30:25.968Z</time>
      </trkpt>
      <trkpt lat="48.71642" lon="2.49118">
        <ele>49</ele>
        <time>2022-09-25T07:30:29.987Z</time>
      </trkpt>
      <trkpt lat="48.71647" lon="2.49124">
        <ele>49</ele>
        <time>2022-09-25T07:30:34.959Z</time>
      </trkpt>
      <trkpt lat="48.71652" lon="2.49128">
        <ele>50</ele>
        <time>2022-09-25T07:30:39.985Z</time>
      </trkpt>
      <trkpt lat="48.71655" lon="2.4913">
        <ele>53</ele>
        <time>2022-09-25T07:30:44.931Z</time>
      </trkpt>
      <trkpt lat="48.71658" lon="2.49133">
        <ele>53</ele>
        <time>2022-09-25T07:30:48.947Z</time>
      </trkpt>
      <trkpt lat="48.71661" lon="2.49137">
        <ele>53</ele>
        <time>2022-09-25T07:30:52.964Z</time>
      </trkpt>
      <trkpt lat="48.71663" lon="2.49139">
        <ele>53</ele>
        <time>2022-09-25T07:30:57.969Z</time>
      </trkpt>
      <trkpt lat="48.71665" lon="2.49147">
        <ele>53</ele>
        <time>2022-09-25T07:31:02.966Z</time>
      </trkpt>
      <trkpt lat="48.71665" lon="2.49154">
        <ele>54</ele>
        <time>2022-09-25T07:31:06.990Z</time>
      </trkpt>
      <trkpt lat="48.71665" lon="2.49163">
        <ele>54</ele>
        <time>2022-09-25T07:31:11.989Z</time>
      </trkpt>
      <trkpt lat="48.71663" lon="2.49173">
        <ele>54</ele>
        <time>2022-09-25T07:31:16.971Z</time>
      </trkpt>
      <trkpt lat="48.71661" lon="2.49181">
        <ele>56</ele>
        <time>2022-09-25T07:31:20.983Z</time>
      </trkpt>
      <trkpt lat="48.71661" lon="2.49189">
        <ele>56</ele>
        <time>2022-09-25T07:31:24.989Z</time>
      </trkpt>
      <trkpt lat="48.71663" lon="2.49199">
        <ele>56</ele>
        <time>2022-09-25T07:31:29.991Z</time>
      </trkpt>
      <trkpt lat="48.71665" lon="2.49206">
        <ele>56</ele>
        <time>2022-09-25T07:31:34.973Z</time>
      </trkpt>
      <trkpt lat="48.71669" lon="2.49214">
        <ele>59</ele>
        <time>2022-09-25T07:31:39.968Z</time>
      </trkpt>
      <trkpt lat="48.71673" lon="2.4922">
        <ele>59</ele>
        <time>2022-09-25T07:31:44.943Z</time>
      </trkpt>
      <trkpt lat="48.71679" lon="2.49225">
        <ele>59</ele>
        <time>2022-09-25T07:31:49.967Z</time>
      </trkpt>
      <trkpt lat="48.71683" lon="2.49228">
        <ele>63</ele>
        <time>2022-09-25T07:31:54.941Z</time>
      </trkpt>
      <trkpt lat="48.71687" lon="2.49232">
        <ele>63</ele>
        <time>2022-09-25T07:31:58.961Z</time>
      </trkpt>
      <trkpt lat="48.71689" lon="2.49237">
        <ele>65</ele>
        <time>2022-09-25T07:32:02.979Z</time>
      </trkpt>
      <trkpt lat="48.71688" lon="2.49244">
        <ele>65</ele>
        <time>2022-09-25T07:32:07.964Z</time>
      </trkpt>
      <trkpt lat="48.71687" lon="2.49252">
        <ele>65</ele>
        <time>2022-09-25T07:32:12.966Z</time>
      </trkpt>
      <trkpt lat="48.71685" lon="2.49259">
        <ele>65</ele>
        <time>2022-09-25T07:32:17.978Z</time>
      </trkpt>
      <trkpt lat="48.71681" lon="2.49266">
        <ele>67</ele>
        <time>2022-09-25T07:32:22.965Z</time>
      </trkpt>
      <trkpt lat="48.71677" lon="2.49271">
        <ele>64</ele>
        <time>2022-09-25T07:32:27.973Z</time>
      </trkpt>
      <trkpt lat="48.71674" lon="2.49277">
        <ele>64</ele>
        <time>2022-09-25T07:32:32.967Z</time>
      </trkpt>
      <trkpt lat="48.71673" lon="2.49287">
        <ele>64</ele>
        <time>2022-09-25T07:32:37.992Z</time>
      </trkpt>
      <trkpt lat="48.71674" lon="2.49296">
        <ele>66</ele>
        <time>2022-09-25T07:32:42.959Z</time>
      </trkpt>
      <trkpt lat="48.71678" lon="2.49301">
        <ele>66</ele>
        <time>2022-09-25T07:32:47.982Z</time>
      </trkpt>
      <trkpt lat="48.71682" lon="2.49306">
        <ele>68</ele>
        <time>2022-09-25T07:32:52.976Z</time>
      </trkpt>
      <trkpt lat="48.71685" lon="2.49313">
        <ele>68</ele>
        <time>2022-09-25T07:32:57.968Z</time>
      </trkpt>
      <trkpt lat="48.7169" lon="2.49319">
        <ele>68</ele>
        <time>2022-09-25T07:33:02.967Z</time>
      </trkpt>
      <trkpt lat="48.71694" lon="2.49325">
        <ele>69</ele>
        <time>2022-09-25T07:33:06.987Z</time>
      </trkpt>
      <trkpt lat="48.71698" lon="2.49333">
        <ele>69</ele>
        <time>2022-09-25T07:33:11.998Z</time>
      </trkpt>
      <trkpt lat="48.71702" lon="2.49338">
        <ele>69</ele>
        <time>2022-09-25T07:33:16.980Z</time>
      </trkpt>
      <trkpt lat="48.71707" lon="2.49345">
        <ele>69</ele>
        <time>2022-09-25T07:33:21.953Z</time>
      </trkpt>
      <trkpt lat="48.7171" lon="2.49349">
        <ele>73</ele>
        <time>2022-09-25T07:33:25.974Z</time>
      </trkpt>
      <trkpt lat="48.71715" lon="2.49354">
        <ele>73</ele>
        <time>2022-09-25T07:33:30.967Z</time>
      </trkpt>
      <trkpt lat="48.7172" lon="2.49359">
        <ele>73</ele>
        <time>2022-09-25T07:33:35.960Z</time>
      </trkpt>
      <trkpt lat="48.71723" lon="2.49365">
        <ele>73</ele>
        <time>2022-09-25T07:33:39.967Z</time>
      </trkpt>
      <trkpt lat="48.71727" lon="2.49366">
        <ele>73</ele>
        <time>2022-09-25T07:33:43.963Z</time>
      </trkpt>
      <trkpt lat="48.7173" lon="2.49368">
        <ele>73</ele>
        <time>2022-09-25T07:33:48.967Z</time>
      </trkpt>
      <trkpt lat="48.71728" lon="2.49376">
        <ele>75</ele>
        <time>2022-09-25T07:33:53.955Z</time>
      </trkpt>
      <trkpt lat="48.71726" lon="2.49383">
        <ele>75</ele>
        <time>2022-09-25T07:33:57.963Z</time>
      </trkpt>
      <trkpt lat="48.71725" lon="2.49393">
        <ele>75</ele>
        <time>2022-09-25T07:34:02.969Z</time>
      </trkpt>
      <trkpt lat="48.71724" lon="2.49404">
        <ele>76</ele>
        <time>2022-09-25T07:34:07.962Z</time>
      </trkpt>
      <trkpt lat="48.71723" lon="2.49412">
        <ele>76</ele>
        <time>2022-09-25T07:34:11.978Z</time>
      </trkpt>
      <trkpt lat="48.71721" lon="2.49422">
        <ele>76</ele>
        <time>2022-09-25T07:34:16.998Z</time>
      </trkpt>
      <trkpt lat="48.7172" lon="2.49432">
        <ele>77</ele>
        <time>2022-09-25T07:34:21.981Z</time>
      </trkpt>
      <trkpt lat="48.71719" lon="2.49441">
        <ele>77</ele>
        <time>2022-09-25T07:34:26.978Z</time>
      </trkpt>
      <trkpt lat="48.71718" lon="2.49451">
        <ele>77</ele>
        <time>2022-09-25T07:34:31.967Z</time>
      </trkpt>
      <trkpt lat="48.71716" lon="2.49459">
        <ele>78</ele>
        <time>2022-09-25T07:34:36.978Z</time>
      </trkpt>
      <trkpt lat="48.71714" lon="2.49468">
        <ele>78</ele>
        <time>2022-09-25T07:34:41.952Z</time>
      </trkpt>
      <trkpt lat="48.7171" lon="2.49474">
        <ele>78</ele>
        <time>2022-09-25T07:34:45.969Z</time>
      </trkpt>
      <trkpt lat="48.71708" lon="2.4948">
        <ele>76</ele>
        <time>2022-09-25T07:34:49.977Z</time>
      </trkpt>
      <trkpt lat="48.71705" lon="2.49489">
        <ele>77</ele>
        <time>2022-09-25T07:34:54.965Z</time>
      </trkpt>
      <trkpt lat="48.71705" lon="2.49495">
        <ele>77</ele>
        <time>2022-09-25T07:34:59.983Z</time>
      </trkpt>
      <trkpt lat="48.71706" lon="2.49505">
        <ele>77</ele>
        <time>2022-09-25T07:35:04.983Z</time>
      </trkpt>
      <trkpt lat="48.71707" lon="2.49514">
        <ele>77</ele>
        <time>2022-09-25T07:35:08.995Z</time>
      </trkpt>
      <trkpt lat="48.71712" lon="2.49521">
        <ele>79</ele>
        <time>2022-09-25T07:35:13.980Z</time>
      </trkpt>
      <trkpt lat="48.71716" lon="2.49526">
        <ele>79</ele>
        <time>2022-09-25T07:35:17.994Z</time>
      </trkpt>
      <trkpt lat="48.71719" lon="2.4953">
        <ele>79</ele>
        <time>2022-09-25T07:35:22.995Z</time>
      </trkpt>
      <trkpt lat="48.71722" lon="2.49535">
        <ele>79</ele>
        <time>2022-09-25T07:35:27.987Z</time>
      </trkpt>
      <trkpt lat="48.71722" lon="2.49539">
        <ele>79</ele>
        <time>2022-09-25T07:35:32.967Z</time>
      </trkpt>
      <trkpt lat="48.7172" lon="2.49543">
        <ele>79</ele>
        <time>2022-09-25T07:35:37.965Z</time>
      </trkpt>
      <trkpt lat="48.71713" lon="2.49552">
        <ele>79</ele>
        <time>2022-09-25T07:35:42.968Z</time>
      </trkpt>
      <trkpt lat="48.71712" lon="2.49564">
        <ele>79</ele>
        <time>2022-09-25T07:35:47.981Z</time>
      </trkpt>
      <trkpt lat="48.71711" lon="2.49573">
        <ele>80</ele>
        <time>2022-09-25T07:35:52.965Z</time>
      </trkpt>
      <trkpt lat="48.7171" lon="2.49581">
        <ele>80</ele>
        <time>2022-09-25T07:35:57.968Z</time>
      </trkpt>
      <trkpt lat="48.71705" lon="2.49592">
        <ele>78</ele>
        <time>2022-09-25T07:36:02.978Z</time>
      </trkpt>
      <trkpt lat="48.71703" lon="2.49601">
        <ele>79</ele>
        <time>2022-09-25T07:36:07.983Z</time>
      </trkpt>
      <trkpt lat="48.717" lon="2.49608">
        <ele>79</ele>
        <time>2022-09-25T07:36:11.985Z</time>
      </trkpt>
      <trkpt lat="48.71696" lon="2.49618">
        <ele>79</ele>
        <time>2022-09-25T07:36:16.986Z</time>
      </trkpt>
      <trkpt lat="48.71693" lon="2.49628">
        <ele>79</ele>
        <time>2022-09-25T07:36:21.975Z</time>
      </trkpt>
      <trkpt lat="48.71689" lon="2.49636">
        <ele>79</ele>
        <time>2022-09-25T07:36:26.971Z</time>
      </trkpt>
      <trkpt lat="48.71686" lon="2.49642">
        <ele>79</ele>
        <time>2022-09-25T07:36:30.995Z</time>
      </trkpt>
      <trkpt lat="48.71684" lon="2.49651">
        <ele>79</ele>
        <time>2022-09-25T07:36:35.981Z</time>
      </trkpt>
      <trkpt lat="48.71681" lon="2.4966">
        <ele>80</ele>
        <time>2022-09-25T07:36:40.985Z</time>
      </trkpt>
      <trkpt lat="48.71678" lon="2.49671">
        <ele>78</ele>
        <time>2022-09-25T07:36:45.988Z</time>
      </trkpt>
      <trkpt lat="48.71676" lon="2.4968">
        <ele>78</ele>
        <time>2022-09-25T07:36:50.975Z</time>
      </trkpt>
      <trkpt lat="48.71673" lon="2.49688">
        <ele>79</ele>
        <time>2022-09-25T07:36:55.980Z</time>
      </trkpt>
      <trkpt lat="48.71671" lon="2.49697">
        <ele>79</ele>
        <time>2022-09-25T07:37:00.990Z</time>
      </trkpt>
      <trkpt lat="48.71669" lon="2.49708">
        <ele>79</ele>
        <time>2022-09-25T07:37:05.981Z</time>
      </trkpt>
      <trkpt lat="48.71666" lon="2.49714">
        <ele>80</ele>
        <time>2022-09-25T07:37:09.997Z</time>
      </trkpt>
      <trkpt lat="48.71663" lon="2.49724">
        <ele>80</ele>
        <time>2022-09-25T07:37:14.989Z</time>
      </trkpt>
      <trkpt lat="48.7166" lon="2.49733">
        <ele>80</ele>
        <time>2022-09-25T07:37:18.995Z</time>
      </trkpt>
      <trkpt lat="48.71657" lon="2.49741">
        <ele>80</ele>
        <time>2022-09-25T07:37:23.985Z</time>
      </trkpt>
      <trkpt lat="48.71654" lon="2.4975">
        <ele>80</ele>
        <time>2022-09-25T07:37:28.998Z</time>
      </trkpt>
      <trkpt lat="48.7165" lon="2.49758">
        <ele>79</ele>
        <time>2022-09-25T07:37:33.975Z</time>
      </trkpt>
      <trkpt lat="48.71647" lon="2.49765">
        <ele>81</ele>
        <time>2022-09-25T07:37:37.995Z</time>
      </trkpt>
      <trkpt lat="48.71642" lon="2.49774">
        <ele>81</ele>
        <time>2022-09-25T07:37:42.975Z</time>
      </trkpt>
      <trkpt lat="48.71638" lon="2.49781">
        <ele>81</ele>
        <time>2022-09-25T07:37:47.996Z</time>
      </trkpt>
      <trkpt lat="48.71635" lon="2.49789">
        <ele>81</ele>
        <time>2022-09-25T07:37:52.967Z</time>
      </trkpt>
      <trkpt lat="48.71633" lon="2.49796">
        <ele>82</ele>
        <time>2022-09-25T07:37:57.971Z</time>
      </trkpt>
      <trkpt lat="48.71629" lon="2.49802">
        <ele>82</ele>
        <time>2022-09-25T07:38:01.993Z</time>
      </trkpt>
      <trkpt lat="48.71626" lon="2.49809">
        <ele>82</ele>
        <time>2022-09-25T07:38:06.953Z</time>
      </trkpt>
      <trkpt lat="48.71622" lon="2.49819">
        <ele>80</ele>
        <time>2022-09-25T07:38:11.965Z</time>
      </trkpt>
      <trkpt lat="48.71619" lon="2.49825">
        <ele>81</ele>
        <time>2022-09-25T07:38:16.966Z</time>
      </trkpt>
      <trkpt lat="48.71616" lon="2.49831">
        <ele>81</ele>
        <time>2022-09-25T07:38:20.957Z</time>
      </trkpt>
      <trkpt lat="48.71613" lon="2.49839">
        <ele>81</ele>
        <time>2022-09-25T07:38:25.971Z</time>
      </trkpt>
      <trkpt lat="48.7161" lon="2.49846">
        <ele>81</ele>
        <time>2022-09-25T07:38:29.993Z</time>
      </trkpt>
      <trkpt lat="48.71607" lon="2.49853">
        <ele>81</ele>
        <time>2022-09-25T07:38:34.975Z</time>
      </trkpt>
      <trkpt lat="48.71603" lon="2.4986">
        <ele>81</ele>
        <time>2022-09-25T07:38:39.991Z</time>
      </trkpt>
      <trkpt lat="48.71597" lon="2.49867">
        <ele>81</ele>
        <time>2022-09-25T07:38:44.967Z</time>
      </trkpt>
      <trkpt lat="48.71594" lon="2.49871">
        <ele>79</ele>
        <time>2022-09-25T07:38:48.984Z</time>
      </trkpt>
      <trkpt lat="48.71591" lon="2.49876">
        <ele>80</ele>
        <time>2022-09-25T07:38:52.981Z</time>
      </trkpt>
      <trkpt lat="48.71586" lon="2.49885">
        <ele>80</ele>
        <time>2022-09-25T07:38:57.979Z</time>
      </trkpt>
      <trkpt lat="48.71581" lon="2.49891">
        <ele>80</ele>
        <time>2022-09-25T07:39:02.974Z</time>
      </trkpt>
      <trkpt lat="48.71577" lon="2.49896">
        <ele>80</ele>
        <time>2022-09-25T07:39:07.975Z</time>
      </trkpt>
      <trkpt lat="48.71573" lon="2.49902">
        <ele>80</ele>
        <time>2022-09-25T07:39:12.990Z</time>
      </trkpt>
      <trkpt lat="48.71569" lon="2.49907">
        <ele>81</ele>
        <time>2022-09-25T07:39:17.984Z</time>
      </trkpt>
      <trkpt lat="48.71565" lon="2.49912">
        <ele>81</ele>
        <time>2022-09-25T07:39:21.978Z</time>
      </trkpt>
      <trkpt lat="48.71561" lon="2.49917">
        <ele>81</ele>
        <time>2022-09-25T07:39:25.980Z</time>
      </trkpt>
      <trkpt lat="48.71556" lon="2.49922">
        <ele>81</ele>
        <time>2022-09-25T07:39:30.985Z</time>
      </trkpt>
      <trkpt lat="48.7155" lon="2.49927">
        <ele>81</ele>
        <time>2022-09-25T07:39:35.986Z</time>
      </trkpt>
      <trkpt lat="48.71547" lon="2.49931">
        <ele>82</ele>
        <time>2022-09-25T07:39:39.996Z</time>
      </trkpt>
      <trkpt lat="48.7154" lon="2.49937">
        <ele>80</ele>
        <time>2022-09-25T07:39:44.982Z</time>
      </trkpt>
      <trkpt lat="48.71535" lon="2.49941">
        <ele>80</ele>
        <time>2022-09-25T07:39:50Z</time>
      </trkpt>
      <trkpt lat="48.71529" lon="2.49947">
        <ele>80</ele>
        <time>2022-09-25T07:39:54.963Z</time>
      </trkpt>
      <trkpt lat="48.71526" lon="2.4995">
        <ele>80</ele>
        <time>2022-09-25T07:39:58.993Z</time>
      </trkpt>
      <trkpt lat="48.7152" lon="2.49957">
        <ele>80</ele>
        <time>2022-09-25T07:40:03.981Z</time>
      </trkpt>
      <trkpt lat="48.71516" lon="2.49964">
        <ele>83</ele>
        <time>2022-09-25T07:40:08.971Z</time>
      </trkpt>
      <trkpt lat="48.7151" lon="2.49971">
        <ele>81</ele>
        <time>2022-09-25T07:40:13.987Z</time>
      </trkpt>
      <trkpt lat="48.71506" lon="2.49975">
        <ele>81</ele>
        <time>2022-09-25T07:40:18.977Z</time>
      </trkpt>
      <trkpt lat="48.71502" lon="2.49979">
        <ele>81</ele>
        <time>2022-09-25T07:40:23.998Z</time>
      </trkpt>
      <trkpt lat="48.71498" lon="2.49985">
        <ele>81</ele>
        <time>2022-09-25T07:40:28.975Z</time>
      </trkpt>
      <trkpt lat="48.71492" lon="2.49991">
        <ele>83</ele>
        <time>2022-09-25T07:40:33.976Z</time>
      </trkpt>
      <trkpt lat="48.71487" lon="2.49996">
        <ele>83</ele>
        <time>2022-09-25T07:40:38.984Z</time>
      </trkpt>
      <trkpt lat="48.71483" lon="2.50001">
        <ele>82</ele>
        <time>2022-09-25T07:40:43.973Z</time>
      </trkpt>
      <trkpt lat="48.71478" lon="2.50007">
        <ele>82</ele>
        <time>2022-09-25T07:40:48.970Z</time>
      </trkpt>
      <trkpt lat="48.71472" lon="2.50014">
        <ele>82</ele>
        <time>2022-09-25T07:40:53.974Z</time>
      </trkpt>
      <trkpt lat="48.71467" lon="2.50021">
        <ele>84</ele>
        <time>2022-09-25T07:40:58.974Z</time>
      </trkpt>
      <trkpt lat="48.71463" lon="2.50028">
        <ele>84</ele>
        <time>2022-09-25T07:41:03.970Z</time>
      </trkpt>
      <trkpt lat="48.71459" lon="2.5003">
        <ele>84</ele>
        <time>2022-09-25T07:41:08.970Z</time>
      </trkpt>
      <trkpt lat="48.71456" lon="2.5003">
        <ele>84</ele>
        <time>2022-09-25T07:41:12.988Z</time>
      </trkpt>
      <trkpt lat="48.71451" lon="2.50026">
        <ele>84</ele>
        <time>2022-09-25T07:41:17.992Z</time>
      </trkpt>
      <trkpt lat="48.71446" lon="2.50022">
        <ele>84</ele>
        <time>2022-09-25T07:41:22.973Z</time>
      </trkpt>
      <trkpt lat="48.71441" lon="2.5002">
        <ele>84</ele>
        <time>2022-09-25T07:41:26.977Z</time>
      </trkpt>
      <trkpt lat="48.71435" lon="2.50016">
        <ele>84</ele>
        <time>2022-09-25T07:41:31.987Z</time>
      </trkpt>
      <trkpt lat="48.71428" lon="2.50014">
        <ele>82</ele>
        <time>2022-09-25T07:41:36.958Z</time>
      </trkpt>
      <trkpt lat="48.71421" lon="2.50013">
        <ele>82</ele>
        <time>2022-09-25T07:41:40.977Z</time>
      </trkpt>
      <trkpt lat="48.71416" lon="2.50014">
        <ele>83</ele>
        <time>2022-09-25T07:41:44.984Z</time>
      </trkpt>
      <trkpt lat="48.7141" lon="2.50019">
        <ele>83</ele>
        <time>2022-09-25T07:41:49.971Z</time>
      </trkpt>
      <trkpt lat="48.71405" lon="2.50024">
        <ele>83</ele>
        <time>2022-09-25T07:41:53.988Z</time>
      </trkpt>
      <trkpt lat="48.71398" lon="2.50027">
        <ele>81</ele>
        <time>2022-09-25T07:41:58.976Z</time>
      </trkpt>
      <trkpt lat="48.71393" lon="2.50028">
        <ele>81</ele>
        <time>2022-09-25T07:42:02.980Z</time>
      </trkpt>
      <trkpt lat="48.71388" lon="2.50028">
        <ele>81</ele>
        <time>2022-09-25T07:42:06.989Z</time>
      </trkpt>
      <trkpt lat="48.71382" lon="2.50031">
        <ele>81</ele>
        <time>2022-09-25T07:42:11.979Z</time>
      </trkpt>
      <trkpt lat="48.71377" lon="2.50039">
        <ele>81</ele>
        <time>2022-09-25T07:42:16.954Z</time>
      </trkpt>
      <trkpt lat="48.71373" lon="2.50046">
        <ele>79</ele>
        <time>2022-09-25T07:42:20.977Z</time>
      </trkpt>
      <trkpt lat="48.71371" lon="2.50052">
        <ele>79</ele>
        <time>2022-09-25T07:42:24.958Z</time>
      </trkpt>
      <trkpt lat="48.71367" lon="2.50058">
        <ele>79</ele>
        <time>2022-09-25T07:42:29.961Z</time>
      </trkpt>
      <trkpt lat="48.71363" lon="2.50065">
        <ele>79</ele>
        <time>2022-09-25T07:42:33.966Z</time>
      </trkpt>
      <trkpt lat="48.71359" lon="2.50069">
        <ele>79</ele>
        <time>2022-09-25T07:42:37.985Z</time>
      </trkpt>
      <trkpt lat="48.71355" lon="2.50072">
        <ele>79</ele>
        <time>2022-09-25T07:42:42.988Z</time>
      </trkpt>
      <trkpt lat="48.71349" lon="2.50073">
        <ele>79</ele>
        <time>2022-09-25T07:42:47.986Z</time>
      </trkpt>
      <trkpt lat="48.71343" lon="2.50072">
        <ele>77</ele>
        <time>2022-09-25T07:42:52.993Z</time>
      </trkpt>
      <trkpt lat="48.71339" lon="2.50071">
        <ele>77</ele>
        <time>2022-09-25T07:42:57.034Z</time>
      </trkpt>
      <trkpt lat="48.71335" lon="2.50075">
        <ele>77</ele>
        <time>2022-09-25T07:43:01.965Z</time>
      </trkpt>
      <trkpt lat="48.71332" lon="2.50079">
        <ele>77</ele>
        <time>2022-09-25T07:43:05.994Z</time>
      </trkpt>
      <trkpt lat="48.71326" lon="2.50082">
        <ele>77</ele>
        <time>2022-09-25T07:43:10.984Z</time>
      </trkpt>
      <trkpt lat="48.7132" lon="2.50086">
        <ele>77</ele>
        <time>2022-09-25T07:43:15.990Z</time>
      </trkpt>
      <trkpt lat="48.71314" lon="2.50095">
        <ele>76</ele>
        <time>2022-09-25T07:43:44.006Z</time>
      </trkpt>
      <trkpt lat="48.71314" lon="2.50096">
        <ele>76</ele>
        <time>2022-09-25T07:43:48.004Z</time>
      </trkpt>
      <trkpt lat="48.71313" lon="2.50096">
        <ele>76</ele>
        <time>2022-09-25T07:43:52.987Z</time>
      </trkpt>
      <trkpt lat="48.71312" lon="2.50105">
        <ele>77</ele>
        <time>2022-09-25T07:43:57.004Z</time>
      </trkpt>
      <trkpt lat="48.7131" lon="2.50108">
        <ele>77</ele>
        <time>2022-09-25T07:44:01.981Z</time>
      </trkpt>
      <trkpt lat="48.71306" lon="2.5011">
        <ele>77</ele>
        <time>2022-09-25T07:44:05.983Z</time>
      </trkpt>
      <trkpt lat="48.71302" lon="2.50111">
        <ele>77</ele>
        <time>2022-09-25T07:44:10.991Z</time>
      </trkpt>
      <trkpt lat="48.71295" lon="2.50112">
        <ele>77</ele>
        <time>2022-09-25T07:44:15.990Z</time>
      </trkpt>
      <trkpt lat="48.71289" lon="2.50113">
        <ele>73</ele>
        <time>2022-09-25T07:44:20.980Z</time>
      </trkpt>
      <trkpt lat="48.71285" lon="2.50113">
        <ele>73</ele>
        <time>2022-09-25T07:44:25.007Z</time>
      </trkpt>
      <trkpt lat="48.7128" lon="2.50114">
        <ele>73</ele>
        <time>2022-09-25T07:44:29.980Z</time>
      </trkpt>
      <trkpt lat="48.71274" lon="2.50114">
        <ele>73</ele>
        <time>2022-09-25T07:44:34.981Z</time>
      </trkpt>
      <trkpt lat="48.71268" lon="2.50114">
        <ele>73</ele>
        <time>2022-09-25T07:44:39.990Z</time>
      </trkpt>
      <trkpt lat="48.71262" lon="2.50114">
        <ele>69</ele>
        <time>2022-09-25T07:44:44.993Z</time>
      </trkpt>
      <trkpt lat="48.71254" lon="2.50115">
        <ele>69</ele>
        <time>2022-09-25T07:44:49.996Z</time>
      </trkpt>
      <trkpt lat="48.71247" lon="2.50115">
        <ele>69</ele>
        <time>2022-09-25T07:44:54.988Z</time>
      </trkpt>
      <trkpt lat="48.71241" lon="2.50115">
        <ele>69</ele>
        <time>2022-09-25T07:45:00.013Z</time>
      </trkpt>
      <trkpt lat="48.71236" lon="2.50116">
        <ele>65</ele>
        <time>2022-09-25T07:45:04.999Z</time>
      </trkpt>
      <trkpt lat="48.7123" lon="2.50117">
        <ele>65</ele>
        <time>2022-09-25T07:45:09.992Z</time>
      </trkpt>
      <trkpt lat="48.71227" lon="2.50124">
        <ele>65</ele>
        <time>2022-09-25T07:45:14.001Z</time>
      </trkpt>
      <trkpt lat="48.71227" lon="2.50135">
        <ele>64</ele>
        <time>2022-09-25T07:45:18.980Z</time>
      </trkpt>
      <trkpt lat="48.71228" lon="2.50144">
        <ele>64</ele>
        <time>2022-09-25T07:45:22.999Z</time>
      </trkpt>
      <trkpt lat="48.71228" lon="2.50154">
        <ele>64</ele>
        <time>2022-09-25T07:45:28Z</time>
      </trkpt>
      <trkpt lat="48.71228" lon="2.50164">
        <ele>64</ele>
        <time>2022-09-25T07:45:32.994Z</time>
      </trkpt>
      <trkpt lat="48.71228" lon="2.50173">
        <ele>64</ele>
        <time>2022-09-25T07:45:38.009Z</time>
      </trkpt>
      <trkpt lat="48.71229" lon="2.50181">
        <ele>65</ele>
        <time>2022-09-25T07:45:42.989Z</time>
      </trkpt>
      <trkpt lat="48.71231" lon="2.50191">
        <ele>65</ele>
        <time>2022-09-25T07:45:47.984Z</time>
      </trkpt>
      <trkpt lat="48.71231" lon="2.502">
        <ele>65</ele>
        <time>2022-09-25T07:45:52.996Z</time>
      </trkpt>
      <trkpt lat="48.71232" lon="2.50207">
        <ele>65</ele>
        <time>2022-09-25T07:45:56.997Z</time>
      </trkpt>
      <trkpt lat="48.71233" lon="2.50217">
        <ele>64</ele>
        <time>2022-09-25T07:46:01.990Z</time>
      </trkpt>
      <trkpt lat="48.71233" lon="2.50226">
        <ele>64</ele>
        <time>2022-09-25T07:46:06.985Z</time>
      </trkpt>
      <trkpt lat="48.71232" lon="2.50236">
        <ele>64</ele>
        <time>2022-09-25T07:46:12.002Z</time>
      </trkpt>
      <trkpt lat="48.71232" lon="2.50247">
        <ele>64</ele>
        <time>2022-09-25T07:46:16.982Z</time>
      </trkpt>
      <trkpt lat="48.71233" lon="2.50254">
        <ele>64</ele>
        <time>2022-09-25T07:46:20.976Z</time>
      </trkpt>
      <trkpt lat="48.71233" lon="2.50264">
        <ele>65</ele>
        <time>2022-09-25T07:46:25.998Z</time>
      </trkpt>
      <trkpt lat="48.71234" lon="2.50271">
        <ele>65</ele>
        <time>2022-09-25T07:46:30Z</time>
      </trkpt>
      <trkpt lat="48.71233" lon="2.50281">
        <ele>65</ele>
        <time>2022-09-25T07:46:34.988Z</time>
      </trkpt>
      <trkpt lat="48.71233" lon="2.50288">
        <ele>65</ele>
        <time>2022-09-25T07:46:40.010Z</time>
      </trkpt>
      <trkpt lat="48.71232" lon="2.50297">
        <ele>66</ele>
        <time>2022-09-25T07:46:44.993Z</time>
      </trkpt>
      <trkpt lat="48.71231" lon="2.50304">
        <ele>66</ele>
        <time>2022-09-25T07:46:48.999Z</time>
      </trkpt>
      <trkpt lat="48.71231" lon="2.50313">
        <ele>66</ele>
        <time>2022-09-25T07:46:53.994Z</time>
      </trkpt>
      <trkpt lat="48.7123" lon="2.50322">
        <ele>66</ele>
        <time>2022-09-25T07:46:57.994Z</time>
      </trkpt>
      <trkpt lat="48.71231" lon="2.5033">
        <ele>66</ele>
        <time>2022-09-25T07:47:02.002Z</time>
      </trkpt>
      <trkpt lat="48.71232" lon="2.50338">
        <ele>66</ele>
        <time>2022-09-25T07:47:05.995Z</time>
      </trkpt>
      <trkpt lat="48.71234" lon="2.50347">
        <ele>64</ele>
        <time>2022-09-25T07:47:10.981Z</time>
      </trkpt>
      <trkpt lat="48.71234" lon="2.50355">
        <ele>64</ele>
        <time>2022-09-25T07:47:15.011Z</time>
      </trkpt>
      <trkpt lat="48.71235" lon="2.50366">
        <ele>64</ele>
        <time>2022-09-25T07:47:19.979Z</time>
      </trkpt>
      <trkpt lat="48.71237" lon="2.50372">
        <ele>69</ele>
        <time>2022-09-25T07:47:23.970Z</time>
      </trkpt>
      <trkpt lat="48.71239" lon="2.50381">
        <ele>67</ele>
        <time>2022-09-25T07:47:28.993Z</time>
      </trkpt>
      <trkpt lat="48.71241" lon="2.50389">
        <ele>67</ele>
        <time>2022-09-25T07:47:34.014Z</time>
      </trkpt>
      <trkpt lat="48.71241" lon="2.504">
        <ele>67</ele>
        <time>2022-09-25T07:47:38.995Z</time>
      </trkpt>
      <trkpt lat="48.71242" lon="2.50411">
        <ele>66</ele>
        <time>2022-09-25T07:47:43.994Z</time>
      </trkpt>
      <trkpt lat="48.71243" lon="2.50421">
        <ele>66</ele>
        <time>2022-09-25T07:47:48.983Z</time>
      </trkpt>
      <trkpt lat="48.71245" lon="2.5043">
        <ele>66</ele>
        <time>2022-09-25T07:47:53.989Z</time>
      </trkpt>
      <trkpt lat="48.71249" lon="2.5044">
        <ele>65</ele>
        <time>2022-09-25T07:47:58.984Z</time>
      </trkpt>
      <trkpt lat="48.71251" lon="2.50449">
        <ele>65</ele>
        <time>2022-09-25T07:48:03.976Z</time>
      </trkpt>
      <trkpt lat="48.71252" lon="2.50455">
        <ele>65</ele>
        <time>2022-09-25T07:48:07.997Z</time>
      </trkpt>
      <trkpt lat="48.71254" lon="2.50461">
        <ele>64</ele>
        <time>2022-09-25T07:48:11.997Z</time>
      </trkpt>
      <trkpt lat="48.71257" lon="2.5047">
        <ele>64</ele>
        <time>2022-09-25T07:48:16.989Z</time>
      </trkpt>
      <trkpt lat="48.71259" lon="2.50479">
        <ele>64</ele>
        <time>2022-09-25T07:48:21.992Z</time>
      </trkpt>
      <trkpt lat="48.71263" lon="2.50488">
        <ele>63</ele>
        <time>2022-09-25T07:48:26.994Z</time>
      </trkpt>
      <trkpt lat="48.71266" lon="2.50498">
        <ele>67</ele>
        <time>2022-09-25T07:48:31.971Z</time>
      </trkpt>
      <trkpt lat="48.71268" lon="2.50505">
        <ele>67</ele>
        <time>2022-09-25T07:48:35.990Z</time>
      </trkpt>
      <trkpt lat="48.7127" lon="2.50514">
        <ele>67</ele>
        <time>2022-09-25T07:48:40.001Z</time>
      </trkpt>
      <trkpt lat="48.71273" lon="2.50521">
        <ele>67</ele>
        <time>2022-09-25T07:48:44.004Z</time>
      </trkpt>
      <trkpt lat="48.71275" lon="2.50531">
        <ele>67</ele>
        <time>2022-09-25T07:48:48.970Z</time>
      </trkpt>
      <trkpt lat="48.71278" lon="2.50539">
        <ele>67</ele>
        <time>2022-09-25T07:48:53.983Z</time>
      </trkpt>
      <trkpt lat="48.7128" lon="2.50548">
        <ele>68</ele>
        <time>2022-09-25T07:48:58.990Z</time>
      </trkpt>
      <trkpt lat="48.71281" lon="2.50558">
        <ele>68</ele>
        <time>2022-09-25T07:49:04.006Z</time>
      </trkpt>
      <trkpt lat="48.71283" lon="2.50566">
        <ele>68</ele>
        <time>2022-09-25T07:49:08.987Z</time>
      </trkpt>
      <trkpt lat="48.71284" lon="2.50573">
        <ele>69</ele>
        <time>2022-09-25T07:49:12.995Z</time>
      </trkpt>
      <trkpt lat="48.71281" lon="2.50574">
        <ele>69</ele>
        <time>2022-09-25T07:49:17.986Z</time>
      </trkpt>
      <trkpt lat="48.71277" lon="2.50573">
        <ele>69</ele>
        <time>2022-09-25T07:49:21.998Z</time>
      </trkpt>
      <trkpt lat="48.71269" lon="2.50571">
        <ele>69</ele>
        <time>2022-09-25T07:49:26.973Z</time>
      </trkpt>
      <trkpt lat="48.71264" lon="2.50574">
        <ele>64</ele>
        <time>2022-09-25T07:49:31.996Z</time>
      </trkpt>
      <trkpt lat="48.71259" lon="2.50575">
        <ele>64</ele>
        <time>2022-09-25T07:49:36.975Z</time>
      </trkpt>
      <trkpt lat="48.71255" lon="2.50577">
        <ele>64</ele>
        <time>2022-09-25T07:49:40.976Z</time>
      </trkpt>
      <trkpt lat="48.71251" lon="2.50583">
        <ele>64</ele>
        <time>2022-09-25T07:49:45.971Z</time>
      </trkpt>
      <trkpt lat="48.71247" lon="2.5059">
        <ele>64</ele>
        <time>2022-09-25T07:49:50.116Z</time>
      </trkpt>
      <trkpt lat="48.71244" lon="2.50601">
        <ele>64</ele>
        <time>2022-09-25T07:49:54.957Z</time>
      </trkpt>
      <trkpt lat="48.71241" lon="2.5061">
        <ele>64</ele>
        <time>2022-09-25T07:49:59.984Z</time>
      </trkpt>
      <trkpt lat="48.71237" lon="2.5062">
        <ele>64</ele>
        <time>2022-09-25T07:50:04.990Z</time>
      </trkpt>
      <trkpt lat="48.71235" lon="2.50631">
        <ele>58</ele>
        <time>2022-09-25T07:50:09.989Z</time>
      </trkpt>
      <trkpt lat="48.71233" lon="2.50641">
        <ele>58</ele>
        <time>2022-09-25T07:50:14.992Z</time>
      </trkpt>
      <trkpt lat="48.71231" lon="2.5065">
        <ele>58</ele>
        <time>2022-09-25T07:50:19.980Z</time>
      </trkpt>
      <trkpt lat="48.71228" lon="2.50659">
        <ele>57</ele>
        <time>2022-09-25T07:50:24.956Z</time>
      </trkpt>
      <trkpt lat="48.71224" lon="2.50668">
        <ele>57</ele>
        <time>2022-09-25T07:50:30.004Z</time>
      </trkpt>
      <trkpt lat="48.71222" lon="2.50676">
        <ele>57</ele>
        <time>2022-09-25T07:50:34.957Z</time>
      </trkpt>
      <trkpt lat="48.71219" lon="2.50688">
        <ele>56</ele>
        <time>2022-09-25T07:50:39.996Z</time>
      </trkpt>
      <trkpt lat="48.71217" lon="2.50695">
        <ele>56</ele>
        <time>2022-09-25T07:50:45.083Z</time>
      </trkpt>
      <trkpt lat="48.7122" lon="2.50705">
        <ele>56</ele>
        <time>2022-09-25T07:50:49.980Z</time>
      </trkpt>
      <trkpt lat="48.71224" lon="2.50711">
        <ele>54</ele>
        <time>2022-09-25T07:50:53.996Z</time>
      </trkpt>
      <trkpt lat="48.71228" lon="2.50715">
        <ele>54</ele>
        <time>2022-09-25T07:50:57.997Z</time>
      </trkpt>
      <trkpt lat="48.71233" lon="2.50722">
        <ele>54</ele>
        <time>2022-09-25T07:51:02.966Z</time>
      </trkpt>
      <trkpt lat="48.71235" lon="2.50729">
        <ele>54</ele>
        <time>2022-09-25T07:51:07.119Z</time>
      </trkpt>
      <trkpt lat="48.7124" lon="2.50733">
        <ele>59</ele>
        <time>2022-09-25T07:51:11.974Z</time>
      </trkpt>
      <trkpt lat="48.71246" lon="2.50737">
        <ele>57</ele>
        <time>2022-09-25T07:51:16.989Z</time>
      </trkpt>
      <trkpt lat="48.71251" lon="2.5074">
        <ele>57</ele>
        <time>2022-09-25T07:51:21.979Z</time>
      </trkpt>
      <trkpt lat="48.71255" lon="2.50747">
        <ele>57</ele>
        <time>2022-09-25T07:51:26.973Z</time>
      </trkpt>
      <trkpt lat="48.71259" lon="2.50752">
        <ele>57</ele>
        <time>2022-09-25T07:51:30.976Z</time>
      </trkpt>
      <trkpt lat="48.7126" lon="2.50755">
        <ele>57</ele>
        <time>2022-09-25T07:51:34.985Z</time>
      </trkpt>
      <trkpt lat="48.71262" lon="2.50762">
        <ele>57</ele>
        <time>2022-09-25T07:51:39.117Z</time>
      </trkpt>
      <trkpt lat="48.71263" lon="2.50769">
        <ele>55</ele>
        <time>2022-09-25T07:51:44.035Z</time>
      </trkpt>
      <trkpt lat="48.71267" lon="2.50777">
        <ele>63</ele>
        <time>2022-09-25T07:51:48.985Z</time>
      </trkpt>
      <trkpt lat="48.71267" lon="2.50783">
        <ele>63</ele>
        <time>2022-09-25T07:51:53.979Z</time>
      </trkpt>
      <trkpt lat="48.71268" lon="2.50793">
        <ele>62</ele>
        <time>2022-09-25T07:51:58.936Z</time>
      </trkpt>
      <trkpt lat="48.7127" lon="2.50792">
        <ele>62</ele>
        <time>2022-09-25T07:52:02.949Z</time>
      </trkpt>
      <trkpt lat="48.71275" lon="2.50792">
        <ele>62</ele>
        <time>2022-09-25T07:52:06.981Z</time>
      </trkpt>
      <trkpt lat="48.71279" lon="2.5079">
        <ele>63</ele>
        <time>2022-09-25T07:52:10.983Z</time>
      </trkpt>
      <trkpt lat="48.71283" lon="2.50788">
        <ele>63</ele>
        <time>2022-09-25T07:52:15.098Z</time>
      </trkpt>
      <trkpt lat="48.7129" lon="2.50788">
        <ele>63</ele>
        <time>2022-09-25T07:52:19.988Z</time>
      </trkpt>
      <trkpt lat="48.71297" lon="2.50784">
        <ele>67</ele>
        <time>2022-09-25T07:52:24.999Z</time>
      </trkpt>
      <trkpt lat="48.71302" lon="2.5078">
        <ele>67</ele>
        <time>2022-09-25T07:52:29.987Z</time>
      </trkpt>
      <trkpt lat="48.71308" lon="2.50778">
        <ele>67</ele>
        <time>2022-09-25T07:52:34.998Z</time>
      </trkpt>
      <trkpt lat="48.71315" lon="2.50778">
        <ele>67</ele>
        <time>2022-09-25T07:56:16.973Z</time>
      </trkpt>
      <trkpt lat="48.71316" lon="2.50781">
        <ele>67</ele>
        <time>2022-09-25T07:56:20.976Z</time>
      </trkpt>
      <trkpt lat="48.71318" lon="2.50784">
        <ele>67</ele>
        <time>2022-09-25T07:56:25.970Z</time>
      </trkpt>
      <trkpt lat="48.71319" lon="2.50788">
        <ele>67</ele>
        <time>2022-09-25T07:56:29.986Z</time>
      </trkpt>
      <trkpt lat="48.71318" lon="2.50794">
        <ele>66</ele>
        <time>2022-09-25T07:56:33.995Z</time>
      </trkpt>
      <trkpt lat="48.71319" lon="2.508">
        <ele>66</ele>
        <time>2022-09-25T07:56:38.980Z</time>
      </trkpt>
      <trkpt lat="48.71317" lon="2.50808">
        <ele>66</ele>
        <time>2022-09-25T07:56:43.989Z</time>
      </trkpt>
      <trkpt lat="48.71317" lon="2.50813">
        <ele>66</ele>
        <time>2022-09-25T07:56:48.091Z</time>
      </trkpt>
      <trkpt lat="48.71316" lon="2.5082">
        <ele>65</ele>
        <time>2022-09-25T07:56:52.996Z</time>
      </trkpt>
      <trkpt lat="48.71315" lon="2.50827">
        <ele>65</ele>
        <time>2022-09-25T07:56:57.990Z</time>
      </trkpt>
      <trkpt lat="48.71317" lon="2.50834">
        <ele>65</ele>
        <time>2022-09-25T07:57:02.999Z</time>
      </trkpt>
      <trkpt lat="48.71319" lon="2.50843">
        <ele>65</ele>
        <time>2022-09-25T07:57:08.006Z</time>
      </trkpt>
      <trkpt lat="48.71318" lon="2.50851">
        <ele>63</ele>
        <time>2022-09-25T07:57:12.994Z</time>
      </trkpt>
      <trkpt lat="48.71318" lon="2.50859">
        <ele>63</ele>
        <time>2022-09-25T07:57:17.004Z</time>
      </trkpt>
      <trkpt lat="48.71318" lon="2.50869">
        <ele>63</ele>
        <time>2022-09-25T07:57:21.101Z</time>
      </trkpt>
      <trkpt lat="48.71318" lon="2.50877">
        <ele>61</ele>
        <time>2022-09-25T07:57:24.974Z</time>
      </trkpt>
      <trkpt lat="48.71318" lon="2.50884">
        <ele>61</ele>
        <time>2022-09-25T07:57:29.995Z</time>
      </trkpt>
      <trkpt lat="48.7132" lon="2.50892">
        <ele>65</ele>
        <time>2022-09-25T07:57:34.993Z</time>
      </trkpt>
      <trkpt lat="48.71321" lon="2.50899">
        <ele>65</ele>
        <time>2022-09-25T07:57:39.996Z</time>
      </trkpt>
      <trkpt lat="48.71323" lon="2.50908">
        <ele>64</ele>
        <time>2022-09-25T07:57:44.975Z</time>
      </trkpt>
      <trkpt lat="48.71325" lon="2.50919">
        <ele>64</ele>
        <time>2022-09-25T07:57:49.972Z</time>
      </trkpt>
      <trkpt lat="48.71325" lon="2.50927">
        <ele>64</ele>
        <time>2022-09-25T07:57:53.986Z</time>
      </trkpt>
      <trkpt lat="48.71325" lon="2.50936">
        <ele>63</ele>
        <time>2022-09-25T07:57:58.998Z</time>
      </trkpt>
      <trkpt lat="48.71323" lon="2.5095">
        <ele>63</ele>
        <time>2022-09-25T07:58:03.985Z</time>
      </trkpt>
      <trkpt lat="48.71324" lon="2.50962">
        <ele>63</ele>
        <time>2022-09-25T07:58:07.992Z</time>
      </trkpt>
      <trkpt lat="48.71324" lon="2.5097">
        <ele>63</ele>
        <time>2022-09-25T07:58:12Z</time>
      </trkpt>
      <trkpt lat="48.71323" lon="2.50978">
        <ele>63</ele>
        <time>2022-09-25T07:58:16.983Z</time>
      </trkpt>
      <trkpt lat="48.7132" lon="2.50983">
        <ele>63</ele>
        <time>2022-09-25T07:58:20.993Z</time>
      </trkpt>
      <trkpt lat="48.71317" lon="2.50991">
        <ele>61</ele>
        <time>2022-09-25T07:58:24.993Z</time>
      </trkpt>
      <trkpt lat="48.71314" lon="2.51001">
        <ele>61</ele>
        <time>2022-09-25T07:58:29.986Z</time>
      </trkpt>
      <trkpt lat="48.71312" lon="2.51008">
        <ele>61</ele>
        <time>2022-09-25T07:58:33.992Z</time>
      </trkpt>
      <trkpt lat="48.71309" lon="2.51017">
        <ele>61</ele>
        <time>2022-09-25T07:58:38.009Z</time>
      </trkpt>
      <trkpt lat="48.71305" lon="2.51028">
        <ele>61</ele>
        <time>2022-09-25T07:58:42.992Z</time>
      </trkpt>
      <trkpt lat="48.71305" lon="2.51039">
        <ele>61</ele>
        <time>2022-09-25T07:58:47.999Z</time>
      </trkpt>
      <trkpt lat="48.71305" lon="2.51047">
        <ele>61</ele>
        <time>2022-09-25T07:58:52.996Z</time>
      </trkpt>
      <trkpt lat="48.71305" lon="2.51055">
        <ele>61</ele>
        <time>2022-09-25T07:58:57.996Z</time>
      </trkpt>
      <trkpt lat="48.71305" lon="2.51064">
        <ele>61</ele>
        <time>2022-09-25T07:59:02.975Z</time>
      </trkpt>
      <trkpt lat="48.71308" lon="2.5107">
        <ele>60</ele>
        <time>2022-09-25T07:59:06.986Z</time>
      </trkpt>
      <trkpt lat="48.71311" lon="2.51075">
        <ele>60</ele>
        <time>2022-09-25T07:59:11.110Z</time>
      </trkpt>
      <trkpt lat="48.71315" lon="2.51081">
        <ele>60</ele>
        <time>2022-09-25T07:59:15.975Z</time>
      </trkpt>
      <trkpt lat="48.71322" lon="2.51086">
        <ele>65</ele>
        <time>2022-09-25T07:59:21.003Z</time>
      </trkpt>
      <trkpt lat="48.71328" lon="2.51087">
        <ele>65</ele>
        <time>2022-09-25T07:59:25.986Z</time>
      </trkpt>
      <trkpt lat="48.7133" lon="2.51092">
        <ele>65</ele>
        <time>2022-09-25T07:59:30.976Z</time>
      </trkpt>
      <trkpt lat="48.71333" lon="2.51098">
        <ele>66</ele>
        <time>2022-09-25T07:59:34.992Z</time>
      </trkpt>
      <trkpt lat="48.71336" lon="2.51105">
        <ele>66</ele>
        <time>2022-09-25T07:59:39.967Z</time>
      </trkpt>
      <trkpt lat="48.71338" lon="2.5111">
        <ele>66</ele>
        <time>2022-09-25T07:59:43.997Z</time>
      </trkpt>
      <trkpt lat="48.71342" lon="2.51115">
        <ele>66</ele>
        <time>2022-09-25T07:59:48.962Z</time>
      </trkpt>
      <trkpt lat="48.71346" lon="2.51119">
        <ele>66</ele>
        <time>2022-09-25T07:59:53.985Z</time>
      </trkpt>
      <trkpt lat="48.71349" lon="2.51122">
        <ele>69</ele>
        <time>2022-09-25T07:59:58.975Z</time>
      </trkpt>
      <trkpt lat="48.71351" lon="2.51128">
        <ele>71</ele>
        <time>2022-09-25T08:00:02.992Z</time>
      </trkpt>
      <trkpt lat="48.71354" lon="2.51136">
        <ele>71</ele>
        <time>2022-09-25T08:00:07.984Z</time>
      </trkpt>
      <trkpt lat="48.71353" lon="2.51142">
        <ele>71</ele>
        <time>2022-09-25T08:00:12.988Z</time>
      </trkpt>
      <trkpt lat="48.71352" lon="2.51151">
        <ele>71</ele>
        <time>2022-09-25T08:00:17.988Z</time>
      </trkpt>
      <trkpt lat="48.71351" lon="2.51159">
        <ele>70</ele>
        <time>2022-09-25T08:00:22.987Z</time>
      </trkpt>
      <trkpt lat="48.71352" lon="2.51167">
        <ele>70</ele>
        <time>2022-09-25T08:00:27.986Z</time>
      </trkpt>
      <trkpt lat="48.71354" lon="2.51175">
        <ele>70</ele>
        <time>2022-09-25T08:00:32.985Z</time>
      </trkpt>
      <trkpt lat="48.71356" lon="2.51183">
        <ele>70</ele>
        <time>2022-09-25T08:00:37.999Z</time>
      </trkpt>
      <trkpt lat="48.71356" lon="2.51192">
        <ele>70</ele>
        <time>2022-09-25T08:00:42.996Z</time>
      </trkpt>
      <trkpt lat="48.71358" lon="2.512">
        <ele>70</ele>
        <time>2022-09-25T08:00:47.973Z</time>
      </trkpt>
      <trkpt lat="48.71359" lon="2.51208">
        <ele>70</ele>
        <time>2022-09-25T08:00:52.085Z</time>
      </trkpt>
      <trkpt lat="48.71362" lon="2.51218">
        <ele>71</ele>
        <time>2022-09-25T08:00:57.052Z</time>
      </trkpt>
      <trkpt lat="48.71365" lon="2.51225">
        <ele>71</ele>
        <time>2022-09-25T08:01:01.986Z</time>
      </trkpt>
      <trkpt lat="48.7137" lon="2.51233">
        <ele>71</ele>
        <time>2022-09-25T08:01:06.989Z</time>
      </trkpt>
      <trkpt lat="48.71373" lon="2.51241">
        <ele>72</ele>
        <time>2022-09-25T08:01:11.982Z</time>
      </trkpt>
      <trkpt lat="48.71376" lon="2.51247">
        <ele>74</ele>
        <time>2022-09-25T08:01:16.991Z</time>
      </trkpt>
      <trkpt lat="48.7138" lon="2.51252">
        <ele>74</ele>
        <time>2022-09-25T08:01:22.010Z</time>
      </trkpt>
      <trkpt lat="48.71382" lon="2.51256">
        <ele>74</ele>
        <time>2022-09-25T08:01:26.112Z</time>
      </trkpt>
      <trkpt lat="48.71384" lon="2.51262">
        <ele>74</ele>
        <time>2022-09-25T08:01:30.974Z</time>
      </trkpt>
      <trkpt lat="48.71384" lon="2.51271">
        <ele>74</ele>
        <time>2022-09-25T08:01:36.003Z</time>
      </trkpt>
      <trkpt lat="48.71385" lon="2.5128">
        <ele>74</ele>
        <time>2022-09-25T08:01:40.998Z</time>
      </trkpt>
      <trkpt lat="48.71386" lon="2.51285">
        <ele>74</ele>
        <time>2022-09-25T08:01:45.008Z</time>
      </trkpt>
      <trkpt lat="48.71385" lon="2.51292">
        <ele>75</ele>
        <time>2022-09-25T08:01:50.010Z</time>
      </trkpt>
      <trkpt lat="48.71384" lon="2.51299">
        <ele>75</ele>
        <time>2022-09-25T08:01:54.994Z</time>
      </trkpt>
      <trkpt lat="48.71383" lon="2.51308">
        <ele>75</ele>
        <time>2022-09-25T08:01:59.985Z</time>
      </trkpt>
      <trkpt lat="48.71385" lon="2.51316">
        <ele>75</ele>
        <time>2022-09-25T08:02:04.963Z</time>
      </trkpt>
      <trkpt lat="48.71387" lon="2.51321">
        <ele>76</ele>
        <time>2022-09-25T08:02:08.995Z</time>
      </trkpt>
      <trkpt lat="48.71386" lon="2.5133">
        <ele>76</ele>
        <time>2022-09-25T08:02:14.002Z</time>
      </trkpt>
      <trkpt lat="48.71388" lon="2.51341">
        <ele>76</ele>
        <time>2022-09-25T08:02:18.993Z</time>
      </trkpt>
      <trkpt lat="48.7139" lon="2.51349">
        <ele>76</ele>
        <time>2022-09-25T08:02:24.143Z</time>
      </trkpt>
      <trkpt lat="48.71393" lon="2.51357">
        <ele>76</ele>
        <time>2022-09-25T08:02:28.994Z</time>
      </trkpt>
      <trkpt lat="48.71397" lon="2.51362">
        <ele>76</ele>
        <time>2022-09-25T08:02:33.977Z</time>
      </trkpt>
      <trkpt lat="48.71398" lon="2.5137">
        <ele>76</ele>
        <time>2022-09-25T08:02:38.992Z</time>
      </trkpt>
      <trkpt lat="48.71398" lon="2.51376">
        <ele>76</ele>
        <time>2022-09-25T08:02:42.974Z</time>
      </trkpt>
      <trkpt lat="48.714" lon="2.51384">
        <ele>76</ele>
        <time>2022-09-25T08:02:47.995Z</time>
      </trkpt>
      <trkpt lat="48.71399" lon="2.51392">
        <ele>76</ele>
        <time>2022-09-25T08:02:52.953Z</time>
      </trkpt>
      <trkpt lat="48.714" lon="2.51398">
        <ele>76</ele>
        <time>2022-09-25T08:02:56.982Z</time>
      </trkpt>
      <trkpt lat="48.71405" lon="2.51406">
        <ele>78</ele>
        <time>2022-09-25T08:03:01.991Z</time>
      </trkpt>
      <trkpt lat="48.71411" lon="2.51413">
        <ele>78</ele>
        <time>2022-09-25T08:03:06.978Z</time>
      </trkpt>
      <trkpt lat="48.71416" lon="2.51419">
        <ele>78</ele>
        <time>2022-09-25T08:03:11.993Z</time>
      </trkpt>
      <trkpt lat="48.71418" lon="2.51423">
        <ele>78</ele>
        <time>2022-09-25T08:03:16.987Z</time>
      </trkpt>
      <trkpt lat="48.7142" lon="2.51426">
        <ele>78</ele>
        <time>2022-09-25T08:03:21.990Z</time>
      </trkpt>
      <trkpt lat="48.71419" lon="2.51429">
        <ele>78</ele>
        <time>2022-09-25T08:03:25.996Z</time>
      </trkpt>
      <trkpt lat="48.71419" lon="2.51437">
        <ele>77</ele>
        <time>2022-09-25T08:03:31.113Z</time>
      </trkpt>
      <trkpt lat="48.71421" lon="2.51446">
        <ele>77</ele>
        <time>2022-09-25T08:03:35.974Z</time>
      </trkpt>
      <trkpt lat="48.71424" lon="2.51456">
        <ele>77</ele>
        <time>2022-09-25T08:03:41Z</time>
      </trkpt>
      <trkpt lat="48.7143" lon="2.51461">
        <ele>77</ele>
        <time>2022-09-25T08:03:45.985Z</time>
      </trkpt>
      <trkpt lat="48.71433" lon="2.51468">
        <ele>78</ele>
        <time>2022-09-25T08:03:50.995Z</time>
      </trkpt>
      <trkpt lat="48.71436" lon="2.51476">
        <ele>78</ele>
        <time>2022-09-25T08:03:55.982Z</time>
      </trkpt>
      <trkpt lat="48.71438" lon="2.51483">
        <ele>78</ele>
        <time>2022-09-25T08:04:00.007Z</time>
      </trkpt>
      <trkpt lat="48.71439" lon="2.5149">
        <ele>78</ele>
        <time>2022-09-25T08:04:04.979Z</time>
      </trkpt>
      <trkpt lat="48.71444" lon="2.51498">
        <ele>78</ele>
        <time>2022-09-25T08:04:09.977Z</time>
      </trkpt>
      <trkpt lat="48.71447" lon="2.51504">
        <ele>78</ele>
        <time>2022-09-25T08:04:14.994Z</time>
      </trkpt>
      <trkpt lat="48.7145" lon="2.5151">
        <ele>78</ele>
        <time>2022-09-25T08:04:19.991Z</time>
      </trkpt>
      <trkpt lat="48.71451" lon="2.51518">
        <ele>78</ele>
        <time>2022-09-25T08:04:25.004Z</time>
      </trkpt>
      <trkpt lat="48.7145" lon="2.51521">
        <ele>78</ele>
        <time>2022-09-25T08:04:30.003Z</time>
      </trkpt>
      <trkpt lat="48.71447" lon="2.51527">
        <ele>78</ele>
        <time>2022-09-25T08:04:34.982Z</time>
      </trkpt>
      <trkpt lat="48.71446" lon="2.51535">
        <ele>78</ele>
        <time>2022-09-25T08:04:40.005Z</time>
      </trkpt>
      <trkpt lat="48.71442" lon="2.51539">
        <ele>78</ele>
        <time>2022-09-25T08:04:44.997Z</time>
      </trkpt>
      <trkpt lat="48.71439" lon="2.51544">
        <ele>77</ele>
        <time>2022-09-25T08:04:49.991Z</time>
      </trkpt>
      <trkpt lat="48.71437" lon="2.51548">
        <ele>77</ele>
        <time>2022-09-25T08:04:54.014Z</time>
      </trkpt>
      <trkpt lat="48.71431" lon="2.51551">
        <ele>77</ele>
        <time>2022-09-25T08:04:58.992Z</time>
      </trkpt>
      <trkpt lat="48.71426" lon="2.51554">
        <ele>75</ele>
        <time>2022-09-25T08:05:04.105Z</time>
      </trkpt>
      <trkpt lat="48.71425" lon="2.51562">
        <ele>75</ele>
        <time>2022-09-25T08:05:09.002Z</time>
      </trkpt>
      <trkpt lat="48.71422" lon="2.51565">
        <ele>75</ele>
        <time>2022-09-25T08:05:13.080Z</time>
      </trkpt>
      <trkpt lat="48.71418" lon="2.51571">
        <ele>75</ele>
        <time>2022-09-25T08:05:17.976Z</time>
      </trkpt>
      <trkpt lat="48.71415" lon="2.51578">
        <ele>75</ele>
        <time>2022-09-25T08:05:21.989Z</time>
      </trkpt>
      <trkpt lat="48.71413" lon="2.51585">
        <ele>75</ele>
        <time>2022-09-25T08:05:25.998Z</time>
      </trkpt>
      <trkpt lat="48.71414" lon="2.51591">
        <ele>75</ele>
        <time>2022-09-25T08:05:30.951Z</time>
      </trkpt>
      <trkpt lat="48.71417" lon="2.51597">
        <ele>75</ele>
        <time>2022-09-25T08:05:34.953Z</time>
      </trkpt>
      <trkpt lat="48.7142" lon="2.51603">
        <ele>74</ele>
        <time>2022-09-25T08:05:39.964Z</time>
      </trkpt>
      <trkpt lat="48.71422" lon="2.51613">
        <ele>74</ele>
        <time>2022-09-25T08:05:44.949Z</time>
      </trkpt>
      <trkpt lat="48.71422" lon="2.5162">
        <ele>74</ele>
        <time>2022-09-25T08:05:48.963Z</time>
      </trkpt>
      <trkpt lat="48.71422" lon="2.51627">
        <ele>72</ele>
        <time>2022-09-25T08:05:53.940Z</time>
      </trkpt>
      <trkpt lat="48.71422" lon="2.51632">
        <ele>72</ele>
        <time>2022-09-25T08:05:57.961Z</time>
      </trkpt>
      <trkpt lat="48.71426" lon="2.51639">
        <ele>72</ele>
        <time>2022-09-25T08:06:02.946Z</time>
      </trkpt>
      <trkpt lat="48.71429" lon="2.51646">
        <ele>72</ele>
        <time>2022-09-25T08:06:06.961Z</time>
      </trkpt>
      <trkpt lat="48.71433" lon="2.51653">
        <ele>72</ele>
        <time>2022-09-25T08:06:11.944Z</time>
      </trkpt>
      <trkpt lat="48.71437" lon="2.51656">
        <ele>72</ele>
        <time>2022-09-25T08:06:15.948Z</time>
      </trkpt>
      <trkpt lat="48.71443" lon="2.5166">
        <ele>72</ele>
        <time>2022-09-25T08:06:20.950Z</time>
      </trkpt>
      <trkpt lat="48.71447" lon="2.51657">
        <ele>72</ele>
        <time>2022-09-25T08:06:25.950Z</time>
      </trkpt>
      <trkpt lat="48.71451" lon="2.51652">
        <ele>75</ele>
        <time>2022-09-25T08:06:29.960Z</time>
      </trkpt>
      <trkpt lat="48.71457" lon="2.51648">
        <ele>75</ele>
        <time>2022-09-25T08:06:34.964Z</time>
      </trkpt>
      <trkpt lat="48.7146" lon="2.51643">
        <ele>75</ele>
        <time>2022-09-25T08:06:39.943Z</time>
      </trkpt>
      <trkpt lat="48.71463" lon="2.51637">
        <ele>75</ele>
        <time>2022-09-25T08:06:44.942Z</time>
      </trkpt>
      <trkpt lat="48.71465" lon="2.51632">
        <ele>75</ele>
        <time>2022-09-25T08:06:48.961Z</time>
      </trkpt>
      <trkpt lat="48.71469" lon="2.51627">
        <ele>75</ele>
        <time>2022-09-25T08:06:53.944Z</time>
      </trkpt>
      <trkpt lat="48.71473" lon="2.51624">
        <ele>77</ele>
        <time>2022-09-25T08:06:57.969Z</time>
      </trkpt>
      <trkpt lat="48.71477" lon="2.51622">
        <ele>77</ele>
        <time>2022-09-25T08:07:02.946Z</time>
      </trkpt>
      <trkpt lat="48.7148" lon="2.51617">
        <ele>77</ele>
        <time>2022-09-25T08:07:06.957Z</time>
      </trkpt>
      <trkpt lat="48.71484" lon="2.51612">
        <ele>77</ele>
        <time>2022-09-25T08:07:11.939Z</time>
      </trkpt>
      <trkpt lat="48.71488" lon="2.51606">
        <ele>77</ele>
        <time>2022-09-25T08:07:15.961Z</time>
      </trkpt>
      <trkpt lat="48.71493" lon="2.51601">
        <ele>77</ele>
        <time>2022-09-25T08:07:20.959Z</time>
      </trkpt>
      <trkpt lat="48.71495" lon="2.51597">
        <ele>79</ele>
        <time>2022-09-25T08:07:24.981Z</time>
      </trkpt>
      <trkpt lat="48.71498" lon="2.51593">
        <ele>79</ele>
        <time>2022-09-25T08:07:28.976Z</time>
      </trkpt>
      <trkpt lat="48.71503" lon="2.51591">
        <ele>79</ele>
        <time>2022-09-25T08:07:33.975Z</time>
      </trkpt>
      <trkpt lat="48.71515" lon="2.51578">
        <ele>79</ele>
        <time>2022-09-25T08:07:56.976Z</time>
      </trkpt>
      <trkpt lat="48.71518" lon="2.51578">
        <ele>79</ele>
        <time>2022-09-25T08:08:01.967Z</time>
      </trkpt>
      <trkpt lat="48.7152" lon="2.51579">
        <ele>79</ele>
        <time>2022-09-25T08:08:05.982Z</time>
      </trkpt>
      <trkpt lat="48.71526" lon="2.51579">
        <ele>79</ele>
        <time>2022-09-25T08:08:10.982Z</time>
      </trkpt>
      <trkpt lat="48.71529" lon="2.51581">
        <ele>79</ele>
        <time>2022-09-25T08:08:14.991Z</time>
      </trkpt>
      <trkpt lat="48.71533" lon="2.51585">
        <ele>79</ele>
        <time>2022-09-25T08:08:19Z</time>
      </trkpt>
      <trkpt lat="48.71539" lon="2.51593">
        <ele>79</ele>
        <time>2022-09-25T08:08:23.988Z</time>
      </trkpt>
      <trkpt lat="48.71544" lon="2.51592">
        <ele>79</ele>
        <time>2022-09-25T08:08:28.969Z</time>
      </trkpt>
      <trkpt lat="48.71549" lon="2.51592">
        <ele>79</ele>
        <time>2022-09-25T08:08:32.976Z</time>
      </trkpt>
      <trkpt lat="48.71554" lon="2.51594">
        <ele>79</ele>
        <time>2022-09-25T08:08:36.981Z</time>
      </trkpt>
      <trkpt lat="48.7156" lon="2.51594">
        <ele>79</ele>
        <time>2022-09-25T08:08:41.972Z</time>
      </trkpt>
      <trkpt lat="48.71566" lon="2.51591">
        <ele>79</ele>
        <time>2022-09-25T08:08:46.956Z</time>
      </trkpt>
      <trkpt lat="48.71572" lon="2.51588">
        <ele>80</ele>
        <time>2022-09-25T08:08:51.964Z</time>
      </trkpt>
      <trkpt lat="48.71575" lon="2.51584">
        <ele>80</ele>
        <time>2022-09-25T08:08:55.979Z</time>
      </trkpt>
      <trkpt lat="48.71579" lon="2.5158">
        <ele>80</ele>
        <time>2022-09-25T08:08:59.996Z</time>
      </trkpt>
      <trkpt lat="48.71584" lon="2.51577">
        <ele>80</ele>
        <time>2022-09-25T08:09:04.965Z</time>
      </trkpt>
      <trkpt lat="48.7159" lon="2.51576">
        <ele>80</ele>
        <time>2022-09-25T08:09:09.975Z</time>
      </trkpt>
      <trkpt lat="48.71595" lon="2.5158">
        <ele>80</ele>
        <time>2022-09-25T08:09:14.976Z</time>
      </trkpt>
      <trkpt lat="48.71599" lon="2.51583">
        <ele>80</ele>
        <time>2022-09-25T08:09:18.984Z</time>
      </trkpt>
      <trkpt lat="48.71601" lon="2.51592">
        <ele>80</ele>
        <time>2022-09-25T08:09:23.983Z</time>
      </trkpt>
      <trkpt lat="48.71603" lon="2.51597">
        <ele>80</ele>
        <time>2022-09-25T08:09:27.986Z</time>
      </trkpt>
      <trkpt lat="48.71606" lon="2.51603">
        <ele>81</ele>
        <time>2022-09-25T08:09:32.973Z</time>
      </trkpt>
      <trkpt lat="48.71606" lon="2.51612">
        <ele>81</ele>
        <time>2022-09-25T08:09:37.974Z</time>
      </trkpt>
      <trkpt lat="48.71609" lon="2.51618">
        <ele>81</ele>
        <time>2022-09-25T08:09:41.977Z</time>
      </trkpt>
      <trkpt lat="48.71612" lon="2.51623">
        <ele>81</ele>
        <time>2022-09-25T08:09:45.978Z</time>
      </trkpt>
      <trkpt lat="48.71616" lon="2.51628">
        <ele>82</ele>
        <time>2022-09-25T08:09:49.997Z</time>
      </trkpt>
      <trkpt lat="48.71621" lon="2.51632">
        <ele>82</ele>
        <time>2022-09-25T08:09:54.963Z</time>
      </trkpt>
      <trkpt lat="48.71624" lon="2.51638">
        <ele>82</ele>
        <time>2022-09-25T08:09:58.986Z</time>
      </trkpt>
      <trkpt lat="48.71627" lon="2.51646">
        <ele>81</ele>
        <time>2022-09-25T08:10:03.993Z</time>
      </trkpt>
      <trkpt lat="48.7163" lon="2.51652">
        <ele>81</ele>
        <time>2022-09-25T08:10:08.963Z</time>
      </trkpt>
      <trkpt lat="48.71631" lon="2.51657">
        <ele>82</ele>
        <time>2022-09-25T08:10:12.968Z</time>
      </trkpt>
      <trkpt lat="48.7163" lon="2.51665">
        <ele>82</ele>
        <time>2022-09-25T08:10:17.974Z</time>
      </trkpt>
      <trkpt lat="48.7163" lon="2.51672">
        <ele>82</ele>
        <time>2022-09-25T08:10:21.978Z</time>
      </trkpt>
      <trkpt lat="48.71632" lon="2.51681">
        <ele>84</ele>
        <time>2022-09-25T08:10:26.970Z</time>
      </trkpt>
      <trkpt lat="48.71633" lon="2.51689">
        <ele>84</ele>
        <time>2022-09-25T08:10:31.986Z</time>
      </trkpt>
      <trkpt lat="48.71632" lon="2.51698">
        <ele>84</ele>
        <time>2022-09-25T08:10:36.979Z</time>
      </trkpt>
      <trkpt lat="48.71634" lon="2.51705">
        <ele>84</ele>
        <time>2022-09-25T08:10:41.967Z</time>
      </trkpt>
      <trkpt lat="48.71637" lon="2.51711">
        <ele>85</ele>
        <time>2022-09-25T08:10:46.980Z</time>
      </trkpt>
      <trkpt lat="48.71641" lon="2.51718">
        <ele>85</ele>
        <time>2022-09-25T08:10:51.998Z</time>
      </trkpt>
      <trkpt lat="48.71644" lon="2.51723">
        <ele>85</ele>
        <time>2022-09-25T08:10:56.980Z</time>
      </trkpt>
      <trkpt lat="48.71647" lon="2.51728">
        <ele>85</ele>
        <time>2022-09-25T08:11:00.989Z</time>
      </trkpt>
      <trkpt lat="48.71651" lon="2.51736">
        <ele>85</ele>
        <time>2022-09-25T08:11:05.978Z</time>
      </trkpt>
      <trkpt lat="48.71654" lon="2.51742">
        <ele>87</ele>
        <time>2022-09-25T08:11:09.987Z</time>
      </trkpt>
      <trkpt lat="48.71659" lon="2.51746">
        <ele>87</ele>
        <time>2022-09-25T08:11:14.969Z</time>
      </trkpt>
      <trkpt lat="48.71661" lon="2.5175">
        <ele>87</ele>
        <time>2022-09-25T08:11:18.971Z</time>
      </trkpt>
      <trkpt lat="48.71663" lon="2.51755">
        <ele>87</ele>
        <time>2022-09-25T08:11:23.995Z</time>
      </trkpt>
      <trkpt lat="48.7167" lon="2.51761">
        <ele>87</ele>
        <time>2022-09-25T08:11:28.976Z</time>
      </trkpt>
      <trkpt lat="48.71673" lon="2.51766">
        <ele>87</ele>
        <time>2022-09-25T08:11:32.973Z</time>
      </trkpt>
      <trkpt lat="48.71673" lon="2.51771">
        <ele>87</ele>
        <time>2022-09-25T08:11:36.988Z</time>
      </trkpt>
      <trkpt lat="48.7168" lon="2.5178">
        <ele>87</ele>
        <time>2022-09-25T08:13:53.985Z</time>
      </trkpt>
      <trkpt lat="48.71681" lon="2.51778">
        <ele>87</ele>
        <time>2022-09-25T08:13:58.985Z</time>
      </trkpt>
      <trkpt lat="48.71683" lon="2.51776">
        <ele>87</ele>
        <time>2022-09-25T08:14:03.963Z</time>
      </trkpt>
      <trkpt lat="48.71683" lon="2.51777">
        <ele>87</ele>
        <time>2022-09-25T08:14:08.983Z</time>
      </trkpt>
      <trkpt lat="48.71683" lon="2.51776">
        <ele>87</ele>
        <time>2022-09-25T08:14:13.962Z</time>
      </trkpt>
      <trkpt lat="48.71683" lon="2.51776">
        <ele>87</ele>
        <time>2022-09-25T08:14:18.943Z</time>
      </trkpt>
      <trkpt lat="48.71683" lon="2.51774">
        <ele>87</ele>
        <time>2022-09-25T08:14:23.941Z</time>
      </trkpt>
      <trkpt lat="48.71682" lon="2.51772">
        <ele>87</ele>
        <time>2022-09-25T08:14:28.931Z</time>
      </trkpt>
      <trkpt lat="48.71724" lon="2.51689">
        <ele>88</ele>
        <time>2022-09-25T08:14:33.938Z</time>
      </trkpt>
      <trkpt lat="48.71721" lon="2.51633">
        <ele>89</ele>
        <time>2022-09-25T08:14:38.940Z</time>
      </trkpt>
      <trkpt lat="48.71712" lon="2.51657">
        <ele>88</ele>
        <time>2022-09-25T08:14:42.943Z</time>
      </trkpt>
      <trkpt lat="48.71692" lon="2.51751">
        <ele>87</ele>
        <time>2022-09-25T08:14:47.969Z</time>
      </trkpt>
      <trkpt lat="48.71686" lon="2.51767">
        <ele>87</ele>
        <time>2022-09-25T08:14:52.938Z</time>
      </trkpt>
      <trkpt lat="48.71686" lon="2.51774">
        <ele>87</ele>
        <time>2022-09-25T08:15:41.952Z</time>
      </trkpt>
      <trkpt lat="48.71687" lon="2.51777">
        <ele>87</ele>
        <time>2022-09-25T08:15:45.981Z</time>
      </trkpt>
      <trkpt lat="48.71686" lon="2.51782">
        <ele>87</ele>
        <time>2022-09-25T08:15:49.985Z</time>
      </trkpt>
      <trkpt lat="48.71688" lon="2.51783">
        <ele>87</ele>
        <time>2022-09-25T08:15:53.991Z</time>
      </trkpt>
      <trkpt lat="48.71693" lon="2.51786">
        <ele>87</ele>
        <time>2022-09-25T08:15:58.981Z</time>
      </trkpt>
      <trkpt lat="48.71696" lon="2.51791">
        <ele>87</ele>
        <time>2022-09-25T08:16:03.967Z</time>
      </trkpt>
      <trkpt lat="48.71698" lon="2.51798">
        <ele>86</ele>
        <time>2022-09-25T08:16:07.988Z</time>
      </trkpt>
      <trkpt lat="48.71699" lon="2.51805">
        <ele>86</ele>
        <time>2022-09-25T08:16:12.972Z</time>
      </trkpt>
      <trkpt lat="48.71701" lon="2.51812">
        <ele>86</ele>
        <time>2022-09-25T08:16:16.970Z</time>
      </trkpt>
      <trkpt lat="48.71703" lon="2.5182">
        <ele>85</ele>
        <time>2022-09-25T08:16:21.973Z</time>
      </trkpt>
      <trkpt lat="48.71704" lon="2.51832">
        <ele>85</ele>
        <time>2022-09-25T08:16:26.947Z</time>
      </trkpt>
      <trkpt lat="48.71705" lon="2.51838">
        <ele>85</ele>
        <time>2022-09-25T08:16:30.959Z</time>
      </trkpt>
      <trkpt lat="48.71708" lon="2.51846">
        <ele>85</ele>
        <time>2022-09-25T08:16:34.977Z</time>
      </trkpt>
      <trkpt lat="48.7171" lon="2.51854">
        <ele>84</ele>
        <time>2022-09-25T08:16:39.981Z</time>
      </trkpt>
      <trkpt lat="48.71711" lon="2.5186">
        <ele>84</ele>
        <time>2022-09-25T08:16:43.990Z</time>
      </trkpt>
      <trkpt lat="48.71712" lon="2.51868">
        <ele>84</ele>
        <time>2022-09-25T08:16:48.971Z</time>
      </trkpt>
      <trkpt lat="48.71714" lon="2.51874">
        <ele>84</ele>
        <time>2022-09-25T08:16:52.990Z</time>
      </trkpt>
      <trkpt lat="48.71717" lon="2.51881">
        <ele>85</ele>
        <time>2022-09-25T08:16:57.990Z</time>
      </trkpt>
      <trkpt lat="48.7172" lon="2.51888">
        <ele>85</ele>
        <time>2022-09-25T08:17:02.977Z</time>
      </trkpt>
      <trkpt lat="48.71723" lon="2.51895">
        <ele>85</ele>
        <time>2022-09-25T08:17:07.965Z</time>
      </trkpt>
      <trkpt lat="48.71725" lon="2.51904">
        <ele>85</ele>
        <time>2022-09-25T08:17:11.991Z</time>
      </trkpt>
      <trkpt lat="48.71729" lon="2.51913">
        <ele>85</ele>
        <time>2022-09-25T08:17:16.987Z</time>
      </trkpt>
      <trkpt lat="48.71732" lon="2.51921">
        <ele>85</ele>
        <time>2022-09-25T08:17:21.974Z</time>
      </trkpt>
      <trkpt lat="48.71734" lon="2.51927">
        <ele>85</ele>
        <time>2022-09-25T08:17:26.984Z</time>
      </trkpt>
      <trkpt lat="48.71735" lon="2.51937">
        <ele>86</ele>
        <time>2022-09-25T08:17:31.981Z</time>
      </trkpt>
      <trkpt lat="48.71738" lon="2.51946">
        <ele>88</ele>
        <time>2022-09-25T08:17:36.968Z</time>
      </trkpt>
      <trkpt lat="48.71738" lon="2.51954">
        <ele>88</ele>
        <time>2022-09-25T08:17:40.984Z</time>
      </trkpt>
      <trkpt lat="48.71739" lon="2.51965">
        <ele>88</ele>
        <time>2022-09-25T08:17:45.971Z</time>
      </trkpt>
      <trkpt lat="48.71741" lon="2.51974">
        <ele>88</ele>
        <time>2022-09-25T08:17:50.978Z</time>
      </trkpt>
      <trkpt lat="48.71742" lon="2.51983">
        <ele>88</ele>
        <time>2022-09-25T08:17:55.958Z</time>
      </trkpt>
      <trkpt lat="48.71742" lon="2.51992">
        <ele>87</ele>
        <time>2022-09-25T08:17:59.970Z</time>
      </trkpt>
      <trkpt lat="48.71743" lon="2.51999">
        <ele>87</ele>
        <time>2022-09-25T08:18:03.981Z</time>
      </trkpt>
      <trkpt lat="48.71741" lon="2.52006">
        <ele>87</ele>
        <time>2022-09-25T08:18:07.983Z</time>
      </trkpt>
      <trkpt lat="48.71742" lon="2.52014">
        <ele>86</ele>
        <time>2022-09-25T08:18:12.974Z</time>
      </trkpt>
      <trkpt lat="48.71743" lon="2.52021">
        <ele>86</ele>
        <time>2022-09-25T08:18:16.987Z</time>
      </trkpt>
      <trkpt lat="48.71747" lon="2.52031">
        <ele>86</ele>
        <time>2022-09-25T08:18:21.974Z</time>
      </trkpt>
      <trkpt lat="48.7175" lon="2.5204">
        <ele>86</ele>
        <time>2022-09-25T08:18:26.971Z</time>
      </trkpt>
      <trkpt lat="48.71749" lon="2.52047">
        <ele>86</ele>
        <time>2022-09-25T08:18:30.990Z</time>
      </trkpt>
      <trkpt lat="48.71752" lon="2.52056">
        <ele>86</ele>
        <time>2022-09-25T08:18:35.991Z</time>
      </trkpt>
      <trkpt lat="48.71753" lon="2.52062">
        <ele>86</ele>
        <time>2022-09-25T08:18:40.966Z</time>
      </trkpt>
      <trkpt lat="48.71749" lon="2.52068">
        <ele>86</ele>
        <time>2022-09-25T08:18:45.987Z</time>
      </trkpt>
      <trkpt lat="48.71747" lon="2.52072">
        <ele>87</ele>
        <time>2022-09-25T08:18:50.985Z</time>
      </trkpt>
      <trkpt lat="48.71743" lon="2.52079">
        <ele>87</ele>
        <time>2022-09-25T08:18:55.965Z</time>
      </trkpt>
      <trkpt lat="48.71739" lon="2.52086">
        <ele>87</ele>
        <time>2022-09-25T08:18:59.983Z</time>
      </trkpt>
      <trkpt lat="48.71734" lon="2.5209">
        <ele>86</ele>
        <time>2022-09-25T08:19:04.967Z</time>
      </trkpt>
      <trkpt lat="48.71729" lon="2.52093">
        <ele>86</ele>
        <time>2022-09-25T08:19:09.973Z</time>
      </trkpt>
      <trkpt lat="48.71726" lon="2.52096">
        <ele>86</ele>
        <time>2022-09-25T08:19:13.986Z</time>
      </trkpt>
      <trkpt lat="48.7172" lon="2.52099">
        <ele>86</ele>
        <time>2022-09-25T08:19:18.981Z</time>
      </trkpt>
      <trkpt lat="48.71712" lon="2.52099">
        <ele>86</ele>
        <time>2022-09-25T08:19:23.985Z</time>
      </trkpt>
      <trkpt lat="48.71707" lon="2.52098">
        <ele>84</ele>
        <time>2022-09-25T08:19:28.967Z</time>
      </trkpt>
      <trkpt lat="48.71702" lon="2.521">
        <ele>84</ele>
        <time>2022-09-25T08:19:32.977Z</time>
      </trkpt>
      <trkpt lat="48.71698" lon="2.52102">
        <ele>84</ele>
        <time>2022-09-25T08:19:36.976Z</time>
      </trkpt>
      <trkpt lat="48.71691" lon="2.52104">
        <ele>84</ele>
        <time>2022-09-25T08:19:41.990Z</time>
      </trkpt>
      <trkpt lat="48.71686" lon="2.52105">
        <ele>84</ele>
        <time>2022-09-25T08:19:46.965Z</time>
      </trkpt>
      <trkpt lat="48.71679" lon="2.52107">
        <ele>81</ele>
        <time>2022-09-25T08:19:51.972Z</time>
      </trkpt>
      <trkpt lat="48.71671" lon="2.52109">
        <ele>81</ele>
        <time>2022-09-25T08:19:56.979Z</time>
      </trkpt>
      <trkpt lat="48.71665" lon="2.52114">
        <ele>81</ele>
        <time>2022-09-25T08:20:01.977Z</time>
      </trkpt>
      <trkpt lat="48.71663" lon="2.52114">
        <ele>81</ele>
        <time>2022-09-25T08:20:05.982Z</time>
      </trkpt>
      <trkpt lat="48.71657" lon="2.52116">
        <ele>81</ele>
        <time>2022-09-25T08:20:10.973Z</time>
      </trkpt>
      <trkpt lat="48.71653" lon="2.52119">
        <ele>80</ele>
        <time>2022-09-25T08:20:14.999Z</time>
      </trkpt>
      <trkpt lat="48.71646" lon="2.52121">
        <ele>80</ele>
        <time>2022-09-25T08:20:19.993Z</time>
      </trkpt>
      <trkpt lat="48.71641" lon="2.52124">
        <ele>80</ele>
        <time>2022-09-25T08:20:24.982Z</time>
      </trkpt>
      <trkpt lat="48.71635" lon="2.52125">
        <ele>78</ele>
        <time>2022-09-25T08:20:29.983Z</time>
      </trkpt>
      <trkpt lat="48.7163" lon="2.52124">
        <ele>80</ele>
        <time>2022-09-25T08:20:34.969Z</time>
      </trkpt>
      <trkpt lat="48.71625" lon="2.52124">
        <ele>77</ele>
        <time>2022-09-25T08:20:39.973Z</time>
      </trkpt>
      <trkpt lat="48.71621" lon="2.52125">
        <ele>75</ele>
        <time>2022-09-25T08:20:43.980Z</time>
      </trkpt>
      <trkpt lat="48.71616" lon="2.52126">
        <ele>75</ele>
        <time>2022-09-25T08:20:48.994Z</time>
      </trkpt>
      <trkpt lat="48.71612" lon="2.52126">
        <ele>75</ele>
        <time>2022-09-25T08:20:53.985Z</time>
      </trkpt>
      <trkpt lat="48.71606" lon="2.52129">
        <ele>75</ele>
        <time>2022-09-25T08:20:58.970Z</time>
      </trkpt>
      <trkpt lat="48.716" lon="2.52129">
        <ele>75</ele>
        <time>2022-09-25T08:21:02.983Z</time>
      </trkpt>
      <trkpt lat="48.71594" lon="2.52133">
        <ele>71</ele>
        <time>2022-09-25T08:21:07.974Z</time>
      </trkpt>
      <trkpt lat="48.71589" lon="2.52137">
        <ele>71</ele>
        <time>2022-09-25T08:21:12.964Z</time>
      </trkpt>
      <trkpt lat="48.71586" lon="2.5214">
        <ele>71</ele>
        <time>2022-09-25T08:21:17.969Z</time>
      </trkpt>
      <trkpt lat="48.71582" lon="2.52141">
        <ele>71</ele>
        <time>2022-09-25T08:21:22.963Z</time>
      </trkpt>
      <trkpt lat="48.71577" lon="2.52142">
        <ele>71</ele>
        <time>2022-09-25T08:21:26.976Z</time>
      </trkpt>
      <trkpt lat="48.71572" lon="2.52142">
        <ele>71</ele>
        <time>2022-09-25T08:21:31.961Z</time>
      </trkpt>
      <trkpt lat="48.71568" lon="2.52141">
        <ele>66</ele>
        <time>2022-09-25T08:21:35.978Z</time>
      </trkpt>
      <trkpt lat="48.71564" lon="2.5214">
        <ele>66</ele>
        <time>2022-09-25T08:21:39.987Z</time>
      </trkpt>
      <trkpt lat="48.71559" lon="2.5214">
        <ele>66</ele>
        <time>2022-09-25T08:21:44.975Z</time>
      </trkpt>
      <trkpt lat="48.71553" lon="2.52146">
        <ele>66</ele>
        <time>2022-09-25T08:21:49.982Z</time>
      </trkpt>
      <trkpt lat="48.71551" lon="2.52152">
        <ele>66</ele>
        <time>2022-09-25T08:21:53.977Z</time>
      </trkpt>
      <trkpt lat="48.7155" lon="2.5216">
        <ele>66</ele>
        <time>2022-09-25T08:21:57.987Z</time>
      </trkpt>
      <trkpt lat="48.71549" lon="2.5217">
        <ele>66</ele>
        <time>2022-09-25T08:22:02.991Z</time>
      </trkpt>
      <trkpt lat="48.71548" lon="2.5218">
        <ele>66</ele>
        <time>2022-09-25T08:22:07.972Z</time>
      </trkpt>
      <trkpt lat="48.71548" lon="2.52188">
        <ele>67</ele>
        <time>2022-09-25T08:22:11.972Z</time>
      </trkpt>
      <trkpt lat="48.7155" lon="2.52195">
        <ele>67</ele>
        <time>2022-09-25T08:22:15.977Z</time>
      </trkpt>
      <trkpt lat="48.71551" lon="2.52203">
        <ele>67</ele>
        <time>2022-09-25T08:22:20.972Z</time>
      </trkpt>
      <trkpt lat="48.71551" lon="2.5221">
        <ele>67</ele>
        <time>2022-09-25T08:22:24.976Z</time>
      </trkpt>
      <trkpt lat="48.71551" lon="2.52221">
        <ele>67</ele>
        <time>2022-09-25T08:22:29.984Z</time>
      </trkpt>
      <trkpt lat="48.7155" lon="2.5223">
        <ele>67</ele>
        <time>2022-09-25T08:22:34.966Z</time>
      </trkpt>
      <trkpt lat="48.7155" lon="2.52238">
        <ele>67</ele>
        <time>2022-09-25T08:22:38.976Z</time>
      </trkpt>
      <trkpt lat="48.71549" lon="2.52246">
        <ele>67</ele>
        <time>2022-09-25T08:22:43.972Z</time>
      </trkpt>
      <trkpt lat="48.71546" lon="2.52255">
        <ele>67</ele>
        <time>2022-09-25T08:22:48.959Z</time>
      </trkpt>
      <trkpt lat="48.71546" lon="2.52261">
        <ele>67</ele>
        <time>2022-09-25T08:22:52.976Z</time>
      </trkpt>
      <trkpt lat="48.71545" lon="2.5227">
        <ele>68</ele>
        <time>2022-09-25T08:22:57.975Z</time>
      </trkpt>
      <trkpt lat="48.71543" lon="2.52277">
        <ele>68</ele>
        <time>2022-09-25T08:23:01.988Z</time>
      </trkpt>
      <trkpt lat="48.7154" lon="2.52284">
        <ele>63</ele>
        <time>2022-09-25T08:23:06.972Z</time>
      </trkpt>
      <trkpt lat="48.71537" lon="2.52292">
        <ele>63</ele>
        <time>2022-09-25T08:23:10.996Z</time>
      </trkpt>
      <trkpt lat="48.71534" lon="2.523">
        <ele>63</ele>
        <time>2022-09-25T08:23:15.982Z</time>
      </trkpt>
      <trkpt lat="48.71533" lon="2.52307">
        <ele>63</ele>
        <time>2022-09-25T08:23:19.984Z</time>
      </trkpt>
      <trkpt lat="48.71531" lon="2.52317">
        <ele>63</ele>
        <time>2022-09-25T08:23:24.990Z</time>
      </trkpt>
      <trkpt lat="48.71529" lon="2.52325">
        <ele>63</ele>
        <time>2022-09-25T08:23:29.995Z</time>
      </trkpt>
      <trkpt lat="48.71527" lon="2.52331">
        <ele>63</ele>
        <time>2022-09-25T08:23:34.002Z</time>
      </trkpt>
      <trkpt lat="48.71526" lon="2.5234">
        <ele>63</ele>
        <time>2022-09-25T08:23:38.964Z</time>
      </trkpt>
      <trkpt lat="48.71524" lon="2.52345">
        <ele>63</ele>
        <time>2022-09-25T08:23:42.992Z</time>
      </trkpt>
      <trkpt lat="48.71523" lon="2.52353">
        <ele>63</ele>
        <time>2022-09-25T08:23:47.975Z</time>
      </trkpt>
      <trkpt lat="48.71521" lon="2.52359">
        <ele>63</ele>
        <time>2022-09-25T08:23:52.980Z</time>
      </trkpt>
      <trkpt lat="48.7152" lon="2.52367">
        <ele>63</ele>
        <time>2022-09-25T08:23:56.987Z</time>
      </trkpt>
      <trkpt lat="48.71518" lon="2.52375">
        <ele>64</ele>
        <time>2022-09-25T08:24:01.979Z</time>
      </trkpt>
      <trkpt lat="48.71516" lon="2.52384">
        <ele>64</ele>
        <time>2022-09-25T08:24:05.970Z</time>
      </trkpt>
      <trkpt lat="48.71514" lon="2.52392">
        <ele>64</ele>
        <time>2022-09-25T08:24:10.972Z</time>
      </trkpt>
      <trkpt lat="48.71512" lon="2.52401">
        <ele>61</ele>
        <time>2022-09-25T08:24:15.971Z</time>
      </trkpt>
      <trkpt lat="48.71513" lon="2.52408">
        <ele>61</ele>
        <time>2022-09-25T08:24:19.980Z</time>
      </trkpt>
      <trkpt lat="48.7151" lon="2.52417">
        <ele>61</ele>
        <time>2022-09-25T08:24:24.984Z</time>
      </trkpt>
      <trkpt lat="48.71505" lon="2.52422">
        <ele>61</ele>
        <time>2022-09-25T08:24:29.995Z</time>
      </trkpt>
      <trkpt lat="48.715" lon="2.52427">
        <ele>61</ele>
        <time>2022-09-25T08:24:34.964Z</time>
      </trkpt>
      <trkpt lat="48.71495" lon="2.52427">
        <ele>61</ele>
        <time>2022-09-25T08:24:38.982Z</time>
      </trkpt>
      <trkpt lat="48.7149" lon="2.52428">
        <ele>61</ele>
        <time>2022-09-25T08:24:43.996Z</time>
      </trkpt>
      <trkpt lat="48.71485" lon="2.52431">
        <ele>58</ele>
        <time>2022-09-25T08:24:48.990Z</time>
      </trkpt>
      <trkpt lat="48.71479" lon="2.52434">
        <ele>58</ele>
        <time>2022-09-25T08:24:53.995Z</time>
      </trkpt>
      <trkpt lat="48.71474" lon="2.52436">
        <ele>58</ele>
        <time>2022-09-25T08:24:58.976Z</time>
      </trkpt>
      <trkpt lat="48.7147" lon="2.52437">
        <ele>58</ele>
        <time>2022-09-25T08:25:02.985Z</time>
      </trkpt>
      <trkpt lat="48.71465" lon="2.52437">
        <ele>58</ele>
        <time>2022-09-25T08:25:08.002Z</time>
      </trkpt>
      <trkpt lat="48.71457" lon="2.52437">
        <ele>56</ele>
        <time>2022-09-25T08:25:12.983Z</time>
      </trkpt>
      <trkpt lat="48.71452" lon="2.52439">
        <ele>56</ele>
        <time>2022-09-25T08:25:17.990Z</time>
      </trkpt>
      <trkpt lat="48.71447" lon="2.52444">
        <ele>56</ele>
        <time>2022-09-25T08:25:22.006Z</time>
      </trkpt>
      <trkpt lat="48.71446" lon="2.52455">
        <ele>56</ele>
        <time>2022-09-25T08:25:26.993Z</time>
      </trkpt>
      <trkpt lat="48.71447" lon="2.52466">
        <ele>57</ele>
        <time>2022-09-25T08:25:31.996Z</time>
      </trkpt>
      <trkpt lat="48.71447" lon="2.52474">
        <ele>57</ele>
        <time>2022-09-25T08:25:36.975Z</time>
      </trkpt>
      <trkpt lat="48.71449" lon="2.52483">
        <ele>57</ele>
        <time>2022-09-25T08:25:41.972Z</time>
      </trkpt>
      <trkpt lat="48.7145" lon="2.52491">
        <ele>58</ele>
        <time>2022-09-25T08:25:45.977Z</time>
      </trkpt>
      <trkpt lat="48.71452" lon="2.52501">
        <ele>58</ele>
        <time>2022-09-25T08:25:50.969Z</time>
      </trkpt>
      <trkpt lat="48.71454" lon="2.52508">
        <ele>58</ele>
        <time>2022-09-25T08:25:54.992Z</time>
      </trkpt>
      <trkpt lat="48.71457" lon="2.52518">
        <ele>58</ele>
        <time>2022-09-25T08:26:00Z</time>
      </trkpt>
      <trkpt lat="48.7146" lon="2.52527">
        <ele>61</ele>
        <time>2022-09-25T08:26:04.981Z</time>
      </trkpt>
      <trkpt lat="48.71461" lon="2.52536">
        <ele>61</ele>
        <time>2022-09-25T08:26:09.998Z</time>
      </trkpt>
      <trkpt lat="48.71463" lon="2.52543">
        <ele>60</ele>
        <time>2022-09-25T08:26:13.985Z</time>
      </trkpt>
      <trkpt lat="48.71465" lon="2.52553">
        <ele>60</ele>
        <time>2022-09-25T08:26:18.992Z</time>
      </trkpt>
      <trkpt lat="48.71468" lon="2.52564">
        <ele>60</ele>
        <time>2022-09-25T08:26:23.963Z</time>
      </trkpt>
      <trkpt lat="48.71471" lon="2.52573">
        <ele>59</ele>
        <time>2022-09-25T08:26:28.987Z</time>
      </trkpt>
      <trkpt lat="48.71473" lon="2.52581">
        <ele>59</ele>
        <time>2022-09-25T08:26:32.996Z</time>
      </trkpt>
      <trkpt lat="48.71476" lon="2.52588">
        <ele>59</ele>
        <time>2022-09-25T08:26:37.990Z</time>
      </trkpt>
      <trkpt lat="48.71478" lon="2.52597">
        <ele>59</ele>
        <time>2022-09-25T08:26:41.999Z</time>
      </trkpt>
      <trkpt lat="48.71479" lon="2.52606">
        <ele>59</ele>
        <time>2022-09-25T08:26:46.972Z</time>
      </trkpt>
      <trkpt lat="48.71481" lon="2.52614">
        <ele>59</ele>
        <time>2022-09-25T08:26:50.987Z</time>
      </trkpt>
      <trkpt lat="48.71482" lon="2.52621">
        <ele>59</ele>
        <time>2022-09-25T08:26:54.994Z</time>
      </trkpt>
      <trkpt lat="48.71485" lon="2.5263">
        <ele>58</ele>
        <time>2022-09-25T08:26:59.989Z</time>
      </trkpt>
      <trkpt lat="48.71487" lon="2.52639">
        <ele>60</ele>
        <time>2022-09-25T08:27:04.977Z</time>
      </trkpt>
      <trkpt lat="48.71488" lon="2.52648">
        <ele>60</ele>
        <time>2022-09-25T08:27:09.970Z</time>
      </trkpt>
      <trkpt lat="48.71488" lon="2.52655">
        <ele>59</ele>
        <time>2022-09-25T08:27:13.976Z</time>
      </trkpt>
      <trkpt lat="48.71486" lon="2.52664">
        <ele>59</ele>
        <time>2022-09-25T08:27:18.960Z</time>
      </trkpt>
      <trkpt lat="48.71485" lon="2.52671">
        <ele>58</ele>
        <time>2022-09-25T08:27:22.968Z</time>
      </trkpt>
      <trkpt lat="48.71483" lon="2.52681">
        <ele>57</ele>
        <time>2022-09-25T08:27:27.985Z</time>
      </trkpt>
      <trkpt lat="48.71482" lon="2.52692">
        <ele>57</ele>
        <time>2022-09-25T08:27:32.977Z</time>
      </trkpt>
      <trkpt lat="48.7148" lon="2.52701">
        <ele>57</ele>
        <time>2022-09-25T08:27:37.981Z</time>
      </trkpt>
      <trkpt lat="48.71478" lon="2.52707">
        <ele>57</ele>
        <time>2022-09-25T08:27:42Z</time>
      </trkpt>
      <trkpt lat="48.71474" lon="2.52712">
        <ele>57</ele>
        <time>2022-09-25T08:27:46.986Z</time>
      </trkpt>
      <trkpt lat="48.71468" lon="2.52711">
        <ele>57</ele>
        <time>2022-09-25T08:27:51.993Z</time>
      </trkpt>
      <trkpt lat="48.71463" lon="2.52709">
        <ele>57</ele>
        <time>2022-09-25T08:27:56.009Z</time>
      </trkpt>
      <trkpt lat="48.71455" lon="2.52706">
        <ele>56</ele>
        <time>2022-09-25T08:28:00.990Z</time>
      </trkpt>
      <trkpt lat="48.71449" lon="2.52705">
        <ele>56</ele>
        <time>2022-09-25T08:28:05.994Z</time>
      </trkpt>
      <trkpt lat="48.71441" lon="2.52704">
        <ele>56</ele>
        <time>2022-09-25T08:28:10.997Z</time>
      </trkpt>
      <trkpt lat="48.71435" lon="2.52706">
        <ele>56</ele>
        <time>2022-09-25T08:28:16.005Z</time>
      </trkpt>
      <trkpt lat="48.71428" lon="2.52707">
        <ele>54</ele>
        <time>2022-09-25T08:28:21.005Z</time>
      </trkpt>
      <trkpt lat="48.71423" lon="2.52708">
        <ele>54</ele>
        <time>2022-09-25T08:28:25.995Z</time>
      </trkpt>
      <trkpt lat="48.71418" lon="2.52713">
        <ele>54</ele>
        <time>2022-09-25T08:28:30.974Z</time>
      </trkpt>
      <trkpt lat="48.71416" lon="2.5272">
        <ele>54</ele>
        <time>2022-09-25T08:28:34.977Z</time>
      </trkpt>
      <trkpt lat="48.71413" lon="2.52724">
        <ele>54</ele>
        <time>2022-09-25T08:28:39.974Z</time>
      </trkpt>
      <trkpt lat="48.7141" lon="2.52725">
        <ele>54</ele>
        <time>2022-09-25T08:28:43.981Z</time>
      </trkpt>
      <trkpt lat="48.71407" lon="2.52726">
        <ele>54</ele>
        <time>2022-09-25T08:28:47.995Z</time>
      </trkpt>
      <trkpt lat="48.71404" lon="2.52726">
        <ele>54</ele>
        <time>2022-09-25T08:28:52.982Z</time>
      </trkpt>
      <trkpt lat="48.714" lon="2.52728">
        <ele>55</ele>
        <time>2022-09-25T08:28:57.983Z</time>
      </trkpt>
      <trkpt lat="48.71397" lon="2.52729">
        <ele>55</ele>
        <time>2022-09-25T08:29:02.964Z</time>
      </trkpt>
      <trkpt lat="48.71394" lon="2.5273">
        <ele>55</ele>
        <time>2022-09-25T08:29:06.985Z</time>
      </trkpt>
      <trkpt lat="48.71392" lon="2.52733">
        <ele>55</ele>
        <time>2022-09-25T08:29:10.997Z</time>
      </trkpt>
      <trkpt lat="48.71392" lon="2.52738">
        <ele>55</ele>
        <time>2022-09-25T08:29:15.003Z</time>
      </trkpt>
      <trkpt lat="48.71393" lon="2.52743">
        <ele>55</ele>
        <time>2022-09-25T08:29:19.979Z</time>
      </trkpt>
      <trkpt lat="48.71394" lon="2.5275">
        <ele>55</ele>
        <time>2022-09-25T08:29:24.999Z</time>
      </trkpt>
      <trkpt lat="48.71394" lon="2.52756">
        <ele>55</ele>
        <time>2022-09-25T08:29:29.972Z</time>
      </trkpt>
      <trkpt lat="48.71393" lon="2.52764">
        <ele>55</ele>
        <time>2022-09-25T08:29:34.971Z</time>
      </trkpt>
      <trkpt lat="48.71392" lon="2.52773">
        <ele>55</ele>
        <time>2022-09-25T08:29:39.985Z</time>
      </trkpt>
      <trkpt lat="48.71391" lon="2.52785">
        <ele>55</ele>
        <time>2022-09-25T08:29:44.993Z</time>
      </trkpt>
      <trkpt lat="48.7139" lon="2.52793">
        <ele>54</ele>
        <time>2022-09-25T08:29:48.994Z</time>
      </trkpt>
      <trkpt lat="48.71389" lon="2.52804">
        <ele>54</ele>
        <time>2022-09-25T08:29:53.984Z</time>
      </trkpt>
      <trkpt lat="48.71391" lon="2.52812">
        <ele>54</ele>
        <time>2022-09-25T08:29:58.979Z</time>
      </trkpt>
      <trkpt lat="48.71393" lon="2.5282">
        <ele>52</ele>
        <time>2022-09-25T08:30:02.987Z</time>
      </trkpt>
      <trkpt lat="48.71395" lon="2.5283">
        <ele>52</ele>
        <time>2022-09-25T08:30:07.992Z</time>
      </trkpt>
      <trkpt lat="48.71399" lon="2.52838">
        <ele>52</ele>
        <time>2022-09-25T08:30:12.979Z</time>
      </trkpt>
      <trkpt lat="48.71402" lon="2.52844">
        <ele>52</ele>
        <time>2022-09-25T08:30:17.982Z</time>
      </trkpt>
      <trkpt lat="48.71404" lon="2.5285">
        <ele>52</ele>
        <time>2022-09-25T08:30:22.007Z</time>
      </trkpt>
      <trkpt lat="48.71406" lon="2.52862">
        <ele>52</ele>
        <time>2022-09-25T08:30:26.978Z</time>
      </trkpt>
      <trkpt lat="48.71407" lon="2.5287">
        <ele>52</ele>
        <time>2022-09-25T08:30:30.993Z</time>
      </trkpt>
      <trkpt lat="48.71408" lon="2.52881">
        <ele>53</ele>
        <time>2022-09-25T08:30:35.989Z</time>
      </trkpt>
      <trkpt lat="48.71411" lon="2.52889">
        <ele>53</ele>
        <time>2022-09-25T08:30:40.988Z</time>
      </trkpt>
      <trkpt lat="48.71414" lon="2.52899">
        <ele>53</ele>
        <time>2022-09-25T08:30:46.002Z</time>
      </trkpt>
      <trkpt lat="48.71418" lon="2.52907">
        <ele>53</ele>
        <time>2022-09-25T08:30:50.987Z</time>
      </trkpt>
      <trkpt lat="48.71422" lon="2.52913">
        <ele>53</ele>
        <time>2022-09-25T08:30:54.996Z</time>
      </trkpt>
      <trkpt lat="48.71426" lon="2.5292">
        <ele>53</ele>
        <time>2022-09-25T08:30:59.991Z</time>
      </trkpt>
      <trkpt lat="48.71429" lon="2.52927">
        <ele>53</ele>
        <time>2022-09-25T08:31:04.007Z</time>
      </trkpt>
      <trkpt lat="48.71433" lon="2.52934">
        <ele>53</ele>
        <time>2022-09-25T08:31:08.985Z</time>
      </trkpt>
      <trkpt lat="48.71437" lon="2.52943">
        <ele>53</ele>
        <time>2022-09-25T08:31:14.002Z</time>
      </trkpt>
      <trkpt lat="48.7144" lon="2.52952">
        <ele>53</ele>
        <time>2022-09-25T08:31:18.966Z</time>
      </trkpt>
      <trkpt lat="48.71442" lon="2.52959">
        <ele>53</ele>
        <time>2022-09-25T08:31:23Z</time>
      </trkpt>
      <trkpt lat="48.71446" lon="2.52967">
        <ele>53</ele>
        <time>2022-09-25T08:31:27.999Z</time>
      </trkpt>
      <trkpt lat="48.7145" lon="2.52975">
        <ele>53</ele>
        <time>2022-09-25T08:31:32.981Z</time>
      </trkpt>
      <trkpt lat="48.71453" lon="2.52982">
        <ele>53</ele>
        <time>2022-09-25T08:31:36.996Z</time>
      </trkpt>
      <trkpt lat="48.71456" lon="2.52991">
        <ele>54</ele>
        <time>2022-09-25T08:31:41.983Z</time>
      </trkpt>
      <trkpt lat="48.71459" lon="2.52996">
        <ele>54</ele>
        <time>2022-09-25T08:31:45.991Z</time>
      </trkpt>
      <trkpt lat="48.71461" lon="2.53005">
        <ele>54</ele>
        <time>2022-09-25T08:31:51.008Z</time>
      </trkpt>
      <trkpt lat="48.71465" lon="2.53015">
        <ele>54</ele>
        <time>2022-09-25T08:31:55.983Z</time>
      </trkpt>
      <trkpt lat="48.71469" lon="2.53025">
        <ele>54</ele>
        <time>2022-09-25T08:32:00.983Z</time>
      </trkpt>
      <trkpt lat="48.71472" lon="2.53033">
        <ele>54</ele>
        <time>2022-09-25T08:32:04.993Z</time>
      </trkpt>
      <trkpt lat="48.71476" lon="2.53042">
        <ele>54</ele>
        <time>2022-09-25T08:32:09.995Z</time>
      </trkpt>
      <trkpt lat="48.71479" lon="2.53051">
        <ele>54</ele>
        <time>2022-09-25T08:32:14.990Z</time>
      </trkpt>
      <trkpt lat="48.71484" lon="2.53058">
        <ele>54</ele>
        <time>2022-09-25T08:32:19.997Z</time>
      </trkpt>
      <trkpt lat="48.71488" lon="2.53064">
        <ele>54</ele>
        <time>2022-09-25T08:32:24.004Z</time>
      </trkpt>
      <trkpt lat="48.71492" lon="2.5307">
        <ele>54</ele>
        <time>2022-09-25T08:32:29.004Z</time>
      </trkpt>
      <trkpt lat="48.71497" lon="2.53077">
        <ele>54</ele>
        <time>2022-09-25T08:32:33.998Z</time>
      </trkpt>
      <trkpt lat="48.71502" lon="2.53083">
        <ele>54</ele>
        <time>2022-09-25T08:32:38.995Z</time>
      </trkpt>
      <trkpt lat="48.71507" lon="2.53088">
        <ele>54</ele>
        <time>2022-09-25T08:32:43.981Z</time>
      </trkpt>
      <trkpt lat="48.71512" lon="2.53095">
        <ele>54</ele>
        <time>2022-09-25T08:32:48.986Z</time>
      </trkpt>
      <trkpt lat="48.71517" lon="2.53101">
        <ele>54</ele>
        <time>2022-09-25T08:32:53.971Z</time>
      </trkpt>
      <trkpt lat="48.71517" lon="2.53108">
        <ele>54</ele>
        <time>2022-09-25T08:40:32.014Z</time>
      </trkpt>
      <trkpt lat="48.71516" lon="2.53108">
        <ele>54</ele>
        <time>2022-09-25T08:40:36.008Z</time>
      </trkpt>
      <trkpt lat="48.71519" lon="2.5311">
        <ele>54</ele>
        <time>2022-09-25T08:40:40.977Z</time>
      </trkpt>
      <trkpt lat="48.71524" lon="2.53116">
        <ele>54</ele>
        <time>2022-09-25T08:40:44.984Z</time>
      </trkpt>
      <trkpt lat="48.71527" lon="2.53121">
        <ele>54</ele>
        <time>2022-09-25T08:40:49.061Z</time>
      </trkpt>
      <trkpt lat="48.7153" lon="2.53128">
        <ele>56</ele>
        <time>2022-09-25T08:40:54.003Z</time>
      </trkpt>
      <trkpt lat="48.71532" lon="2.53135">
        <ele>56</ele>
        <time>2022-09-25T08:40:58.996Z</time>
      </trkpt>
      <trkpt lat="48.71534" lon="2.5314">
        <ele>56</ele>
        <time>2022-09-25T08:41:04.007Z</time>
      </trkpt>
      <trkpt lat="48.71535" lon="2.53147">
        <ele>56</ele>
        <time>2022-09-25T08:41:09.004Z</time>
      </trkpt>
      <trkpt lat="48.71537" lon="2.53153">
        <ele>56</ele>
        <time>2022-09-25T08:41:13.007Z</time>
      </trkpt>
      <trkpt lat="48.71538" lon="2.53156">
        <ele>57</ele>
        <time>2022-09-25T08:41:17.009Z</time>
      </trkpt>
      <trkpt lat="48.71541" lon="2.53163">
        <ele>57</ele>
        <time>2022-09-25T08:41:22.003Z</time>
      </trkpt>
      <trkpt lat="48.71543" lon="2.5317">
        <ele>56</ele>
        <time>2022-09-25T08:41:26.993Z</time>
      </trkpt>
      <trkpt lat="48.71547" lon="2.53179">
        <ele>56</ele>
        <time>2022-09-25T08:41:31.990Z</time>
      </trkpt>
      <trkpt lat="48.71549" lon="2.53187">
        <ele>56</ele>
        <time>2022-09-25T08:41:36.005Z</time>
      </trkpt>
      <trkpt lat="48.71551" lon="2.53194">
        <ele>56</ele>
        <time>2022-09-25T08:41:41.123Z</time>
      </trkpt>
      <trkpt lat="48.71553" lon="2.53201">
        <ele>56</ele>
        <time>2022-09-25T08:41:45.995Z</time>
      </trkpt>
      <trkpt lat="48.71556" lon="2.53209">
        <ele>57</ele>
        <time>2022-09-25T08:41:51.007Z</time>
      </trkpt>
      <trkpt lat="48.71558" lon="2.53217">
        <ele>57</ele>
        <time>2022-09-25T08:41:56.003Z</time>
      </trkpt>
      <trkpt lat="48.71559" lon="2.53225">
        <ele>57</ele>
        <time>2022-09-25T08:42:01.002Z</time>
      </trkpt>
      <trkpt lat="48.71561" lon="2.53233">
        <ele>57</ele>
        <time>2022-09-25T08:42:06.011Z</time>
      </trkpt>
      <trkpt lat="48.71565" lon="2.53241">
        <ele>58</ele>
        <time>2022-09-25T08:42:11.019Z</time>
      </trkpt>
      <trkpt lat="48.71568" lon="2.5325">
        <ele>58</ele>
        <time>2022-09-25T08:42:16.018Z</time>
      </trkpt>
      <trkpt lat="48.71571" lon="2.53258">
        <ele>56</ele>
        <time>2022-09-25T08:42:21.001Z</time>
      </trkpt>
      <trkpt lat="48.71573" lon="2.53264">
        <ele>56</ele>
        <time>2022-09-25T08:42:24.995Z</time>
      </trkpt>
      <trkpt lat="48.71575" lon="2.53272">
        <ele>56</ele>
        <time>2022-09-25T08:42:30.001Z</time>
      </trkpt>
      <trkpt lat="48.71578" lon="2.53279">
        <ele>56</ele>
        <time>2022-09-25T08:42:34.986Z</time>
      </trkpt>
      <trkpt lat="48.71581" lon="2.53285">
        <ele>56</ele>
        <time>2022-09-25T08:42:39.001Z</time>
      </trkpt>
      <trkpt lat="48.71584" lon="2.53293">
        <ele>57</ele>
        <time>2022-09-25T08:42:42.999Z</time>
      </trkpt>
      <trkpt lat="48.71588" lon="2.53304">
        <ele>57</ele>
        <time>2022-09-25T08:42:48Z</time>
      </trkpt>
      <trkpt lat="48.7159" lon="2.53311">
        <ele>57</ele>
        <time>2022-09-25T08:42:53.002Z</time>
      </trkpt>
      <trkpt lat="48.71595" lon="2.53319">
        <ele>57</ele>
        <time>2022-09-25T08:42:57.996Z</time>
      </trkpt>
      <trkpt lat="48.71598" lon="2.53327">
        <ele>57</ele>
        <time>2022-09-25T08:43:03.017Z</time>
      </trkpt>
      <trkpt lat="48.71601" lon="2.53337">
        <ele>57</ele>
        <time>2022-09-25T08:43:08.003Z</time>
      </trkpt>
      <trkpt lat="48.71601" lon="2.53345">
        <ele>57</ele>
        <time>2022-09-25T08:43:12.993Z</time>
      </trkpt>
      <trkpt lat="48.71599" lon="2.53353">
        <ele>57</ele>
        <time>2022-09-25T08:43:18.002Z</time>
      </trkpt>
      <trkpt lat="48.71596" lon="2.53359">
        <ele>56</ele>
        <time>2022-09-25T08:43:22.999Z</time>
      </trkpt>
      <trkpt lat="48.71594" lon="2.53366">
        <ele>56</ele>
        <time>2022-09-25T08:43:28.003Z</time>
      </trkpt>
      <trkpt lat="48.71592" lon="2.53373">
        <ele>56</ele>
        <time>2022-09-25T08:43:32.991Z</time>
      </trkpt>
      <trkpt lat="48.7159" lon="2.5338">
        <ele>56</ele>
        <time>2022-09-25T08:43:38.002Z</time>
      </trkpt>
      <trkpt lat="48.71587" lon="2.53384">
        <ele>56</ele>
        <time>2022-09-25T08:43:43.004Z</time>
      </trkpt>
      <trkpt lat="48.71583" lon="2.53394">
        <ele>56</ele>
        <time>2022-09-25T08:43:47.984Z</time>
      </trkpt>
      <trkpt lat="48.71581" lon="2.53402">
        <ele>56</ele>
        <time>2022-09-25T08:43:52.996Z</time>
      </trkpt>
      <trkpt lat="48.71578" lon="2.53411">
        <ele>56</ele>
        <time>2022-09-25T08:43:58.017Z</time>
      </trkpt>
      <trkpt lat="48.71575" lon="2.53419">
        <ele>56</ele>
        <time>2022-09-25T08:44:03.010Z</time>
      </trkpt>
      <trkpt lat="48.71572" lon="2.53427">
        <ele>56</ele>
        <time>2022-09-25T08:44:08.002Z</time>
      </trkpt>
      <trkpt lat="48.71572" lon="2.53434">
        <ele>56</ele>
        <time>2022-09-25T08:44:12.002Z</time>
      </trkpt>
      <trkpt lat="48.71568" lon="2.53442">
        <ele>59</ele>
        <time>2022-09-25T08:44:17.004Z</time>
      </trkpt>
      <trkpt lat="48.71564" lon="2.53448">
        <ele>59</ele>
        <time>2022-09-25T08:44:22.004Z</time>
      </trkpt>
      <trkpt lat="48.71561" lon="2.53457">
        <ele>59</ele>
        <time>2022-09-25T08:44:27.011Z</time>
      </trkpt>
      <trkpt lat="48.71558" lon="2.53463">
        <ele>60</ele>
        <time>2022-09-25T08:44:31.014Z</time>
      </trkpt>
      <trkpt lat="48.71556" lon="2.53471">
        <ele>60</ele>
        <time>2022-09-25T08:44:35.974Z</time>
      </trkpt>
      <trkpt lat="48.71554" lon="2.53479">
        <ele>60</ele>
        <time>2022-09-25T08:44:40.968Z</time>
      </trkpt>
      <trkpt lat="48.71551" lon="2.53488">
        <ele>61</ele>
        <time>2022-09-25T08:44:45.967Z</time>
      </trkpt>
      <trkpt lat="48.71549" lon="2.53493">
        <ele>61</ele>
        <time>2022-09-25T08:44:49.975Z</time>
      </trkpt>
      <trkpt lat="48.71546" lon="2.535">
        <ele>61</ele>
        <time>2022-09-25T08:44:54.969Z</time>
      </trkpt>
      <trkpt lat="48.71544" lon="2.53506">
        <ele>61</ele>
        <time>2022-09-25T08:44:59.977Z</time>
      </trkpt>
      <trkpt lat="48.71542" lon="2.5351">
        <ele>61</ele>
        <time>2022-09-25T08:45:03.988Z</time>
      </trkpt>
      <trkpt lat="48.7154" lon="2.53517">
        <ele>66</ele>
        <time>2022-09-25T08:45:08.958Z</time>
      </trkpt>
      <trkpt lat="48.71537" lon="2.53524">
        <ele>66</ele>
        <time>2022-09-25T08:45:13.953Z</time>
      </trkpt>
      <trkpt lat="48.71533" lon="2.5353">
        <ele>66</ele>
        <time>2022-09-25T08:45:18.963Z</time>
      </trkpt>
      <trkpt lat="48.7153" lon="2.53534">
        <ele>66</ele>
        <time>2022-09-25T08:45:22.964Z</time>
      </trkpt>
      <trkpt lat="48.71526" lon="2.53536">
        <ele>66</ele>
        <time>2022-09-25T08:45:27.001Z</time>
      </trkpt>
      <trkpt lat="48.71522" lon="2.5354">
        <ele>66</ele>
        <time>2022-09-25T08:45:32.011Z</time>
      </trkpt>
      <trkpt lat="48.71518" lon="2.53545">
        <ele>67</ele>
        <time>2022-09-25T08:45:36.008Z</time>
      </trkpt>
      <trkpt lat="48.71513" lon="2.53548">
        <ele>70</ele>
        <time>2022-09-25T08:45:41.002Z</time>
      </trkpt>
      <trkpt lat="48.7151" lon="2.53552">
        <ele>70</ele>
        <time>2022-09-25T08:45:45.010Z</time>
      </trkpt>
      <trkpt lat="48.71505" lon="2.53556">
        <ele>70</ele>
        <time>2022-09-25T08:45:49.978Z</time>
      </trkpt>
      <trkpt lat="48.71501" lon="2.5356">
        <ele>70</ele>
        <time>2022-09-25T08:45:54Z</time>
      </trkpt>
      <trkpt lat="48.71495" lon="2.53564">
        <ele>70</ele>
        <time>2022-09-25T08:45:58.998Z</time>
      </trkpt>
      <trkpt lat="48.7149" lon="2.53565">
        <ele>70</ele>
        <time>2022-09-25T08:46:03.029Z</time>
      </trkpt>
      <trkpt lat="48.71483" lon="2.53566">
        <ele>74</ele>
        <time>2022-09-25T08:46:08.007Z</time>
      </trkpt>
      <trkpt lat="48.71477" lon="2.53571">
        <ele>75</ele>
        <time>2022-09-25T08:46:12.988Z</time>
      </trkpt>
      <trkpt lat="48.71472" lon="2.53574">
        <ele>75</ele>
        <time>2022-09-25T08:46:16.995Z</time>
      </trkpt>
      <trkpt lat="48.71467" lon="2.53576">
        <ele>75</ele>
        <time>2022-09-25T08:46:21.995Z</time>
      </trkpt>
      <trkpt lat="48.71465" lon="2.53578">
        <ele>75</ele>
        <time>2022-09-25T08:46:26.014Z</time>
      </trkpt>
      <trkpt lat="48.71463" lon="2.5358">
        <ele>75</ele>
        <time>2022-09-25T08:46:30.983Z</time>
      </trkpt>
      <trkpt lat="48.71458" lon="2.5359">
        <ele>76</ele>
        <time>2022-09-25T08:47:15.992Z</time>
      </trkpt>
      <trkpt lat="48.7146" lon="2.53599">
        <ele>74</ele>
        <time>2022-09-25T08:47:20.951Z</time>
      </trkpt>
      <trkpt lat="48.71462" lon="2.53606">
        <ele>74</ele>
        <time>2022-09-25T08:47:24.983Z</time>
      </trkpt>
      <trkpt lat="48.71463" lon="2.53612">
        <ele>74</ele>
        <time>2022-09-25T08:47:29.984Z</time>
      </trkpt>
      <trkpt lat="48.71464" lon="2.53621">
        <ele>74</ele>
        <time>2022-09-25T08:47:34.980Z</time>
      </trkpt>
      <trkpt lat="48.71466" lon="2.5363">
        <ele>73</ele>
        <time>2022-09-25T08:47:38.983Z</time>
      </trkpt>
      <trkpt lat="48.71467" lon="2.53639">
        <ele>73</ele>
        <time>2022-09-25T08:47:43.996Z</time>
      </trkpt>
      <trkpt lat="48.71469" lon="2.53649">
        <ele>73</ele>
        <time>2022-09-25T08:47:48.961Z</time>
      </trkpt>
      <trkpt lat="48.71471" lon="2.53659">
        <ele>73</ele>
        <time>2022-09-25T08:47:53.972Z</time>
      </trkpt>
      <trkpt lat="48.71474" lon="2.53667">
        <ele>73</ele>
        <time>2022-09-25T08:47:58.965Z</time>
      </trkpt>
      <trkpt lat="48.71476" lon="2.53677">
        <ele>73</ele>
        <time>2022-09-25T08:48:03.990Z</time>
      </trkpt>
      <trkpt lat="48.71478" lon="2.53688">
        <ele>73</ele>
        <time>2022-09-25T08:48:08.961Z</time>
      </trkpt>
      <trkpt lat="48.71481" lon="2.53696">
        <ele>73</ele>
        <time>2022-09-25T08:48:12.963Z</time>
      </trkpt>
      <trkpt lat="48.71484" lon="2.53706">
        <ele>73</ele>
        <time>2022-09-25T08:48:17.975Z</time>
      </trkpt>
      <trkpt lat="48.71485" lon="2.53715">
        <ele>74</ele>
        <time>2022-09-25T08:48:22.973Z</time>
      </trkpt>
      <trkpt lat="48.71481" lon="2.53718">
        <ele>74</ele>
        <time>2022-09-25T08:48:27.976Z</time>
      </trkpt>
      <trkpt lat="48.71475" lon="2.53719">
        <ele>74</ele>
        <time>2022-09-25T08:48:32.974Z</time>
      </trkpt>
      <trkpt lat="48.7147" lon="2.5372">
        <ele>74</ele>
        <time>2022-09-25T08:48:36.999Z</time>
      </trkpt>
      <trkpt lat="48.71465" lon="2.53717">
        <ele>74</ele>
        <time>2022-09-25T08:48:41.979Z</time>
      </trkpt>
      <trkpt lat="48.71458" lon="2.53721">
        <ele>74</ele>
        <time>2022-09-25T08:48:46.981Z</time>
      </trkpt>
      <trkpt lat="48.71452" lon="2.53728">
        <ele>77</ele>
        <time>2022-09-25T08:48:51.982Z</time>
      </trkpt>
      <trkpt lat="48.71447" lon="2.53731">
        <ele>77</ele>
        <time>2022-09-25T08:48:55.987Z</time>
      </trkpt>
      <trkpt lat="48.71442" lon="2.53733">
        <ele>77</ele>
        <time>2022-09-25T08:49:00.003Z</time>
      </trkpt>
      <trkpt lat="48.71437" lon="2.53735">
        <ele>77</ele>
        <time>2022-09-25T08:49:04.984Z</time>
      </trkpt>
      <trkpt lat="48.71434" lon="2.53737">
        <ele>78</ele>
        <time>2022-09-25T08:49:08.991Z</time>
      </trkpt>
      <trkpt lat="48.71428" lon="2.5374">
        <ele>80</ele>
        <time>2022-09-25T08:49:13.981Z</time>
      </trkpt>
      <trkpt lat="48.71422" lon="2.53743">
        <ele>80</ele>
        <time>2022-09-25T08:49:18.962Z</time>
      </trkpt>
      <trkpt lat="48.71418" lon="2.53749">
        <ele>80</ele>
        <time>2022-09-25T08:49:24.002Z</time>
      </trkpt>
      <trkpt lat="48.71412" lon="2.53751">
        <ele>80</ele>
        <time>2022-09-25T08:49:28.971Z</time>
      </trkpt>
      <trkpt lat="48.71406" lon="2.53752">
        <ele>80</ele>
        <time>2022-09-25T08:49:32.983Z</time>
      </trkpt>
      <trkpt lat="48.71401" lon="2.53754">
        <ele>80</ele>
        <time>2022-09-25T08:49:36.995Z</time>
      </trkpt>
      <trkpt lat="48.71395" lon="2.53757">
        <ele>80</ele>
        <time>2022-09-25T08:49:41.997Z</time>
      </trkpt>
      <trkpt lat="48.71391" lon="2.53761">
        <ele>80</ele>
        <time>2022-09-25T08:49:46.973Z</time>
      </trkpt>
      <trkpt lat="48.7139" lon="2.53762">
        <ele>80</ele>
        <time>2022-09-25T08:49:50.985Z</time>
      </trkpt>
      <trkpt lat="48.71389" lon="2.53768">
        <ele>81</ele>
        <time>2022-09-25T08:49:55.970Z</time>
      </trkpt>
      <trkpt lat="48.71387" lon="2.53777">
        <ele>81</ele>
        <time>2022-09-25T08:50:01.006Z</time>
      </trkpt>
      <trkpt lat="48.71385" lon="2.53788">
        <ele>81</ele>
        <time>2022-09-25T08:50:06.003Z</time>
      </trkpt>
      <trkpt lat="48.71382" lon="2.53799">
        <ele>83</ele>
        <time>2022-09-25T08:50:10.986Z</time>
      </trkpt>
      <trkpt lat="48.71383" lon="2.53805">
        <ele>83</ele>
        <time>2022-09-25T08:50:15.004Z</time>
      </trkpt>
      <trkpt lat="48.71384" lon="2.53814">
        <ele>83</ele>
        <time>2022-09-25T08:50:19.975Z</time>
      </trkpt>
      <trkpt lat="48.71386" lon="2.53821">
        <ele>83</ele>
        <time>2022-09-25T08:50:23.993Z</time>
      </trkpt>
      <trkpt lat="48.71388" lon="2.53827">
        <ele>83</ele>
        <time>2022-09-25T08:50:27.998Z</time>
      </trkpt>
      <trkpt lat="48.7139" lon="2.53835">
        <ele>83</ele>
        <time>2022-09-25T08:50:32.989Z</time>
      </trkpt>
      <trkpt lat="48.71393" lon="2.53846">
        <ele>83</ele>
        <time>2022-09-25T08:50:37.984Z</time>
      </trkpt>
      <trkpt lat="48.71396" lon="2.53852">
        <ele>84</ele>
        <time>2022-09-25T08:50:42.001Z</time>
      </trkpt>
      <trkpt lat="48.71397" lon="2.53861">
        <ele>84</ele>
        <time>2022-09-25T08:50:46.951Z</time>
      </trkpt>
      <trkpt lat="48.71402" lon="2.53867">
        <ele>84</ele>
        <time>2022-09-25T08:50:50.968Z</time>
      </trkpt>
      <trkpt lat="48.71404" lon="2.53875">
        <ele>83</ele>
        <time>2022-09-25T08:50:54.982Z</time>
      </trkpt>
      <trkpt lat="48.71407" lon="2.53881">
        <ele>83</ele>
        <time>2022-09-25T08:50:59.009Z</time>
      </trkpt>
      <trkpt lat="48.71408" lon="2.5389">
        <ele>83</ele>
        <time>2022-09-25T08:51:04.004Z</time>
      </trkpt>
      <trkpt lat="48.7141" lon="2.53897">
        <ele>83</ele>
        <time>2022-09-25T08:51:08.002Z</time>
      </trkpt>
      <trkpt lat="48.71413" lon="2.53906">
        <ele>83</ele>
        <time>2022-09-25T08:51:12.974Z</time>
      </trkpt>
      <trkpt lat="48.71415" lon="2.53916">
        <ele>83</ele>
        <time>2022-09-25T08:51:17.980Z</time>
      </trkpt>
      <trkpt lat="48.71415" lon="2.53924">
        <ele>83</ele>
        <time>2022-09-25T08:51:21.991Z</time>
      </trkpt>
      <trkpt lat="48.71419" lon="2.53933">
        <ele>82</ele>
        <time>2022-09-25T08:51:26.969Z</time>
      </trkpt>
      <trkpt lat="48.71422" lon="2.5394">
        <ele>82</ele>
        <time>2022-09-25T08:51:30.994Z</time>
      </trkpt>
      <trkpt lat="48.71425" lon="2.53949">
        <ele>82</ele>
        <time>2022-09-25T08:51:35.951Z</time>
      </trkpt>
      <trkpt lat="48.71427" lon="2.53956">
        <ele>82</ele>
        <time>2022-09-25T08:51:39.975Z</time>
      </trkpt>
      <trkpt lat="48.7143" lon="2.53965">
        <ele>82</ele>
        <time>2022-09-25T08:51:44.975Z</time>
      </trkpt>
      <trkpt lat="48.71432" lon="2.53973">
        <ele>83</ele>
        <time>2022-09-25T08:51:49.976Z</time>
      </trkpt>
      <trkpt lat="48.71435" lon="2.53981">
        <ele>83</ele>
        <time>2022-09-25T08:51:54.986Z</time>
      </trkpt>
      <trkpt lat="48.71436" lon="2.53988">
        <ele>82</ele>
        <time>2022-09-25T08:51:59.981Z</time>
      </trkpt>
      <trkpt lat="48.71439" lon="2.53997">
        <ele>82</ele>
        <time>2022-09-25T08:52:03.981Z</time>
      </trkpt>
      <trkpt lat="48.71443" lon="2.54006">
        <ele>82</ele>
        <time>2022-09-25T08:52:08.995Z</time>
      </trkpt>
      <trkpt lat="48.71445" lon="2.54014">
        <ele>82</ele>
        <time>2022-09-25T08:52:13.972Z</time>
      </trkpt>
      <trkpt lat="48.71446" lon="2.5402">
        <ele>82</ele>
        <time>2022-09-25T08:52:17.986Z</time>
      </trkpt>
      <trkpt lat="48.71448" lon="2.54027">
        <ele>82</ele>
        <time>2022-09-25T08:52:22.003Z</time>
      </trkpt>
      <trkpt lat="48.71451" lon="2.54037">
        <ele>82</ele>
        <time>2022-09-25T08:52:27Z</time>
      </trkpt>
      <trkpt lat="48.71455" lon="2.54046">
        <ele>82</ele>
        <time>2022-09-25T08:52:31.988Z</time>
      </trkpt>
      <trkpt lat="48.71457" lon="2.54055">
        <ele>82</ele>
        <time>2022-09-25T08:52:36.974Z</time>
      </trkpt>
      <trkpt lat="48.7146" lon="2.54063">
        <ele>82</ele>
        <time>2022-09-25T08:52:40.984Z</time>
      </trkpt>
      <trkpt lat="48.71464" lon="2.54071">
        <ele>82</ele>
        <time>2022-09-25T08:52:45.978Z</time>
      </trkpt>
      <trkpt lat="48.71466" lon="2.5408">
        <ele>82</ele>
        <time>2022-09-25T08:52:50.982Z</time>
      </trkpt>
      <trkpt lat="48.71468" lon="2.54087">
        <ele>82</ele>
        <time>2022-09-25T08:52:54.988Z</time>
      </trkpt>
      <trkpt lat="48.71471" lon="2.54094">
        <ele>82</ele>
        <time>2022-09-25T08:52:59.974Z</time>
      </trkpt>
      <trkpt lat="48.71473" lon="2.54101">
        <ele>81</ele>
        <time>2022-09-25T08:53:03.997Z</time>
      </trkpt>
      <trkpt lat="48.71477" lon="2.5411">
        <ele>81</ele>
        <time>2022-09-25T08:53:08.991Z</time>
      </trkpt>
      <trkpt lat="48.71479" lon="2.54119">
        <ele>81</ele>
        <time>2022-09-25T08:53:13.991Z</time>
      </trkpt>
      <trkpt lat="48.7148" lon="2.54128">
        <ele>81</ele>
        <time>2022-09-25T08:53:18.971Z</time>
      </trkpt>
      <trkpt lat="48.7148" lon="2.54136">
        <ele>81</ele>
        <time>2022-09-25T08:53:22.972Z</time>
      </trkpt>
      <trkpt lat="48.71479" lon="2.54145">
        <ele>81</ele>
        <time>2022-09-25T08:53:27.964Z</time>
      </trkpt>
      <trkpt lat="48.71479" lon="2.54157">
        <ele>82</ele>
        <time>2022-09-25T08:53:32.966Z</time>
      </trkpt>
      <trkpt lat="48.7148" lon="2.54168">
        <ele>82</ele>
        <time>2022-09-25T08:53:37.975Z</time>
      </trkpt>
      <trkpt lat="48.71482" lon="2.54177">
        <ele>82</ele>
        <time>2022-09-25T08:53:41.974Z</time>
      </trkpt>
      <trkpt lat="48.71484" lon="2.54185">
        <ele>83</ele>
        <time>2022-09-25T08:53:46.972Z</time>
      </trkpt>
      <trkpt lat="48.71487" lon="2.54193">
        <ele>82</ele>
        <time>2022-09-25T08:53:51.956Z</time>
      </trkpt>
      <trkpt lat="48.71488" lon="2.542">
        <ele>82</ele>
        <time>2022-09-25T08:53:55.986Z</time>
      </trkpt>
      <trkpt lat="48.71492" lon="2.54209">
        <ele>83</ele>
        <time>2022-09-25T08:54:00.966Z</time>
      </trkpt>
      <trkpt lat="48.71495" lon="2.54219">
        <ele>83</ele>
        <time>2022-09-25T08:54:05.952Z</time>
      </trkpt>
      <trkpt lat="48.71497" lon="2.54226">
        <ele>83</ele>
        <time>2022-09-25T08:54:09.971Z</time>
      </trkpt>
      <trkpt lat="48.715" lon="2.54236">
        <ele>83</ele>
        <time>2022-09-25T08:54:14.957Z</time>
      </trkpt>
      <trkpt lat="48.71502" lon="2.54242">
        <ele>84</ele>
        <time>2022-09-25T08:54:18.972Z</time>
      </trkpt>
      <trkpt lat="48.71505" lon="2.54251">
        <ele>84</ele>
        <time>2022-09-25T08:54:23.982Z</time>
      </trkpt>
      <trkpt lat="48.71508" lon="2.5426">
        <ele>84</ele>
        <time>2022-09-25T08:54:28.957Z</time>
      </trkpt>
      <trkpt lat="48.71512" lon="2.54267">
        <ele>84</ele>
        <time>2022-09-25T08:54:32.988Z</time>
      </trkpt>
      <trkpt lat="48.71516" lon="2.54278">
        <ele>82</ele>
        <time>2022-09-25T08:54:37.968Z</time>
      </trkpt>
      <trkpt lat="48.71518" lon="2.54285">
        <ele>82</ele>
        <time>2022-09-25T08:54:41.997Z</time>
      </trkpt>
      <trkpt lat="48.71522" lon="2.54291">
        <ele>82</ele>
        <time>2022-09-25T08:54:46.010Z</time>
      </trkpt>
      <trkpt lat="48.71527" lon="2.543">
        <ele>83</ele>
        <time>2022-09-25T08:54:50.981Z</time>
      </trkpt>
      <trkpt lat="48.7153" lon="2.54305">
        <ele>83</ele>
        <time>2022-09-25T08:54:55.004Z</time>
      </trkpt>
      <trkpt lat="48.71534" lon="2.54313">
        <ele>83</ele>
        <time>2022-09-25T08:54:59.973Z</time>
      </trkpt>
      <trkpt lat="48.71537" lon="2.54319">
        <ele>83</ele>
        <time>2022-09-25T08:55:03.992Z</time>
      </trkpt>
      <trkpt lat="48.7154" lon="2.54325">
        <ele>84</ele>
        <time>2022-09-25T08:55:07.990Z</time>
      </trkpt>
      <trkpt lat="48.71544" lon="2.54333">
        <ele>82</ele>
        <time>2022-09-25T08:55:13.001Z</time>
      </trkpt>
      <trkpt lat="48.71548" lon="2.54341">
        <ele>82</ele>
        <time>2022-09-25T08:55:18.008Z</time>
      </trkpt>
      <trkpt lat="48.71552" lon="2.54348">
        <ele>83</ele>
        <time>2022-09-25T08:55:22.995Z</time>
      </trkpt>
      <trkpt lat="48.71555" lon="2.54356">
        <ele>83</ele>
        <time>2022-09-25T08:55:28.004Z</time>
      </trkpt>
      <trkpt lat="48.71557" lon="2.54363">
        <ele>83</ele>
        <time>2022-09-25T08:55:32.985Z</time>
      </trkpt>
      <trkpt lat="48.7156" lon="2.54372">
        <ele>83</ele>
        <time>2022-09-25T08:55:37.968Z</time>
      </trkpt>
      <trkpt lat="48.71563" lon="2.54379">
        <ele>85</ele>
        <time>2022-09-25T08:55:41.990Z</time>
      </trkpt>
      <trkpt lat="48.71566" lon="2.54386">
        <ele>85</ele>
        <time>2022-09-25T08:55:46.004Z</time>
      </trkpt>
      <trkpt lat="48.71568" lon="2.54395">
        <ele>85</ele>
        <time>2022-09-25T08:55:50.986Z</time>
      </trkpt>
      <trkpt lat="48.71569" lon="2.54405">
        <ele>86</ele>
        <time>2022-09-25T08:55:55.979Z</time>
      </trkpt>
      <trkpt lat="48.7157" lon="2.54413">
        <ele>83</ele>
        <time>2022-09-25T08:55:59.996Z</time>
      </trkpt>
      <trkpt lat="48.71572" lon="2.54421">
        <ele>83</ele>
        <time>2022-09-25T08:56:04.994Z</time>
      </trkpt>
      <trkpt lat="48.71573" lon="2.54431">
        <ele>83</ele>
        <time>2022-09-25T08:56:09.986Z</time>
      </trkpt>
      <trkpt lat="48.71575" lon="2.54439">
        <ele>83</ele>
        <time>2022-09-25T08:56:14.978Z</time>
      </trkpt>
      <trkpt lat="48.71576" lon="2.54449">
        <ele>83</ele>
        <time>2022-09-25T08:56:19.978Z</time>
      </trkpt>
      <trkpt lat="48.71577" lon="2.54457">
        <ele>83</ele>
        <time>2022-09-25T08:56:23.986Z</time>
      </trkpt>
      <trkpt lat="48.71579" lon="2.54464">
        <ele>82</ele>
        <time>2022-09-25T08:56:28.006Z</time>
      </trkpt>
      <trkpt lat="48.7158" lon="2.54472">
        <ele>82</ele>
        <time>2022-09-25T08:56:33.009Z</time>
      </trkpt>
      <trkpt lat="48.7158" lon="2.54482">
        <ele>82</ele>
        <time>2022-09-25T08:56:37.990Z</time>
      </trkpt>
      <trkpt lat="48.71582" lon="2.54489">
        <ele>81</ele>
        <time>2022-09-25T08:56:42Z</time>
      </trkpt>
      <trkpt lat="48.71583" lon="2.54498">
        <ele>81</ele>
        <time>2022-09-25T08:56:46.986Z</time>
      </trkpt>
      <trkpt lat="48.71584" lon="2.54506">
        <ele>81</ele>
        <time>2022-09-25T08:56:51.990Z</time>
      </trkpt>
      <trkpt lat="48.71586" lon="2.54513">
        <ele>81</ele>
        <time>2022-09-25T08:56:55.995Z</time>
      </trkpt>
      <trkpt lat="48.71587" lon="2.54523">
        <ele>81</ele>
        <time>2022-09-25T08:57:01.003Z</time>
      </trkpt>
      <trkpt lat="48.71588" lon="2.54533">
        <ele>81</ele>
        <time>2022-09-25T08:57:05.998Z</time>
      </trkpt>
      <trkpt lat="48.7159" lon="2.54541">
        <ele>81</ele>
        <time>2022-09-25T08:57:10.005Z</time>
      </trkpt>
      <trkpt lat="48.71591" lon="2.5455">
        <ele>81</ele>
        <time>2022-09-25T08:57:14.989Z</time>
      </trkpt>
      <trkpt lat="48.71592" lon="2.54558">
        <ele>81</ele>
        <time>2022-09-25T08:57:19.008Z</time>
      </trkpt>
      <trkpt lat="48.71594" lon="2.54566">
        <ele>81</ele>
        <time>2022-09-25T08:57:23.998Z</time>
      </trkpt>
      <trkpt lat="48.716" lon="2.54573">
        <ele>79</ele>
        <time>2022-09-25T08:57:28.969Z</time>
      </trkpt>
      <trkpt lat="48.71605" lon="2.54574">
        <ele>79</ele>
        <time>2022-09-25T08:57:32.981Z</time>
      </trkpt>
      <trkpt lat="48.71609" lon="2.54578">
        <ele>79</ele>
        <time>2022-09-25T08:57:36.990Z</time>
      </trkpt>
      <trkpt lat="48.71614" lon="2.54584">
        <ele>79</ele>
        <time>2022-09-25T08:57:41.987Z</time>
      </trkpt>
      <trkpt lat="48.71619" lon="2.54589">
        <ele>79</ele>
        <time>2022-09-25T08:57:46.972Z</time>
      </trkpt>
      <trkpt lat="48.71622" lon="2.54592">
        <ele>79</ele>
        <time>2022-09-25T08:57:50.983Z</time>
      </trkpt>
      <trkpt lat="48.71628" lon="2.54595">
        <ele>79</ele>
        <time>2022-09-25T08:57:55.984Z</time>
      </trkpt>
      <trkpt lat="48.71632" lon="2.546">
        <ele>79</ele>
        <time>2022-09-25T08:58:00.014Z</time>
      </trkpt>
      <trkpt lat="48.71638" lon="2.54606">
        <ele>79</ele>
        <time>2022-09-25T08:58:05.005Z</time>
      </trkpt>
      <trkpt lat="48.71643" lon="2.54611">
        <ele>79</ele>
        <time>2022-09-25T08:58:09.014Z</time>
      </trkpt>
      <trkpt lat="48.71649" lon="2.54616">
        <ele>79</ele>
        <time>2022-09-25T08:58:13.993Z</time>
      </trkpt>
      <trkpt lat="48.71655" lon="2.54622">
        <ele>78</ele>
        <time>2022-09-25T08:58:18.952Z</time>
      </trkpt>
      <trkpt lat="48.7166" lon="2.54624">
        <ele>78</ele>
        <time>2022-09-25T08:58:22.958Z</time>
      </trkpt>
      <trkpt lat="48.71664" lon="2.54628">
        <ele>78</ele>
        <time>2022-09-25T08:58:26.988Z</time>
      </trkpt>
      <trkpt lat="48.7167" lon="2.54634">
        <ele>78</ele>
        <time>2022-09-25T08:58:31.978Z</time>
      </trkpt>
      <trkpt lat="48.71675" lon="2.5464">
        <ele>78</ele>
        <time>2022-09-25T08:58:36.989Z</time>
      </trkpt>
      <trkpt lat="48.71679" lon="2.54646">
        <ele>78</ele>
        <time>2022-09-25T08:58:40.995Z</time>
      </trkpt>
      <trkpt lat="48.71685" lon="2.54653">
        <ele>76</ele>
        <time>2022-09-25T08:58:45.992Z</time>
      </trkpt>
      <trkpt lat="48.7169" lon="2.54658">
        <ele>76</ele>
        <time>2022-09-25T08:58:50.985Z</time>
      </trkpt>
      <trkpt lat="48.71696" lon="2.54663">
        <ele>76</ele>
        <time>2022-09-25T08:58:55.989Z</time>
      </trkpt>
      <trkpt lat="48.71701" lon="2.54668">
        <ele>76</ele>
        <time>2022-09-25T08:59:00.985Z</time>
      </trkpt>
      <trkpt lat="48.71708" lon="2.54675">
        <ele>76</ele>
        <time>2022-09-25T08:59:05.979Z</time>
      </trkpt>
      <trkpt lat="48.71712" lon="2.54679">
        <ele>74</ele>
        <time>2022-09-25T08:59:09.990Z</time>
      </trkpt>
      <trkpt lat="48.71719" lon="2.54683">
        <ele>75</ele>
        <time>2022-09-25T08:59:14.975Z</time>
      </trkpt>
      <trkpt lat="48.71724" lon="2.54687">
        <ele>75</ele>
        <time>2022-09-25T08:59:19.989Z</time>
      </trkpt>
      <trkpt lat="48.7173" lon="2.54692">
        <ele>75</ele>
        <time>2022-09-25T08:59:24.988Z</time>
      </trkpt>
      <trkpt lat="48.71736" lon="2.54696">
        <ele>75</ele>
        <time>2022-09-25T08:59:29.997Z</time>
      </trkpt>
      <trkpt lat="48.71743" lon="2.54699">
        <ele>74</ele>
        <time>2022-09-25T08:59:34.982Z</time>
      </trkpt>
      <trkpt lat="48.71747" lon="2.54704">
        <ele>74</ele>
        <time>2022-09-25T08:59:39.990Z</time>
      </trkpt>
      <trkpt lat="48.71751" lon="2.54706">
        <ele>74</ele>
        <time>2022-09-25T08:59:43.996Z</time>
      </trkpt>
      <trkpt lat="48.71756" lon="2.54709">
        <ele>74</ele>
        <time>2022-09-25T08:59:48.991Z</time>
      </trkpt>
      <trkpt lat="48.71762" lon="2.54714">
        <ele>74</ele>
        <time>2022-09-25T08:59:54.012Z</time>
      </trkpt>
      <trkpt lat="48.71767" lon="2.5472">
        <ele>74</ele>
        <time>2022-09-25T08:59:59.010Z</time>
      </trkpt>
      <trkpt lat="48.71773" lon="2.54724">
        <ele>74</ele>
        <time>2022-09-25T09:00:03.993Z</time>
      </trkpt>
      <trkpt lat="48.71777" lon="2.54726">
        <ele>74</ele>
        <time>2022-09-25T09:00:08.985Z</time>
      </trkpt>
      <trkpt lat="48.7178" lon="2.5473">
        <ele>74</ele>
        <time>2022-09-25T09:00:13.984Z</time>
      </trkpt>
      <trkpt lat="48.71783" lon="2.54736">
        <ele>75</ele>
        <time>2022-09-25T09:00:18.002Z</time>
      </trkpt>
      <trkpt lat="48.71785" lon="2.54744">
        <ele>75</ele>
        <time>2022-09-25T09:00:22.010Z</time>
      </trkpt>
      <trkpt lat="48.71785" lon="2.54754">
        <ele>75</ele>
        <time>2022-09-25T09:00:26.996Z</time>
      </trkpt>
      <trkpt lat="48.71785" lon="2.54764">
        <ele>76</ele>
        <time>2022-09-25T09:00:31.987Z</time>
      </trkpt>
      <trkpt lat="48.71785" lon="2.54773">
        <ele>76</ele>
        <time>2022-09-25T09:00:35.997Z</time>
      </trkpt>
      <trkpt lat="48.71785" lon="2.54779">
        <ele>76</ele>
        <time>2022-09-25T09:00:40.012Z</time>
      </trkpt>
      <trkpt lat="48.71786" lon="2.54788">
        <ele>76</ele>
        <time>2022-09-25T09:00:44.998Z</time>
      </trkpt>
      <trkpt lat="48.71786" lon="2.54797">
        <ele>77</ele>
        <time>2022-09-25T09:00:49.998Z</time>
      </trkpt>
      <trkpt lat="48.71787" lon="2.54806">
        <ele>77</ele>
        <time>2022-09-25T09:00:54.990Z</time>
      </trkpt>
      <trkpt lat="48.71789" lon="2.54818">
        <ele>77</ele>
        <time>2022-09-25T09:01:00Z</time>
      </trkpt>
      <trkpt lat="48.71791" lon="2.54828">
        <ele>78</ele>
        <time>2022-09-25T09:01:04.985Z</time>
      </trkpt>
      <trkpt lat="48.71796" lon="2.54835">
        <ele>78</ele>
        <time>2022-09-25T09:01:09.982Z</time>
      </trkpt>
      <trkpt lat="48.71803" lon="2.54837">
        <ele>78</ele>
        <time>2022-09-25T09:01:14.974Z</time>
      </trkpt>
      <trkpt lat="48.71808" lon="2.54838">
        <ele>78</ele>
        <time>2022-09-25T09:01:18.990Z</time>
      </trkpt>
      <trkpt lat="48.71813" lon="2.54838">
        <ele>78</ele>
        <time>2022-09-25T09:01:24.003Z</time>
      </trkpt>
      <trkpt lat="48.7182" lon="2.54838">
        <ele>79</ele>
        <time>2022-09-25T09:01:29.007Z</time>
      </trkpt>
      <trkpt lat="48.71826" lon="2.54838">
        <ele>79</ele>
        <time>2022-09-25T09:01:33.993Z</time>
      </trkpt>
      <trkpt lat="48.71832" lon="2.54837">
        <ele>79</ele>
        <time>2022-09-25T09:01:38.001Z</time>
      </trkpt>
      <trkpt lat="48.71838" lon="2.54837">
        <ele>79</ele>
        <time>2022-09-25T09:01:42.992Z</time>
      </trkpt>
      <trkpt lat="48.71843" lon="2.54835">
        <ele>79</ele>
        <time>2022-09-25T09:01:46.988Z</time>
      </trkpt>
      <trkpt lat="48.71851" lon="2.54835">
        <ele>80</ele>
        <time>2022-09-25T09:01:51.998Z</time>
      </trkpt>
      <trkpt lat="48.71855" lon="2.54835">
        <ele>80</ele>
        <time>2022-09-25T09:01:56.988Z</time>
      </trkpt>
      <trkpt lat="48.7186" lon="2.54829">
        <ele>80</ele>
        <time>2022-09-25T09:02:01.973Z</time>
      </trkpt>
      <trkpt lat="48.71864" lon="2.54823">
        <ele>80</ele>
        <time>2022-09-25T09:02:06.980Z</time>
      </trkpt>
      <trkpt lat="48.71868" lon="2.54818">
        <ele>79</ele>
        <time>2022-09-25T09:02:11.978Z</time>
      </trkpt>
      <trkpt lat="48.71872" lon="2.54814">
        <ele>79</ele>
        <time>2022-09-25T09:02:15.990Z</time>
      </trkpt>
      <trkpt lat="48.71876" lon="2.54812">
        <ele>80</ele>
        <time>2022-09-25T09:02:20.980Z</time>
      </trkpt>
      <trkpt lat="48.71882" lon="2.54809">
        <ele>80</ele>
        <time>2022-09-25T09:02:25.981Z</time>
      </trkpt>
      <trkpt lat="48.71887" lon="2.54806">
        <ele>80</ele>
        <time>2022-09-25T09:02:30.980Z</time>
      </trkpt>
      <trkpt lat="48.71894" lon="2.54806">
        <ele>80</ele>
        <time>2022-09-25T09:02:35.985Z</time>
      </trkpt>
      <trkpt lat="48.71899" lon="2.54806">
        <ele>80</ele>
        <time>2022-09-25T09:02:39.994Z</time>
      </trkpt>
      <trkpt lat="48.71906" lon="2.54808">
        <ele>81</ele>
        <time>2022-09-25T09:02:44.996Z</time>
      </trkpt>
      <trkpt lat="48.71911" lon="2.54809">
        <ele>81</ele>
        <time>2022-09-25T09:02:49.002Z</time>
      </trkpt>
      <trkpt lat="48.71917" lon="2.54807">
        <ele>81</ele>
        <time>2022-09-25T09:02:53.990Z</time>
      </trkpt>
      <trkpt lat="48.71922" lon="2.54806">
        <ele>81</ele>
        <time>2022-09-25T09:02:57.994Z</time>
      </trkpt>
      <trkpt lat="48.71928" lon="2.54806">
        <ele>81</ele>
        <time>2022-09-25T09:03:02.998Z</time>
      </trkpt>
      <trkpt lat="48.71934" lon="2.54805">
        <ele>84</ele>
        <time>2022-09-25T09:03:08.012Z</time>
      </trkpt>
      <trkpt lat="48.7194" lon="2.54804">
        <ele>84</ele>
        <time>2022-09-25T09:03:12.986Z</time>
      </trkpt>
      <trkpt lat="48.71945" lon="2.54804">
        <ele>84</ele>
        <time>2022-09-25T09:03:16.993Z</time>
      </trkpt>
      <trkpt lat="48.7195" lon="2.54803">
        <ele>84</ele>
        <time>2022-09-25T09:03:21.003Z</time>
      </trkpt>
      <trkpt lat="48.71956" lon="2.54803">
        <ele>84</ele>
        <time>2022-09-25T09:03:25.999Z</time>
      </trkpt>
      <trkpt lat="48.71964" lon="2.54802">
        <ele>87</ele>
        <time>2022-09-25T09:03:30.983Z</time>
      </trkpt>
      <trkpt lat="48.71968" lon="2.54803">
        <ele>87</ele>
        <time>2022-09-25T09:03:35.020Z</time>
      </trkpt>
      <trkpt lat="48.71975" lon="2.54804">
        <ele>87</ele>
        <time>2022-09-25T09:03:39.992Z</time>
      </trkpt>
      <trkpt lat="48.7198" lon="2.54803">
        <ele>87</ele>
        <time>2022-09-25T09:03:44.002Z</time>
      </trkpt>
      <trkpt lat="48.71985" lon="2.54802">
        <ele>87</ele>
        <time>2022-09-25T09:03:48.031Z</time>
      </trkpt>
      <trkpt lat="48.71991" lon="2.54802">
        <ele>87</ele>
        <time>2022-09-25T09:03:52.033Z</time>
      </trkpt>
      <trkpt lat="48.71996" lon="2.54802">
        <ele>87</ele>
        <time>2022-09-25T09:03:56.990Z</time>
      </trkpt>
      <trkpt lat="48.72003" lon="2.54802">
        <ele>87</ele>
        <time>2022-09-25T09:04:01.980Z</time>
      </trkpt>
      <trkpt lat="48.72009" lon="2.54802">
        <ele>87</ele>
        <time>2022-09-25T09:04:05.990Z</time>
      </trkpt>
      <trkpt lat="48.72015" lon="2.54799">
        <ele>84</ele>
        <time>2022-09-25T09:04:10.977Z</time>
      </trkpt>
      <trkpt lat="48.7202" lon="2.54798">
        <ele>84</ele>
        <time>2022-09-25T09:04:14.993Z</time>
      </trkpt>
      <trkpt lat="48.72026" lon="2.54799">
        <ele>84</ele>
        <time>2022-09-25T09:04:19.006Z</time>
      </trkpt>
      <trkpt lat="48.72033" lon="2.54798">
        <ele>84</ele>
        <time>2022-09-25T09:04:23.999Z</time>
      </trkpt>
      <trkpt lat="48.72039" lon="2.54797">
        <ele>84</ele>
        <time>2022-09-25T09:04:28.994Z</time>
      </trkpt>
      <trkpt lat="48.72045" lon="2.54797">
        <ele>82</ele>
        <time>2022-09-25T09:04:34.003Z</time>
      </trkpt>
      <trkpt lat="48.72053" lon="2.54798">
        <ele>82</ele>
        <time>2022-09-25T09:04:38.994Z</time>
      </trkpt>
      <trkpt lat="48.72059" lon="2.54796">
        <ele>82</ele>
        <time>2022-09-25T09:04:43.999Z</time>
      </trkpt>
      <trkpt lat="48.72065" lon="2.54797">
        <ele>82</ele>
        <time>2022-09-25T09:04:48.989Z</time>
      </trkpt>
      <trkpt lat="48.7207" lon="2.54794">
        <ele>82</ele>
        <time>2022-09-25T09:04:54.006Z</time>
      </trkpt>
      <trkpt lat="48.72078" lon="2.54792">
        <ele>82</ele>
        <time>2022-09-25T09:04:59.001Z</time>
      </trkpt>
      <trkpt lat="48.72085" lon="2.5479">
        <ele>80</ele>
        <time>2022-09-25T09:05:03.993Z</time>
      </trkpt>
      <trkpt lat="48.7209" lon="2.54788">
        <ele>80</ele>
        <time>2022-09-25T09:05:07.992Z</time>
      </trkpt>
      <trkpt lat="48.72098" lon="2.54788">
        <ele>81</ele>
        <time>2022-09-25T09:05:12.990Z</time>
      </trkpt>
      <trkpt lat="48.72104" lon="2.54789">
        <ele>81</ele>
        <time>2022-09-25T09:05:17.986Z</time>
      </trkpt>
      <trkpt lat="48.72109" lon="2.54789">
        <ele>81</ele>
        <time>2022-09-25T09:05:22.011Z</time>
      </trkpt>
      <trkpt lat="48.72115" lon="2.54786">
        <ele>81</ele>
        <time>2022-09-25T09:05:26.981Z</time>
      </trkpt>
      <trkpt lat="48.7212" lon="2.54783">
        <ele>81</ele>
        <time>2022-09-25T09:05:31.001Z</time>
      </trkpt>
      <trkpt lat="48.72126" lon="2.54782">
        <ele>81</ele>
        <time>2022-09-25T09:05:36.005Z</time>
      </trkpt>
      <trkpt lat="48.72132" lon="2.54782">
        <ele>81</ele>
        <time>2022-09-25T09:05:41.005Z</time>
      </trkpt>
      <trkpt lat="48.72138" lon="2.54781">
        <ele>81</ele>
        <time>2022-09-25T09:05:45.010Z</time>
      </trkpt>
      <trkpt lat="48.72144" lon="2.54777">
        <ele>81</ele>
        <time>2022-09-25T09:05:49.995Z</time>
      </trkpt>
      <trkpt lat="48.72151" lon="2.54772">
        <ele>81</ele>
        <time>2022-09-25T09:05:55.006Z</time>
      </trkpt>
      <trkpt lat="48.72159" lon="2.54767">
        <ele>82</ele>
        <time>2022-09-25T09:06:00.002Z</time>
      </trkpt>
      <trkpt lat="48.72165" lon="2.54764">
        <ele>80</ele>
        <time>2022-09-25T09:06:04.978Z</time>
      </trkpt>
      <trkpt lat="48.7217" lon="2.5476">
        <ele>80</ele>
        <time>2022-09-25T09:06:08.982Z</time>
      </trkpt>
      <trkpt lat="48.72174" lon="2.5476">
        <ele>80</ele>
        <time>2022-09-25T09:06:14.011Z</time>
      </trkpt>
      <trkpt lat="48.7218" lon="2.54759">
        <ele>80</ele>
        <time>2022-09-25T09:06:18.980Z</time>
      </trkpt>
      <trkpt lat="48.72185" lon="2.54755">
        <ele>79</ele>
        <time>2022-09-25T09:06:22.981Z</time>
      </trkpt>
      <trkpt lat="48.7219" lon="2.54753">
        <ele>79</ele>
        <time>2022-09-25T09:06:27.004Z</time>
      </trkpt>
      <trkpt lat="48.72197" lon="2.54747">
        <ele>79</ele>
        <time>2022-09-25T09:06:31.945Z</time>
      </trkpt>
      <trkpt lat="48.72202" lon="2.54746">
        <ele>79</ele>
        <time>2022-09-25T09:06:35.983Z</time>
      </trkpt>
      <trkpt lat="48.72207" lon="2.54743">
        <ele>79</ele>
        <time>2022-09-25T09:06:39.994Z</time>
      </trkpt>
      <trkpt lat="48.72211" lon="2.54741">
        <ele>75</ele>
        <time>2022-09-25T09:06:44.005Z</time>
      </trkpt>
      <trkpt lat="48.72214" lon="2.5474">
        <ele>75</ele>
        <time>2022-09-25T09:06:48.994Z</time>
      </trkpt>
      <trkpt lat="48.72217" lon="2.54736">
        <ele>75</ele>
        <time>2022-09-25T09:06:53.003Z</time>
      </trkpt>
      <trkpt lat="48.72218" lon="2.5473">
        <ele>75</ele>
        <time>2022-09-25T09:06:57.989Z</time>
      </trkpt>
      <trkpt lat="48.72218" lon="2.54725">
        <ele>75</ele>
        <time>2022-09-25T09:07:01.994Z</time>
      </trkpt>
      <trkpt lat="48.72218" lon="2.5472">
        <ele>75</ele>
        <time>2022-09-25T09:07:05.998Z</time>
      </trkpt>
      <trkpt lat="48.72221" lon="2.54719">
        <ele>75</ele>
        <time>2022-09-25T09:23:26.006Z</time>
      </trkpt>
      <trkpt lat="48.72225" lon="2.54719">
        <ele>75</ele>
        <time>2022-09-25T09:23:30.977Z</time>
      </trkpt>
      <trkpt lat="48.72226" lon="2.54721">
        <ele>75</ele>
        <time>2022-09-25T09:23:35.002Z</time>
      </trkpt>
      <trkpt lat="48.72229" lon="2.54724">
        <ele>75</ele>
        <time>2022-09-25T09:23:38.999Z</time>
      </trkpt>
      <trkpt lat="48.72233" lon="2.54724">
        <ele>75</ele>
        <time>2022-09-25T09:23:43.989Z</time>
      </trkpt>
      <trkpt lat="48.72236" lon="2.54722">
        <ele>75</ele>
        <time>2022-09-25T09:23:48.006Z</time>
      </trkpt>
      <trkpt lat="48.72239" lon="2.5472">
        <ele>73</ele>
        <time>2022-09-25T09:23:53.016Z</time>
      </trkpt>
      <trkpt lat="48.72242" lon="2.54717">
        <ele>73</ele>
        <time>2022-09-25T09:23:57.994Z</time>
      </trkpt>
      <trkpt lat="48.72245" lon="2.54714">
        <ele>73</ele>
        <time>2022-09-25T09:24:02.005Z</time>
      </trkpt>
      <trkpt lat="48.72249" lon="2.54711">
        <ele>73</ele>
        <time>2022-09-25T09:24:06.009Z</time>
      </trkpt>
      <trkpt lat="48.72254" lon="2.54707">
        <ele>74</ele>
        <time>2022-09-25T09:24:10.998Z</time>
      </trkpt>
      <trkpt lat="48.72258" lon="2.54704">
        <ele>74</ele>
        <time>2022-09-25T09:24:15.007Z</time>
      </trkpt>
      <trkpt lat="48.72264" lon="2.54699">
        <ele>74</ele>
        <time>2022-09-25T09:24:20.007Z</time>
      </trkpt>
      <trkpt lat="48.72269" lon="2.54696">
        <ele>74</ele>
        <time>2022-09-25T09:24:25.004Z</time>
      </trkpt>
      <trkpt lat="48.72275" lon="2.54692">
        <ele>74</ele>
        <time>2022-09-25T09:24:29.999Z</time>
      </trkpt>
      <trkpt lat="48.72279" lon="2.54689">
        <ele>74</ele>
        <time>2022-09-25T09:24:34.006Z</time>
      </trkpt>
      <trkpt lat="48.72284" lon="2.54686">
        <ele>74</ele>
        <time>2022-09-25T09:24:38.991Z</time>
      </trkpt>
      <trkpt lat="48.72289" lon="2.5468">
        <ele>74</ele>
        <time>2022-09-25T09:24:43.977Z</time>
      </trkpt>
      <trkpt lat="48.72292" lon="2.54675">
        <ele>71</ele>
        <time>2022-09-25T09:24:47.984Z</time>
      </trkpt>
      <trkpt lat="48.72297" lon="2.5467">
        <ele>71</ele>
        <time>2022-09-25T09:24:51.993Z</time>
      </trkpt>
      <trkpt lat="48.72302" lon="2.54665">
        <ele>71</ele>
        <time>2022-09-25T09:24:56.961Z</time>
      </trkpt>
      <trkpt lat="48.72309" lon="2.54659">
        <ele>71</ele>
        <time>2022-09-25T09:25:01.961Z</time>
      </trkpt>
      <trkpt lat="48.72319" lon="2.54651">
        <ele>70</ele>
        <time>2022-09-25T09:25:05.970Z</time>
      </trkpt>
      <trkpt lat="48.72329" lon="2.54645">
        <ele>70</ele>
        <time>2022-09-25T09:25:10.959Z</time>
      </trkpt>
      <trkpt lat="48.72337" lon="2.54639">
        <ele>70</ele>
        <time>2022-09-25T09:25:14.960Z</time>
      </trkpt>
      <trkpt lat="48.72344" lon="2.54634">
        <ele>70</ele>
        <time>2022-09-25T09:25:19.977Z</time>
      </trkpt>
      <trkpt lat="48.72353" lon="2.54628">
        <ele>70</ele>
        <time>2022-09-25T09:25:24.970Z</time>
      </trkpt>
      <trkpt lat="48.7236" lon="2.54622">
        <ele>69</ele>
        <time>2022-09-25T09:25:29.957Z</time>
      </trkpt>
      <trkpt lat="48.72366" lon="2.54616">
        <ele>69</ele>
        <time>2022-09-25T09:25:34.960Z</time>
      </trkpt>
      <trkpt lat="48.72372" lon="2.54613">
        <ele>69</ele>
        <time>2022-09-25T09:25:38.963Z</time>
      </trkpt>
      <trkpt lat="48.72377" lon="2.5461">
        <ele>71</ele>
        <time>2022-09-25T09:25:42.978Z</time>
      </trkpt>
      <trkpt lat="48.72382" lon="2.54603">
        <ele>71</ele>
        <time>2022-09-25T09:25:47.989Z</time>
      </trkpt>
      <trkpt lat="48.72388" lon="2.54598">
        <ele>71</ele>
        <time>2022-09-25T09:25:52.964Z</time>
      </trkpt>
      <trkpt lat="48.72394" lon="2.54592">
        <ele>72</ele>
        <time>2022-09-25T09:25:57.987Z</time>
      </trkpt>
      <trkpt lat="48.72399" lon="2.54587">
        <ele>72</ele>
        <time>2022-09-25T09:26:02.980Z</time>
      </trkpt>
      <trkpt lat="48.72404" lon="2.54581">
        <ele>72</ele>
        <time>2022-09-25T09:26:07.980Z</time>
      </trkpt>
      <trkpt lat="48.72408" lon="2.54577">
        <ele>72</ele>
        <time>2022-09-25T09:26:12.950Z</time>
      </trkpt>
      <trkpt lat="48.72412" lon="2.54571">
        <ele>72</ele>
        <time>2022-09-25T09:26:17.968Z</time>
      </trkpt>
      <trkpt lat="48.72417" lon="2.54567">
        <ele>71</ele>
        <time>2022-09-25T09:26:22.992Z</time>
      </trkpt>
      <trkpt lat="48.7242" lon="2.54563">
        <ele>71</ele>
        <time>2022-09-25T09:26:26.998Z</time>
      </trkpt>
      <trkpt lat="48.72426" lon="2.54556">
        <ele>71</ele>
        <time>2022-09-25T09:26:32.009Z</time>
      </trkpt>
      <trkpt lat="48.7243" lon="2.54549">
        <ele>71</ele>
        <time>2022-09-25T09:26:37.004Z</time>
      </trkpt>
      <trkpt lat="48.72436" lon="2.54543">
        <ele>70</ele>
        <time>2022-09-25T09:26:41.997Z</time>
      </trkpt>
      <trkpt lat="48.72442" lon="2.54537">
        <ele>69</ele>
        <time>2022-09-25T09:26:46.980Z</time>
      </trkpt>
      <trkpt lat="48.72445" lon="2.54531">
        <ele>69</ele>
        <time>2022-09-25T09:26:51.003Z</time>
      </trkpt>
      <trkpt lat="48.72451" lon="2.54524">
        <ele>69</ele>
        <time>2022-09-25T09:26:55.981Z</time>
      </trkpt>
      <trkpt lat="48.72455" lon="2.54519">
        <ele>69</ele>
        <time>2022-09-25T09:27:00.010Z</time>
      </trkpt>
      <trkpt lat="48.72459" lon="2.54513">
        <ele>70</ele>
        <time>2022-09-25T09:27:05.008Z</time>
      </trkpt>
      <trkpt lat="48.72463" lon="2.54507">
        <ele>70</ele>
        <time>2022-09-25T09:27:09.013Z</time>
      </trkpt>
      <trkpt lat="48.72469" lon="2.545">
        <ele>70</ele>
        <time>2022-09-25T09:27:14.005Z</time>
      </trkpt>
      <trkpt lat="48.72474" lon="2.54491">
        <ele>70</ele>
        <time>2022-09-25T09:27:18.997Z</time>
      </trkpt>
      <trkpt lat="48.72477" lon="2.54484">
        <ele>69</ele>
        <time>2022-09-25T09:27:23.980Z</time>
      </trkpt>
      <trkpt lat="48.72479" lon="2.54478">
        <ele>69</ele>
        <time>2022-09-25T09:27:27.995Z</time>
      </trkpt>
      <trkpt lat="48.72482" lon="2.54473">
        <ele>69</ele>
        <time>2022-09-25T09:27:32.007Z</time>
      </trkpt>
      <trkpt lat="48.72487" lon="2.54465">
        <ele>67</ele>
        <time>2022-09-25T09:27:37Z</time>
      </trkpt>
      <trkpt lat="48.72492" lon="2.54457">
        <ele>66</ele>
        <time>2022-09-25T09:27:42.001Z</time>
      </trkpt>
      <trkpt lat="48.72496" lon="2.54452">
        <ele>66</ele>
        <time>2022-09-25T09:27:46.968Z</time>
      </trkpt>
      <trkpt lat="48.72499" lon="2.54446">
        <ele>66</ele>
        <time>2022-09-25T09:27:50.992Z</time>
      </trkpt>
      <trkpt lat="48.72503" lon="2.54439">
        <ele>66</ele>
        <time>2022-09-25T09:27:55.011Z</time>
      </trkpt>
      <trkpt lat="48.72507" lon="2.54431">
        <ele>66</ele>
        <time>2022-09-25T09:27:59.991Z</time>
      </trkpt>
      <trkpt lat="48.72511" lon="2.54425">
        <ele>66</ele>
        <time>2022-09-25T09:28:04.012Z</time>
      </trkpt>
      <trkpt lat="48.72515" lon="2.54419">
        <ele>65</ele>
        <time>2022-09-25T09:28:08.994Z</time>
      </trkpt>
      <trkpt lat="48.72518" lon="2.54412">
        <ele>65</ele>
        <time>2022-09-25T09:28:14Z</time>
      </trkpt>
      <trkpt lat="48.72522" lon="2.54404">
        <ele>65</ele>
        <time>2022-09-25T09:28:19.016Z</time>
      </trkpt>
      <trkpt lat="48.72527" lon="2.54398">
        <ele>66</ele>
        <time>2022-09-25T09:28:23.995Z</time>
      </trkpt>
      <trkpt lat="48.7253" lon="2.54392">
        <ele>66</ele>
        <time>2022-09-25T09:28:28.023Z</time>
      </trkpt>
      <trkpt lat="48.72533" lon="2.54385">
        <ele>66</ele>
        <time>2022-09-25T09:28:32.974Z</time>
      </trkpt>
      <trkpt lat="48.72536" lon="2.54377">
        <ele>66</ele>
        <time>2022-09-25T09:28:37.973Z</time>
      </trkpt>
      <trkpt lat="48.72539" lon="2.5437">
        <ele>67</ele>
        <time>2022-09-25T09:28:41.985Z</time>
      </trkpt>
      <trkpt lat="48.72541" lon="2.54364">
        <ele>67</ele>
        <time>2022-09-25T09:28:45.999Z</time>
      </trkpt>
      <trkpt lat="48.72544" lon="2.54356">
        <ele>65</ele>
        <time>2022-09-25T09:28:50.975Z</time>
      </trkpt>
      <trkpt lat="48.72547" lon="2.54349">
        <ele>65</ele>
        <time>2022-09-25T09:28:54.980Z</time>
      </trkpt>
      <trkpt lat="48.72552" lon="2.54342">
        <ele>67</ele>
        <time>2022-09-25T09:28:59.994Z</time>
      </trkpt>
      <trkpt lat="48.72555" lon="2.54333">
        <ele>67</ele>
        <time>2022-09-25T09:29:04.991Z</time>
      </trkpt>
      <trkpt lat="48.72558" lon="2.54324">
        <ele>67</ele>
        <time>2022-09-25T09:29:09.982Z</time>
      </trkpt>
      <trkpt lat="48.72561" lon="2.54315">
        <ele>67</ele>
        <time>2022-09-25T09:29:14.994Z</time>
      </trkpt>
      <trkpt lat="48.72562" lon="2.54309">
        <ele>67</ele>
        <time>2022-09-25T09:29:19.002Z</time>
      </trkpt>
      <trkpt lat="48.72565" lon="2.54301">
        <ele>67</ele>
        <time>2022-09-25T09:29:24.012Z</time>
      </trkpt>
      <trkpt lat="48.72568" lon="2.54292">
        <ele>67</ele>
        <time>2022-09-25T09:29:29.002Z</time>
      </trkpt>
      <trkpt lat="48.72571" lon="2.54282">
        <ele>66</ele>
        <time>2022-09-25T09:29:33.993Z</time>
      </trkpt>
      <trkpt lat="48.72574" lon="2.54274">
        <ele>66</ele>
        <time>2022-09-25T09:29:38.001Z</time>
      </trkpt>
      <trkpt lat="48.72577" lon="2.54264">
        <ele>66</ele>
        <time>2022-09-25T09:29:42.005Z</time>
      </trkpt>
      <trkpt lat="48.72581" lon="2.54259">
        <ele>66</ele>
        <time>2022-09-25T09:29:46.024Z</time>
      </trkpt>
      <trkpt lat="48.72584" lon="2.54251">
        <ele>66</ele>
        <time>2022-09-25T09:29:50.998Z</time>
      </trkpt>
      <trkpt lat="48.72585" lon="2.54244">
        <ele>66</ele>
        <time>2022-09-25T09:29:55.006Z</time>
      </trkpt>
      <trkpt lat="48.72588" lon="2.54236">
        <ele>66</ele>
        <time>2022-09-25T09:29:59.989Z</time>
      </trkpt>
      <trkpt lat="48.7259" lon="2.54229">
        <ele>66</ele>
        <time>2022-09-25T09:30:04Z</time>
      </trkpt>
      <trkpt lat="48.72592" lon="2.54221">
        <ele>66</ele>
        <time>2022-09-25T09:30:08.003Z</time>
      </trkpt>
      <trkpt lat="48.72595" lon="2.54213">
        <ele>66</ele>
        <time>2022-09-25T09:30:12.987Z</time>
      </trkpt>
      <trkpt lat="48.72597" lon="2.54206">
        <ele>67</ele>
        <time>2022-09-25T09:30:17.002Z</time>
      </trkpt>
      <trkpt lat="48.726" lon="2.54198">
        <ele>67</ele>
        <time>2022-09-25T09:30:21.024Z</time>
      </trkpt>
      <trkpt lat="48.72602" lon="2.54189">
        <ele>67</ele>
        <time>2022-09-25T09:30:26Z</time>
      </trkpt>
      <trkpt lat="48.72603" lon="2.54182">
        <ele>67</ele>
        <time>2022-09-25T09:30:30.012Z</time>
      </trkpt>
      <trkpt lat="48.72606" lon="2.54173">
        <ele>68</ele>
        <time>2022-09-25T09:30:35.002Z</time>
      </trkpt>
      <trkpt lat="48.72607" lon="2.54166">
        <ele>68</ele>
        <time>2022-09-25T09:30:39.009Z</time>
      </trkpt>
      <trkpt lat="48.72612" lon="2.54156">
        <ele>68</ele>
        <time>2022-09-25T09:30:44.011Z</time>
      </trkpt>
      <trkpt lat="48.72614" lon="2.54147">
        <ele>69</ele>
        <time>2022-09-25T09:30:48.019Z</time>
      </trkpt>
      <trkpt lat="48.72615" lon="2.54137">
        <ele>69</ele>
        <time>2022-09-25T09:30:53.006Z</time>
      </trkpt>
      <trkpt lat="48.72616" lon="2.5413">
        <ele>69</ele>
        <time>2022-09-25T09:30:58.003Z</time>
      </trkpt>
      <trkpt lat="48.72616" lon="2.54121">
        <ele>69</ele>
        <time>2022-09-25T09:31:02.010Z</time>
      </trkpt>
      <trkpt lat="48.72617" lon="2.5411">
        <ele>69</ele>
        <time>2022-09-25T09:31:06.988Z</time>
      </trkpt>
      <trkpt lat="48.72618" lon="2.54101">
        <ele>69</ele>
        <time>2022-09-25T09:31:10.998Z</time>
      </trkpt>
      <trkpt lat="48.72621" lon="2.54094">
        <ele>69</ele>
        <time>2022-09-25T09:31:15.989Z</time>
      </trkpt>
      <trkpt lat="48.72621" lon="2.54085">
        <ele>69</ele>
        <time>2022-09-25T09:31:19.999Z</time>
      </trkpt>
      <trkpt lat="48.72623" lon="2.54076">
        <ele>69</ele>
        <time>2022-09-25T09:31:24.988Z</time>
      </trkpt>
      <trkpt lat="48.72624" lon="2.54067">
        <ele>69</ele>
        <time>2022-09-25T09:31:28.996Z</time>
      </trkpt>
      <trkpt lat="48.72624" lon="2.54058">
        <ele>69</ele>
        <time>2022-09-25T09:31:34.012Z</time>
      </trkpt>
      <trkpt lat="48.72625" lon="2.54049">
        <ele>69</ele>
        <time>2022-09-25T09:31:39.006Z</time>
      </trkpt>
      <trkpt lat="48.72626" lon="2.54037">
        <ele>68</ele>
        <time>2022-09-25T09:31:43.998Z</time>
      </trkpt>
      <trkpt lat="48.72626" lon="2.54028">
        <ele>68</ele>
        <time>2022-09-25T09:31:49.013Z</time>
      </trkpt>
      <trkpt lat="48.72627" lon="2.54017">
        <ele>68</ele>
        <time>2022-09-25T09:31:54.008Z</time>
      </trkpt>
      <trkpt lat="48.72628" lon="2.54007">
        <ele>68</ele>
        <time>2022-09-25T09:31:59.003Z</time>
      </trkpt>
      <trkpt lat="48.72629" lon="2.53998">
        <ele>68</ele>
        <time>2022-09-25T09:32:04.012Z</time>
      </trkpt>
      <trkpt lat="48.7263" lon="2.53987">
        <ele>68</ele>
        <time>2022-09-25T09:32:08.987Z</time>
      </trkpt>
      <trkpt lat="48.72631" lon="2.5398">
        <ele>69</ele>
        <time>2022-09-25T09:32:12.995Z</time>
      </trkpt>
      <trkpt lat="48.72632" lon="2.53971">
        <ele>69</ele>
        <time>2022-09-25T09:32:18.001Z</time>
      </trkpt>
      <trkpt lat="48.72633" lon="2.53962">
        <ele>69</ele>
        <time>2022-09-25T09:32:23.014Z</time>
      </trkpt>
      <trkpt lat="48.72634" lon="2.53963">
        <ele>69</ele>
        <time>2022-09-25T09:32:28.003Z</time>
      </trkpt>
      <trkpt lat="48.72633" lon="2.53969">
        <ele>69</ele>
        <time>2022-09-25T09:32:32.005Z</time>
      </trkpt>
      <trkpt lat="48.72633" lon="2.5398">
        <ele>69</ele>
        <time>2022-09-25T09:32:36.998Z</time>
      </trkpt>
      <trkpt lat="48.72632" lon="2.53989">
        <ele>68</ele>
        <time>2022-09-25T09:32:42.011Z</time>
      </trkpt>
      <trkpt lat="48.72631" lon="2.53997">
        <ele>68</ele>
        <time>2022-09-25T09:32:47.002Z</time>
      </trkpt>
      <trkpt lat="48.7263" lon="2.54005">
        <ele>68</ele>
        <time>2022-09-25T09:32:51.974Z</time>
      </trkpt>
      <trkpt lat="48.72627" lon="2.54014">
        <ele>68</ele>
        <time>2022-09-25T09:32:56.995Z</time>
      </trkpt>
      <trkpt lat="48.72626" lon="2.54021">
        <ele>68</ele>
        <time>2022-09-25T09:33:01.001Z</time>
      </trkpt>
      <trkpt lat="48.72625" lon="2.54031">
        <ele>68</ele>
        <time>2022-09-25T09:33:06.014Z</time>
      </trkpt>
      <trkpt lat="48.72625" lon="2.54041">
        <ele>70</ele>
        <time>2022-09-25T09:33:10.980Z</time>
      </trkpt>
      <trkpt lat="48.72624" lon="2.54048">
        <ele>69</ele>
        <time>2022-09-25T09:33:14.996Z</time>
      </trkpt>
      <trkpt lat="48.72623" lon="2.54056">
        <ele>69</ele>
        <time>2022-09-25T09:33:18.999Z</time>
      </trkpt>
      <trkpt lat="48.72622" lon="2.54062">
        <ele>69</ele>
        <time>2022-09-25T09:33:23.003Z</time>
      </trkpt>
      <trkpt lat="48.72621" lon="2.54071">
        <ele>69</ele>
        <time>2022-09-25T09:33:28.008Z</time>
      </trkpt>
      <trkpt lat="48.72618" lon="2.54077">
        <ele>69</ele>
        <time>2022-09-25T09:33:32.021Z</time>
      </trkpt>
      <trkpt lat="48.72617" lon="2.54086">
        <ele>69</ele>
        <time>2022-09-25T09:33:36.985Z</time>
      </trkpt>
      <trkpt lat="48.72615" lon="2.54095">
        <ele>69</ele>
        <time>2022-09-25T09:33:42.019Z</time>
      </trkpt>
      <trkpt lat="48.72615" lon="2.54104">
        <ele>69</ele>
        <time>2022-09-25T09:33:46.995Z</time>
      </trkpt>
      <trkpt lat="48.72617" lon="2.54115">
        <ele>69</ele>
        <time>2022-09-25T09:33:52.002Z</time>
      </trkpt>
      <trkpt lat="48.72615" lon="2.54122">
        <ele>69</ele>
        <time>2022-09-25T09:33:57.002Z</time>
      </trkpt>
      <trkpt lat="48.72614" lon="2.5413">
        <ele>69</ele>
        <time>2022-09-25T09:34:02.001Z</time>
      </trkpt>
      <trkpt lat="48.72613" lon="2.54137">
        <ele>69</ele>
        <time>2022-09-25T09:34:06.014Z</time>
      </trkpt>
      <trkpt lat="48.72612" lon="2.54147">
        <ele>69</ele>
        <time>2022-09-25T09:34:10.994Z</time>
      </trkpt>
      <trkpt lat="48.72611" lon="2.54155">
        <ele>68</ele>
        <time>2022-09-25T09:34:15.009Z</time>
      </trkpt>
      <trkpt lat="48.7261" lon="2.54163">
        <ele>68</ele>
        <time>2022-09-25T09:34:20.013Z</time>
      </trkpt>
      <trkpt lat="48.72607" lon="2.54172">
        <ele>68</ele>
        <time>2022-09-25T09:34:25.006Z</time>
      </trkpt>
      <trkpt lat="48.72605" lon="2.5418">
        <ele>68</ele>
        <time>2022-09-25T09:34:29.014Z</time>
      </trkpt>
      <trkpt lat="48.72604" lon="2.54189">
        <ele>67</ele>
        <time>2022-09-25T09:34:33.988Z</time>
      </trkpt>
      <trkpt lat="48.72602" lon="2.54198">
        <ele>67</ele>
        <time>2022-09-25T09:34:39.001Z</time>
      </trkpt>
      <trkpt lat="48.726" lon="2.54208">
        <ele>67</ele>
        <time>2022-09-25T09:34:44.005Z</time>
      </trkpt>
      <trkpt lat="48.72598" lon="2.54216">
        <ele>67</ele>
        <time>2022-09-25T09:34:48.009Z</time>
      </trkpt>
      <trkpt lat="48.72597" lon="2.54224">
        <ele>66</ele>
        <time>2022-09-25T09:34:53.004Z</time>
      </trkpt>
      <trkpt lat="48.72595" lon="2.54231">
        <ele>66</ele>
        <time>2022-09-25T09:34:58.004Z</time>
      </trkpt>
      <trkpt lat="48.72593" lon="2.54238">
        <ele>66</ele>
        <time>2022-09-25T09:35:03Z</time>
      </trkpt>
      <trkpt lat="48.72592" lon="2.54246">
        <ele>66</ele>
        <time>2022-09-25T09:35:07.999Z</time>
      </trkpt>
      <trkpt lat="48.72591" lon="2.54256">
        <ele>66</ele>
        <time>2022-09-25T09:35:12.996Z</time>
      </trkpt>
      <trkpt lat="48.72589" lon="2.54262">
        <ele>66</ele>
        <time>2022-09-25T09:35:17.015Z</time>
      </trkpt>
      <trkpt lat="48.72587" lon="2.5427">
        <ele>66</ele>
        <time>2022-09-25T09:35:21.987Z</time>
      </trkpt>
      <trkpt lat="48.72584" lon="2.54279">
        <ele>66</ele>
        <time>2022-09-25T09:35:26.009Z</time>
      </trkpt>
      <trkpt lat="48.72582" lon="2.54288">
        <ele>66</ele>
        <time>2022-09-25T09:35:30.984Z</time>
      </trkpt>
      <trkpt lat="48.72581" lon="2.54295">
        <ele>66</ele>
        <time>2022-09-25T09:35:35.001Z</time>
      </trkpt>
      <trkpt lat="48.7258" lon="2.54301">
        <ele>66</ele>
        <time>2022-09-25T09:35:39.015Z</time>
      </trkpt>
      <trkpt lat="48.72579" lon="2.54309">
        <ele>66</ele>
        <time>2022-09-25T09:35:44.005Z</time>
      </trkpt>
      <trkpt lat="48.72576" lon="2.54317">
        <ele>66</ele>
        <time>2022-09-25T09:35:49.007Z</time>
      </trkpt>
      <trkpt lat="48.72574" lon="2.54327">
        <ele>63</ele>
        <time>2022-09-25T09:35:54.012Z</time>
      </trkpt>
      <trkpt lat="48.72571" lon="2.54336">
        <ele>63</ele>
        <time>2022-09-25T09:35:59.006Z</time>
      </trkpt>
      <trkpt lat="48.72569" lon="2.54345">
        <ele>67</ele>
        <time>2022-09-25T09:36:04.004Z</time>
      </trkpt>
      <trkpt lat="48.72568" lon="2.54354">
        <ele>65</ele>
        <time>2022-09-25T09:36:08.994Z</time>
      </trkpt>
      <trkpt lat="48.72567" lon="2.54361">
        <ele>65</ele>
        <time>2022-09-25T09:36:14.004Z</time>
      </trkpt>
      <trkpt lat="48.72565" lon="2.5437">
        <ele>65</ele>
        <time>2022-09-25T09:36:18.989Z</time>
      </trkpt>
      <trkpt lat="48.72562" lon="2.54381">
        <ele>63</ele>
        <time>2022-09-25T09:36:24Z</time>
      </trkpt>
      <trkpt lat="48.72564" lon="2.5439">
        <ele>63</ele>
        <time>2022-09-25T09:36:29.008Z</time>
      </trkpt>
      <trkpt lat="48.72567" lon="2.54397">
        <ele>63</ele>
        <time>2022-09-25T09:36:33.999Z</time>
      </trkpt>
      <trkpt lat="48.7257" lon="2.54401">
        <ele>60</ele>
        <time>2022-09-25T09:36:38.012Z</time>
      </trkpt>
      <trkpt lat="48.72573" lon="2.54407">
        <ele>60</ele>
        <time>2022-09-25T09:36:43Z</time>
      </trkpt>
      <trkpt lat="48.72581" lon="2.54413">
        <ele>60</ele>
        <time>2022-09-25T09:36:48.004Z</time>
      </trkpt>
      <trkpt lat="48.72586" lon="2.54413">
        <ele>60</ele>
        <time>2022-09-25T09:36:53.008Z</time>
      </trkpt>
      <trkpt lat="48.72591" lon="2.54416">
        <ele>60</ele>
        <time>2022-09-25T09:36:57.015Z</time>
      </trkpt>
      <trkpt lat="48.72597" lon="2.54424">
        <ele>60</ele>
        <time>2022-09-25T09:37:02.005Z</time>
      </trkpt>
      <trkpt lat="48.72602" lon="2.54431">
        <ele>59</ele>
        <time>2022-09-25T09:37:06.009Z</time>
      </trkpt>
      <trkpt lat="48.72608" lon="2.54439">
        <ele>59</ele>
        <time>2022-09-25T09:37:11.004Z</time>
      </trkpt>
      <trkpt lat="48.72613" lon="2.54446">
        <ele>59</ele>
        <time>2022-09-25T09:37:15.987Z</time>
      </trkpt>
      <trkpt lat="48.72617" lon="2.54451">
        <ele>59</ele>
        <time>2022-09-25T09:37:20.007Z</time>
      </trkpt>
      <trkpt lat="48.7262" lon="2.54453">
        <ele>59</ele>
        <time>2022-09-25T09:37:24.004Z</time>
      </trkpt>
      <trkpt lat="48.72625" lon="2.54459">
        <ele>58</ele>
        <time>2022-09-25T09:37:28.975Z</time>
      </trkpt>
      <trkpt lat="48.7263" lon="2.54467">
        <ele>59</ele>
        <time>2022-09-25T09:37:33.998Z</time>
      </trkpt>
      <trkpt lat="48.72636" lon="2.54474">
        <ele>59</ele>
        <time>2022-09-25T09:37:39.007Z</time>
      </trkpt>
      <trkpt lat="48.7264" lon="2.5448">
        <ele>59</ele>
        <time>2022-09-25T09:37:44.003Z</time>
      </trkpt>
      <trkpt lat="48.72645" lon="2.54486">
        <ele>59</ele>
        <time>2022-09-25T09:37:49.008Z</time>
      </trkpt>
      <trkpt lat="48.7265" lon="2.54492">
        <ele>58</ele>
        <time>2022-09-25T09:37:54Z</time>
      </trkpt>
      <trkpt lat="48.72654" lon="2.54499">
        <ele>58</ele>
        <time>2022-09-25T09:37:58.985Z</time>
      </trkpt>
      <trkpt lat="48.72657" lon="2.54503">
        <ele>58</ele>
        <time>2022-09-25T09:38:03Z</time>
      </trkpt>
      <trkpt lat="48.72661" lon="2.5451">
        <ele>58</ele>
        <time>2022-09-25T09:38:08.003Z</time>
      </trkpt>
      <trkpt lat="48.72665" lon="2.54519">
        <ele>58</ele>
        <time>2022-09-25T09:38:13.003Z</time>
      </trkpt>
      <trkpt lat="48.72668" lon="2.54526">
        <ele>58</ele>
        <time>2022-09-25T09:38:17.021Z</time>
      </trkpt>
      <trkpt lat="48.72672" lon="2.54531">
        <ele>58</ele>
        <time>2022-09-25T09:38:22.011Z</time>
      </trkpt>
      <trkpt lat="48.72677" lon="2.54537">
        <ele>58</ele>
        <time>2022-09-25T09:38:26.973Z</time>
      </trkpt>
      <trkpt lat="48.72684" lon="2.54541">
        <ele>59</ele>
        <time>2022-09-25T09:38:31.989Z</time>
      </trkpt>
      <trkpt lat="48.72689" lon="2.54545">
        <ele>59</ele>
        <time>2022-09-25T09:38:35.995Z</time>
      </trkpt>
      <trkpt lat="48.72694" lon="2.54549">
        <ele>59</ele>
        <time>2022-09-25T09:38:40.985Z</time>
      </trkpt>
      <trkpt lat="48.72699" lon="2.54554">
        <ele>59</ele>
        <time>2022-09-25T09:38:45.991Z</time>
      </trkpt>
      <trkpt lat="48.72703" lon="2.54555">
        <ele>59</ele>
        <time>2022-09-25T09:38:49.999Z</time>
      </trkpt>
      <trkpt lat="48.72708" lon="2.54556">
        <ele>60</ele>
        <time>2022-09-25T09:38:54.006Z</time>
      </trkpt>
      <trkpt lat="48.72717" lon="2.54554">
        <ele>60</ele>
        <time>2022-09-25T09:38:59.004Z</time>
      </trkpt>
      <trkpt lat="48.72723" lon="2.5455">
        <ele>60</ele>
        <time>2022-09-25T09:39:04.015Z</time>
      </trkpt>
      <trkpt lat="48.72727" lon="2.54547">
        <ele>60</ele>
        <time>2022-09-25T09:39:08.015Z</time>
      </trkpt>
      <trkpt lat="48.72734" lon="2.54547">
        <ele>60</ele>
        <time>2022-09-25T09:39:12.975Z</time>
      </trkpt>
      <trkpt lat="48.72739" lon="2.54548">
        <ele>61</ele>
        <time>2022-09-25T09:39:16.987Z</time>
      </trkpt>
      <trkpt lat="48.72744" lon="2.54549">
        <ele>61</ele>
        <time>2022-09-25T09:39:20.988Z</time>
      </trkpt>
      <trkpt lat="48.7275" lon="2.54551">
        <ele>61</ele>
        <time>2022-09-25T09:39:25.994Z</time>
      </trkpt>
      <trkpt lat="48.72754" lon="2.54551">
        <ele>61</ele>
        <time>2022-09-25T09:39:30.003Z</time>
      </trkpt>
      <trkpt lat="48.72759" lon="2.54552">
        <ele>61</ele>
        <time>2022-09-25T09:39:34.983Z</time>
      </trkpt>
      <trkpt lat="48.72764" lon="2.54558">
        <ele>61</ele>
        <time>2022-09-25T09:39:38.992Z</time>
      </trkpt>
      <trkpt lat="48.72766" lon="2.54562">
        <ele>59</ele>
        <time>2022-09-25T09:39:43.952Z</time>
      </trkpt>
      <trkpt lat="48.72777" lon="2.54553">
        <ele>59</ele>
        <time>2022-09-25T09:39:47.971Z</time>
      </trkpt>
      <trkpt lat="48.72784" lon="2.54548">
        <ele>59</ele>
        <time>2022-09-25T09:39:51.978Z</time>
      </trkpt>
      <trkpt lat="48.7279" lon="2.54547">
        <ele>59</ele>
        <time>2022-09-25T09:39:56.959Z</time>
      </trkpt>
      <trkpt lat="48.72795" lon="2.54554">
        <ele>59</ele>
        <time>2022-09-25T09:40:01.963Z</time>
      </trkpt>
      <trkpt lat="48.728" lon="2.54557">
        <ele>59</ele>
        <time>2022-09-25T09:40:05.964Z</time>
      </trkpt>
      <trkpt lat="48.72806" lon="2.54559">
        <ele>59</ele>
        <time>2022-09-25T09:40:10.949Z</time>
      </trkpt>
      <trkpt lat="48.72811" lon="2.54562">
        <ele>59</ele>
        <time>2022-09-25T09:40:14.960Z</time>
      </trkpt>
      <trkpt lat="48.72816" lon="2.54568">
        <ele>59</ele>
        <time>2022-09-25T09:40:19.969Z</time>
      </trkpt>
      <trkpt lat="48.72821" lon="2.54572">
        <ele>57</ele>
        <time>2022-09-25T09:40:24.963Z</time>
      </trkpt>
      <trkpt lat="48.72827" lon="2.54576">
        <ele>57</ele>
        <time>2022-09-25T09:40:29.965Z</time>
      </trkpt>
      <trkpt lat="48.72835" lon="2.54574">
        <ele>57</ele>
        <time>2022-09-25T09:40:34.965Z</time>
      </trkpt>
      <trkpt lat="48.72839" lon="2.54573">
        <ele>57</ele>
        <time>2022-09-25T09:40:39.964Z</time>
      </trkpt>
      <trkpt lat="48.72844" lon="2.54571">
        <ele>57</ele>
        <time>2022-09-25T09:40:43.967Z</time>
      </trkpt>
      <trkpt lat="48.72849" lon="2.54569">
        <ele>57</ele>
        <time>2022-09-25T09:40:48.964Z</time>
      </trkpt>
      <trkpt lat="48.72853" lon="2.54569">
        <ele>58</ele>
        <time>2022-09-25T09:40:52.968Z</time>
      </trkpt>
      <trkpt lat="48.72859" lon="2.54567">
        <ele>58</ele>
        <time>2022-09-25T09:40:57.953Z</time>
      </trkpt>
      <trkpt lat="48.72865" lon="2.54574">
        <ele>57</ele>
        <time>2022-09-25T09:41:01.977Z</time>
      </trkpt>
      <trkpt lat="48.7287" lon="2.54579">
        <ele>57</ele>
        <time>2022-09-25T09:41:05.985Z</time>
      </trkpt>
      <trkpt lat="48.72876" lon="2.54581">
        <ele>57</ele>
        <time>2022-09-25T09:41:10.973Z</time>
      </trkpt>
      <trkpt lat="48.72879" lon="2.54585">
        <ele>57</ele>
        <time>2022-09-25T09:41:14.973Z</time>
      </trkpt>
      <trkpt lat="48.72884" lon="2.54591">
        <ele>57</ele>
        <time>2022-09-25T09:41:19.958Z</time>
      </trkpt>
      <trkpt lat="48.72889" lon="2.54596">
        <ele>57</ele>
        <time>2022-09-25T09:41:24.954Z</time>
      </trkpt>
      <trkpt lat="48.72896" lon="2.54601">
        <ele>57</ele>
        <time>2022-09-25T09:41:29.956Z</time>
      </trkpt>
      <trkpt lat="48.729" lon="2.54608">
        <ele>57</ele>
        <time>2022-09-25T09:41:34.979Z</time>
      </trkpt>
      <trkpt lat="48.72905" lon="2.54614">
        <ele>59</ele>
        <time>2022-09-25T09:41:40.004Z</time>
      </trkpt>
      <trkpt lat="48.7291" lon="2.5462">
        <ele>59</ele>
        <time>2022-09-25T09:41:44.952Z</time>
      </trkpt>
      <trkpt lat="48.72914" lon="2.54625">
        <ele>60</ele>
        <time>2022-09-25T09:41:48.956Z</time>
      </trkpt>
      <trkpt lat="48.72917" lon="2.54631">
        <ele>60</ele>
        <time>2022-09-25T09:41:54.004Z</time>
      </trkpt>
      <trkpt lat="48.72921" lon="2.54637">
        <ele>60</ele>
        <time>2022-09-25T09:41:58.995Z</time>
      </trkpt>
      <trkpt lat="48.72924" lon="2.54643">
        <ele>60</ele>
        <time>2022-09-25T09:42:04.013Z</time>
      </trkpt>
      <trkpt lat="48.72926" lon="2.54649">
        <ele>60</ele>
        <time>2022-09-25T09:42:08.977Z</time>
      </trkpt>
      <trkpt lat="48.72929" lon="2.54657">
        <ele>61</ele>
        <time>2022-09-25T09:42:13.995Z</time>
      </trkpt>
      <trkpt lat="48.72932" lon="2.54666">
        <ele>63</ele>
        <time>2022-09-25T09:42:18.996Z</time>
      </trkpt>
      <trkpt lat="48.72933" lon="2.54675">
        <ele>63</ele>
        <time>2022-09-25T09:42:23.978Z</time>
      </trkpt>
      <trkpt lat="48.72935" lon="2.54685">
        <ele>62</ele>
        <time>2022-09-25T09:42:27.989Z</time>
      </trkpt>
      <trkpt lat="48.72936" lon="2.54696">
        <ele>62</ele>
        <time>2022-09-25T09:42:32.953Z</time>
      </trkpt>
      <trkpt lat="48.72938" lon="2.54705">
        <ele>62</ele>
        <time>2022-09-25T09:42:37.966Z</time>
      </trkpt>
      <trkpt lat="48.72941" lon="2.54714">
        <ele>61</ele>
        <time>2022-09-25T09:42:42.955Z</time>
      </trkpt>
      <trkpt lat="48.72943" lon="2.54721">
        <ele>61</ele>
        <time>2022-09-25T09:42:46.963Z</time>
      </trkpt>
      <trkpt lat="48.72944" lon="2.5473">
        <ele>61</ele>
        <time>2022-09-25T09:42:51.958Z</time>
      </trkpt>
      <trkpt lat="48.72943" lon="2.54739">
        <ele>60</ele>
        <time>2022-09-25T09:42:56.965Z</time>
      </trkpt>
      <trkpt lat="48.72942" lon="2.54748">
        <ele>60</ele>
        <time>2022-09-25T09:43:01.962Z</time>
      </trkpt>
      <trkpt lat="48.72942" lon="2.54755">
        <ele>60</ele>
        <time>2022-09-25T09:43:06.952Z</time>
      </trkpt>
      <trkpt lat="48.72943" lon="2.54764">
        <ele>60</ele>
        <time>2022-09-25T09:43:10.962Z</time>
      </trkpt>
      <trkpt lat="48.72942" lon="2.54772">
        <ele>60</ele>
        <time>2022-09-25T09:43:14.964Z</time>
      </trkpt>
      <trkpt lat="48.72943" lon="2.54783">
        <ele>60</ele>
        <time>2022-09-25T09:43:19.967Z</time>
      </trkpt>
      <trkpt lat="48.72943" lon="2.54794">
        <ele>60</ele>
        <time>2022-09-25T09:43:24.967Z</time>
      </trkpt>
      <trkpt lat="48.72942" lon="2.54804">
        <ele>60</ele>
        <time>2022-09-25T09:43:29.955Z</time>
      </trkpt>
      <trkpt lat="48.72943" lon="2.5481">
        <ele>60</ele>
        <time>2022-09-25T09:43:33.959Z</time>
      </trkpt>
      <trkpt lat="48.72943" lon="2.5482">
        <ele>61</ele>
        <time>2022-09-25T09:43:38.967Z</time>
      </trkpt>
      <trkpt lat="48.72944" lon="2.5483">
        <ele>61</ele>
        <time>2022-09-25T09:43:43.950Z</time>
      </trkpt>
      <trkpt lat="48.72946" lon="2.54836">
        <ele>61</ele>
        <time>2022-09-25T09:43:47.968Z</time>
      </trkpt>
      <trkpt lat="48.72948" lon="2.54844">
        <ele>61</ele>
        <time>2022-09-25T09:43:52.965Z</time>
      </trkpt>
      <trkpt lat="48.7295" lon="2.5485">
        <ele>61</ele>
        <time>2022-09-25T09:43:56.970Z</time>
      </trkpt>
      <trkpt lat="48.72952" lon="2.54859">
        <ele>61</ele>
        <time>2022-09-25T09:44:01.971Z</time>
      </trkpt>
      <trkpt lat="48.72955" lon="2.54867">
        <ele>61</ele>
        <time>2022-09-25T09:44:06.963Z</time>
      </trkpt>
      <trkpt lat="48.72957" lon="2.54877">
        <ele>61</ele>
        <time>2022-09-25T09:44:11.962Z</time>
      </trkpt>
      <trkpt lat="48.7296" lon="2.54884">
        <ele>63</ele>
        <time>2022-09-25T09:44:15.965Z</time>
      </trkpt>
      <trkpt lat="48.72963" lon="2.54892">
        <ele>63</ele>
        <time>2022-09-25T09:44:20.966Z</time>
      </trkpt>
      <trkpt lat="48.72964" lon="2.54897">
        <ele>63</ele>
        <time>2022-09-25T09:44:24.959Z</time>
      </trkpt>
      <trkpt lat="48.72965" lon="2.54906">
        <ele>62</ele>
        <time>2022-09-25T09:44:29.968Z</time>
      </trkpt>
      <trkpt lat="48.72966" lon="2.54915">
        <ele>62</ele>
        <time>2022-09-25T09:44:34.961Z</time>
      </trkpt>
      <trkpt lat="48.72968" lon="2.54923">
        <ele>62</ele>
        <time>2022-09-25T09:44:38.991Z</time>
      </trkpt>
      <trkpt lat="48.7297" lon="2.54931">
        <ele>62</ele>
        <time>2022-09-25T09:44:43.995Z</time>
      </trkpt>
      <trkpt lat="48.72972" lon="2.54936">
        <ele>62</ele>
        <time>2022-09-25T09:44:48.977Z</time>
      </trkpt>
      <trkpt lat="48.72974" lon="2.54946">
        <ele>62</ele>
        <time>2022-09-25T09:44:52.998Z</time>
      </trkpt>
      <trkpt lat="48.7298" lon="2.54953">
        <ele>62</ele>
        <time>2022-09-25T09:44:57.975Z</time>
      </trkpt>
      <trkpt lat="48.72985" lon="2.54959">
        <ele>62</ele>
        <time>2022-09-25T09:45:02.002Z</time>
      </trkpt>
      <trkpt lat="48.72992" lon="2.54964">
        <ele>64</ele>
        <time>2022-09-25T09:45:06.958Z</time>
      </trkpt>
      <trkpt lat="48.72995" lon="2.54973">
        <ele>64</ele>
        <time>2022-09-25T09:45:11.959Z</time>
      </trkpt>
      <trkpt lat="48.72998" lon="2.54979">
        <ele>64</ele>
        <time>2022-09-25T09:45:15.964Z</time>
      </trkpt>
      <trkpt lat="48.73001" lon="2.54984">
        <ele>64</ele>
        <time>2022-09-25T09:45:19.973Z</time>
      </trkpt>
      <trkpt lat="48.73006" lon="2.5499">
        <ele>63</ele>
        <time>2022-09-25T09:45:24.954Z</time>
      </trkpt>
      <trkpt lat="48.73009" lon="2.54996">
        <ele>63</ele>
        <time>2022-09-25T09:45:28.966Z</time>
      </trkpt>
      <trkpt lat="48.73011" lon="2.55002">
        <ele>63</ele>
        <time>2022-09-25T09:45:32.971Z</time>
      </trkpt>
      <trkpt lat="48.73014" lon="2.55009">
        <ele>66</ele>
        <time>2022-09-25T09:45:36.967Z</time>
      </trkpt>
      <trkpt lat="48.73017" lon="2.55017">
        <ele>64</ele>
        <time>2022-09-25T09:45:41.956Z</time>
      </trkpt>
      <trkpt lat="48.73019" lon="2.55027">
        <ele>64</ele>
        <time>2022-09-25T09:45:46.955Z</time>
      </trkpt>
      <trkpt lat="48.73023" lon="2.55034">
        <ele>64</ele>
        <time>2022-09-25T09:45:50.961Z</time>
      </trkpt>
      <trkpt lat="48.73027" lon="2.55043">
        <ele>62</ele>
        <time>2022-09-25T09:45:55.974Z</time>
      </trkpt>
      <trkpt lat="48.73028" lon="2.55051">
        <ele>62</ele>
        <time>2022-09-25T09:46:00.967Z</time>
      </trkpt>
      <trkpt lat="48.73029" lon="2.55057">
        <ele>62</ele>
        <time>2022-09-25T09:46:04.994Z</time>
      </trkpt>
      <trkpt lat="48.73031" lon="2.55067">
        <ele>62</ele>
        <time>2022-09-25T09:46:09.977Z</time>
      </trkpt>
      <trkpt lat="48.73035" lon="2.55074">
        <ele>62</ele>
        <time>2022-09-25T09:46:14.955Z</time>
      </trkpt>
      <trkpt lat="48.73036" lon="2.5508">
        <ele>62</ele>
        <time>2022-09-25T09:46:19.009Z</time>
      </trkpt>
      <trkpt lat="48.73039" lon="2.55087">
        <ele>62</ele>
        <time>2022-09-25T09:46:23.976Z</time>
      </trkpt>
      <trkpt lat="48.7304" lon="2.55096">
        <ele>62</ele>
        <time>2022-09-25T09:46:28.001Z</time>
      </trkpt>
      <trkpt lat="48.73042" lon="2.55103">
        <ele>66</ele>
        <time>2022-09-25T09:46:32.002Z</time>
      </trkpt>
      <trkpt lat="48.73043" lon="2.55111">
        <ele>66</ele>
        <time>2022-09-25T09:46:36.994Z</time>
      </trkpt>
      <trkpt lat="48.73042" lon="2.55118">
        <ele>66</ele>
        <time>2022-09-25T09:46:41.998Z</time>
      </trkpt>
      <trkpt lat="48.73041" lon="2.55125">
        <ele>62</ele>
        <time>2022-09-25T09:46:46.995Z</time>
      </trkpt>
      <trkpt lat="48.73037" lon="2.55132">
        <ele>62</ele>
        <time>2022-09-25T09:46:51.990Z</time>
      </trkpt>
      <trkpt lat="48.73034" lon="2.55136">
        <ele>62</ele>
        <time>2022-09-25T09:46:56Z</time>
      </trkpt>
      <trkpt lat="48.7303" lon="2.55141">
        <ele>62</ele>
        <time>2022-09-25T09:47:01.004Z</time>
      </trkpt>
      <trkpt lat="48.73025" lon="2.55147">
        <ele>62</ele>
        <time>2022-09-25T09:47:05.992Z</time>
      </trkpt>
      <trkpt lat="48.73023" lon="2.5515">
        <ele>62</ele>
        <time>2022-09-25T09:47:10.988Z</time>
      </trkpt>
      <trkpt lat="48.73023" lon="2.55158">
        <ele>62</ele>
        <time>2022-09-25T09:47:15.983Z</time>
      </trkpt>
      <trkpt lat="48.73024" lon="2.55167">
        <ele>62</ele>
        <time>2022-09-25T09:47:20.976Z</time>
      </trkpt>
      <trkpt lat="48.73027" lon="2.55172">
        <ele>62</ele>
        <time>2022-09-25T09:47:24.983Z</time>
      </trkpt>
      <trkpt lat="48.73033" lon="2.55173">
        <ele>62</ele>
        <time>2022-09-25T09:47:29.998Z</time>
      </trkpt>
      <trkpt lat="48.73038" lon="2.55178">
        <ele>62</ele>
        <time>2022-09-25T09:47:34.993Z</time>
      </trkpt>
      <trkpt lat="48.73043" lon="2.55185">
        <ele>68</ele>
        <time>2022-09-25T09:47:39.999Z</time>
      </trkpt>
      <trkpt lat="48.73048" lon="2.5519">
        <ele>68</ele>
        <time>2022-09-25T09:47:44.986Z</time>
      </trkpt>
      <trkpt lat="48.73052" lon="2.55193">
        <ele>68</ele>
        <time>2022-09-25T09:47:48.998Z</time>
      </trkpt>
      <trkpt lat="48.73057" lon="2.55196">
        <ele>68</ele>
        <time>2022-09-25T09:47:53.987Z</time>
      </trkpt>
      <trkpt lat="48.73062" lon="2.55201">
        <ele>68</ele>
        <time>2022-09-25T09:47:58.984Z</time>
      </trkpt>
      <trkpt lat="48.73065" lon="2.55205">
        <ele>68</ele>
        <time>2022-09-25T09:48:03.012Z</time>
      </trkpt>
      <trkpt lat="48.73068" lon="2.55213">
        <ele>67</ele>
        <time>2022-09-25T09:48:07.980Z</time>
      </trkpt>
      <trkpt lat="48.73072" lon="2.55221">
        <ele>70</ele>
        <time>2022-09-25T09:48:12.977Z</time>
      </trkpt>
      <trkpt lat="48.73075" lon="2.55229">
        <ele>70</ele>
        <time>2022-09-25T09:48:17.980Z</time>
      </trkpt>
      <trkpt lat="48.73078" lon="2.55235">
        <ele>70</ele>
        <time>2022-09-25T09:48:21.998Z</time>
      </trkpt>
      <trkpt lat="48.73082" lon="2.55237">
        <ele>70</ele>
        <time>2022-09-25T09:48:26.983Z</time>
      </trkpt>
      <trkpt lat="48.73086" lon="2.55235">
        <ele>70</ele>
        <time>2022-09-25T09:48:30.983Z</time>
      </trkpt>
      <trkpt lat="48.73091" lon="2.55235">
        <ele>70</ele>
        <time>2022-09-25T09:48:35.986Z</time>
      </trkpt>
      <trkpt lat="48.73094" lon="2.55238">
        <ele>70</ele>
        <time>2022-09-25T09:48:40.007Z</time>
      </trkpt>
      <trkpt lat="48.73101" lon="2.5524">
        <ele>73</ele>
        <time>2022-09-25T09:48:45.008Z</time>
      </trkpt>
      <trkpt lat="48.73108" lon="2.55241">
        <ele>73</ele>
        <time>2022-09-25T09:48:50.003Z</time>
      </trkpt>
      <trkpt lat="48.73113" lon="2.55242">
        <ele>73</ele>
        <time>2022-09-25T09:48:54.970Z</time>
      </trkpt>
      <trkpt lat="48.73117" lon="2.5524">
        <ele>73</ele>
        <time>2022-09-25T09:48:58.996Z</time>
      </trkpt>
      <trkpt lat="48.73122" lon="2.55239">
        <ele>73</ele>
        <time>2022-09-25T09:49:03.002Z</time>
      </trkpt>
      <trkpt lat="48.73129" lon="2.55236">
        <ele>77</ele>
        <time>2022-09-25T09:49:08.010Z</time>
      </trkpt>
      <trkpt lat="48.73134" lon="2.55231">
        <ele>76</ele>
        <time>2022-09-25T09:49:13.013Z</time>
      </trkpt>
      <trkpt lat="48.73141" lon="2.55228">
        <ele>76</ele>
        <time>2022-09-25T09:49:18.011Z</time>
      </trkpt>
      <trkpt lat="48.73148" lon="2.55224">
        <ele>76</ele>
        <time>2022-09-25T09:49:22.995Z</time>
      </trkpt>
      <trkpt lat="48.73152" lon="2.55223">
        <ele>76</ele>
        <time>2022-09-25T09:49:27.004Z</time>
      </trkpt>
      <trkpt lat="48.73158" lon="2.55221">
        <ele>80</ele>
        <time>2022-09-25T09:49:31.990Z</time>
      </trkpt>
      <trkpt lat="48.73163" lon="2.55211">
        <ele>80</ele>
        <time>2022-09-25T09:49:36.979Z</time>
      </trkpt>
      <trkpt lat="48.73166" lon="2.55202">
        <ele>80</ele>
        <time>2022-09-25T09:49:41.985Z</time>
      </trkpt>
      <trkpt lat="48.73167" lon="2.55198">
        <ele>80</ele>
        <time>2022-09-25T09:49:46.982Z</time>
      </trkpt>
      <trkpt lat="48.73167" lon="2.55198">
        <ele>80</ele>
        <time>2022-09-25T09:49:50.990Z</time>
      </trkpt>
      <trkpt lat="48.73169" lon="2.552">
        <ele>80</ele>
        <time>2022-09-25T09:50:40.988Z</time>
      </trkpt>
      <trkpt lat="48.7317" lon="2.55198">
        <ele>80</ele>
        <time>2022-09-25T09:50:44.996Z</time>
      </trkpt>
      <trkpt lat="48.73173" lon="2.55192">
        <ele>80</ele>
        <time>2022-09-25T09:50:48.994Z</time>
      </trkpt>
      <trkpt lat="48.73176" lon="2.55184">
        <ele>80</ele>
        <time>2022-09-25T09:50:53.988Z</time>
      </trkpt>
      <trkpt lat="48.73179" lon="2.55174">
        <ele>80</ele>
        <time>2022-09-25T09:50:58.975Z</time>
      </trkpt>
      <trkpt lat="48.73181" lon="2.55169">
        <ele>82</ele>
        <time>2022-09-25T09:51:02.979Z</time>
      </trkpt>
      <trkpt lat="48.73182" lon="2.5516">
        <ele>82</ele>
        <time>2022-09-25T09:51:07.971Z</time>
      </trkpt>
      <trkpt lat="48.73182" lon="2.55153">
        <ele>82</ele>
        <time>2022-09-25T09:51:11.974Z</time>
      </trkpt>
      <trkpt lat="48.73185" lon="2.55144">
        <ele>83</ele>
        <time>2022-09-25T09:51:16.994Z</time>
      </trkpt>
      <trkpt lat="48.73187" lon="2.55134">
        <ele>83</ele>
        <time>2022-09-25T09:51:21.992Z</time>
      </trkpt>
      <trkpt lat="48.73187" lon="2.55124">
        <ele>83</ele>
        <time>2022-09-25T09:51:26.988Z</time>
      </trkpt>
      <trkpt lat="48.73188" lon="2.55115">
        <ele>83</ele>
        <time>2022-09-25T09:51:31.987Z</time>
      </trkpt>
      <trkpt lat="48.7319" lon="2.55107">
        <ele>83</ele>
        <time>2022-09-25T09:51:35.999Z</time>
      </trkpt>
      <trkpt lat="48.73191" lon="2.55099">
        <ele>83</ele>
        <time>2022-09-25T09:51:40.007Z</time>
      </trkpt>
      <trkpt lat="48.73191" lon="2.5509">
        <ele>84</ele>
        <time>2022-09-25T09:51:44.976Z</time>
      </trkpt>
      <trkpt lat="48.73189" lon="2.55081">
        <ele>84</ele>
        <time>2022-09-25T09:51:49.960Z</time>
      </trkpt>
      <trkpt lat="48.73191" lon="2.55071">
        <ele>84</ele>
        <time>2022-09-25T09:51:54.961Z</time>
      </trkpt>
      <trkpt lat="48.73193" lon="2.55066">
        <ele>85</ele>
        <time>2022-09-25T09:51:59.960Z</time>
      </trkpt>
      <trkpt lat="48.73198" lon="2.55068">
        <ele>85</ele>
        <time>2022-09-25T09:52:04.961Z</time>
      </trkpt>
      <trkpt lat="48.73205" lon="2.55067">
        <ele>85</ele>
        <time>2022-09-25T09:52:09.964Z</time>
      </trkpt>
      <trkpt lat="48.7321" lon="2.55066">
        <ele>86</ele>
        <time>2022-09-25T09:52:14.963Z</time>
      </trkpt>
      <trkpt lat="48.73216" lon="2.55063">
        <ele>86</ele>
        <time>2022-09-25T09:52:18.966Z</time>
      </trkpt>
      <trkpt lat="48.73221" lon="2.55065">
        <ele>86</ele>
        <time>2022-09-25T09:52:23.965Z</time>
      </trkpt>
      <trkpt lat="48.73222" lon="2.55068">
        <ele>86</ele>
        <time>2022-09-25T09:52:27.966Z</time>
      </trkpt>
      <trkpt lat="48.73227" lon="2.55073">
        <ele>86</ele>
        <time>2022-09-25T09:52:32.963Z</time>
      </trkpt>
      <trkpt lat="48.73227" lon="2.55076">
        <ele>86</ele>
        <time>2022-09-25T09:53:32.960Z</time>
      </trkpt>
      <trkpt lat="48.73228" lon="2.5508">
        <ele>86</ele>
        <time>2022-09-25T09:53:37.960Z</time>
      </trkpt>
      <trkpt lat="48.7323" lon="2.55083">
        <ele>86</ele>
        <time>2022-09-25T09:53:42.952Z</time>
      </trkpt>
      <trkpt lat="48.73232" lon="2.55088">
        <ele>86</ele>
        <time>2022-09-25T09:53:46.949Z</time>
      </trkpt>
      <trkpt lat="48.73234" lon="2.55092">
        <ele>86</ele>
        <time>2022-09-25T09:53:50.949Z</time>
      </trkpt>
      <trkpt lat="48.73234" lon="2.55091">
        <ele>86</ele>
        <time>2022-09-25T09:53:59.954Z</time>
      </trkpt>
      <trkpt lat="48.73233" lon="2.55093">
        <ele>86</ele>
        <time>2022-09-25T09:54:04.957Z</time>
      </trkpt>
      <trkpt lat="48.73234" lon="2.55097">
        <ele>87</ele>
        <time>2022-09-25T09:54:09.952Z</time>
      </trkpt>
      <trkpt lat="48.73232" lon="2.55098">
        <ele>87</ele>
        <time>2022-09-25T09:54:13.975Z</time>
      </trkpt>
      <trkpt lat="48.73229" lon="2.55103">
        <ele>87</ele>
        <time>2022-09-25T09:54:18.956Z</time>
      </trkpt>
      <trkpt lat="48.73225" lon="2.55114">
        <ele>87</ele>
        <time>2022-09-25T09:54:22.980Z</time>
      </trkpt>
      <trkpt lat="48.73224" lon="2.55112">
        <ele>87</ele>
        <time>2022-09-25T09:54:26.981Z</time>
      </trkpt>
      <trkpt lat="48.73224" lon="2.55108">
        <ele>87</ele>
        <time>2022-09-25T09:54:31.948Z</time>
      </trkpt>
      <trkpt lat="48.7323" lon="2.55097">
        <ele>86</ele>
        <time>2022-09-25T09:54:36.954Z</time>
      </trkpt>
      <trkpt lat="48.73241" lon="2.551">
        <ele>89</ele>
        <time>2022-09-25T09:56:44.956Z</time>
      </trkpt>
      <trkpt lat="48.73242" lon="2.55108">
        <ele>89</ele>
        <time>2022-09-25T09:56:49.960Z</time>
      </trkpt>
      <trkpt lat="48.73244" lon="2.55114">
        <ele>89</ele>
        <time>2022-09-25T09:56:53.963Z</time>
      </trkpt>
      <trkpt lat="48.73241" lon="2.55121">
        <ele>89</ele>
        <time>2022-09-25T09:56:58.963Z</time>
      </trkpt>
      <trkpt lat="48.73242" lon="2.55126">
        <ele>89</ele>
        <time>2022-09-25T09:57:02.961Z</time>
      </trkpt>
      <trkpt lat="48.73243" lon="2.55132">
        <ele>89</ele>
        <time>2022-09-25T09:57:06.958Z</time>
      </trkpt>
      <trkpt lat="48.73241" lon="2.5514">
        <ele>89</ele>
        <time>2022-09-25T09:57:11.968Z</time>
      </trkpt>
      <trkpt lat="48.73242" lon="2.55146">
        <ele>89</ele>
        <time>2022-09-25T09:57:16.962Z</time>
      </trkpt>
      <trkpt lat="48.73241" lon="2.55152">
        <ele>89</ele>
        <time>2022-09-25T09:57:20.960Z</time>
      </trkpt>
      <trkpt lat="48.73243" lon="2.55159">
        <ele>88</ele>
        <time>2022-09-25T09:57:25.968Z</time>
      </trkpt>
      <trkpt lat="48.73246" lon="2.55164">
        <ele>88</ele>
        <time>2022-09-25T09:57:30.962Z</time>
      </trkpt>
      <trkpt lat="48.73246" lon="2.55168">
        <ele>88</ele>
        <time>2022-09-25T09:57:35.970Z</time>
      </trkpt>
      <trkpt lat="48.73247" lon="2.55176">
        <ele>88</ele>
        <time>2022-09-25T09:57:40.960Z</time>
      </trkpt>
      <trkpt lat="48.73248" lon="2.55188">
        <ele>86</ele>
        <time>2022-09-25T09:57:54.964Z</time>
      </trkpt>
      <trkpt lat="48.73247" lon="2.55196">
        <ele>86</ele>
        <time>2022-09-25T09:57:59.964Z</time>
      </trkpt>
      <trkpt lat="48.73248" lon="2.55205">
        <ele>86</ele>
        <time>2022-09-25T09:58:04.966Z</time>
      </trkpt>
      <trkpt lat="48.73251" lon="2.55211">
        <ele>86</ele>
        <time>2022-09-25T09:58:09.967Z</time>
      </trkpt>
      <trkpt lat="48.73254" lon="2.5522">
        <ele>86</ele>
        <time>2022-09-25T09:58:13.970Z</time>
      </trkpt>
      <trkpt lat="48.73254" lon="2.5523">
        <ele>86</ele>
        <time>2022-09-25T09:58:18.964Z</time>
      </trkpt>
      <trkpt lat="48.73257" lon="2.55237">
        <ele>86</ele>
        <time>2022-09-25T09:58:23.968Z</time>
      </trkpt>
      <trkpt lat="48.7326" lon="2.55241">
        <ele>86</ele>
        <time>2022-09-25T09:58:27.968Z</time>
      </trkpt>
      <trkpt lat="48.7326" lon="2.55247">
        <ele>86</ele>
        <time>2022-09-25T09:58:32.962Z</time>
      </trkpt>
      <trkpt lat="48.73262" lon="2.55249">
        <ele>86</ele>
        <time>2022-09-25T09:58:47.959Z</time>
      </trkpt>
      <trkpt lat="48.73262" lon="2.55248">
        <ele>86</ele>
        <time>2022-09-25T09:58:52.960Z</time>
      </trkpt>
      <trkpt lat="48.7326" lon="2.5525">
        <ele>86</ele>
        <time>2022-09-25T09:58:56.961Z</time>
      </trkpt>
      <trkpt lat="48.73258" lon="2.55258">
        <ele>86</ele>
        <time>2022-09-25T09:59:01.959Z</time>
      </trkpt>
      <trkpt lat="48.73256" lon="2.55267">
        <ele>86</ele>
        <time>2022-09-25T09:59:05.955Z</time>
      </trkpt>
      <trkpt lat="48.73258" lon="2.55279">
        <ele>86</ele>
        <time>2022-09-25T09:59:10.958Z</time>
      </trkpt>
      <trkpt lat="48.73261" lon="2.55291">
        <ele>86</ele>
        <time>2022-09-25T09:59:15.964Z</time>
      </trkpt>
      <trkpt lat="48.73257" lon="2.55299">
        <ele>87</ele>
        <time>2022-09-25T09:59:20.951Z</time>
      </trkpt>
      <trkpt lat="48.73256" lon="2.55306">
        <ele>87</ele>
        <time>2022-09-25T09:59:24.959Z</time>
      </trkpt>
      <trkpt lat="48.73254" lon="2.55304">
        <ele>87</ele>
        <time>2022-09-25T09:59:29.960Z</time>
      </trkpt>
      <trkpt lat="48.73251" lon="2.55299">
        <ele>87</ele>
        <time>2022-09-25T09:59:34.976Z</time>
      </trkpt>
      <trkpt lat="48.73247" lon="2.553">
        <ele>87</ele>
        <time>2022-09-25T09:59:39.964Z</time>
      </trkpt>
      <trkpt lat="48.73245" lon="2.55294">
        <ele>87</ele>
        <time>2022-09-25T09:59:43.966Z</time>
      </trkpt>
      <trkpt lat="48.73253" lon="2.55285">
        <ele>86</ele>
        <time>2022-09-25T10:00:21.963Z</time>
      </trkpt>
      <trkpt lat="48.7325" lon="2.55278">
        <ele>86</ele>
        <time>2022-09-25T10:00:25.966Z</time>
      </trkpt>
      <trkpt lat="48.73244" lon="2.55265">
        <ele>86</ele>
        <time>2022-09-25T10:00:30.962Z</time>
      </trkpt>
      <trkpt lat="48.73242" lon="2.55263">
        <ele>86</ele>
        <time>2022-09-25T10:00:34.967Z</time>
      </trkpt>
      <trkpt lat="48.73239" lon="2.55261">
        <ele>86</ele>
        <time>2022-09-25T10:00:39.966Z</time>
      </trkpt>
      <trkpt lat="48.73229" lon="2.55243">
        <ele>83</ele>
        <time>2022-09-25T10:01:20.963Z</time>
      </trkpt>
      <trkpt lat="48.73229" lon="2.55241">
        <ele>83</ele>
        <time>2022-09-25T10:01:24.967Z</time>
      </trkpt>
      <trkpt lat="48.73229" lon="2.5524">
        <ele>83</ele>
        <time>2022-09-25T10:01:29.962Z</time>
      </trkpt>
      <trkpt lat="48.73228" lon="2.55241">
        <ele>83</ele>
        <time>2022-09-25T10:01:33.969Z</time>
      </trkpt>
      <trkpt lat="48.73224" lon="2.55239">
        <ele>83</ele>
        <time>2022-09-25T10:01:38.965Z</time>
      </trkpt>
      <trkpt lat="48.73221" lon="2.55237">
        <ele>83</ele>
        <time>2022-09-25T10:02:33.983Z</time>
      </trkpt>
      <trkpt lat="48.73224" lon="2.55235">
        <ele>83</ele>
        <time>2022-09-25T10:02:38.979Z</time>
      </trkpt>
      <trkpt lat="48.73229" lon="2.55227">
        <ele>83</ele>
        <time>2022-09-25T10:02:42.994Z</time>
      </trkpt>
      <trkpt lat="48.73231" lon="2.55221">
        <ele>83</ele>
        <time>2022-09-25T10:02:47.980Z</time>
      </trkpt>
      <trkpt lat="48.73233" lon="2.55212">
        <ele>83</ele>
        <time>2022-09-25T10:02:52.995Z</time>
      </trkpt>
      <trkpt lat="48.73236" lon="2.55204">
        <ele>84</ele>
        <time>2022-09-25T10:02:57.962Z</time>
      </trkpt>
      <trkpt lat="48.73238" lon="2.55207">
        <ele>86</ele>
        <time>2022-09-25T10:03:01.958Z</time>
      </trkpt>
      <trkpt lat="48.73239" lon="2.55199">
        <ele>86</ele>
        <time>2022-09-25T10:03:06.959Z</time>
      </trkpt>
      <trkpt lat="48.73241" lon="2.55195">
        <ele>86</ele>
        <time>2022-09-25T10:03:11.965Z</time>
      </trkpt>
      <trkpt lat="48.73244" lon="2.55189">
        <ele>86</ele>
        <time>2022-09-25T10:03:15.961Z</time>
      </trkpt>
      <trkpt lat="48.7325" lon="2.55182">
        <ele>86</ele>
        <time>2022-09-25T10:03:20.962Z</time>
      </trkpt>
      <trkpt lat="48.7325" lon="2.55174">
        <ele>88</ele>
        <time>2022-09-25T10:03:24.967Z</time>
      </trkpt>
      <trkpt lat="48.73248" lon="2.55164">
        <ele>88</ele>
        <time>2022-09-25T10:03:29.965Z</time>
      </trkpt>
      <trkpt lat="48.7325" lon="2.55153">
        <ele>88</ele>
        <time>2022-09-25T10:03:34.963Z</time>
      </trkpt>
      <trkpt lat="48.73248" lon="2.55147">
        <ele>89</ele>
        <time>2022-09-25T10:03:39.967Z</time>
      </trkpt>
      <trkpt lat="48.73247" lon="2.55138">
        <ele>89</ele>
        <time>2022-09-25T10:03:44.962Z</time>
      </trkpt>
      <trkpt lat="48.73249" lon="2.55132">
        <ele>89</ele>
        <time>2022-09-25T10:03:49.960Z</time>
      </trkpt>
      <trkpt lat="48.73248" lon="2.55128">
        <ele>89</ele>
        <time>2022-09-25T10:03:54.961Z</time>
      </trkpt>
      <trkpt lat="48.73247" lon="2.55119">
        <ele>89</ele>
        <time>2022-09-25T10:03:58.963Z</time>
      </trkpt>
      <trkpt lat="48.73246" lon="2.55111">
        <ele>89</ele>
        <time>2022-09-25T10:04:03.967Z</time>
      </trkpt>
      <trkpt lat="48.73244" lon="2.55102">
        <ele>89</ele>
        <time>2022-09-25T10:04:08.959Z</time>
      </trkpt>
      <trkpt lat="48.73244" lon="2.55094">
        <ele>89</ele>
        <time>2022-09-25T10:04:12.964Z</time>
      </trkpt>
      <trkpt lat="48.73241" lon="2.55085">
        <ele>89</ele>
        <time>2022-09-25T10:04:17.958Z</time>
      </trkpt>
      <trkpt lat="48.73241" lon="2.55078">
        <ele>89</ele>
        <time>2022-09-25T10:04:22.959Z</time>
      </trkpt>
      <trkpt lat="48.73242" lon="2.55071">
        <ele>89</ele>
        <time>2022-09-25T10:04:27.968Z</time>
      </trkpt>
      <trkpt lat="48.73242" lon="2.55064">
        <ele>88</ele>
        <time>2022-09-25T10:04:32.970Z</time>
      </trkpt>
      <trkpt lat="48.73237" lon="2.55059">
        <ele>88</ele>
        <time>2022-09-25T10:05:01.959Z</time>
      </trkpt>
      <trkpt lat="48.73236" lon="2.55056">
        <ele>88</ele>
        <time>2022-09-25T10:05:06.963Z</time>
      </trkpt>
      <trkpt lat="48.73236" lon="2.55055">
        <ele>86</ele>
        <time>2022-09-25T10:05:10.988Z</time>
      </trkpt>
      <trkpt lat="48.73243" lon="2.55048">
        <ele>88</ele>
        <time>2022-09-25T10:05:15.977Z</time>
      </trkpt>
      <trkpt lat="48.73248" lon="2.55049">
        <ele>88</ele>
        <time>2022-09-25T10:05:20.988Z</time>
      </trkpt>
      <trkpt lat="48.73253" lon="2.55051">
        <ele>88</ele>
        <time>2022-09-25T10:05:25.973Z</time>
      </trkpt>
      <trkpt lat="48.73258" lon="2.55052">
        <ele>88</ele>
        <time>2022-09-25T10:05:30.956Z</time>
      </trkpt>
      <trkpt lat="48.73264" lon="2.55055">
        <ele>88</ele>
        <time>2022-09-25T10:05:34.977Z</time>
      </trkpt>
      <trkpt lat="48.7327" lon="2.55057">
        <ele>90</ele>
        <time>2022-09-25T10:05:39.958Z</time>
      </trkpt>
      <trkpt lat="48.73281" lon="2.55046">
        <ele>90</ele>
        <time>2022-09-25T10:06:58.981Z</time>
      </trkpt>
      <trkpt lat="48.73283" lon="2.5505">
        <ele>90</ele>
        <time>2022-09-25T10:07:02.986Z</time>
      </trkpt>
      <trkpt lat="48.73288" lon="2.55049">
        <ele>90</ele>
        <time>2022-09-25T10:07:07.976Z</time>
      </trkpt>
      <trkpt lat="48.73293" lon="2.55051">
        <ele>90</ele>
        <time>2022-09-25T10:07:11.976Z</time>
      </trkpt>
      <trkpt lat="48.73297" lon="2.55055">
        <ele>90</ele>
        <time>2022-09-25T10:07:16.977Z</time>
      </trkpt>
      <trkpt lat="48.73305" lon="2.55045">
        <ele>90</ele>
        <time>2022-09-25T10:07:21.986Z</time>
      </trkpt>
      <trkpt lat="48.73309" lon="2.55033">
        <ele>90</ele>
        <time>2022-09-25T10:07:26.957Z</time>
      </trkpt>
      <trkpt lat="48.73312" lon="2.55032">
        <ele>90</ele>
        <time>2022-09-25T10:07:30.954Z</time>
      </trkpt>
      <trkpt lat="48.73314" lon="2.5502">
        <ele>90</ele>
        <time>2022-09-25T10:07:34.957Z</time>
      </trkpt>
      <trkpt lat="48.73315" lon="2.55011">
        <ele>90</ele>
        <time>2022-09-25T10:07:39.952Z</time>
      </trkpt>
      <trkpt lat="48.73316" lon="2.55002">
        <ele>90</ele>
        <time>2022-09-25T10:07:44.957Z</time>
      </trkpt>
      <trkpt lat="48.73319" lon="2.5499">
        <ele>90</ele>
        <time>2022-09-25T10:07:49.962Z</time>
      </trkpt>
      <trkpt lat="48.7332" lon="2.54983">
        <ele>91</ele>
        <time>2022-09-25T10:07:53.962Z</time>
      </trkpt>
      <trkpt lat="48.73319" lon="2.54973">
        <ele>90</ele>
        <time>2022-09-25T10:07:58.966Z</time>
      </trkpt>
      <trkpt lat="48.73319" lon="2.54965">
        <ele>90</ele>
        <time>2022-09-25T10:08:02.965Z</time>
      </trkpt>
      <trkpt lat="48.73318" lon="2.54955">
        <ele>90</ele>
        <time>2022-09-25T10:08:07.966Z</time>
      </trkpt>
      <trkpt lat="48.73317" lon="2.54946">
        <ele>90</ele>
        <time>2022-09-25T10:08:12.976Z</time>
      </trkpt>
      <trkpt lat="48.73319" lon="2.54935">
        <ele>90</ele>
        <time>2022-09-25T10:08:17.965Z</time>
      </trkpt>
      <trkpt lat="48.7332" lon="2.54925">
        <ele>90</ele>
        <time>2022-09-25T10:08:22.968Z</time>
      </trkpt>
      <trkpt lat="48.73321" lon="2.54916">
        <ele>90</ele>
        <time>2022-09-25T10:08:27.974Z</time>
      </trkpt>
      <trkpt lat="48.73321" lon="2.54905">
        <ele>90</ele>
        <time>2022-09-25T10:08:32.962Z</time>
      </trkpt>
      <trkpt lat="48.73322" lon="2.54897">
        <ele>90</ele>
        <time>2022-09-25T10:08:37.978Z</time>
      </trkpt>
      <trkpt lat="48.73321" lon="2.54886">
        <ele>90</ele>
        <time>2022-09-25T10:08:42.972Z</time>
      </trkpt>
      <trkpt lat="48.73322" lon="2.54879">
        <ele>90</ele>
        <time>2022-09-25T10:08:46.992Z</time>
      </trkpt>
      <trkpt lat="48.73323" lon="2.54868">
        <ele>90</ele>
        <time>2022-09-25T10:08:51.980Z</time>
      </trkpt>
      <trkpt lat="48.73324" lon="2.54856">
        <ele>90</ele>
        <time>2022-09-25T10:08:56.974Z</time>
      </trkpt>
      <trkpt lat="48.73326" lon="2.54848">
        <ele>90</ele>
        <time>2022-09-25T10:09:01.984Z</time>
      </trkpt>
      <trkpt lat="48.73328" lon="2.54838">
        <ele>90</ele>
        <time>2022-09-25T10:09:06.969Z</time>
      </trkpt>
      <trkpt lat="48.73331" lon="2.54828">
        <ele>90</ele>
        <time>2022-09-25T10:09:11.982Z</time>
      </trkpt>
      <trkpt lat="48.73336" lon="2.54821">
        <ele>90</ele>
        <time>2022-09-25T10:09:16.970Z</time>
      </trkpt>
      <trkpt lat="48.73338" lon="2.54813">
        <ele>91</ele>
        <time>2022-09-25T10:09:21.962Z</time>
      </trkpt>
      <trkpt lat="48.73341" lon="2.54804">
        <ele>91</ele>
        <time>2022-09-25T10:09:25.966Z</time>
      </trkpt>
      <trkpt lat="48.73342" lon="2.54797">
        <ele>91</ele>
        <time>2022-09-25T10:09:29.981Z</time>
      </trkpt>
      <trkpt lat="48.73344" lon="2.5479">
        <ele>90</ele>
        <time>2022-09-25T10:09:34.968Z</time>
      </trkpt>
      <trkpt lat="48.73348" lon="2.54781">
        <ele>91</ele>
        <time>2022-09-25T10:09:39.969Z</time>
      </trkpt>
      <trkpt lat="48.7335" lon="2.54774">
        <ele>91</ele>
        <time>2022-09-25T10:09:43.976Z</time>
      </trkpt>
      <trkpt lat="48.73352" lon="2.54767">
        <ele>91</ele>
        <time>2022-09-25T10:09:47.981Z</time>
      </trkpt>
      <trkpt lat="48.73355" lon="2.54759">
        <ele>90</ele>
        <time>2022-09-25T10:09:52.963Z</time>
      </trkpt>
      <trkpt lat="48.73357" lon="2.54753">
        <ele>90</ele>
        <time>2022-09-25T10:09:56.968Z</time>
      </trkpt>
      <trkpt lat="48.73361" lon="2.54744">
        <ele>90</ele>
        <time>2022-09-25T10:10:01.982Z</time>
      </trkpt>
      <trkpt lat="48.73365" lon="2.54736">
        <ele>90</ele>
        <time>2022-09-25T10:10:05.987Z</time>
      </trkpt>
      <trkpt lat="48.73366" lon="2.54727">
        <ele>90</ele>
        <time>2022-09-25T10:10:10.970Z</time>
      </trkpt>
      <trkpt lat="48.73368" lon="2.54719">
        <ele>90</ele>
        <time>2022-09-25T10:10:14.979Z</time>
      </trkpt>
      <trkpt lat="48.73372" lon="2.54711">
        <ele>90</ele>
        <time>2022-09-25T10:10:19.966Z</time>
      </trkpt>
      <trkpt lat="48.73373" lon="2.54703">
        <ele>90</ele>
        <time>2022-09-25T10:10:24.959Z</time>
      </trkpt>
      <trkpt lat="48.73375" lon="2.54695">
        <ele>90</ele>
        <time>2022-09-25T10:10:28.963Z</time>
      </trkpt>
      <trkpt lat="48.73376" lon="2.54687">
        <ele>91</ele>
        <time>2022-09-25T10:10:32.982Z</time>
      </trkpt>
      <trkpt lat="48.73375" lon="2.54679">
        <ele>91</ele>
        <time>2022-09-25T10:10:37.981Z</time>
      </trkpt>
      <trkpt lat="48.73373" lon="2.54672">
        <ele>91</ele>
        <time>2022-09-25T10:10:42.957Z</time>
      </trkpt>
      <trkpt lat="48.73372" lon="2.54678">
        <ele>91</ele>
        <time>2022-09-25T10:10:46.962Z</time>
      </trkpt>
      <trkpt lat="48.73367" lon="2.5467">
        <ele>91</ele>
        <time>2022-09-25T10:10:51.955Z</time>
      </trkpt>
      <trkpt lat="48.73365" lon="2.54665">
        <ele>91</ele>
        <time>2022-09-25T10:10:55.967Z</time>
      </trkpt>
      <trkpt lat="48.73361" lon="2.54666">
        <ele>91</ele>
        <time>2022-09-25T10:11:00.965Z</time>
      </trkpt>
      <trkpt lat="48.73362" lon="2.54663">
        <ele>91</ele>
        <time>2022-09-25T10:11:27.992Z</time>
      </trkpt>
      <trkpt lat="48.73362" lon="2.54661">
        <ele>91</ele>
        <time>2022-09-25T10:11:32.979Z</time>
      </trkpt>
      <trkpt lat="48.73358" lon="2.54661">
        <ele>91</ele>
        <time>2022-09-25T10:11:37.962Z</time>
      </trkpt>
      <trkpt lat="48.73357" lon="2.54659">
        <ele>91</ele>
        <time>2022-09-25T10:11:42.962Z</time>
      </trkpt>
      <trkpt lat="48.73351" lon="2.54656">
        <ele>91</ele>
        <time>2022-09-25T10:11:47.982Z</time>
      </trkpt>
      <trkpt lat="48.73347" lon="2.54653">
        <ele>90</ele>
        <time>2022-09-25T10:11:51.974Z</time>
      </trkpt>
      <trkpt lat="48.73341" lon="2.54649">
        <ele>89</ele>
        <time>2022-09-25T10:11:56.969Z</time>
      </trkpt>
      <trkpt lat="48.73336" lon="2.54646">
        <ele>89</ele>
        <time>2022-09-25T10:12:01.976Z</time>
      </trkpt>
      <trkpt lat="48.73332" lon="2.54643">
        <ele>89</ele>
        <time>2022-09-25T10:12:05.972Z</time>
      </trkpt>
      <trkpt lat="48.73328" lon="2.54639">
        <ele>89</ele>
        <time>2022-09-25T10:12:09.984Z</time>
      </trkpt>
      <trkpt lat="48.73322" lon="2.54634">
        <ele>89</ele>
        <time>2022-09-25T10:12:14.965Z</time>
      </trkpt>
      <trkpt lat="48.73317" lon="2.54628">
        <ele>88</ele>
        <time>2022-09-25T10:12:19.974Z</time>
      </trkpt>
      <trkpt lat="48.73313" lon="2.54624">
        <ele>89</ele>
        <time>2022-09-25T10:12:23.980Z</time>
      </trkpt>
      <trkpt lat="48.73309" lon="2.54621">
        <ele>89</ele>
        <time>2022-09-25T10:12:28.954Z</time>
      </trkpt>
      <trkpt lat="48.73305" lon="2.54618">
        <ele>89</ele>
        <time>2022-09-25T10:12:32.977Z</time>
      </trkpt>
      <trkpt lat="48.733" lon="2.54613">
        <ele>89</ele>
        <time>2022-09-25T10:12:37.970Z</time>
      </trkpt>
      <trkpt lat="48.73295" lon="2.5461">
        <ele>89</ele>
        <time>2022-09-25T10:12:42.958Z</time>
      </trkpt>
      <trkpt lat="48.73288" lon="2.54608">
        <ele>86</ele>
        <time>2022-09-25T10:12:47.967Z</time>
      </trkpt>
      <trkpt lat="48.73284" lon="2.54606">
        <ele>86</ele>
        <time>2022-09-25T10:12:51.972Z</time>
      </trkpt>
      <trkpt lat="48.73277" lon="2.54602">
        <ele>86</ele>
        <time>2022-09-25T10:12:56.960Z</time>
      </trkpt>
      <trkpt lat="48.73272" lon="2.54599">
        <ele>86</ele>
        <time>2022-09-25T10:13:00.979Z</time>
      </trkpt>
      <trkpt lat="48.73267" lon="2.54598">
        <ele>86</ele>
        <time>2022-09-25T10:13:04.994Z</time>
      </trkpt>
      <trkpt lat="48.73264" lon="2.54595">
        <ele>86</ele>
        <time>2022-09-25T10:13:09.995Z</time>
      </trkpt>
      <trkpt lat="48.73257" lon="2.54591">
        <ele>83</ele>
        <time>2022-09-25T10:13:14.992Z</time>
      </trkpt>
      <trkpt lat="48.73251" lon="2.54589">
        <ele>83</ele>
        <time>2022-09-25T10:13:19.998Z</time>
      </trkpt>
      <trkpt lat="48.73246" lon="2.54585">
        <ele>83</ele>
        <time>2022-09-25T10:13:24.986Z</time>
      </trkpt>
      <trkpt lat="48.73242" lon="2.54583">
        <ele>83</ele>
        <time>2022-09-25T10:13:29.994Z</time>
      </trkpt>
      <trkpt lat="48.73237" lon="2.5458">
        <ele>83</ele>
        <time>2022-09-25T10:13:34.964Z</time>
      </trkpt>
      <trkpt lat="48.73232" lon="2.54578">
        <ele>83</ele>
        <time>2022-09-25T10:13:38.978Z</time>
      </trkpt>
      <trkpt lat="48.73224" lon="2.54576">
        <ele>83</ele>
        <time>2022-09-25T10:13:43.984Z</time>
      </trkpt>
      <trkpt lat="48.73219" lon="2.54577">
        <ele>83</ele>
        <time>2022-09-25T10:13:48.981Z</time>
      </trkpt>
      <trkpt lat="48.73214" lon="2.54576">
        <ele>83</ele>
        <time>2022-09-25T10:13:53.978Z</time>
      </trkpt>
      <trkpt lat="48.73211" lon="2.54568">
        <ele>83</ele>
        <time>2022-09-25T10:13:58.997Z</time>
      </trkpt>
      <trkpt lat="48.73205" lon="2.54553">
        <ele>82</ele>
        <time>2022-09-25T10:14:12.978Z</time>
      </trkpt>
      <trkpt lat="48.73205" lon="2.54553">
        <ele>82</ele>
        <time>2022-09-25T10:14:17.982Z</time>
      </trkpt>
      <trkpt lat="48.73205" lon="2.54553">
        <ele>82</ele>
        <time>2022-09-25T10:14:22Z</time>
      </trkpt>
      <trkpt lat="48.73205" lon="2.54551">
        <ele>82</ele>
        <time>2022-09-25T10:14:27.002Z</time>
      </trkpt>
      <trkpt lat="48.73198" lon="2.54553">
        <ele>82</ele>
        <time>2022-09-25T10:14:32.001Z</time>
      </trkpt>
      <trkpt lat="48.73189" lon="2.54558">
        <ele>82</ele>
        <time>2022-09-25T10:14:40.992Z</time>
      </trkpt>
      <trkpt lat="48.73189" lon="2.54555">
        <ele>82</ele>
        <time>2022-09-25T10:14:45.004Z</time>
      </trkpt>
      <trkpt lat="48.7319" lon="2.54548">
        <ele>82</ele>
        <time>2022-09-25T10:14:49.980Z</time>
      </trkpt>
      <trkpt lat="48.73194" lon="2.54545">
        <ele>82</ele>
        <time>2022-09-25T10:14:53.989Z</time>
      </trkpt>
      <trkpt lat="48.73199" lon="2.5454">
        <ele>81</ele>
        <time>2022-09-25T10:14:58.982Z</time>
      </trkpt>
      <trkpt lat="48.73199" lon="2.54538">
        <ele>81</ele>
        <time>2022-09-25T10:15:03.981Z</time>
      </trkpt>
      <trkpt lat="48.73199" lon="2.54536">
        <ele>81</ele>
        <time>2022-09-25T10:15:08.983Z</time>
      </trkpt>
      <trkpt lat="48.73198" lon="2.54532">
        <ele>81</ele>
        <time>2022-09-25T10:15:13.969Z</time>
      </trkpt>
      <trkpt lat="48.73196" lon="2.54526">
        <ele>81</ele>
        <time>2022-09-25T10:15:17.991Z</time>
      </trkpt>
      <trkpt lat="48.73191" lon="2.54516">
        <ele>81</ele>
        <time>2022-09-25T10:15:23Z</time>
      </trkpt>
      <trkpt lat="48.73188" lon="2.54508">
        <ele>80</ele>
        <time>2022-09-25T10:15:28.005Z</time>
      </trkpt>
      <trkpt lat="48.73187" lon="2.54499">
        <ele>80</ele>
        <time>2022-09-25T10:15:32.983Z</time>
      </trkpt>
      <trkpt lat="48.73185" lon="2.54493">
        <ele>80</ele>
        <time>2022-09-25T10:15:37.010Z</time>
      </trkpt>
      <trkpt lat="48.73181" lon="2.54484">
        <ele>79</ele>
        <time>2022-09-25T10:15:41.981Z</time>
      </trkpt>
      <trkpt lat="48.73176" lon="2.54479">
        <ele>77</ele>
        <time>2022-09-25T10:15:46.009Z</time>
      </trkpt>
      <trkpt lat="48.73169" lon="2.54474">
        <ele>77</ele>
        <time>2022-09-25T10:15:51.001Z</time>
      </trkpt>
      <trkpt lat="48.73166" lon="2.54472">
        <ele>77</ele>
        <time>2022-09-25T10:15:55.989Z</time>
      </trkpt>
      <trkpt lat="48.73163" lon="2.54465">
        <ele>77</ele>
        <time>2022-09-25T10:16:00.971Z</time>
      </trkpt>
      <trkpt lat="48.73161" lon="2.54456">
        <ele>77</ele>
        <time>2022-09-25T10:16:05.985Z</time>
      </trkpt>
      <trkpt lat="48.73157" lon="2.54449">
        <ele>77</ele>
        <time>2022-09-25T10:16:10.975Z</time>
      </trkpt>
      <trkpt lat="48.73154" lon="2.54443">
        <ele>77</ele>
        <time>2022-09-25T10:16:14.990Z</time>
      </trkpt>
      <trkpt lat="48.7315" lon="2.54436">
        <ele>76</ele>
        <time>2022-09-25T10:16:19.978Z</time>
      </trkpt>
      <trkpt lat="48.73146" lon="2.54431">
        <ele>76</ele>
        <time>2022-09-25T10:16:23.980Z</time>
      </trkpt>
      <trkpt lat="48.73141" lon="2.54425">
        <ele>76</ele>
        <time>2022-09-25T10:16:28.973Z</time>
      </trkpt>
      <trkpt lat="48.73138" lon="2.5442">
        <ele>76</ele>
        <time>2022-09-25T10:16:32.988Z</time>
      </trkpt>
      <trkpt lat="48.73133" lon="2.54411">
        <ele>76</ele>
        <time>2022-09-25T10:16:37.997Z</time>
      </trkpt>
      <trkpt lat="48.7313" lon="2.54404">
        <ele>76</ele>
        <time>2022-09-25T10:16:42.008Z</time>
      </trkpt>
      <trkpt lat="48.73127" lon="2.54395">
        <ele>75</ele>
        <time>2022-09-25T10:16:46.983Z</time>
      </trkpt>
      <trkpt lat="48.73124" lon="2.54387">
        <ele>74</ele>
        <time>2022-09-25T10:16:51.983Z</time>
      </trkpt>
      <trkpt lat="48.73123" lon="2.54382">
        <ele>74</ele>
        <time>2022-09-25T10:16:56.008Z</time>
      </trkpt>
      <trkpt lat="48.73119" lon="2.54375">
        <ele>74</ele>
        <time>2022-09-25T10:17:00.986Z</time>
      </trkpt>
      <trkpt lat="48.73112" lon="2.54373">
        <ele>74</ele>
        <time>2022-09-25T10:17:05.986Z</time>
      </trkpt>
      <trkpt lat="48.73106" lon="2.54374">
        <ele>74</ele>
        <time>2022-09-25T10:17:10.989Z</time>
      </trkpt>
      <trkpt lat="48.73101" lon="2.54374">
        <ele>74</ele>
        <time>2022-09-25T10:17:14.989Z</time>
      </trkpt>
      <trkpt lat="48.73096" lon="2.54372">
        <ele>72</ele>
        <time>2022-09-25T10:17:19.992Z</time>
      </trkpt>
      <trkpt lat="48.73091" lon="2.54367">
        <ele>72</ele>
        <time>2022-09-25T10:17:23.997Z</time>
      </trkpt>
      <trkpt lat="48.73084" lon="2.54363">
        <ele>72</ele>
        <time>2022-09-25T10:17:28.973Z</time>
      </trkpt>
      <trkpt lat="48.73079" lon="2.5436">
        <ele>72</ele>
        <time>2022-09-25T10:17:33.984Z</time>
      </trkpt>
      <trkpt lat="48.73075" lon="2.54359">
        <ele>72</ele>
        <time>2022-09-25T10:17:37.979Z</time>
      </trkpt>
      <trkpt lat="48.73069" lon="2.5436">
        <ele>71</ele>
        <time>2022-09-25T10:17:42.988Z</time>
      </trkpt>
      <trkpt lat="48.73062" lon="2.54361">
        <ele>71</ele>
        <time>2022-09-25T10:17:47.998Z</time>
      </trkpt>
      <trkpt lat="48.73059" lon="2.54362">
        <ele>71</ele>
        <time>2022-09-25T10:17:53.003Z</time>
      </trkpt>
      <trkpt lat="48.73055" lon="2.54356">
        <ele>71</ele>
        <time>2022-09-25T10:17:57.972Z</time>
      </trkpt>
      <trkpt lat="48.73051" lon="2.54351">
        <ele>71</ele>
        <time>2022-09-25T10:18:01.980Z</time>
      </trkpt>
      <trkpt lat="48.73045" lon="2.54347">
        <ele>71</ele>
        <time>2022-09-25T10:18:06.972Z</time>
      </trkpt>
      <trkpt lat="48.7304" lon="2.54344">
        <ele>70</ele>
        <time>2022-09-25T10:18:10.984Z</time>
      </trkpt>
      <trkpt lat="48.73037" lon="2.54339">
        <ele>70</ele>
        <time>2022-09-25T10:18:14.980Z</time>
      </trkpt>
      <trkpt lat="48.73035" lon="2.54332">
        <ele>70</ele>
        <time>2022-09-25T10:18:18.986Z</time>
      </trkpt>
      <trkpt lat="48.73032" lon="2.54324">
        <ele>70</ele>
        <time>2022-09-25T10:18:23.985Z</time>
      </trkpt>
      <trkpt lat="48.73029" lon="2.5432">
        <ele>70</ele>
        <time>2022-09-25T10:18:27.975Z</time>
      </trkpt>
      <trkpt lat="48.73026" lon="2.54313">
        <ele>70</ele>
        <time>2022-09-25T10:18:32.984Z</time>
      </trkpt>
      <trkpt lat="48.73023" lon="2.54307">
        <ele>70</ele>
        <time>2022-09-25T10:18:38.004Z</time>
      </trkpt>
      <trkpt lat="48.7302" lon="2.543">
        <ele>70</ele>
        <time>2022-09-25T10:18:42.995Z</time>
      </trkpt>
      <trkpt lat="48.73017" lon="2.54291">
        <ele>70</ele>
        <time>2022-09-25T10:18:48.004Z</time>
      </trkpt>
      <trkpt lat="48.73015" lon="2.54285">
        <ele>70</ele>
        <time>2022-09-25T10:18:52.003Z</time>
      </trkpt>
      <trkpt lat="48.73014" lon="2.54276">
        <ele>68</ele>
        <time>2022-09-25T10:18:56.984Z</time>
      </trkpt>
      <trkpt lat="48.73012" lon="2.54269">
        <ele>68</ele>
        <time>2022-09-25T10:19:01.012Z</time>
      </trkpt>
      <trkpt lat="48.73009" lon="2.54258">
        <ele>68</ele>
        <time>2022-09-25T10:19:05.998Z</time>
      </trkpt>
      <trkpt lat="48.73005" lon="2.5425">
        <ele>68</ele>
        <time>2022-09-25T10:19:11.004Z</time>
      </trkpt>
      <trkpt lat="48.73002" lon="2.54245">
        <ele>68</ele>
        <time>2022-09-25T10:19:15.008Z</time>
      </trkpt>
      <trkpt lat="48.73001" lon="2.54239">
        <ele>68</ele>
        <time>2022-09-25T10:19:19.994Z</time>
      </trkpt>
      <trkpt lat="48.72996" lon="2.54232">
        <ele>67</ele>
        <time>2022-09-25T10:19:24.993Z</time>
      </trkpt>
      <trkpt lat="48.72993" lon="2.54228">
        <ele>67</ele>
        <time>2022-09-25T10:19:28.993Z</time>
      </trkpt>
      <trkpt lat="48.72992" lon="2.54221">
        <ele>67</ele>
        <time>2022-09-25T10:19:33.991Z</time>
      </trkpt>
      <trkpt lat="48.72987" lon="2.54214">
        <ele>67</ele>
        <time>2022-09-25T10:19:38.996Z</time>
      </trkpt>
      <trkpt lat="48.72986" lon="2.54206">
        <ele>64</ele>
        <time>2022-09-25T10:19:43.994Z</time>
      </trkpt>
      <trkpt lat="48.72984" lon="2.54197">
        <ele>64</ele>
        <time>2022-09-25T10:19:48.005Z</time>
      </trkpt>
      <trkpt lat="48.72982" lon="2.54186">
        <ele>64</ele>
        <time>2022-09-25T10:19:52.972Z</time>
      </trkpt>
      <trkpt lat="48.7298" lon="2.54175">
        <ele>64</ele>
        <time>2022-09-25T10:19:57.960Z</time>
      </trkpt>
      <trkpt lat="48.72978" lon="2.54173">
        <ele>64</ele>
        <time>2022-09-25T10:20:02.953Z</time>
      </trkpt>
      <trkpt lat="48.72976" lon="2.54162">
        <ele>64</ele>
        <time>2022-09-25T10:21:42.966Z</time>
      </trkpt>
      <trkpt lat="48.72978" lon="2.54159">
        <ele>64</ele>
        <time>2022-09-25T10:21:47.971Z</time>
      </trkpt>
      <trkpt lat="48.72978" lon="2.54157">
        <ele>64</ele>
        <time>2022-09-25T10:21:52.955Z</time>
      </trkpt>
      <trkpt lat="48.72976" lon="2.54154">
        <ele>64</ele>
        <time>2022-09-25T10:21:56.965Z</time>
      </trkpt>
      <trkpt lat="48.72975" lon="2.54155">
        <ele>64</ele>
        <time>2022-09-25T10:22:01.966Z</time>
      </trkpt>
      <trkpt lat="48.72975" lon="2.54155">
        <ele>64</ele>
        <time>2022-09-25T10:22:10.962Z</time>
      </trkpt>
      <trkpt lat="48.72972" lon="2.54154">
        <ele>64</ele>
        <time>2022-09-25T10:22:15.962Z</time>
      </trkpt>
      <trkpt lat="48.7297" lon="2.54149">
        <ele>64</ele>
        <time>2022-09-25T10:22:20.952Z</time>
      </trkpt>
      <trkpt lat="48.72968" lon="2.54146">
        <ele>64</ele>
        <time>2022-09-25T10:22:24.961Z</time>
      </trkpt>
      <trkpt lat="48.72966" lon="2.54143">
        <ele>64</ele>
        <time>2022-09-25T10:22:28.968Z</time>
      </trkpt>
      <trkpt lat="48.72964" lon="2.5414">
        <ele>64</ele>
        <time>2022-09-25T10:22:33.963Z</time>
      </trkpt>
      <trkpt lat="48.72962" lon="2.54135">
        <ele>64</ele>
        <time>2022-09-25T10:22:37.976Z</time>
      </trkpt>
      <trkpt lat="48.7296" lon="2.54128">
        <ele>64</ele>
        <time>2022-09-25T10:22:41.990Z</time>
      </trkpt>
      <trkpt lat="48.72957" lon="2.54121">
        <ele>64</ele>
        <time>2022-09-25T10:22:46.960Z</time>
      </trkpt>
      <trkpt lat="48.72952" lon="2.54117">
        <ele>64</ele>
        <time>2022-09-25T10:22:50.963Z</time>
      </trkpt>
      <trkpt lat="48.72951" lon="2.54112">
        <ele>64</ele>
        <time>2022-09-25T10:22:55.003Z</time>
      </trkpt>
      <trkpt lat="48.72948" lon="2.54108">
        <ele>64</ele>
        <time>2022-09-25T10:22:59.967Z</time>
      </trkpt>
      <trkpt lat="48.72947" lon="2.54103">
        <ele>64</ele>
        <time>2022-09-25T10:23:04.013Z</time>
      </trkpt>
      <trkpt lat="48.72944" lon="2.54095">
        <ele>65</ele>
        <time>2022-09-25T10:23:08.966Z</time>
      </trkpt>
      <trkpt lat="48.72939" lon="2.54088">
        <ele>65</ele>
        <time>2022-09-25T10:23:13.964Z</time>
      </trkpt>
      <trkpt lat="48.72935" lon="2.5408">
        <ele>65</ele>
        <time>2022-09-25T10:23:18.960Z</time>
      </trkpt>
      <trkpt lat="48.72933" lon="2.54076">
        <ele>65</ele>
        <time>2022-09-25T10:23:23.009Z</time>
      </trkpt>
      <trkpt lat="48.7293" lon="2.54067">
        <ele>65</ele>
        <time>2022-09-25T10:23:27.962Z</time>
      </trkpt>
      <trkpt lat="48.72927" lon="2.54061">
        <ele>65</ele>
        <time>2022-09-25T10:23:31.984Z</time>
      </trkpt>
      <trkpt lat="48.72922" lon="2.54053">
        <ele>65</ele>
        <time>2022-09-25T10:23:35.995Z</time>
      </trkpt>
      <trkpt lat="48.72917" lon="2.54045">
        <ele>65</ele>
        <time>2022-09-25T10:23:40.991Z</time>
      </trkpt>
      <trkpt lat="48.72911" lon="2.54037">
        <ele>65</ele>
        <time>2022-09-25T10:23:45.976Z</time>
      </trkpt>
      <trkpt lat="48.72909" lon="2.54034">
        <ele>65</ele>
        <time>2022-09-25T10:23:49.976Z</time>
      </trkpt>
      <trkpt lat="48.72906" lon="2.54031">
        <ele>65</ele>
        <time>2022-09-25T10:23:53.972Z</time>
      </trkpt>
      <trkpt lat="48.72902" lon="2.54025">
        <ele>65</ele>
        <time>2022-09-25T10:23:58.001Z</time>
      </trkpt>
      <trkpt lat="48.72898" lon="2.54018">
        <ele>65</ele>
        <time>2022-09-25T10:24:02.983Z</time>
      </trkpt>
      <trkpt lat="48.72894" lon="2.54011">
        <ele>66</ele>
        <time>2022-09-25T10:24:06.993Z</time>
      </trkpt>
      <trkpt lat="48.72891" lon="2.54007">
        <ele>66</ele>
        <time>2022-09-25T10:24:12.009Z</time>
      </trkpt>
      <trkpt lat="48.72886" lon="2.54002">
        <ele>66</ele>
        <time>2022-09-25T10:24:16.982Z</time>
      </trkpt>
      <trkpt lat="48.72882" lon="2.53997">
        <ele>66</ele>
        <time>2022-09-25T10:24:21.983Z</time>
      </trkpt>
      <trkpt lat="48.72876" lon="2.53991">
        <ele>66</ele>
        <time>2022-09-25T10:24:26.983Z</time>
      </trkpt>
      <trkpt lat="48.7287" lon="2.53986">
        <ele>66</ele>
        <time>2022-09-25T10:24:31.994Z</time>
      </trkpt>
      <trkpt lat="48.72866" lon="2.53983">
        <ele>66</ele>
        <time>2022-09-25T10:24:35.993Z</time>
      </trkpt>
      <trkpt lat="48.72862" lon="2.5398">
        <ele>66</ele>
        <time>2022-09-25T10:24:39.997Z</time>
      </trkpt>
      <trkpt lat="48.72859" lon="2.53974">
        <ele>66</ele>
        <time>2022-09-25T10:24:45Z</time>
      </trkpt>
      <trkpt lat="48.72856" lon="2.53968">
        <ele>66</ele>
        <time>2022-09-25T10:24:50.005Z</time>
      </trkpt>
      <trkpt lat="48.72854" lon="2.53961">
        <ele>66</ele>
        <time>2022-09-25T10:24:54.009Z</time>
      </trkpt>
      <trkpt lat="48.72851" lon="2.53954">
        <ele>67</ele>
        <time>2022-09-25T10:24:58.996Z</time>
      </trkpt>
      <trkpt lat="48.72849" lon="2.53948">
        <ele>67</ele>
        <time>2022-09-25T10:25:03.007Z</time>
      </trkpt>
      <trkpt lat="48.72847" lon="2.53939">
        <ele>69</ele>
        <time>2022-09-25T10:25:07.997Z</time>
      </trkpt>
      <trkpt lat="48.72844" lon="2.53929">
        <ele>70</ele>
        <time>2022-09-25T10:25:13.005Z</time>
      </trkpt>
      <trkpt lat="48.72842" lon="2.53921">
        <ele>70</ele>
        <time>2022-09-25T10:25:16.997Z</time>
      </trkpt>
      <trkpt lat="48.72839" lon="2.53911">
        <ele>70</ele>
        <time>2022-09-25T10:25:21.979Z</time>
      </trkpt>
      <trkpt lat="48.72837" lon="2.53904">
        <ele>70</ele>
        <time>2022-09-25T10:25:25.996Z</time>
      </trkpt>
      <trkpt lat="48.72834" lon="2.53897">
        <ele>70</ele>
        <time>2022-09-25T10:25:30.010Z</time>
      </trkpt>
      <trkpt lat="48.72829" lon="2.53891">
        <ele>70</ele>
        <time>2022-09-25T10:25:35.004Z</time>
      </trkpt>
      <trkpt lat="48.72824" lon="2.53884">
        <ele>70</ele>
        <time>2022-09-25T10:25:40.009Z</time>
      </trkpt>
      <trkpt lat="48.7282" lon="2.53877">
        <ele>70</ele>
        <time>2022-09-25T10:25:45.017Z</time>
      </trkpt>
      <trkpt lat="48.72816" lon="2.5387">
        <ele>71</ele>
        <time>2022-09-25T10:25:50.014Z</time>
      </trkpt>
      <trkpt lat="48.72812" lon="2.53864">
        <ele>71</ele>
        <time>2022-09-25T10:25:55Z</time>
      </trkpt>
      <trkpt lat="48.72805" lon="2.53857">
        <ele>71</ele>
        <time>2022-09-25T10:25:59.986Z</time>
      </trkpt>
      <trkpt lat="48.72799" lon="2.53853">
        <ele>71</ele>
        <time>2022-09-25T10:26:04.979Z</time>
      </trkpt>
      <trkpt lat="48.72793" lon="2.53851">
        <ele>71</ele>
        <time>2022-09-25T10:26:09.007Z</time>
      </trkpt>
      <trkpt lat="48.72787" lon="2.53853">
        <ele>72</ele>
        <time>2022-09-25T10:26:13.986Z</time>
      </trkpt>
      <trkpt lat="48.72783" lon="2.53856">
        <ele>72</ele>
        <time>2022-09-25T10:26:18.980Z</time>
      </trkpt>
      <trkpt lat="48.72778" lon="2.53856">
        <ele>72</ele>
        <time>2022-09-25T10:26:23.982Z</time>
      </trkpt>
      <trkpt lat="48.72774" lon="2.53854">
        <ele>72</ele>
        <time>2022-09-25T10:26:28.994Z</time>
      </trkpt>
      <trkpt lat="48.7277" lon="2.53851">
        <ele>72</ele>
        <time>2022-09-25T10:26:33.987Z</time>
      </trkpt>
      <trkpt lat="48.72767" lon="2.5385">
        <ele>72</ele>
        <time>2022-09-25T10:26:37.990Z</time>
      </trkpt>
      <trkpt lat="48.72764" lon="2.5385">
        <ele>72</ele>
        <time>2022-09-25T10:26:41.993Z</time>
      </trkpt>
      <trkpt lat="48.72763" lon="2.53846">
        <ele>73</ele>
        <time>2022-09-25T10:26:46.978Z</time>
      </trkpt>
      <trkpt lat="48.72762" lon="2.53837">
        <ele>73</ele>
        <time>2022-09-25T10:26:51.969Z</time>
      </trkpt>
      <trkpt lat="48.72761" lon="2.5383">
        <ele>73</ele>
        <time>2022-09-25T10:26:55.978Z</time>
      </trkpt>
      <trkpt lat="48.72759" lon="2.53823">
        <ele>73</ele>
        <time>2022-09-25T10:26:59.982Z</time>
      </trkpt>
      <trkpt lat="48.72759" lon="2.53817">
        <ele>74</ele>
        <time>2022-09-25T10:27:03.975Z</time>
      </trkpt>
      <trkpt lat="48.72759" lon="2.53808">
        <ele>74</ele>
        <time>2022-09-25T10:27:08.969Z</time>
      </trkpt>
      <trkpt lat="48.7276" lon="2.53802">
        <ele>74</ele>
        <time>2022-09-25T10:27:12.977Z</time>
      </trkpt>
      <trkpt lat="48.7276" lon="2.53793">
        <ele>74</ele>
        <time>2022-09-25T10:27:17.965Z</time>
      </trkpt>
      <trkpt lat="48.72759" lon="2.53786">
        <ele>75</ele>
        <time>2022-09-25T10:27:21.964Z</time>
      </trkpt>
      <trkpt lat="48.72759" lon="2.53777">
        <ele>75</ele>
        <time>2022-09-25T10:27:26.972Z</time>
      </trkpt>
      <trkpt lat="48.72758" lon="2.53769">
        <ele>75</ele>
        <time>2022-09-25T10:27:31.977Z</time>
      </trkpt>
      <trkpt lat="48.72757" lon="2.53758">
        <ele>76</ele>
        <time>2022-09-25T10:27:36.974Z</time>
      </trkpt>
      <trkpt lat="48.72757" lon="2.5375">
        <ele>76</ele>
        <time>2022-09-25T10:27:40.982Z</time>
      </trkpt>
      <trkpt lat="48.72757" lon="2.5374">
        <ele>76</ele>
        <time>2022-09-25T10:27:45.976Z</time>
      </trkpt>
      <trkpt lat="48.72756" lon="2.53732">
        <ele>76</ele>
        <time>2022-09-25T10:27:49.976Z</time>
      </trkpt>
      <trkpt lat="48.72757" lon="2.53723">
        <ele>76</ele>
        <time>2022-09-25T10:27:54.977Z</time>
      </trkpt>
      <trkpt lat="48.72756" lon="2.53717">
        <ele>76</ele>
        <time>2022-09-25T10:27:58.980Z</time>
      </trkpt>
      <trkpt lat="48.72756" lon="2.53709">
        <ele>76</ele>
        <time>2022-09-25T10:28:03.975Z</time>
      </trkpt>
      <trkpt lat="48.72755" lon="2.53699">
        <ele>76</ele>
        <time>2022-09-25T10:28:08.982Z</time>
      </trkpt>
      <trkpt lat="48.72756" lon="2.53692">
        <ele>76</ele>
        <time>2022-09-25T10:28:12.988Z</time>
      </trkpt>
      <trkpt lat="48.72756" lon="2.53685">
        <ele>76</ele>
        <time>2022-09-25T10:28:17.962Z</time>
      </trkpt>
      <trkpt lat="48.72755" lon="2.53677">
        <ele>76</ele>
        <time>2022-09-25T10:28:21.976Z</time>
      </trkpt>
      <trkpt lat="48.72754" lon="2.53669">
        <ele>76</ele>
        <time>2022-09-25T10:28:26.962Z</time>
      </trkpt>
      <trkpt lat="48.72754" lon="2.53663">
        <ele>76</ele>
        <time>2022-09-25T10:28:30.970Z</time>
      </trkpt>
      <trkpt lat="48.72753" lon="2.53654">
        <ele>76</ele>
        <time>2022-09-25T10:28:34.990Z</time>
      </trkpt>
      <trkpt lat="48.72753" lon="2.53646">
        <ele>77</ele>
        <time>2022-09-25T10:28:38.997Z</time>
      </trkpt>
      <trkpt lat="48.72753" lon="2.53639">
        <ele>77</ele>
        <time>2022-09-25T10:28:44.004Z</time>
      </trkpt>
      <trkpt lat="48.72754" lon="2.53633">
        <ele>77</ele>
        <time>2022-09-25T10:28:48.011Z</time>
      </trkpt>
      <trkpt lat="48.72754" lon="2.53625">
        <ele>77</ele>
        <time>2022-09-25T10:28:52.987Z</time>
      </trkpt>
      <trkpt lat="48.72755" lon="2.5362">
        <ele>79</ele>
        <time>2022-09-25T10:28:57.008Z</time>
      </trkpt>
      <trkpt lat="48.72754" lon="2.53612">
        <ele>79</ele>
        <time>2022-09-25T10:29:02.014Z</time>
      </trkpt>
      <trkpt lat="48.72753" lon="2.53603">
        <ele>79</ele>
        <time>2022-09-25T10:29:06.987Z</time>
      </trkpt>
      <trkpt lat="48.72753" lon="2.53598">
        <ele>79</ele>
        <time>2022-09-25T10:29:10.997Z</time>
      </trkpt>
      <trkpt lat="48.72753" lon="2.53595">
        <ele>81</ele>
        <time>2022-09-25T10:29:15.991Z</time>
      </trkpt>
      <trkpt lat="48.72752" lon="2.53592">
        <ele>81</ele>
        <time>2022-09-25T10:29:43.011Z</time>
      </trkpt>
      <trkpt lat="48.72752" lon="2.53592">
        <ele>81</ele>
        <time>2022-09-25T10:29:47.988Z</time>
      </trkpt>
      <trkpt lat="48.72752" lon="2.53592">
        <ele>81</ele>
        <time>2022-09-25T10:29:53.003Z</time>
      </trkpt>
      <trkpt lat="48.72749" lon="2.53591">
        <ele>81</ele>
        <time>2022-09-25T10:29:58.011Z</time>
      </trkpt>
      <trkpt lat="48.72743" lon="2.53588">
        <ele>81</ele>
        <time>2022-09-25T10:30:02.988Z</time>
      </trkpt>
      <trkpt lat="48.72738" lon="2.53588">
        <ele>81</ele>
        <time>2022-09-25T10:30:06.991Z</time>
      </trkpt>
      <trkpt lat="48.72734" lon="2.53592">
        <ele>81</ele>
        <time>2022-09-25T10:30:12.005Z</time>
      </trkpt>
      <trkpt lat="48.72728" lon="2.53592">
        <ele>81</ele>
        <time>2022-09-25T10:30:17.001Z</time>
      </trkpt>
      <trkpt lat="48.72722" lon="2.53589">
        <ele>81</ele>
        <time>2022-09-25T10:30:22.014Z</time>
      </trkpt>
      <trkpt lat="48.72714" lon="2.53584">
        <ele>81</ele>
        <time>2022-09-25T10:30:26.996Z</time>
      </trkpt>
      <trkpt lat="48.72709" lon="2.53581">
        <ele>81</ele>
        <time>2022-09-25T10:30:31.008Z</time>
      </trkpt>
      <trkpt lat="48.72703" lon="2.53579">
        <ele>81</ele>
        <time>2022-09-25T10:30:35.010Z</time>
      </trkpt>
      <trkpt lat="48.72696" lon="2.53578">
        <ele>81</ele>
        <time>2022-09-25T10:30:39.975Z</time>
      </trkpt>
      <trkpt lat="48.72691" lon="2.53574">
        <ele>81</ele>
        <time>2022-09-25T10:30:44.004Z</time>
      </trkpt>
      <trkpt lat="48.72686" lon="2.53571">
        <ele>81</ele>
        <time>2022-09-25T10:30:48.973Z</time>
      </trkpt>
      <trkpt lat="48.72682" lon="2.53569">
        <ele>82</ele>
        <time>2022-09-25T10:30:52.998Z</time>
      </trkpt>
      <trkpt lat="48.72676" lon="2.53566">
        <ele>81</ele>
        <time>2022-09-25T10:30:57.985Z</time>
      </trkpt>
      <trkpt lat="48.72669" lon="2.53562">
        <ele>81</ele>
        <time>2022-09-25T10:31:02.998Z</time>
      </trkpt>
      <trkpt lat="48.72664" lon="2.53555">
        <ele>81</ele>
        <time>2022-09-25T10:31:07.995Z</time>
      </trkpt>
      <trkpt lat="48.72659" lon="2.53551">
        <ele>81</ele>
        <time>2022-09-25T10:31:12.979Z</time>
      </trkpt>
      <trkpt lat="48.72655" lon="2.53546">
        <ele>81</ele>
        <time>2022-09-25T10:31:17.004Z</time>
      </trkpt>
      <trkpt lat="48.7265" lon="2.53541">
        <ele>82</ele>
        <time>2022-09-25T10:31:22.010Z</time>
      </trkpt>
      <trkpt lat="48.72645" lon="2.53536">
        <ele>82</ele>
        <time>2022-09-25T10:31:26.016Z</time>
      </trkpt>
      <trkpt lat="48.7264" lon="2.53532">
        <ele>82</ele>
        <time>2022-09-25T10:31:31.010Z</time>
      </trkpt>
      <trkpt lat="48.72636" lon="2.53528">
        <ele>82</ele>
        <time>2022-09-25T10:31:35.993Z</time>
      </trkpt>
      <trkpt lat="48.72634" lon="2.53524">
        <ele>82</ele>
        <time>2022-09-25T10:31:40.991Z</time>
      </trkpt>
      <trkpt lat="48.72634" lon="2.53517">
        <ele>82</ele>
        <time>2022-09-25T10:31:45.995Z</time>
      </trkpt>
      <trkpt lat="48.72636" lon="2.53509">
        <ele>82</ele>
        <time>2022-09-25T10:31:50.985Z</time>
      </trkpt>
      <trkpt lat="48.72637" lon="2.535">
        <ele>82</ele>
        <time>2022-09-25T10:31:55.994Z</time>
      </trkpt>
      <trkpt lat="48.72637" lon="2.5349">
        <ele>82</ele>
        <time>2022-09-25T10:32:00.997Z</time>
      </trkpt>
      <trkpt lat="48.72636" lon="2.53481">
        <ele>82</ele>
        <time>2022-09-25T10:32:05.986Z</time>
      </trkpt>
      <trkpt lat="48.72635" lon="2.53472">
        <ele>82</ele>
        <time>2022-09-25T10:32:10.007Z</time>
      </trkpt>
      <trkpt lat="48.72634" lon="2.53463">
        <ele>82</ele>
        <time>2022-09-25T10:32:15.001Z</time>
      </trkpt>
      <trkpt lat="48.72632" lon="2.53454">
        <ele>83</ele>
        <time>2022-09-25T10:32:20.007Z</time>
      </trkpt>
      <trkpt lat="48.7263" lon="2.53447">
        <ele>83</ele>
        <time>2022-09-25T10:32:24.017Z</time>
      </trkpt>
      <trkpt lat="48.72627" lon="2.53438">
        <ele>83</ele>
        <time>2022-09-25T10:32:29.010Z</time>
      </trkpt>
      <trkpt lat="48.72625" lon="2.53429">
        <ele>84</ele>
        <time>2022-09-25T10:32:34.023Z</time>
      </trkpt>
      <trkpt lat="48.72622" lon="2.5342">
        <ele>83</ele>
        <time>2022-09-25T10:32:39.009Z</time>
      </trkpt>
      <trkpt lat="48.7262" lon="2.53412">
        <ele>83</ele>
        <time>2022-09-25T10:32:43.992Z</time>
      </trkpt>
      <trkpt lat="48.72616" lon="2.53406">
        <ele>83</ele>
        <time>2022-09-25T10:32:48.997Z</time>
      </trkpt>
      <trkpt lat="48.72613" lon="2.53397">
        <ele>85</ele>
        <time>2022-09-25T10:32:53.997Z</time>
      </trkpt>
      <trkpt lat="48.72611" lon="2.53386">
        <ele>85</ele>
        <time>2022-09-25T10:32:58.988Z</time>
      </trkpt>
      <trkpt lat="48.72609" lon="2.53379">
        <ele>85</ele>
        <time>2022-09-25T10:33:03.007Z</time>
      </trkpt>
      <trkpt lat="48.72607" lon="2.5337">
        <ele>88</ele>
        <time>2022-09-25T10:33:08.004Z</time>
      </trkpt>
      <trkpt lat="48.72607" lon="2.53362">
        <ele>88</ele>
        <time>2022-09-25T10:33:13.012Z</time>
      </trkpt>
      <trkpt lat="48.72606" lon="2.53354">
        <ele>88</ele>
        <time>2022-09-25T10:33:17.998Z</time>
      </trkpt>
      <trkpt lat="48.72605" lon="2.53347">
        <ele>89</ele>
        <time>2022-09-25T10:33:22.001Z</time>
      </trkpt>
      <trkpt lat="48.72605" lon="2.53338">
        <ele>89</ele>
        <time>2022-09-25T10:33:26.011Z</time>
      </trkpt>
      <trkpt lat="48.72605" lon="2.53329">
        <ele>89</ele>
        <time>2022-09-25T10:33:30.982Z</time>
      </trkpt>
      <trkpt lat="48.72605" lon="2.53322">
        <ele>89</ele>
        <time>2022-09-25T10:33:34.991Z</time>
      </trkpt>
      <trkpt lat="48.72607" lon="2.53313">
        <ele>90</ele>
        <time>2022-09-25T10:33:39.981Z</time>
      </trkpt>
      <trkpt lat="48.72607" lon="2.53306">
        <ele>90</ele>
        <time>2022-09-25T10:33:43.989Z</time>
      </trkpt>
      <trkpt lat="48.72607" lon="2.53298">
        <ele>90</ele>
        <time>2022-09-25T10:33:47.994Z</time>
      </trkpt>
      <trkpt lat="48.72606" lon="2.53289">
        <ele>90</ele>
        <time>2022-09-25T10:33:52.980Z</time>
      </trkpt>
      <trkpt lat="48.72607" lon="2.53281">
        <ele>90</ele>
        <time>2022-09-25T10:33:56.992Z</time>
      </trkpt>
      <trkpt lat="48.72607" lon="2.53275">
        <ele>90</ele>
        <time>2022-09-25T10:34:01.014Z</time>
      </trkpt>
      <trkpt lat="48.72607" lon="2.53268">
        <ele>90</ele>
        <time>2022-09-25T10:34:06.008Z</time>
      </trkpt>
      <trkpt lat="48.72608" lon="2.53259">
        <ele>89</ele>
        <time>2022-09-25T10:34:11.002Z</time>
      </trkpt>
      <trkpt lat="48.72608" lon="2.5325">
        <ele>89</ele>
        <time>2022-09-25T10:34:15.984Z</time>
      </trkpt>
      <trkpt lat="48.72608" lon="2.53243">
        <ele>89</ele>
        <time>2022-09-25T10:34:19.995Z</time>
      </trkpt>
      <trkpt lat="48.72607" lon="2.53237">
        <ele>89</ele>
        <time>2022-09-25T10:34:23.998Z</time>
      </trkpt>
      <trkpt lat="48.72608" lon="2.53231">
        <ele>89</ele>
        <time>2022-09-25T10:34:28.009Z</time>
      </trkpt>
      <trkpt lat="48.72609" lon="2.53221">
        <ele>89</ele>
        <time>2022-09-25T10:34:32.992Z</time>
      </trkpt>
      <trkpt lat="48.7261" lon="2.53214">
        <ele>89</ele>
        <time>2022-09-25T10:34:37.008Z</time>
      </trkpt>
      <trkpt lat="48.72609" lon="2.53205">
        <ele>88</ele>
        <time>2022-09-25T10:34:42.002Z</time>
      </trkpt>
      <trkpt lat="48.72608" lon="2.53198">
        <ele>88</ele>
        <time>2022-09-25T10:34:46.990Z</time>
      </trkpt>
      <trkpt lat="48.72608" lon="2.53192">
        <ele>88</ele>
        <time>2022-09-25T10:34:52.002Z</time>
      </trkpt>
      <trkpt lat="48.72609" lon="2.53183">
        <ele>88</ele>
        <time>2022-09-25T10:34:56.995Z</time>
      </trkpt>
      <trkpt lat="48.7261" lon="2.53175">
        <ele>88</ele>
        <time>2022-09-25T10:35:01.007Z</time>
      </trkpt>
      <trkpt lat="48.7261" lon="2.53167">
        <ele>88</ele>
        <time>2022-09-25T10:35:05.996Z</time>
      </trkpt>
      <trkpt lat="48.7261" lon="2.53161">
        <ele>88</ele>
        <time>2022-09-25T10:35:10.006Z</time>
      </trkpt>
      <trkpt lat="48.72611" lon="2.53158">
        <ele>88</ele>
        <time>2022-09-25T10:35:14.987Z</time>
      </trkpt>
      <trkpt lat="48.72614" lon="2.53152">
        <ele>89</ele>
        <time>2022-09-25T10:35:19.992Z</time>
      </trkpt>
      <trkpt lat="48.72616" lon="2.53147">
        <ele>89</ele>
        <time>2022-09-25T10:35:23.996Z</time>
      </trkpt>
      <trkpt lat="48.72619" lon="2.5314">
        <ele>89</ele>
        <time>2022-09-25T10:35:28.977Z</time>
      </trkpt>
      <trkpt lat="48.72622" lon="2.53135">
        <ele>89</ele>
        <time>2022-09-25T10:35:33.992Z</time>
      </trkpt>
      <trkpt lat="48.72621" lon="2.53127">
        <ele>89</ele>
        <time>2022-09-25T10:35:38.002Z</time>
      </trkpt>
      <trkpt lat="48.72621" lon="2.53117">
        <ele>89</ele>
        <time>2022-09-25T10:35:42.983Z</time>
      </trkpt>
      <trkpt lat="48.7262" lon="2.53108">
        <ele>89</ele>
        <time>2022-09-25T10:35:47.992Z</time>
      </trkpt>
      <trkpt lat="48.7262" lon="2.53099">
        <ele>89</ele>
        <time>2022-09-25T10:35:52.990Z</time>
      </trkpt>
      <trkpt lat="48.72621" lon="2.53091">
        <ele>89</ele>
        <time>2022-09-25T10:35:56.991Z</time>
      </trkpt>
      <trkpt lat="48.72622" lon="2.53082">
        <ele>89</ele>
        <time>2022-09-25T10:36:01.997Z</time>
      </trkpt>
      <trkpt lat="48.72623" lon="2.53074">
        <ele>89</ele>
        <time>2022-09-25T10:36:06.005Z</time>
      </trkpt>
      <trkpt lat="48.72624" lon="2.53065">
        <ele>90</ele>
        <time>2022-09-25T10:36:10.988Z</time>
      </trkpt>
      <trkpt lat="48.72625" lon="2.53056">
        <ele>90</ele>
        <time>2022-09-25T10:36:15.985Z</time>
      </trkpt>
      <trkpt lat="48.72626" lon="2.53049">
        <ele>90</ele>
        <time>2022-09-25T10:36:20.011Z</time>
      </trkpt>
      <trkpt lat="48.72628" lon="2.5304">
        <ele>91</ele>
        <time>2022-09-25T10:36:25.014Z</time>
      </trkpt>
      <trkpt lat="48.72631" lon="2.53033">
        <ele>91</ele>
        <time>2022-09-25T10:36:29.016Z</time>
      </trkpt>
      <trkpt lat="48.72633" lon="2.53024">
        <ele>91</ele>
        <time>2022-09-25T10:36:34.002Z</time>
      </trkpt>
      <trkpt lat="48.72635" lon="2.53015">
        <ele>91</ele>
        <time>2022-09-25T10:36:39.007Z</time>
      </trkpt>
      <trkpt lat="48.72637" lon="2.53007">
        <ele>91</ele>
        <time>2022-09-25T10:36:44.013Z</time>
      </trkpt>
      <trkpt lat="48.72639" lon="2.52997">
        <ele>91</ele>
        <time>2022-09-25T10:36:48.999Z</time>
      </trkpt>
      <trkpt lat="48.72642" lon="2.52987">
        <ele>91</ele>
        <time>2022-09-25T10:36:53.992Z</time>
      </trkpt>
      <trkpt lat="48.72644" lon="2.5298">
        <ele>91</ele>
        <time>2022-09-25T10:36:58.990Z</time>
      </trkpt>
      <trkpt lat="48.72645" lon="2.52972">
        <ele>91</ele>
        <time>2022-09-25T10:37:02.989Z</time>
      </trkpt>
      <trkpt lat="48.72647" lon="2.52965">
        <ele>91</ele>
        <time>2022-09-25T10:37:06.995Z</time>
      </trkpt>
      <trkpt lat="48.72649" lon="2.52957">
        <ele>91</ele>
        <time>2022-09-25T10:37:11.990Z</time>
      </trkpt>
      <trkpt lat="48.72652" lon="2.5295">
        <ele>91</ele>
        <time>2022-09-25T10:37:16.014Z</time>
      </trkpt>
      <trkpt lat="48.72654" lon="2.5294">
        <ele>90</ele>
        <time>2022-09-25T10:37:20.978Z</time>
      </trkpt>
      <trkpt lat="48.72657" lon="2.52932">
        <ele>90</ele>
        <time>2022-09-25T10:37:25.002Z</time>
      </trkpt>
      <trkpt lat="48.7266" lon="2.52923">
        <ele>90</ele>
        <time>2022-09-25T10:37:30.028Z</time>
      </trkpt>
      <trkpt lat="48.72663" lon="2.52913">
        <ele>90</ele>
        <time>2022-09-25T10:37:34.987Z</time>
      </trkpt>
      <trkpt lat="48.72666" lon="2.52903">
        <ele>90</ele>
        <time>2022-09-25T10:37:39.986Z</time>
      </trkpt>
      <trkpt lat="48.72667" lon="2.52896">
        <ele>91</ele>
        <time>2022-09-25T10:37:43.993Z</time>
      </trkpt>
      <trkpt lat="48.72671" lon="2.52885">
        <ele>91</ele>
        <time>2022-09-25T10:37:48.986Z</time>
      </trkpt>
      <trkpt lat="48.72673" lon="2.52878">
        <ele>91</ele>
        <time>2022-09-25T10:37:52.988Z</time>
      </trkpt>
      <trkpt lat="48.72677" lon="2.52869">
        <ele>91</ele>
        <time>2022-09-25T10:37:57.994Z</time>
      </trkpt>
      <trkpt lat="48.7268" lon="2.52861">
        <ele>91</ele>
        <time>2022-09-25T10:38:02.994Z</time>
      </trkpt>
      <trkpt lat="48.72682" lon="2.52853">
        <ele>91</ele>
        <time>2022-09-25T10:38:07.023Z</time>
      </trkpt>
      <trkpt lat="48.72685" lon="2.52844">
        <ele>91</ele>
        <time>2022-09-25T10:38:12.022Z</time>
      </trkpt>
      <trkpt lat="48.72689" lon="2.52834">
        <ele>91</ele>
        <time>2022-09-25T10:38:17.011Z</time>
      </trkpt>
      <trkpt lat="48.72693" lon="2.52827">
        <ele>91</ele>
        <time>2022-09-25T10:38:21.985Z</time>
      </trkpt>
      <trkpt lat="48.72695" lon="2.52819">
        <ele>92</ele>
        <time>2022-09-25T10:38:25.966Z</time>
      </trkpt>
      <trkpt lat="48.72698" lon="2.52812">
        <ele>92</ele>
        <time>2022-09-25T10:38:30.959Z</time>
      </trkpt>
      <trkpt lat="48.72704" lon="2.52805">
        <ele>92</ele>
        <time>2022-09-25T10:38:35.962Z</time>
      </trkpt>
      <trkpt lat="48.72707" lon="2.52799">
        <ele>92</ele>
        <time>2022-09-25T10:38:39.970Z</time>
      </trkpt>
      <trkpt lat="48.72709" lon="2.52791">
        <ele>94</ele>
        <time>2022-09-25T10:38:43.997Z</time>
      </trkpt>
      <trkpt lat="48.7271" lon="2.52783">
        <ele>94</ele>
        <time>2022-09-25T10:38:48.977Z</time>
      </trkpt>
      <trkpt lat="48.72712" lon="2.52777">
        <ele>94</ele>
        <time>2022-09-25T10:38:52.991Z</time>
      </trkpt>
      <trkpt lat="48.72715" lon="2.52771">
        <ele>94</ele>
        <time>2022-09-25T10:38:57.003Z</time>
      </trkpt>
      <trkpt lat="48.72718" lon="2.52764">
        <ele>94</ele>
        <time>2022-09-25T10:39:01.004Z</time>
      </trkpt>
      <trkpt lat="48.72721" lon="2.52756">
        <ele>95</ele>
        <time>2022-09-25T10:39:05.963Z</time>
      </trkpt>
      <trkpt lat="48.72724" lon="2.52749">
        <ele>95</ele>
        <time>2022-09-25T10:39:10.963Z</time>
      </trkpt>
      <trkpt lat="48.72727" lon="2.52741">
        <ele>95</ele>
        <time>2022-09-25T10:39:15.965Z</time>
      </trkpt>
      <trkpt lat="48.7273" lon="2.52735">
        <ele>95</ele>
        <time>2022-09-25T10:39:19.984Z</time>
      </trkpt>
      <trkpt lat="48.72734" lon="2.52726">
        <ele>95</ele>
        <time>2022-09-25T10:39:24.969Z</time>
      </trkpt>
      <trkpt lat="48.72736" lon="2.52719">
        <ele>95</ele>
        <time>2022-09-25T10:39:28.994Z</time>
      </trkpt>
      <trkpt lat="48.72738" lon="2.52711">
        <ele>96</ele>
        <time>2022-09-25T10:39:33.975Z</time>
      </trkpt>
      <trkpt lat="48.72741" lon="2.52704">
        <ele>96</ele>
        <time>2022-09-25T10:39:37.988Z</time>
      </trkpt>
      <trkpt lat="48.72743" lon="2.52699">
        <ele>96</ele>
        <time>2022-09-25T10:39:42.968Z</time>
      </trkpt>
      <trkpt lat="48.72745" lon="2.52689">
        <ele>96</ele>
        <time>2022-09-25T10:39:47.966Z</time>
      </trkpt>
      <trkpt lat="48.72747" lon="2.52683">
        <ele>96</ele>
        <time>2022-09-25T10:39:51.968Z</time>
      </trkpt>
      <trkpt lat="48.72748" lon="2.52677">
        <ele>95</ele>
        <time>2022-09-25T10:39:55.970Z</time>
      </trkpt>
      <trkpt lat="48.72749" lon="2.52672">
        <ele>95</ele>
        <time>2022-09-25T10:39:59.990Z</time>
      </trkpt>
      <trkpt lat="48.7275" lon="2.52666">
        <ele>95</ele>
        <time>2022-09-25T10:40:04.007Z</time>
      </trkpt>
      <trkpt lat="48.72751" lon="2.52659">
        <ele>95</ele>
        <time>2022-09-25T10:40:08.979Z</time>
      </trkpt>
      <trkpt lat="48.72752" lon="2.52653">
        <ele>95</ele>
        <time>2022-09-25T10:40:12.999Z</time>
      </trkpt>
      <trkpt lat="48.72753" lon="2.52649">
        <ele>95</ele>
        <time>2022-09-25T10:40:30.988Z</time>
      </trkpt>
      <trkpt lat="48.72755" lon="2.52643">
        <ele>95</ele>
        <time>2022-09-25T10:40:35.988Z</time>
      </trkpt>
      <trkpt lat="48.72758" lon="2.52635">
        <ele>95</ele>
        <time>2022-09-25T10:40:41.004Z</time>
      </trkpt>
      <trkpt lat="48.72759" lon="2.52629">
        <ele>95</ele>
        <time>2022-09-25T10:40:45.014Z</time>
      </trkpt>
      <trkpt lat="48.7276" lon="2.52626">
        <ele>95</ele>
        <time>2022-09-25T10:40:49.998Z</time>
      </trkpt>
      <trkpt lat="48.72763" lon="2.52621">
        <ele>95</ele>
        <time>2022-09-25T10:40:53.997Z</time>
      </trkpt>
      <trkpt lat="48.72767" lon="2.52616">
        <ele>93</ele>
        <time>2022-09-25T10:40:58.993Z</time>
      </trkpt>
      <trkpt lat="48.72772" lon="2.5261">
        <ele>93</ele>
        <time>2022-09-25T10:41:03.994Z</time>
      </trkpt>
      <trkpt lat="48.72776" lon="2.52606">
        <ele>93</ele>
        <time>2022-09-25T10:41:08.995Z</time>
      </trkpt>
      <trkpt lat="48.7278" lon="2.526">
        <ele>93</ele>
        <time>2022-09-25T10:41:13.004Z</time>
      </trkpt>
      <trkpt lat="48.72783" lon="2.52594">
        <ele>94</ele>
        <time>2022-09-25T10:41:18.005Z</time>
      </trkpt>
      <trkpt lat="48.72787" lon="2.52584">
        <ele>94</ele>
        <time>2022-09-25T10:41:23.003Z</time>
      </trkpt>
      <trkpt lat="48.7279" lon="2.52577">
        <ele>94</ele>
        <time>2022-09-25T10:41:27Z</time>
      </trkpt>
      <trkpt lat="48.72793" lon="2.5257">
        <ele>93</ele>
        <time>2022-09-25T10:41:32.013Z</time>
      </trkpt>
      <trkpt lat="48.72795" lon="2.52562">
        <ele>94</ele>
        <time>2022-09-25T10:41:36.996Z</time>
      </trkpt>
      <trkpt lat="48.72798" lon="2.52555">
        <ele>94</ele>
        <time>2022-09-25T10:41:41.007Z</time>
      </trkpt>
      <trkpt lat="48.72801" lon="2.52548">
        <ele>94</ele>
        <time>2022-09-25T10:41:46.009Z</time>
      </trkpt>
      <trkpt lat="48.72805" lon="2.5254">
        <ele>94</ele>
        <time>2022-09-25T10:41:51.009Z</time>
      </trkpt>
      <trkpt lat="48.72808" lon="2.52535">
        <ele>94</ele>
        <time>2022-09-25T10:41:55.023Z</time>
      </trkpt>
      <trkpt lat="48.72812" lon="2.52526">
        <ele>94</ele>
        <time>2022-09-25T10:42:00.007Z</time>
      </trkpt>
      <trkpt lat="48.72815" lon="2.52518">
        <ele>94</ele>
        <time>2022-09-25T10:42:04.996Z</time>
      </trkpt>
      <trkpt lat="48.72819" lon="2.52508">
        <ele>94</ele>
        <time>2022-09-25T10:42:10.016Z</time>
      </trkpt>
      <trkpt lat="48.72822" lon="2.52499">
        <ele>93</ele>
        <time>2022-09-25T10:42:15Z</time>
      </trkpt>
      <trkpt lat="48.72825" lon="2.5249">
        <ele>93</ele>
        <time>2022-09-25T10:42:19.989Z</time>
      </trkpt>
      <trkpt lat="48.72828" lon="2.52483">
        <ele>94</ele>
        <time>2022-09-25T10:42:24.018Z</time>
      </trkpt>
      <trkpt lat="48.72832" lon="2.52475">
        <ele>94</ele>
        <time>2022-09-25T10:42:29.008Z</time>
      </trkpt>
      <trkpt lat="48.72835" lon="2.52469">
        <ele>94</ele>
        <time>2022-09-25T10:42:34.004Z</time>
      </trkpt>
      <trkpt lat="48.72839" lon="2.5246">
        <ele>94</ele>
        <time>2022-09-25T10:42:39.007Z</time>
      </trkpt>
      <trkpt lat="48.72842" lon="2.52453">
        <ele>95</ele>
        <time>2022-09-25T10:42:44.012Z</time>
      </trkpt>
      <trkpt lat="48.72846" lon="2.52445">
        <ele>95</ele>
        <time>2022-09-25T10:42:49.005Z</time>
      </trkpt>
      <trkpt lat="48.72849" lon="2.52436">
        <ele>94</ele>
        <time>2022-09-25T10:42:54.013Z</time>
      </trkpt>
      <trkpt lat="48.72852" lon="2.52428">
        <ele>95</ele>
        <time>2022-09-25T10:42:59.010Z</time>
      </trkpt>
      <trkpt lat="48.72855" lon="2.5242">
        <ele>95</ele>
        <time>2022-09-25T10:43:04.008Z</time>
      </trkpt>
      <trkpt lat="48.72858" lon="2.52412">
        <ele>95</ele>
        <time>2022-09-25T10:43:08.993Z</time>
      </trkpt>
      <trkpt lat="48.72861" lon="2.52403">
        <ele>95</ele>
        <time>2022-09-25T10:43:13.995Z</time>
      </trkpt>
      <trkpt lat="48.72862" lon="2.52397">
        <ele>96</ele>
        <time>2022-09-25T10:43:18.007Z</time>
      </trkpt>
      <trkpt lat="48.72866" lon="2.52388">
        <ele>96</ele>
        <time>2022-09-25T10:43:22.993Z</time>
      </trkpt>
      <trkpt lat="48.72871" lon="2.5238">
        <ele>96</ele>
        <time>2022-09-25T10:43:27.989Z</time>
      </trkpt>
      <trkpt lat="48.72874" lon="2.52373">
        <ele>96</ele>
        <time>2022-09-25T10:43:32.001Z</time>
      </trkpt>
      <trkpt lat="48.72877" lon="2.52364">
        <ele>96</ele>
        <time>2022-09-25T10:43:36.991Z</time>
      </trkpt>
      <trkpt lat="48.7288" lon="2.52357">
        <ele>96</ele>
        <time>2022-09-25T10:43:41.019Z</time>
      </trkpt>
      <trkpt lat="48.72883" lon="2.52349">
        <ele>96</ele>
        <time>2022-09-25T10:43:46.006Z</time>
      </trkpt>
      <trkpt lat="48.72887" lon="2.52344">
        <ele>96</ele>
        <time>2022-09-25T10:43:50.013Z</time>
      </trkpt>
      <trkpt lat="48.72891" lon="2.52336">
        <ele>96</ele>
        <time>2022-09-25T10:43:55.008Z</time>
      </trkpt>
      <trkpt lat="48.72894" lon="2.52328">
        <ele>96</ele>
        <time>2022-09-25T10:44:00.006Z</time>
      </trkpt>
      <trkpt lat="48.72895" lon="2.52322">
        <ele>96</ele>
        <time>2022-09-25T10:44:04.008Z</time>
      </trkpt>
      <trkpt lat="48.72899" lon="2.52315">
        <ele>97</ele>
        <time>2022-09-25T10:44:09.005Z</time>
      </trkpt>
      <trkpt lat="48.72902" lon="2.52306">
        <ele>97</ele>
        <time>2022-09-25T10:44:14.015Z</time>
      </trkpt>
      <trkpt lat="48.72905" lon="2.52297">
        <ele>96</ele>
        <time>2022-09-25T10:44:18.996Z</time>
      </trkpt>
      <trkpt lat="48.72907" lon="2.52291">
        <ele>97</ele>
        <time>2022-09-25T10:44:23.001Z</time>
      </trkpt>
      <trkpt lat="48.72911" lon="2.5228">
        <ele>97</ele>
        <time>2022-09-25T10:44:27.965Z</time>
      </trkpt>
      <trkpt lat="48.72914" lon="2.52273">
        <ele>97</ele>
        <time>2022-09-25T10:44:31.993Z</time>
      </trkpt>
      <trkpt lat="48.72917" lon="2.52267">
        <ele>97</ele>
        <time>2022-09-25T10:44:35.999Z</time>
      </trkpt>
      <trkpt lat="48.72922" lon="2.52258">
        <ele>98</ele>
        <time>2022-09-25T10:44:41Z</time>
      </trkpt>
      <trkpt lat="48.72924" lon="2.52251">
        <ele>98</ele>
        <time>2022-09-25T10:44:46.002Z</time>
      </trkpt>
      <trkpt lat="48.72927" lon="2.52244">
        <ele>98</ele>
        <time>2022-09-25T10:44:50.006Z</time>
      </trkpt>
      <trkpt lat="48.72931" lon="2.52235">
        <ele>93</ele>
        <time>2022-09-25T10:44:55.018Z</time>
      </trkpt>
      <trkpt lat="48.72934" lon="2.52226">
        <ele>93</ele>
        <time>2022-09-25T10:44:59.989Z</time>
      </trkpt>
      <trkpt lat="48.72937" lon="2.52218">
        <ele>93</ele>
        <time>2022-09-25T10:45:04.014Z</time>
      </trkpt>
      <trkpt lat="48.72939" lon="2.52211">
        <ele>93</ele>
        <time>2022-09-25T10:45:08.011Z</time>
      </trkpt>
      <trkpt lat="48.72942" lon="2.52203">
        <ele>93</ele>
        <time>2022-09-25T10:45:13Z</time>
      </trkpt>
      <trkpt lat="48.72945" lon="2.52194">
        <ele>93</ele>
        <time>2022-09-25T10:45:18.036Z</time>
      </trkpt>
      <trkpt lat="48.72947" lon="2.52185">
        <ele>93</ele>
        <time>2022-09-25T10:45:22.999Z</time>
      </trkpt>
      <trkpt lat="48.72949" lon="2.52176">
        <ele>93</ele>
        <time>2022-09-25T10:45:28.007Z</time>
      </trkpt>
      <trkpt lat="48.72952" lon="2.52167">
        <ele>93</ele>
        <time>2022-09-25T10:45:33.015Z</time>
      </trkpt>
      <trkpt lat="48.72956" lon="2.52159">
        <ele>93</ele>
        <time>2022-09-25T10:45:38.019Z</time>
      </trkpt>
      <trkpt lat="48.72959" lon="2.5215">
        <ele>92</ele>
        <time>2022-09-25T10:45:43.007Z</time>
      </trkpt>
      <trkpt lat="48.72963" lon="2.5214">
        <ele>92</ele>
        <time>2022-09-25T10:45:48.021Z</time>
      </trkpt>
      <trkpt lat="48.72967" lon="2.52132">
        <ele>92</ele>
        <time>2022-09-25T10:45:53.009Z</time>
      </trkpt>
      <trkpt lat="48.72969" lon="2.52124">
        <ele>93</ele>
        <time>2022-09-25T10:45:57.013Z</time>
      </trkpt>
      <trkpt lat="48.72971" lon="2.52115">
        <ele>93</ele>
        <time>2022-09-25T10:46:02.021Z</time>
      </trkpt>
      <trkpt lat="48.72974" lon="2.52106">
        <ele>93</ele>
        <time>2022-09-25T10:46:07.013Z</time>
      </trkpt>
      <trkpt lat="48.72978" lon="2.52098">
        <ele>93</ele>
        <time>2022-09-25T10:46:12.002Z</time>
      </trkpt>
      <trkpt lat="48.7298" lon="2.52091">
        <ele>95</ele>
        <time>2022-09-25T10:46:16.006Z</time>
      </trkpt>
      <trkpt lat="48.72984" lon="2.52083">
        <ele>95</ele>
        <time>2022-09-25T10:46:21.006Z</time>
      </trkpt>
      <trkpt lat="48.72987" lon="2.52075">
        <ele>93</ele>
        <time>2022-09-25T10:46:26.007Z</time>
      </trkpt>
      <trkpt lat="48.72987" lon="2.52072">
        <ele>93</ele>
        <time>2022-09-25T10:46:31.012Z</time>
      </trkpt>
      <trkpt lat="48.72985" lon="2.52072">
        <ele>95</ele>
        <time>2022-09-25T10:47:45.996Z</time>
      </trkpt>
      <trkpt lat="48.72985" lon="2.52071">
        <ele>95</ele>
        <time>2022-09-25T10:47:50.003Z</time>
      </trkpt>
      <trkpt lat="48.72983" lon="2.52067">
        <ele>95</ele>
        <time>2022-09-25T10:47:55.011Z</time>
      </trkpt>
      <trkpt lat="48.72981" lon="2.52063">
        <ele>95</ele>
        <time>2022-09-25T10:47:59.988Z</time>
      </trkpt>
      <trkpt lat="48.7298" lon="2.52057">
        <ele>95</ele>
        <time>2022-09-25T10:48:04.992Z</time>
      </trkpt>
      <trkpt lat="48.72975" lon="2.52052">
        <ele>95</ele>
        <time>2022-09-25T10:48:10.003Z</time>
      </trkpt>
      <trkpt lat="48.7297" lon="2.52046">
        <ele>95</ele>
        <time>2022-09-25T10:48:14.987Z</time>
      </trkpt>
      <trkpt lat="48.72965" lon="2.5204">
        <ele>95</ele>
        <time>2022-09-25T10:48:19.988Z</time>
      </trkpt>
      <trkpt lat="48.72962" lon="2.52033">
        <ele>95</ele>
        <time>2022-09-25T10:48:24.986Z</time>
      </trkpt>
      <trkpt lat="48.72958" lon="2.52027">
        <ele>97</ele>
        <time>2022-09-25T10:48:29Z</time>
      </trkpt>
      <trkpt lat="48.72954" lon="2.5202">
        <ele>97</ele>
        <time>2022-09-25T10:48:33.998Z</time>
      </trkpt>
      <trkpt lat="48.7295" lon="2.52015">
        <ele>97</ele>
        <time>2022-09-25T10:48:38.999Z</time>
      </trkpt>
      <trkpt lat="48.72946" lon="2.5201">
        <ele>97</ele>
        <time>2022-09-25T10:48:44.001Z</time>
      </trkpt>
      <trkpt lat="48.72943" lon="2.52003">
        <ele>97</ele>
        <time>2022-09-25T10:48:48.988Z</time>
      </trkpt>
      <trkpt lat="48.72937" lon="2.51999">
        <ele>97</ele>
        <time>2022-09-25T10:48:53.975Z</time>
      </trkpt>
      <trkpt lat="48.72931" lon="2.51994">
        <ele>97</ele>
        <time>2022-09-25T10:48:58.962Z</time>
      </trkpt>
      <trkpt lat="48.72927" lon="2.5199">
        <ele>97</ele>
        <time>2022-09-25T10:49:02.987Z</time>
      </trkpt>
      <trkpt lat="48.72924" lon="2.51984">
        <ele>97</ele>
        <time>2022-09-25T10:49:07.004Z</time>
      </trkpt>
      <trkpt lat="48.72921" lon="2.5198">
        <ele>97</ele>
        <time>2022-09-25T10:49:12Z</time>
      </trkpt>
      <trkpt lat="48.72918" lon="2.51974">
        <ele>97</ele>
        <time>2022-09-25T10:49:16.003Z</time>
      </trkpt>
      <trkpt lat="48.72913" lon="2.51968">
        <ele>97</ele>
        <time>2022-09-25T10:49:21.002Z</time>
      </trkpt>
      <trkpt lat="48.72909" lon="2.51961">
        <ele>97</ele>
        <time>2022-09-25T10:49:26.016Z</time>
      </trkpt>
      <trkpt lat="48.72905" lon="2.51956">
        <ele>97</ele>
        <time>2022-09-25T10:49:30.979Z</time>
      </trkpt>
      <trkpt lat="48.72901" lon="2.5195">
        <ele>99</ele>
        <time>2022-09-25T10:49:34.993Z</time>
      </trkpt>
      <trkpt lat="48.72896" lon="2.51945">
        <ele>99</ele>
        <time>2022-09-25T10:49:40.006Z</time>
      </trkpt>
      <trkpt lat="48.72891" lon="2.51938">
        <ele>99</ele>
        <time>2022-09-25T10:49:45.008Z</time>
      </trkpt>
      <trkpt lat="48.72887" lon="2.51933">
        <ele>99</ele>
        <time>2022-09-25T10:49:50.005Z</time>
      </trkpt>
      <trkpt lat="48.72883" lon="2.51925">
        <ele>99</ele>
        <time>2022-09-25T10:49:55.010Z</time>
      </trkpt>
      <trkpt lat="48.72879" lon="2.51919">
        <ele>99</ele>
        <time>2022-09-25T10:50:00.012Z</time>
      </trkpt>
      <trkpt lat="48.72875" lon="2.51913">
        <ele>101</ele>
        <time>2022-09-25T10:50:05.006Z</time>
      </trkpt>
      <trkpt lat="48.72871" lon="2.51909">
        <ele>101</ele>
        <time>2022-09-25T10:50:09.012Z</time>
      </trkpt>
      <trkpt lat="48.72866" lon="2.51904">
        <ele>101</ele>
        <time>2022-09-25T10:50:13.998Z</time>
      </trkpt>
      <trkpt lat="48.72862" lon="2.51899">
        <ele>101</ele>
        <time>2022-09-25T10:50:17.999Z</time>
      </trkpt>
      <trkpt lat="48.72857" lon="2.51892">
        <ele>101</ele>
        <time>2022-09-25T10:50:23.002Z</time>
      </trkpt>
      <trkpt lat="48.72851" lon="2.51887">
        <ele>101</ele>
        <time>2022-09-25T10:50:27.009Z</time>
      </trkpt>
      <trkpt lat="48.72846" lon="2.51881">
        <ele>103</ele>
        <time>2022-09-25T10:50:32Z</time>
      </trkpt>
      <trkpt lat="48.72843" lon="2.51875">
        <ele>103</ele>
        <time>2022-09-25T10:50:36.013Z</time>
      </trkpt>
      <trkpt lat="48.72837" lon="2.51868">
        <ele>103</ele>
        <time>2022-09-25T10:50:41.012Z</time>
      </trkpt>
      <trkpt lat="48.72833" lon="2.51861">
        <ele>103</ele>
        <time>2022-09-25T10:50:46.004Z</time>
      </trkpt>
      <trkpt lat="48.7283" lon="2.51858">
        <ele>103</ele>
        <time>2022-09-25T10:50:50.013Z</time>
      </trkpt>
      <trkpt lat="48.72826" lon="2.51852">
        <ele>103</ele>
        <time>2022-09-25T10:50:55.004Z</time>
      </trkpt>
      <trkpt lat="48.72822" lon="2.51846">
        <ele>104</ele>
        <time>2022-09-25T10:51:00.010Z</time>
      </trkpt>
      <trkpt lat="48.72817" lon="2.5184">
        <ele>105</ele>
        <time>2022-09-25T10:51:04.996Z</time>
      </trkpt>
      <trkpt lat="48.72812" lon="2.51835">
        <ele>105</ele>
        <time>2022-09-25T10:51:09.993Z</time>
      </trkpt>
      <trkpt lat="48.72808" lon="2.51832">
        <ele>105</ele>
        <time>2022-09-25T10:51:14.011Z</time>
      </trkpt>
      <trkpt lat="48.72803" lon="2.51828">
        <ele>105</ele>
        <time>2022-09-25T10:51:18.991Z</time>
      </trkpt>
      <trkpt lat="48.72799" lon="2.51823">
        <ele>105</ele>
        <time>2022-09-25T10:51:22.999Z</time>
      </trkpt>
      <trkpt lat="48.72794" lon="2.51819">
        <ele>106</ele>
        <time>2022-09-25T10:51:27.992Z</time>
      </trkpt>
      <trkpt lat="48.72789" lon="2.51812">
        <ele>108</ele>
        <time>2022-09-25T10:51:33.007Z</time>
      </trkpt>
      <trkpt lat="48.72784" lon="2.51807">
        <ele>108</ele>
        <time>2022-09-25T10:51:38.001Z</time>
      </trkpt>
      <trkpt lat="48.72781" lon="2.51802">
        <ele>108</ele>
        <time>2022-09-25T10:51:42.018Z</time>
      </trkpt>
      <trkpt lat="48.72776" lon="2.51795">
        <ele>108</ele>
        <time>2022-09-25T10:51:46.999Z</time>
      </trkpt>
      <trkpt lat="48.72772" lon="2.51791">
        <ele>108</ele>
        <time>2022-09-25T10:51:51.002Z</time>
      </trkpt>
      <trkpt lat="48.72767" lon="2.51786">
        <ele>108</ele>
        <time>2022-09-25T10:51:55.967Z</time>
      </trkpt>
      <trkpt lat="48.72764" lon="2.51783">
        <ele>108</ele>
        <time>2022-09-25T10:51:59.969Z</time>
      </trkpt>
      <trkpt lat="48.72761" lon="2.51777">
        <ele>110</ele>
        <time>2022-09-25T10:52:04.006Z</time>
      </trkpt>
      <trkpt lat="48.72757" lon="2.51769">
        <ele>110</ele>
        <time>2022-09-25T10:52:08.977Z</time>
      </trkpt>
      <trkpt lat="48.72753" lon="2.51763">
        <ele>111</ele>
        <time>2022-09-25T10:52:13.004Z</time>
      </trkpt>
      <trkpt lat="48.72748" lon="2.51757">
        <ele>111</ele>
        <time>2022-09-25T10:52:17.996Z</time>
      </trkpt>
      <trkpt lat="48.72744" lon="2.51752">
        <ele>111</ele>
        <time>2022-09-25T10:52:22.010Z</time>
      </trkpt>
      <trkpt lat="48.72741" lon="2.51744">
        <ele>111</ele>
        <time>2022-09-25T10:52:27.007Z</time>
      </trkpt>
      <trkpt lat="48.72737" lon="2.51738">
        <ele>111</ele>
        <time>2022-09-25T10:52:31.988Z</time>
      </trkpt>
      <trkpt lat="48.72733" lon="2.51732">
        <ele>110</ele>
        <time>2022-09-25T10:52:36.023Z</time>
      </trkpt>
      <trkpt lat="48.72727" lon="2.51726">
        <ele>110</ele>
        <time>2022-09-25T10:52:41.014Z</time>
      </trkpt>
      <trkpt lat="48.72722" lon="2.51719">
        <ele>110</ele>
        <time>2022-09-25T10:52:46.009Z</time>
      </trkpt>
      <trkpt lat="48.72718" lon="2.51714">
        <ele>110</ele>
        <time>2022-09-25T10:52:51.009Z</time>
      </trkpt>
      <trkpt lat="48.72713" lon="2.51708">
        <ele>110</ele>
        <time>2022-09-25T10:52:55.983Z</time>
      </trkpt>
      <trkpt lat="48.72709" lon="2.51703">
        <ele>110</ele>
        <time>2022-09-25T10:52:59.992Z</time>
      </trkpt>
      <trkpt lat="48.72703" lon="2.51697">
        <ele>110</ele>
        <time>2022-09-25T10:53:04.988Z</time>
      </trkpt>
      <trkpt lat="48.72697" lon="2.51691">
        <ele>110</ele>
        <time>2022-09-25T10:53:10.008Z</time>
      </trkpt>
      <trkpt lat="48.72692" lon="2.51686">
        <ele>110</ele>
        <time>2022-09-25T10:53:14.998Z</time>
      </trkpt>
      <trkpt lat="48.72686" lon="2.5168">
        <ele>111</ele>
        <time>2022-09-25T10:53:19.997Z</time>
      </trkpt>
      <trkpt lat="48.72682" lon="2.51673">
        <ele>111</ele>
        <time>2022-09-25T10:53:25.015Z</time>
      </trkpt>
      <trkpt lat="48.72679" lon="2.51667">
        <ele>111</ele>
        <time>2022-09-25T10:53:30.002Z</time>
      </trkpt>
      <trkpt lat="48.72676" lon="2.51667">
        <ele>111</ele>
        <time>2022-09-25T10:53:33.998Z</time>
      </trkpt>
      <trkpt lat="48.72673" lon="2.51668">
        <ele>111</ele>
        <time>2022-09-25T10:53:38.982Z</time>
      </trkpt>
      <trkpt lat="48.72671" lon="2.51667">
        <ele>111</ele>
        <time>2022-09-25T10:53:42.985Z</time>
      </trkpt>
      <trkpt lat="48.72669" lon="2.51664">
        <ele>111</ele>
        <time>2022-09-25T10:53:47.993Z</time>
      </trkpt>
      <trkpt lat="48.72664" lon="2.51655">
        <ele>111</ele>
        <time>2022-09-25T11:46:04.006Z</time>
      </trkpt>
      <trkpt lat="48.72665" lon="2.51651">
        <ele>111</ele>
        <time>2022-09-25T11:46:08.025Z</time>
      </trkpt>
      <trkpt lat="48.72665" lon="2.51647">
        <ele>111</ele>
        <time>2022-09-25T11:46:13.013Z</time>
      </trkpt>
      <trkpt lat="48.72667" lon="2.51642">
        <ele>111</ele>
        <time>2022-09-25T11:46:17.018Z</time>
      </trkpt>
      <trkpt lat="48.72668" lon="2.51636">
        <ele>111</ele>
        <time>2022-09-25T11:46:22.014Z</time>
      </trkpt>
      <trkpt lat="48.72668" lon="2.51631">
        <ele>111</ele>
        <time>2022-09-25T11:46:26.014Z</time>
      </trkpt>
      <trkpt lat="48.7267" lon="2.51626">
        <ele>111</ele>
        <time>2022-09-25T11:46:31.006Z</time>
      </trkpt>
      <trkpt lat="48.7267" lon="2.51619">
        <ele>112</ele>
        <time>2022-09-25T11:46:36.011Z</time>
      </trkpt>
      <trkpt lat="48.7267" lon="2.51614">
        <ele>112</ele>
        <time>2022-09-25T11:46:40.025Z</time>
      </trkpt>
      <trkpt lat="48.72671" lon="2.51608">
        <ele>112</ele>
        <time>2022-09-25T11:46:44.026Z</time>
      </trkpt>
      <trkpt lat="48.72672" lon="2.516">
        <ele>112</ele>
        <time>2022-09-25T11:46:48.987Z</time>
      </trkpt>
      <trkpt lat="48.72672" lon="2.51593">
        <ele>112</ele>
        <time>2022-09-25T11:46:53.026Z</time>
      </trkpt>
      <trkpt lat="48.72671" lon="2.51587">
        <ele>112</ele>
        <time>2022-09-25T11:46:57.986Z</time>
      </trkpt>
      <trkpt lat="48.72671" lon="2.51581">
        <ele>112</ele>
        <time>2022-09-25T11:47:02.017Z</time>
      </trkpt>
      <trkpt lat="48.72671" lon="2.51573">
        <ele>112</ele>
        <time>2022-09-25T11:47:07.012Z</time>
      </trkpt>
      <trkpt lat="48.72671" lon="2.51564">
        <ele>113</ele>
        <time>2022-09-25T11:47:12.017Z</time>
      </trkpt>
      <trkpt lat="48.72669" lon="2.51556">
        <ele>113</ele>
        <time>2022-09-25T11:47:16.968Z</time>
      </trkpt>
      <trkpt lat="48.72668" lon="2.51549">
        <ele>113</ele>
        <time>2022-09-25T11:47:21.001Z</time>
      </trkpt>
      <trkpt lat="48.72665" lon="2.51544">
        <ele>113</ele>
        <time>2022-09-25T11:47:25.013Z</time>
      </trkpt>
      <trkpt lat="48.72662" lon="2.51537">
        <ele>113</ele>
        <time>2022-09-25T11:47:29.994Z</time>
      </trkpt>
      <trkpt lat="48.72659" lon="2.51534">
        <ele>113</ele>
        <time>2022-09-25T11:47:34.009Z</time>
      </trkpt>
      <trkpt lat="48.72655" lon="2.51528">
        <ele>113</ele>
        <time>2022-09-25T11:47:38.994Z</time>
      </trkpt>
      <trkpt lat="48.72649" lon="2.51523">
        <ele>114</ele>
        <time>2022-09-25T11:47:44.017Z</time>
      </trkpt>
      <trkpt lat="48.72644" lon="2.51518">
        <ele>114</ele>
        <time>2022-09-25T11:47:49.003Z</time>
      </trkpt>
      <trkpt lat="48.72643" lon="2.51511">
        <ele>115</ele>
        <time>2022-09-25T11:47:53.992Z</time>
      </trkpt>
      <trkpt lat="48.72642" lon="2.51505">
        <ele>115</ele>
        <time>2022-09-25T11:47:58.006Z</time>
      </trkpt>
      <trkpt lat="48.72643" lon="2.51497">
        <ele>115</ele>
        <time>2022-09-25T11:48:03.009Z</time>
      </trkpt>
      <trkpt lat="48.72641" lon="2.51491">
        <ele>115</ele>
        <time>2022-09-25T11:48:08.006Z</time>
      </trkpt>
      <trkpt lat="48.7264" lon="2.51484">
        <ele>116</ele>
        <time>2022-09-25T11:48:12.014Z</time>
      </trkpt>
      <trkpt lat="48.7264" lon="2.51477">
        <ele>116</ele>
        <time>2022-09-25T11:48:17.006Z</time>
      </trkpt>
      <trkpt lat="48.72642" lon="2.51468">
        <ele>116</ele>
        <time>2022-09-25T11:48:22.008Z</time>
      </trkpt>
      <trkpt lat="48.72643" lon="2.51459">
        <ele>116</ele>
        <time>2022-09-25T11:48:27.004Z</time>
      </trkpt>
      <trkpt lat="48.72643" lon="2.51453">
        <ele>116</ele>
        <time>2022-09-25T11:48:31.015Z</time>
      </trkpt>
      <trkpt lat="48.72641" lon="2.51446">
        <ele>116</ele>
        <time>2022-09-25T11:48:36.027Z</time>
      </trkpt>
      <trkpt lat="48.72642" lon="2.51439">
        <ele>116</ele>
        <time>2022-09-25T11:48:41.008Z</time>
      </trkpt>
      <trkpt lat="48.72641" lon="2.51431">
        <ele>116</ele>
        <time>2022-09-25T11:48:46.015Z</time>
      </trkpt>
      <trkpt lat="48.72642" lon="2.51423">
        <ele>116</ele>
        <time>2022-09-25T11:48:50.999Z</time>
      </trkpt>
      <trkpt lat="48.72641" lon="2.51413">
        <ele>116</ele>
        <time>2022-09-25T11:48:55.994Z</time>
      </trkpt>
      <trkpt lat="48.72641" lon="2.51406">
        <ele>116</ele>
        <time>2022-09-25T11:49:00.002Z</time>
      </trkpt>
      <trkpt lat="48.7264" lon="2.51399">
        <ele>116</ele>
        <time>2022-09-25T11:49:04.011Z</time>
      </trkpt>
      <trkpt lat="48.72641" lon="2.51393">
        <ele>116</ele>
        <time>2022-09-25T11:49:08.032Z</time>
      </trkpt>
      <trkpt lat="48.7264" lon="2.51385">
        <ele>116</ele>
        <time>2022-09-25T11:49:13.006Z</time>
      </trkpt>
      <trkpt lat="48.72639" lon="2.51376">
        <ele>116</ele>
        <time>2022-09-25T11:49:18.012Z</time>
      </trkpt>
      <trkpt lat="48.72637" lon="2.51369">
        <ele>116</ele>
        <time>2022-09-25T11:49:22.020Z</time>
      </trkpt>
      <trkpt lat="48.72634" lon="2.51359">
        <ele>116</ele>
        <time>2022-09-25T11:49:27.003Z</time>
      </trkpt>
      <trkpt lat="48.72635" lon="2.5135">
        <ele>116</ele>
        <time>2022-09-25T11:49:31.008Z</time>
      </trkpt>
      <trkpt lat="48.72636" lon="2.5134">
        <ele>117</ele>
        <time>2022-09-25T11:49:36.021Z</time>
      </trkpt>
      <trkpt lat="48.72636" lon="2.51331">
        <ele>117</ele>
        <time>2022-09-25T11:49:41.004Z</time>
      </trkpt>
      <trkpt lat="48.72635" lon="2.51324">
        <ele>117</ele>
        <time>2022-09-25T11:49:45.013Z</time>
      </trkpt>
      <trkpt lat="48.72636" lon="2.51316">
        <ele>118</ele>
        <time>2022-09-25T11:49:50.012Z</time>
      </trkpt>
      <trkpt lat="48.72637" lon="2.51308">
        <ele>118</ele>
        <time>2022-09-25T11:49:55.002Z</time>
      </trkpt>
      <trkpt lat="48.72638" lon="2.513">
        <ele>118</ele>
        <time>2022-09-25T11:50:00.018Z</time>
      </trkpt>
      <trkpt lat="48.72636" lon="2.51291">
        <ele>118</ele>
        <time>2022-09-25T11:50:05.003Z</time>
      </trkpt>
      <trkpt lat="48.72635" lon="2.51285">
        <ele>118</ele>
        <time>2022-09-25T11:50:09.019Z</time>
      </trkpt>
      <trkpt lat="48.72635" lon="2.51276">
        <ele>118</ele>
        <time>2022-09-25T11:50:13.998Z</time>
      </trkpt>
      <trkpt lat="48.72634" lon="2.51268">
        <ele>118</ele>
        <time>2022-09-25T11:50:18.004Z</time>
      </trkpt>
      <trkpt lat="48.72633" lon="2.51261">
        <ele>118</ele>
        <time>2022-09-25T11:50:22.005Z</time>
      </trkpt>
      <trkpt lat="48.72631" lon="2.51254">
        <ele>118</ele>
        <time>2022-09-25T11:50:26.029Z</time>
      </trkpt>
      <trkpt lat="48.7263" lon="2.51246">
        <ele>118</ele>
        <time>2022-09-25T11:50:31.015Z</time>
      </trkpt>
      <trkpt lat="48.72631" lon="2.51237">
        <ele>118</ele>
        <time>2022-09-25T11:50:35.992Z</time>
      </trkpt>
      <trkpt lat="48.72631" lon="2.5123">
        <ele>117</ele>
        <time>2022-09-25T11:50:40.023Z</time>
      </trkpt>
      <trkpt lat="48.72632" lon="2.51221">
        <ele>117</ele>
        <time>2022-09-25T11:50:45.007Z</time>
      </trkpt>
      <trkpt lat="48.72632" lon="2.51214">
        <ele>117</ele>
        <time>2022-09-25T11:50:49.024Z</time>
      </trkpt>
      <trkpt lat="48.72631" lon="2.51205">
        <ele>116</ele>
        <time>2022-09-25T11:50:54.009Z</time>
      </trkpt>
      <trkpt lat="48.72632" lon="2.51195">
        <ele>116</ele>
        <time>2022-09-25T11:50:59.001Z</time>
      </trkpt>
      <trkpt lat="48.72632" lon="2.51189">
        <ele>116</ele>
        <time>2022-09-25T11:51:03.015Z</time>
      </trkpt>
      <trkpt lat="48.72633" lon="2.51179">
        <ele>116</ele>
        <time>2022-09-25T11:51:08.001Z</time>
      </trkpt>
      <trkpt lat="48.72632" lon="2.51167">
        <ele>116</ele>
        <time>2022-09-25T11:51:13.016Z</time>
      </trkpt>
      <trkpt lat="48.72631" lon="2.51157">
        <ele>116</ele>
        <time>2022-09-25T11:51:18.001Z</time>
      </trkpt>
      <trkpt lat="48.7263" lon="2.51147">
        <ele>116</ele>
        <time>2022-09-25T11:51:23.001Z</time>
      </trkpt>
      <trkpt lat="48.72628" lon="2.51138">
        <ele>116</ele>
        <time>2022-09-25T11:51:28.026Z</time>
      </trkpt>
      <trkpt lat="48.72627" lon="2.51128">
        <ele>116</ele>
        <time>2022-09-25T11:51:33.009Z</time>
      </trkpt>
      <trkpt lat="48.72626" lon="2.51118">
        <ele>116</ele>
        <time>2022-09-25T11:51:38.024Z</time>
      </trkpt>
      <trkpt lat="48.72626" lon="2.5111">
        <ele>116</ele>
        <time>2022-09-25T11:51:42.993Z</time>
      </trkpt>
      <trkpt lat="48.72627" lon="2.51102">
        <ele>116</ele>
        <time>2022-09-25T11:51:47.006Z</time>
      </trkpt>
      <trkpt lat="48.72626" lon="2.51094">
        <ele>116</ele>
        <time>2022-09-25T11:51:52.007Z</time>
      </trkpt>
      <trkpt lat="48.72625" lon="2.51085">
        <ele>116</ele>
        <time>2022-09-25T11:51:56.998Z</time>
      </trkpt>
      <trkpt lat="48.72627" lon="2.51075">
        <ele>116</ele>
        <time>2022-09-25T11:52:01.992Z</time>
      </trkpt>
      <trkpt lat="48.72628" lon="2.51066">
        <ele>117</ele>
        <time>2022-09-25T11:52:06.001Z</time>
      </trkpt>
      <trkpt lat="48.72628" lon="2.5106">
        <ele>117</ele>
        <time>2022-09-25T11:52:10.003Z</time>
      </trkpt>
      <trkpt lat="48.72627" lon="2.51054">
        <ele>117</ele>
        <time>2022-09-25T11:52:14.021Z</time>
      </trkpt>
      <trkpt lat="48.72624" lon="2.51044">
        <ele>116</ele>
        <time>2022-09-25T11:52:18.998Z</time>
      </trkpt>
      <trkpt lat="48.72624" lon="2.51038">
        <ele>117</ele>
        <time>2022-09-25T11:52:23.013Z</time>
      </trkpt>
      <trkpt lat="48.72624" lon="2.51029">
        <ele>117</ele>
        <time>2022-09-25T11:52:28.008Z</time>
      </trkpt>
      <trkpt lat="48.72624" lon="2.51022">
        <ele>117</ele>
        <time>2022-09-25T11:52:32.024Z</time>
      </trkpt>
      <trkpt lat="48.72625" lon="2.51013">
        <ele>117</ele>
        <time>2022-09-25T11:52:36.987Z</time>
      </trkpt>
      <trkpt lat="48.72626" lon="2.51005">
        <ele>117</ele>
        <time>2022-09-25T11:52:41.025Z</time>
      </trkpt>
      <trkpt lat="48.72626" lon="2.50998">
        <ele>117</ele>
        <time>2022-09-25T11:52:46.008Z</time>
      </trkpt>
      <trkpt lat="48.72625" lon="2.50991">
        <ele>117</ele>
        <time>2022-09-25T11:52:50.982Z</time>
      </trkpt>
      <trkpt lat="48.72625" lon="2.50981">
        <ele>117</ele>
        <time>2022-09-25T11:52:55.990Z</time>
      </trkpt>
      <trkpt lat="48.72625" lon="2.50972">
        <ele>117</ele>
        <time>2022-09-25T11:53:00Z</time>
      </trkpt>
      <trkpt lat="48.72624" lon="2.50963">
        <ele>117</ele>
        <time>2022-09-25T11:53:04.986Z</time>
      </trkpt>
      <trkpt lat="48.72623" lon="2.50956">
        <ele>117</ele>
        <time>2022-09-25T11:53:08.997Z</time>
      </trkpt>
      <trkpt lat="48.72621" lon="2.50946">
        <ele>117</ele>
        <time>2022-09-25T11:53:13.994Z</time>
      </trkpt>
      <trkpt lat="48.7262" lon="2.50939">
        <ele>117</ele>
        <time>2022-09-25T11:53:18.988Z</time>
      </trkpt>
      <trkpt lat="48.72623" lon="2.50931">
        <ele>117</ele>
        <time>2022-09-25T11:53:23.998Z</time>
      </trkpt>
      <trkpt lat="48.72622" lon="2.50923">
        <ele>117</ele>
        <time>2022-09-25T11:53:28.011Z</time>
      </trkpt>
      <trkpt lat="48.72621" lon="2.50914">
        <ele>117</ele>
        <time>2022-09-25T11:53:32.013Z</time>
      </trkpt>
      <trkpt lat="48.7262" lon="2.50905">
        <ele>117</ele>
        <time>2022-09-25T11:53:37.016Z</time>
      </trkpt>
      <trkpt lat="48.72621" lon="2.50896">
        <ele>117</ele>
        <time>2022-09-25T11:53:41.997Z</time>
      </trkpt>
      <trkpt lat="48.7262" lon="2.50889">
        <ele>117</ele>
        <time>2022-09-25T11:53:46.003Z</time>
      </trkpt>
      <trkpt lat="48.72617" lon="2.50885">
        <ele>117</ele>
        <time>2022-09-25T11:53:50.998Z</time>
      </trkpt>
      <trkpt lat="48.72615" lon="2.50879">
        <ele>117</ele>
        <time>2022-09-25T11:53:56.012Z</time>
      </trkpt>
      <trkpt lat="48.72619" lon="2.50872">
        <ele>118</ele>
        <time>2022-09-25T11:54:01.004Z</time>
      </trkpt>
      <trkpt lat="48.72623" lon="2.50871">
        <ele>118</ele>
        <time>2022-09-25T11:54:05.995Z</time>
      </trkpt>
      <trkpt lat="48.72628" lon="2.50871">
        <ele>118</ele>
        <time>2022-09-25T11:54:11.006Z</time>
      </trkpt>
      <trkpt lat="48.72633" lon="2.50862">
        <ele>118</ele>
        <time>2022-09-25T11:54:15.996Z</time>
      </trkpt>
      <trkpt lat="48.72635" lon="2.50865">
        <ele>118</ele>
        <time>2022-09-25T11:54:20.004Z</time>
      </trkpt>
      <trkpt lat="48.72639" lon="2.50867">
        <ele>118</ele>
        <time>2022-09-25T11:54:24.016Z</time>
      </trkpt>
      <trkpt lat="48.72645" lon="2.50868">
        <ele>118</ele>
        <time>2022-09-25T11:54:28.993Z</time>
      </trkpt>
      <trkpt lat="48.72651" lon="2.50865">
        <ele>118</ele>
        <time>2022-09-25T11:54:33.008Z</time>
      </trkpt>
      <trkpt lat="48.72656" lon="2.50862">
        <ele>118</ele>
        <time>2022-09-25T11:54:38.004Z</time>
      </trkpt>
      <trkpt lat="48.72663" lon="2.50862">
        <ele>118</ele>
        <time>2022-09-25T11:54:42.996Z</time>
      </trkpt>
      <trkpt lat="48.72668" lon="2.50862">
        <ele>118</ele>
        <time>2022-09-25T11:54:48.008Z</time>
      </trkpt>
      <trkpt lat="48.72673" lon="2.50861">
        <ele>118</ele>
        <time>2022-09-25T11:54:52.990Z</time>
      </trkpt>
      <trkpt lat="48.72677" lon="2.50858">
        <ele>118</ele>
        <time>2022-09-25T11:54:57.002Z</time>
      </trkpt>
      <trkpt lat="48.72681" lon="2.50855">
        <ele>119</ele>
        <time>2022-09-25T11:55:02.010Z</time>
      </trkpt>
      <trkpt lat="48.72688" lon="2.50853">
        <ele>119</ele>
        <time>2022-09-25T11:55:07.003Z</time>
      </trkpt>
      <trkpt lat="48.72694" lon="2.50849">
        <ele>119</ele>
        <time>2022-09-25T11:55:12.028Z</time>
      </trkpt>
      <trkpt lat="48.727" lon="2.50846">
        <ele>119</ele>
        <time>2022-09-25T11:55:17.013Z</time>
      </trkpt>
      <trkpt lat="48.72705" lon="2.50847">
        <ele>119</ele>
        <time>2022-09-25T11:55:22.010Z</time>
      </trkpt>
      <trkpt lat="48.72709" lon="2.50846">
        <ele>119</ele>
        <time>2022-09-25T11:55:26.019Z</time>
      </trkpt>
      <trkpt lat="48.72713" lon="2.50845">
        <ele>119</ele>
        <time>2022-09-25T11:55:31.001Z</time>
      </trkpt>
      <trkpt lat="48.72718" lon="2.50844">
        <ele>119</ele>
        <time>2022-09-25T11:55:35.020Z</time>
      </trkpt>
      <trkpt lat="48.72723" lon="2.50844">
        <ele>119</ele>
        <time>2022-09-25T11:55:40.023Z</time>
      </trkpt>
      <trkpt lat="48.72732" lon="2.50839">
        <ele>119</ele>
        <time>2022-09-25T11:55:45.014Z</time>
      </trkpt>
      <trkpt lat="48.72737" lon="2.5084">
        <ele>118</ele>
        <time>2022-09-25T11:55:50.033Z</time>
      </trkpt>
      <trkpt lat="48.72743" lon="2.50839">
        <ele>118</ele>
        <time>2022-09-25T11:55:55.031Z</time>
      </trkpt>
      <trkpt lat="48.72747" lon="2.50836">
        <ele>118</ele>
        <time>2022-09-25T11:56:00.016Z</time>
      </trkpt>
      <trkpt lat="48.72752" lon="2.50835">
        <ele>118</ele>
        <time>2022-09-25T11:56:05.009Z</time>
      </trkpt>
      <trkpt lat="48.72757" lon="2.50833">
        <ele>118</ele>
        <time>2022-09-25T11:56:10.004Z</time>
      </trkpt>
      <trkpt lat="48.72764" lon="2.50829">
        <ele>116</ele>
        <time>2022-09-25T11:56:15.010Z</time>
      </trkpt>
      <trkpt lat="48.72769" lon="2.50828">
        <ele>116</ele>
        <time>2022-09-25T11:56:20.004Z</time>
      </trkpt>
      <trkpt lat="48.72776" lon="2.50822">
        <ele>116</ele>
        <time>2022-09-25T11:56:25.008Z</time>
      </trkpt>
      <trkpt lat="48.72782" lon="2.50816">
        <ele>115</ele>
        <time>2022-09-25T11:56:29.993Z</time>
      </trkpt>
      <trkpt lat="48.72786" lon="2.50812">
        <ele>115</ele>
        <time>2022-09-25T11:56:34.014Z</time>
      </trkpt>
      <trkpt lat="48.72792" lon="2.50811">
        <ele>112</ele>
        <time>2022-09-25T11:56:39.021Z</time>
      </trkpt>
      <trkpt lat="48.72798" lon="2.50808">
        <ele>112</ele>
        <time>2022-09-25T11:56:44.033Z</time>
      </trkpt>
      <trkpt lat="48.72804" lon="2.50805">
        <ele>112</ele>
        <time>2022-09-25T11:56:48.995Z</time>
      </trkpt>
      <trkpt lat="48.72808" lon="2.50799">
        <ele>112</ele>
        <time>2022-09-25T11:56:53.995Z</time>
      </trkpt>
      <trkpt lat="48.7281" lon="2.50795">
        <ele>112</ele>
        <time>2022-09-25T11:56:58.006Z</time>
      </trkpt>
      <trkpt lat="48.72813" lon="2.50788">
        <ele>110</ele>
        <time>2022-09-25T11:57:02.992Z</time>
      </trkpt>
      <trkpt lat="48.72816" lon="2.50782">
        <ele>110</ele>
        <time>2022-09-25T11:57:08.002Z</time>
      </trkpt>
      <trkpt lat="48.72817" lon="2.50776">
        <ele>110</ele>
        <time>2022-09-25T11:57:12.015Z</time>
      </trkpt>
      <trkpt lat="48.72821" lon="2.50769">
        <ele>109</ele>
        <time>2022-09-25T11:57:17.012Z</time>
      </trkpt>
      <trkpt lat="48.72824" lon="2.50762">
        <ele>109</ele>
        <time>2022-09-25T11:57:22.013Z</time>
      </trkpt>
      <trkpt lat="48.72826" lon="2.50756">
        <ele>109</ele>
        <time>2022-09-25T11:57:26.022Z</time>
      </trkpt>
      <trkpt lat="48.7283" lon="2.50746">
        <ele>109</ele>
        <time>2022-09-25T11:57:30.998Z</time>
      </trkpt>
      <trkpt lat="48.72832" lon="2.50741">
        <ele>109</ele>
        <time>2022-09-25T11:57:35.013Z</time>
      </trkpt>
      <trkpt lat="48.72837" lon="2.50734">
        <ele>109</ele>
        <time>2022-09-25T11:57:40.006Z</time>
      </trkpt>
      <trkpt lat="48.7284" lon="2.50726">
        <ele>109</ele>
        <time>2022-09-25T11:57:45.003Z</time>
      </trkpt>
      <trkpt lat="48.72842" lon="2.50719">
        <ele>109</ele>
        <time>2022-09-25T11:57:49.032Z</time>
      </trkpt>
      <trkpt lat="48.72843" lon="2.5071">
        <ele>109</ele>
        <time>2022-09-25T11:57:53.996Z</time>
      </trkpt>
      <trkpt lat="48.7284" lon="2.50702">
        <ele>108</ele>
        <time>2022-09-25T11:57:58.017Z</time>
      </trkpt>
      <trkpt lat="48.72836" lon="2.50694">
        <ele>108</ele>
        <time>2022-09-25T11:58:03.014Z</time>
      </trkpt>
      <trkpt lat="48.72831" lon="2.50688">
        <ele>108</ele>
        <time>2022-09-25T11:58:07.016Z</time>
      </trkpt>
      <trkpt lat="48.72829" lon="2.50681">
        <ele>108</ele>
        <time>2022-09-25T11:58:12.037Z</time>
      </trkpt>
      <trkpt lat="48.72824" lon="2.50675">
        <ele>107</ele>
        <time>2022-09-25T11:58:17.022Z</time>
      </trkpt>
      <trkpt lat="48.7282" lon="2.50667">
        <ele>107</ele>
        <time>2022-09-25T11:58:22.008Z</time>
      </trkpt>
      <trkpt lat="48.72817" lon="2.5066">
        <ele>108</ele>
        <time>2022-09-25T11:58:26.040Z</time>
      </trkpt>
      <trkpt lat="48.72812" lon="2.50653">
        <ele>108</ele>
        <time>2022-09-25T11:58:31.002Z</time>
      </trkpt>
      <trkpt lat="48.72808" lon="2.50649">
        <ele>108</ele>
        <time>2022-09-25T11:58:35.003Z</time>
      </trkpt>
      <trkpt lat="48.72805" lon="2.50641">
        <ele>108</ele>
        <time>2022-09-25T11:58:40.004Z</time>
      </trkpt>
      <trkpt lat="48.72801" lon="2.50636">
        <ele>108</ele>
        <time>2022-09-25T11:58:45.026Z</time>
      </trkpt>
      <trkpt lat="48.72797" lon="2.50629">
        <ele>108</ele>
        <time>2022-09-25T11:58:49.997Z</time>
      </trkpt>
      <trkpt lat="48.72793" lon="2.50622">
        <ele>106</ele>
        <time>2022-09-25T11:58:54.013Z</time>
      </trkpt>
      <trkpt lat="48.72791" lon="2.50616">
        <ele>108</ele>
        <time>2022-09-25T11:58:58.020Z</time>
      </trkpt>
      <trkpt lat="48.72788" lon="2.50607">
        <ele>108</ele>
        <time>2022-09-25T11:59:03.011Z</time>
      </trkpt>
      <trkpt lat="48.72784" lon="2.50599">
        <ele>108</ele>
        <time>2022-09-25T11:59:08.018Z</time>
      </trkpt>
      <trkpt lat="48.72781" lon="2.50592">
        <ele>106</ele>
        <time>2022-09-25T11:59:13.018Z</time>
      </trkpt>
      <trkpt lat="48.72776" lon="2.50585">
        <ele>106</ele>
        <time>2022-09-25T11:59:17.997Z</time>
      </trkpt>
      <trkpt lat="48.72772" lon="2.50582">
        <ele>106</ele>
        <time>2022-09-25T11:59:22.005Z</time>
      </trkpt>
      <trkpt lat="48.72769" lon="2.50578">
        <ele>106</ele>
        <time>2022-09-25T11:59:26.011Z</time>
      </trkpt>
      <trkpt lat="48.72766" lon="2.50572">
        <ele>106</ele>
        <time>2022-09-25T11:59:31.001Z</time>
      </trkpt>
      <trkpt lat="48.72765" lon="2.50567">
        <ele>104</ele>
        <time>2022-09-25T11:59:35.015Z</time>
      </trkpt>
      <trkpt lat="48.72762" lon="2.50563">
        <ele>105</ele>
        <time>2022-09-25T11:59:40.009Z</time>
      </trkpt>
      <trkpt lat="48.72759" lon="2.50556">
        <ele>105</ele>
        <time>2022-09-25T11:59:44.010Z</time>
      </trkpt>
      <trkpt lat="48.72757" lon="2.50549">
        <ele>105</ele>
        <time>2022-09-25T11:59:48.017Z</time>
      </trkpt>
      <trkpt lat="48.72752" lon="2.50542">
        <ele>105</ele>
        <time>2022-09-25T11:59:52.014Z</time>
      </trkpt>
      <trkpt lat="48.72748" lon="2.50536">
        <ele>106</ele>
        <time>2022-09-25T11:59:56.019Z</time>
      </trkpt>
      <trkpt lat="48.72743" lon="2.50529">
        <ele>106</ele>
        <time>2022-09-25T12:00:00.976Z</time>
      </trkpt>
      <trkpt lat="48.72738" lon="2.50524">
        <ele>106</ele>
        <time>2022-09-25T12:00:04.991Z</time>
      </trkpt>
      <trkpt lat="48.72734" lon="2.50519">
        <ele>108</ele>
        <time>2022-09-25T12:00:09.030Z</time>
      </trkpt>
      <trkpt lat="48.72728" lon="2.50514">
        <ele>109</ele>
        <time>2022-09-25T12:00:14.018Z</time>
      </trkpt>
      <trkpt lat="48.72724" lon="2.5051">
        <ele>109</ele>
        <time>2022-09-25T12:00:18.024Z</time>
      </trkpt>
      <trkpt lat="48.7272" lon="2.50505">
        <ele>109</ele>
        <time>2022-09-25T12:00:23.010Z</time>
      </trkpt>
      <trkpt lat="48.72715" lon="2.505">
        <ele>109</ele>
        <time>2022-09-25T12:00:27.024Z</time>
      </trkpt>
      <trkpt lat="48.72709" lon="2.50493">
        <ele>109</ele>
        <time>2022-09-25T12:00:32.003Z</time>
      </trkpt>
      <trkpt lat="48.72705" lon="2.50488">
        <ele>111</ele>
        <time>2022-09-25T12:00:36.005Z</time>
      </trkpt>
      <trkpt lat="48.72701" lon="2.50482">
        <ele>111</ele>
        <time>2022-09-25T12:00:40.032Z</time>
      </trkpt>
      <trkpt lat="48.72696" lon="2.50476">
        <ele>111</ele>
        <time>2022-09-25T12:00:45Z</time>
      </trkpt>
      <trkpt lat="48.72693" lon="2.50469">
        <ele>111</ele>
        <time>2022-09-25T12:00:49.015Z</time>
      </trkpt>
      <trkpt lat="48.7269" lon="2.50465">
        <ele>111</ele>
        <time>2022-09-25T12:00:53.020Z</time>
      </trkpt>
      <trkpt lat="48.72685" lon="2.50461">
        <ele>111</ele>
        <time>2022-09-25T12:00:58.005Z</time>
      </trkpt>
      <trkpt lat="48.7268" lon="2.50458">
        <ele>111</ele>
        <time>2022-09-25T12:01:02.020Z</time>
      </trkpt>
      <trkpt lat="48.72675" lon="2.50453">
        <ele>111</ele>
        <time>2022-09-25T12:01:07.017Z</time>
      </trkpt>
      <trkpt lat="48.72669" lon="2.50449">
        <ele>111</ele>
        <time>2022-09-25T12:01:12.019Z</time>
      </trkpt>
      <trkpt lat="48.72663" lon="2.50445">
        <ele>111</ele>
        <time>2022-09-25T12:01:17.024Z</time>
      </trkpt>
      <trkpt lat="48.72657" lon="2.50442">
        <ele>111</ele>
        <time>2022-09-25T12:01:22.016Z</time>
      </trkpt>
      <trkpt lat="48.72651" lon="2.50438">
        <ele>112</ele>
        <time>2022-09-25T12:01:27.018Z</time>
      </trkpt>
      <trkpt lat="48.72645" lon="2.50434">
        <ele>112</ele>
        <time>2022-09-25T12:01:32.011Z</time>
      </trkpt>
      <trkpt lat="48.72639" lon="2.5043">
        <ele>111</ele>
        <time>2022-09-25T12:01:36.023Z</time>
      </trkpt>
      <trkpt lat="48.72634" lon="2.50427">
        <ele>111</ele>
        <time>2022-09-25T12:01:41Z</time>
      </trkpt>
      <trkpt lat="48.72629" lon="2.50424">
        <ele>111</ele>
        <time>2022-09-25T12:01:45.007Z</time>
      </trkpt>
      <trkpt lat="48.72623" lon="2.50417">
        <ele>110</ele>
        <time>2022-09-25T12:01:50.011Z</time>
      </trkpt>
      <trkpt lat="48.72618" lon="2.50408">
        <ele>110</ele>
        <time>2022-09-25T12:01:55.016Z</time>
      </trkpt>
      <trkpt lat="48.72614" lon="2.50402">
        <ele>110</ele>
        <time>2022-09-25T12:02:00.032Z</time>
      </trkpt>
      <trkpt lat="48.7261" lon="2.50393">
        <ele>110</ele>
        <time>2022-09-25T12:02:04.993Z</time>
      </trkpt>
      <trkpt lat="48.72608" lon="2.50387">
        <ele>110</ele>
        <time>2022-09-25T12:02:09.016Z</time>
      </trkpt>
      <trkpt lat="48.72605" lon="2.50381">
        <ele>110</ele>
        <time>2022-09-25T12:02:13.019Z</time>
      </trkpt>
      <trkpt lat="48.72601" lon="2.50373">
        <ele>109</ele>
        <time>2022-09-25T12:02:18.022Z</time>
      </trkpt>
      <trkpt lat="48.72597" lon="2.50366">
        <ele>109</ele>
        <time>2022-09-25T12:02:23.006Z</time>
      </trkpt>
      <trkpt lat="48.72594" lon="2.50358">
        <ele>107</ele>
        <time>2022-09-25T12:02:28.018Z</time>
      </trkpt>
      <trkpt lat="48.72591" lon="2.50351">
        <ele>107</ele>
        <time>2022-09-25T12:02:33.015Z</time>
      </trkpt>
      <trkpt lat="48.72587" lon="2.50341">
        <ele>106</ele>
        <time>2022-09-25T12:02:38.014Z</time>
      </trkpt>
      <trkpt lat="48.72584" lon="2.50333">
        <ele>106</ele>
        <time>2022-09-25T12:02:43.011Z</time>
      </trkpt>
      <trkpt lat="48.72581" lon="2.50326">
        <ele>106</ele>
        <time>2022-09-25T12:02:47.020Z</time>
      </trkpt>
      <trkpt lat="48.7258" lon="2.50318">
        <ele>106</ele>
        <time>2022-09-25T12:02:52.031Z</time>
      </trkpt>
      <trkpt lat="48.72577" lon="2.50309">
        <ele>106</ele>
        <time>2022-09-25T12:02:57.010Z</time>
      </trkpt>
      <trkpt lat="48.72572" lon="2.50301">
        <ele>106</ele>
        <time>2022-09-25T12:03:02.015Z</time>
      </trkpt>
      <trkpt lat="48.72569" lon="2.50294">
        <ele>106</ele>
        <time>2022-09-25T12:03:06.024Z</time>
      </trkpt>
      <trkpt lat="48.72566" lon="2.50279">
        <ele>105</ele>
        <time>2022-09-25T12:04:45.004Z</time>
      </trkpt>
      <trkpt lat="48.72569" lon="2.50275">
        <ele>105</ele>
        <time>2022-09-25T12:04:49.025Z</time>
      </trkpt>
      <trkpt lat="48.72571" lon="2.5027">
        <ele>105</ele>
        <time>2022-09-25T12:04:54.030Z</time>
      </trkpt>
      <trkpt lat="48.72575" lon="2.50265">
        <ele>105</ele>
        <time>2022-09-25T12:04:59.011Z</time>
      </trkpt>
      <trkpt lat="48.72577" lon="2.50261">
        <ele>104</ele>
        <time>2022-09-25T12:05:04.003Z</time>
      </trkpt>
      <trkpt lat="48.7258" lon="2.50253">
        <ele>104</ele>
        <time>2022-09-25T12:05:09.005Z</time>
      </trkpt>
      <trkpt lat="48.72582" lon="2.50248">
        <ele>104</ele>
        <time>2022-09-25T12:05:13.013Z</time>
      </trkpt>
      <trkpt lat="48.72586" lon="2.50244">
        <ele>104</ele>
        <time>2022-09-25T12:05:17.984Z</time>
      </trkpt>
      <trkpt lat="48.72588" lon="2.50244">
        <ele>104</ele>
        <time>2022-09-25T12:05:22.008Z</time>
      </trkpt>
      <trkpt lat="48.72595" lon="2.50244">
        <ele>104</ele>
        <time>2022-09-25T12:05:27.014Z</time>
      </trkpt>
      <trkpt lat="48.726" lon="2.50245">
        <ele>107</ele>
        <time>2022-09-25T12:05:32.008Z</time>
      </trkpt>
      <trkpt lat="48.72605" lon="2.50245">
        <ele>107</ele>
        <time>2022-09-25T12:05:37.013Z</time>
      </trkpt>
      <trkpt lat="48.7261" lon="2.50244">
        <ele>107</ele>
        <time>2022-09-25T12:05:42.022Z</time>
      </trkpt>
      <trkpt lat="48.72614" lon="2.50243">
        <ele>107</ele>
        <time>2022-09-25T12:05:47.010Z</time>
      </trkpt>
      <trkpt lat="48.72619" lon="2.50242">
        <ele>107</ele>
        <time>2022-09-25T12:05:52.021Z</time>
      </trkpt>
      <trkpt lat="48.72624" lon="2.50241">
        <ele>107</ele>
        <time>2022-09-25T12:05:57.003Z</time>
      </trkpt>
      <trkpt lat="48.72628" lon="2.50239">
        <ele>108</ele>
        <time>2022-09-25T12:06:02.006Z</time>
      </trkpt>
      <trkpt lat="48.72634" lon="2.50237">
        <ele>108</ele>
        <time>2022-09-25T12:06:07.006Z</time>
      </trkpt>
      <trkpt lat="48.72639" lon="2.50236">
        <ele>108</ele>
        <time>2022-09-25T12:06:11.014Z</time>
      </trkpt>
      <trkpt lat="48.72644" lon="2.50235">
        <ele>107</ele>
        <time>2022-09-25T12:06:15.009Z</time>
      </trkpt>
      <trkpt lat="48.72651" lon="2.50233">
        <ele>107</ele>
        <time>2022-09-25T12:06:20.014Z</time>
      </trkpt>
      <trkpt lat="48.72658" lon="2.50231">
        <ele>107</ele>
        <time>2022-09-25T12:06:25.032Z</time>
      </trkpt>
      <trkpt lat="48.72663" lon="2.5023">
        <ele>107</ele>
        <time>2022-09-25T12:06:29.024Z</time>
      </trkpt>
      <trkpt lat="48.72669" lon="2.50229">
        <ele>107</ele>
        <time>2022-09-25T12:06:34.024Z</time>
      </trkpt>
      <trkpt lat="48.72673" lon="2.50229">
        <ele>107</ele>
        <time>2022-09-25T12:06:39.015Z</time>
      </trkpt>
      <trkpt lat="48.72677" lon="2.5023">
        <ele>107</ele>
        <time>2022-09-25T12:06:44.017Z</time>
      </trkpt>
      <trkpt lat="48.72681" lon="2.5023">
        <ele>106</ele>
        <time>2022-09-25T12:06:48.036Z</time>
      </trkpt>
      <trkpt lat="48.72686" lon="2.5023">
        <ele>106</ele>
        <time>2022-09-25T12:06:52.999Z</time>
      </trkpt>
      <trkpt lat="48.72691" lon="2.50229">
        <ele>106</ele>
        <time>2022-09-25T12:06:57.009Z</time>
      </trkpt>
      <trkpt lat="48.72696" lon="2.50229">
        <ele>106</ele>
        <time>2022-09-25T12:07:02.008Z</time>
      </trkpt>
      <trkpt lat="48.72702" lon="2.50224">
        <ele>106</ele>
        <time>2022-09-25T12:07:07.011Z</time>
      </trkpt>
      <trkpt lat="48.72709" lon="2.50219">
        <ele>104</ele>
        <time>2022-09-25T12:07:12.002Z</time>
      </trkpt>
      <trkpt lat="48.72717" lon="2.50216">
        <ele>104</ele>
        <time>2022-09-25T12:07:16.993Z</time>
      </trkpt>
      <trkpt lat="48.72722" lon="2.50214">
        <ele>104</ele>
        <time>2022-09-25T12:07:21.004Z</time>
      </trkpt>
      <trkpt lat="48.72728" lon="2.50214">
        <ele>104</ele>
        <time>2022-09-25T12:07:26Z</time>
      </trkpt>
      <trkpt lat="48.72734" lon="2.5021">
        <ele>104</ele>
        <time>2022-09-25T12:07:31.001Z</time>
      </trkpt>
      <trkpt lat="48.72743" lon="2.50203">
        <ele>103</ele>
        <time>2022-09-25T12:07:35.981Z</time>
      </trkpt>
      <trkpt lat="48.72751" lon="2.502">
        <ele>103</ele>
        <time>2022-09-25T12:07:41.001Z</time>
      </trkpt>
      <trkpt lat="48.72755" lon="2.50195">
        <ele>103</ele>
        <time>2022-09-25T12:07:46.014Z</time>
      </trkpt>
      <trkpt lat="48.72757" lon="2.5019">
        <ele>103</ele>
        <time>2022-09-25T12:07:51.006Z</time>
      </trkpt>
      <trkpt lat="48.72763" lon="2.50185">
        <ele>103</ele>
        <time>2022-09-25T12:07:55.972Z</time>
      </trkpt>
      <trkpt lat="48.72768" lon="2.50181">
        <ele>102</ele>
        <time>2022-09-25T12:08:00.015Z</time>
      </trkpt>
      <trkpt lat="48.7277" lon="2.50176">
        <ele>102</ele>
        <time>2022-09-25T12:08:04.987Z</time>
      </trkpt>
      <trkpt lat="48.72772" lon="2.50171">
        <ele>102</ele>
        <time>2022-09-25T12:08:08.991Z</time>
      </trkpt>
      <trkpt lat="48.72773" lon="2.50168">
        <ele>102</ele>
        <time>2022-09-25T12:08:13.001Z</time>
      </trkpt>
      <trkpt lat="48.72778" lon="2.50162">
        <ele>102</ele>
        <time>2022-09-25T12:08:32.005Z</time>
      </trkpt>
      <trkpt lat="48.72778" lon="2.5016">
        <ele>102</ele>
        <time>2022-09-25T12:08:36.029Z</time>
      </trkpt>
      <trkpt lat="48.72778" lon="2.50157">
        <ele>102</ele>
        <time>2022-09-25T12:08:40.983Z</time>
      </trkpt>
      <trkpt lat="48.72779" lon="2.50158">
        <ele>102</ele>
        <time>2022-09-25T12:08:46.005Z</time>
      </trkpt>
      <trkpt lat="48.7278" lon="2.50154">
        <ele>102</ele>
        <time>2022-09-25T12:08:51.005Z</time>
      </trkpt>
      <trkpt lat="48.72777" lon="2.50151">
        <ele>101</ele>
        <time>2022-09-25T12:09:00.024Z</time>
      </trkpt>
      <trkpt lat="48.72776" lon="2.50151">
        <ele>101</ele>
        <time>2022-09-25T12:09:04.023Z</time>
      </trkpt>
      <trkpt lat="48.72774" lon="2.50149">
        <ele>101</ele>
        <time>2022-09-25T12:09:08.995Z</time>
      </trkpt>
      <trkpt lat="48.72774" lon="2.50146">
        <ele>101</ele>
        <time>2022-09-25T12:09:14.018Z</time>
      </trkpt>
      <trkpt lat="48.72774" lon="2.50143">
        <ele>101</ele>
        <time>2022-09-25T12:09:19.018Z</time>
      </trkpt>
      <trkpt lat="48.72775" lon="2.50132">
        <ele>101</ele>
        <time>2022-09-25T12:09:34.015Z</time>
      </trkpt>
      <trkpt lat="48.72774" lon="2.5013">
        <ele>101</ele>
        <time>2022-09-25T12:09:38.020Z</time>
      </trkpt>
      <trkpt lat="48.72773" lon="2.50129">
        <ele>101</ele>
        <time>2022-09-25T12:09:41.978Z</time>
      </trkpt>
      <trkpt lat="48.7277" lon="2.50128">
        <ele>101</ele>
        <time>2022-09-25T12:09:46.986Z</time>
      </trkpt>
      <trkpt lat="48.72769" lon="2.50127">
        <ele>101</ele>
        <time>2022-09-25T12:09:52.006Z</time>
      </trkpt>
      <trkpt lat="48.7277" lon="2.50115">
        <ele>99</ele>
        <time>2022-09-25T12:12:43.007Z</time>
      </trkpt>
      <trkpt lat="48.7277" lon="2.50113">
        <ele>99</ele>
        <time>2022-09-25T12:12:48Z</time>
      </trkpt>
      <trkpt lat="48.7277" lon="2.50112">
        <ele>99</ele>
        <time>2022-09-25T12:12:52.017Z</time>
      </trkpt>
      <trkpt lat="48.72769" lon="2.5011">
        <ele>99</ele>
        <time>2022-09-25T12:12:56.998Z</time>
      </trkpt>
      <trkpt lat="48.72769" lon="2.50108">
        <ele>99</ele>
        <time>2022-09-25T12:13:02.007Z</time>
      </trkpt>
      <trkpt lat="48.72771" lon="2.50106">
        <ele>99</ele>
        <time>2022-09-25T12:13:06.005Z</time>
      </trkpt>
      <trkpt lat="48.72768" lon="2.50104">
        <ele>99</ele>
        <time>2022-09-25T12:13:10.990Z</time>
      </trkpt>
      <trkpt lat="48.72767" lon="2.50103">
        <ele>99</ele>
        <time>2022-09-25T12:13:14.998Z</time>
      </trkpt>
      <trkpt lat="48.72762" lon="2.50102">
        <ele>100</ele>
        <time>2022-09-25T12:13:19.999Z</time>
      </trkpt>
      <trkpt lat="48.72761" lon="2.50101">
        <ele>100</ele>
        <time>2022-09-25T12:13:25.009Z</time>
      </trkpt>
      <trkpt lat="48.72755" lon="2.50092">
        <ele>99</ele>
        <time>2022-09-25T12:13:57.011Z</time>
      </trkpt>
      <trkpt lat="48.72754" lon="2.50091">
        <ele>99</ele>
        <time>2022-09-25T12:14:02.015Z</time>
      </trkpt>
      <trkpt lat="48.72754" lon="2.50091">
        <ele>99</ele>
        <time>2022-09-25T12:14:07.010Z</time>
      </trkpt>
      <trkpt lat="48.72753" lon="2.50091">
        <ele>99</ele>
        <time>2022-09-25T12:14:12.012Z</time>
      </trkpt>
      <trkpt lat="48.72752" lon="2.50091">
        <ele>99</ele>
        <time>2022-09-25T12:14:16.985Z</time>
      </trkpt>
      <trkpt lat="48.72747" lon="2.50084">
        <ele>99</ele>
        <time>2022-09-25T12:14:53.020Z</time>
      </trkpt>
      <trkpt lat="48.72745" lon="2.50079">
        <ele>99</ele>
        <time>2022-09-25T12:14:58.007Z</time>
      </trkpt>
      <trkpt lat="48.72742" lon="2.50074">
        <ele>99</ele>
        <time>2022-09-25T12:15:02.008Z</time>
      </trkpt>
      <trkpt lat="48.7274" lon="2.50069">
        <ele>98</ele>
        <time>2022-09-25T12:15:06.011Z</time>
      </trkpt>
      <trkpt lat="48.72739" lon="2.50067">
        <ele>98</ele>
        <time>2022-09-25T12:15:10.998Z</time>
      </trkpt>
      <trkpt lat="48.72733" lon="2.50059">
        <ele>100</ele>
        <time>2022-09-25T12:15:35.014Z</time>
      </trkpt>
      <trkpt lat="48.72732" lon="2.50059">
        <ele>100</ele>
        <time>2022-09-25T12:15:40.009Z</time>
      </trkpt>
      <trkpt lat="48.72732" lon="2.50058">
        <ele>100</ele>
        <time>2022-09-25T12:15:44.026Z</time>
      </trkpt>
      <trkpt lat="48.72731" lon="2.50055">
        <ele>100</ele>
        <time>2022-09-25T12:15:49.019Z</time>
      </trkpt>
      <trkpt lat="48.72731" lon="2.50053">
        <ele>100</ele>
        <time>2022-09-25T12:15:53.018Z</time>
      </trkpt>
      <trkpt lat="48.7273" lon="2.50051">
        <ele>100</ele>
        <time>2022-09-25T12:16:35.006Z</time>
      </trkpt>
      <trkpt lat="48.72729" lon="2.50048">
        <ele>100</ele>
        <time>2022-09-25T12:16:40.016Z</time>
      </trkpt>
      <trkpt lat="48.72728" lon="2.50046">
        <ele>100</ele>
        <time>2022-09-25T12:16:44.017Z</time>
      </trkpt>
      <trkpt lat="48.72727" lon="2.50043">
        <ele>100</ele>
        <time>2022-09-25T12:16:49.019Z</time>
      </trkpt>
      <trkpt lat="48.72728" lon="2.50039">
        <ele>99</ele>
        <time>2022-09-25T12:16:54.009Z</time>
      </trkpt>
      <trkpt lat="48.72729" lon="2.50035">
        <ele>99</ele>
        <time>2022-09-25T12:18:56.003Z</time>
      </trkpt>
      <trkpt lat="48.72728" lon="2.50035">
        <ele>99</ele>
        <time>2022-09-25T12:19:00.001Z</time>
      </trkpt>
      <trkpt lat="48.72728" lon="2.50031">
        <ele>99</ele>
        <time>2022-09-25T12:19:04.006Z</time>
      </trkpt>
      <trkpt lat="48.72728" lon="2.50025">
        <ele>99</ele>
        <time>2022-09-25T12:19:09.010Z</time>
      </trkpt>
      <trkpt lat="48.72723" lon="2.50021">
        <ele>99</ele>
        <time>2022-09-25T12:19:13.997Z</time>
      </trkpt>
      <trkpt lat="48.72719" lon="2.50016">
        <ele>99</ele>
        <time>2022-09-25T12:19:18.004Z</time>
      </trkpt>
      <trkpt lat="48.72716" lon="2.50003">
        <ele>97</ele>
        <time>2022-09-25T12:19:22.982Z</time>
      </trkpt>
      <trkpt lat="48.72714" lon="2.49994">
        <ele>97</ele>
        <time>2022-09-25T12:19:28Z</time>
      </trkpt>
      <trkpt lat="48.72715" lon="2.49988">
        <ele>97</ele>
        <time>2022-09-25T12:19:32.015Z</time>
      </trkpt>
      <trkpt lat="48.72714" lon="2.49978">
        <ele>95</ele>
        <time>2022-09-25T12:19:37.004Z</time>
      </trkpt>
      <trkpt lat="48.72715" lon="2.49972">
        <ele>95</ele>
        <time>2022-09-25T12:19:41.003Z</time>
      </trkpt>
      <trkpt lat="48.72713" lon="2.49963">
        <ele>95</ele>
        <time>2022-09-25T12:19:45.021Z</time>
      </trkpt>
      <trkpt lat="48.72711" lon="2.49955">
        <ele>94</ele>
        <time>2022-09-25T12:19:49.039Z</time>
      </trkpt>
      <trkpt lat="48.72709" lon="2.49949">
        <ele>94</ele>
        <time>2022-09-25T12:19:54.002Z</time>
      </trkpt>
      <trkpt lat="48.72708" lon="2.49942">
        <ele>94</ele>
        <time>2022-09-25T12:19:58.028Z</time>
      </trkpt>
      <trkpt lat="48.72708" lon="2.49932">
        <ele>93</ele>
        <time>2022-09-25T12:20:03.018Z</time>
      </trkpt>
      <trkpt lat="48.72707" lon="2.49923">
        <ele>94</ele>
        <time>2022-09-25T12:20:08.007Z</time>
      </trkpt>
      <trkpt lat="48.72705" lon="2.49914">
        <ele>94</ele>
        <time>2022-09-25T12:20:12.020Z</time>
      </trkpt>
      <trkpt lat="48.72704" lon="2.49907">
        <ele>94</ele>
        <time>2022-09-25T12:20:16.020Z</time>
      </trkpt>
      <trkpt lat="48.72703" lon="2.49897">
        <ele>93</ele>
        <time>2022-09-25T12:20:20.012Z</time>
      </trkpt>
      <trkpt lat="48.72701" lon="2.49891">
        <ele>93</ele>
        <time>2022-09-25T12:20:25.017Z</time>
      </trkpt>
      <trkpt lat="48.727" lon="2.49881">
        <ele>93</ele>
        <time>2022-09-25T12:20:30.009Z</time>
      </trkpt>
      <trkpt lat="48.72699" lon="2.49875">
        <ele>93</ele>
        <time>2022-09-25T12:20:34.028Z</time>
      </trkpt>
      <trkpt lat="48.72698" lon="2.49864">
        <ele>93</ele>
        <time>2022-09-25T12:20:39.031Z</time>
      </trkpt>
      <trkpt lat="48.72696" lon="2.49856">
        <ele>93</ele>
        <time>2022-09-25T12:20:43.042Z</time>
      </trkpt>
      <trkpt lat="48.72696" lon="2.49845">
        <ele>92</ele>
        <time>2022-09-25T12:20:48.037Z</time>
      </trkpt>
      <trkpt lat="48.72693" lon="2.49836">
        <ele>92</ele>
        <time>2022-09-25T12:20:52.052Z</time>
      </trkpt>
      <trkpt lat="48.72691" lon="2.49828">
        <ele>92</ele>
        <time>2022-09-25T12:20:57.002Z</time>
      </trkpt>
      <trkpt lat="48.72692" lon="2.4982">
        <ele>92</ele>
        <time>2022-09-25T12:21:01.008Z</time>
      </trkpt>
      <trkpt lat="48.72693" lon="2.49809">
        <ele>92</ele>
        <time>2022-09-25T12:21:06.014Z</time>
      </trkpt>
      <trkpt lat="48.72693" lon="2.49801">
        <ele>92</ele>
        <time>2022-09-25T12:21:10.039Z</time>
      </trkpt>
      <trkpt lat="48.72694" lon="2.49791">
        <ele>91</ele>
        <time>2022-09-25T12:21:15Z</time>
      </trkpt>
      <trkpt lat="48.72695" lon="2.49782">
        <ele>91</ele>
        <time>2022-09-25T12:21:19.013Z</time>
      </trkpt>
      <trkpt lat="48.72694" lon="2.49773">
        <ele>91</ele>
        <time>2022-09-25T12:21:24.022Z</time>
      </trkpt>
      <trkpt lat="48.72695" lon="2.49767">
        <ele>91</ele>
        <time>2022-09-25T12:21:29.012Z</time>
      </trkpt>
      <trkpt lat="48.72699" lon="2.49761">
        <ele>92</ele>
        <time>2022-09-25T12:21:34.018Z</time>
      </trkpt>
      <trkpt lat="48.72701" lon="2.49755">
        <ele>92</ele>
        <time>2022-09-25T12:21:39.005Z</time>
      </trkpt>
      <trkpt lat="48.72705" lon="2.49749">
        <ele>92</ele>
        <time>2022-09-25T12:21:43.997Z</time>
      </trkpt>
      <trkpt lat="48.72707" lon="2.49739">
        <ele>92</ele>
        <time>2022-09-25T12:21:48.009Z</time>
      </trkpt>
      <trkpt lat="48.72707" lon="2.49736">
        <ele>92</ele>
        <time>2022-09-25T12:21:53.026Z</time>
      </trkpt>
      <trkpt lat="48.72707" lon="2.49734">
        <ele>92</ele>
        <time>2022-09-25T12:21:57.993Z</time>
      </trkpt>
      <trkpt lat="48.72703" lon="2.49727">
        <ele>92</ele>
        <time>2022-09-25T12:22:57.978Z</time>
      </trkpt>
      <trkpt lat="48.72702" lon="2.49728">
        <ele>92</ele>
        <time>2022-09-25T12:23:02.978Z</time>
      </trkpt>
      <trkpt lat="48.72702" lon="2.49726">
        <ele>92</ele>
        <time>2022-09-25T12:23:07.981Z</time>
      </trkpt>
      <trkpt lat="48.72701" lon="2.49723">
        <ele>92</ele>
        <time>2022-09-25T12:23:11.991Z</time>
      </trkpt>
      <trkpt lat="48.727" lon="2.49717">
        <ele>92</ele>
        <time>2022-09-25T12:23:16.976Z</time>
      </trkpt>
      <trkpt lat="48.727" lon="2.49711">
        <ele>92</ele>
        <time>2022-09-25T12:23:21.028Z</time>
      </trkpt>
      <trkpt lat="48.72699" lon="2.49702">
        <ele>91</ele>
        <time>2022-09-25T12:23:25.993Z</time>
      </trkpt>
      <trkpt lat="48.72699" lon="2.49695">
        <ele>91</ele>
        <time>2022-09-25T12:23:30.013Z</time>
      </trkpt>
      <trkpt lat="48.72695" lon="2.4969">
        <ele>91</ele>
        <time>2022-09-25T12:23:34.977Z</time>
      </trkpt>
      <trkpt lat="48.72689" lon="2.49688">
        <ele>91</ele>
        <time>2022-09-25T12:23:39.980Z</time>
      </trkpt>
      <trkpt lat="48.72684" lon="2.49688">
        <ele>91</ele>
        <time>2022-09-25T12:23:43.983Z</time>
      </trkpt>
      <trkpt lat="48.72679" lon="2.49689">
        <ele>90</ele>
        <time>2022-09-25T12:23:48.982Z</time>
      </trkpt>
      <trkpt lat="48.72675" lon="2.49688">
        <ele>90</ele>
        <time>2022-09-25T12:23:53.003Z</time>
      </trkpt>
      <trkpt lat="48.72673" lon="2.49683">
        <ele>90</ele>
        <time>2022-09-25T12:23:57.015Z</time>
      </trkpt>
      <trkpt lat="48.72672" lon="2.49675">
        <ele>91</ele>
        <time>2022-09-25T12:24:02.020Z</time>
      </trkpt>
      <trkpt lat="48.7267" lon="2.49668">
        <ele>91</ele>
        <time>2022-09-25T12:24:06.019Z</time>
      </trkpt>
      <trkpt lat="48.72669" lon="2.4966">
        <ele>91</ele>
        <time>2022-09-25T12:24:10.998Z</time>
      </trkpt>
      <trkpt lat="48.72668" lon="2.49649">
        <ele>91</ele>
        <time>2022-09-25T12:24:15.999Z</time>
      </trkpt>
      <trkpt lat="48.72666" lon="2.4964">
        <ele>91</ele>
        <time>2022-09-25T12:24:21.004Z</time>
      </trkpt>
      <trkpt lat="48.72664" lon="2.49633">
        <ele>91</ele>
        <time>2022-09-25T12:24:26.015Z</time>
      </trkpt>
      <trkpt lat="48.72662" lon="2.49625">
        <ele>91</ele>
        <time>2022-09-25T12:24:31.004Z</time>
      </trkpt>
      <trkpt lat="48.72661" lon="2.4962">
        <ele>91</ele>
        <time>2022-09-25T12:24:36.029Z</time>
      </trkpt>
      <trkpt lat="48.72659" lon="2.49616">
        <ele>91</ele>
        <time>2022-09-25T12:24:41.015Z</time>
      </trkpt>
      <trkpt lat="48.72656" lon="2.49608">
        <ele>91</ele>
        <time>2022-09-25T12:24:46.021Z</time>
      </trkpt>
      <trkpt lat="48.72656" lon="2.49603">
        <ele>91</ele>
        <time>2022-09-25T12:24:51.002Z</time>
      </trkpt>
      <trkpt lat="48.72655" lon="2.49597">
        <ele>91</ele>
        <time>2022-09-25T12:24:55.023Z</time>
      </trkpt>
      <trkpt lat="48.72655" lon="2.49589">
        <ele>91</ele>
        <time>2022-09-25T12:25:00.009Z</time>
      </trkpt>
      <trkpt lat="48.72655" lon="2.49579">
        <ele>91</ele>
        <time>2022-09-25T12:25:05.009Z</time>
      </trkpt>
      <trkpt lat="48.72652" lon="2.49569">
        <ele>92</ele>
        <time>2022-09-25T12:25:09.988Z</time>
      </trkpt>
      <trkpt lat="48.72651" lon="2.49562">
        <ele>92</ele>
        <time>2022-09-25T12:25:14.011Z</time>
      </trkpt>
      <trkpt lat="48.72649" lon="2.49555">
        <ele>92</ele>
        <time>2022-09-25T12:25:18.024Z</time>
      </trkpt>
      <trkpt lat="48.72648" lon="2.49545">
        <ele>92</ele>
        <time>2022-09-25T12:25:23.025Z</time>
      </trkpt>
      <trkpt lat="48.72647" lon="2.49536">
        <ele>92</ele>
        <time>2022-09-25T12:25:28.025Z</time>
      </trkpt>
      <trkpt lat="48.72645" lon="2.49526">
        <ele>92</ele>
        <time>2022-09-25T12:25:33.015Z</time>
      </trkpt>
      <trkpt lat="48.72642" lon="2.49517">
        <ele>92</ele>
        <time>2022-09-25T12:25:37.974Z</time>
      </trkpt>
      <trkpt lat="48.72641" lon="2.4951">
        <ele>92</ele>
        <time>2022-09-25T12:25:42.010Z</time>
      </trkpt>
      <trkpt lat="48.72639" lon="2.49502">
        <ele>92</ele>
        <time>2022-09-25T12:25:46.980Z</time>
      </trkpt>
      <trkpt lat="48.72639" lon="2.49498">
        <ele>92</ele>
        <time>2022-09-25T12:25:51.015Z</time>
      </trkpt>
      <trkpt lat="48.72641" lon="2.49492">
        <ele>92</ele>
        <time>2022-09-25T12:25:56.007Z</time>
      </trkpt>
      <trkpt lat="48.72639" lon="2.49483">
        <ele>92</ele>
        <time>2022-09-25T12:26:00.998Z</time>
      </trkpt>
      <trkpt lat="48.72637" lon="2.49473">
        <ele>92</ele>
        <time>2022-09-25T12:26:06.021Z</time>
      </trkpt>
      <trkpt lat="48.72635" lon="2.49466">
        <ele>92</ele>
        <time>2022-09-25T12:26:11.021Z</time>
      </trkpt>
      <trkpt lat="48.72635" lon="2.4946">
        <ele>92</ele>
        <time>2022-09-25T12:26:16.008Z</time>
      </trkpt>
      <trkpt lat="48.72634" lon="2.49453">
        <ele>92</ele>
        <time>2022-09-25T12:26:20.018Z</time>
      </trkpt>
      <trkpt lat="48.72633" lon="2.49445">
        <ele>92</ele>
        <time>2022-09-25T12:26:24.035Z</time>
      </trkpt>
      <trkpt lat="48.7263" lon="2.49438">
        <ele>92</ele>
        <time>2022-09-25T12:26:29.020Z</time>
      </trkpt>
      <trkpt lat="48.72629" lon="2.49429">
        <ele>92</ele>
        <time>2022-09-25T12:26:34.024Z</time>
      </trkpt>
      <trkpt lat="48.72629" lon="2.49421">
        <ele>92</ele>
        <time>2022-09-25T12:26:38.048Z</time>
      </trkpt>
      <trkpt lat="48.72626" lon="2.4941">
        <ele>92</ele>
        <time>2022-09-25T12:26:43.012Z</time>
      </trkpt>
      <trkpt lat="48.72626" lon="2.49403">
        <ele>92</ele>
        <time>2022-09-25T12:26:47.017Z</time>
      </trkpt>
      <trkpt lat="48.72625" lon="2.49392">
        <ele>92</ele>
        <time>2022-09-25T12:26:52.008Z</time>
      </trkpt>
      <trkpt lat="48.72624" lon="2.49385">
        <ele>92</ele>
        <time>2022-09-25T12:26:56.030Z</time>
      </trkpt>
      <trkpt lat="48.72623" lon="2.49376">
        <ele>92</ele>
        <time>2022-09-25T12:27:01.014Z</time>
      </trkpt>
      <trkpt lat="48.72623" lon="2.49367">
        <ele>93</ele>
        <time>2022-09-25T12:27:06Z</time>
      </trkpt>
      <trkpt lat="48.7262" lon="2.4936">
        <ele>93</ele>
        <time>2022-09-25T12:27:10.010Z</time>
      </trkpt>
      <trkpt lat="48.7262" lon="2.49353">
        <ele>93</ele>
        <time>2022-09-25T12:27:14.023Z</time>
      </trkpt>
      <trkpt lat="48.72619" lon="2.49349">
        <ele>93</ele>
        <time>2022-09-25T12:27:18.022Z</time>
      </trkpt>
      <trkpt lat="48.72617" lon="2.49341">
        <ele>93</ele>
        <time>2022-09-25T12:27:23.010Z</time>
      </trkpt>
      <trkpt lat="48.72616" lon="2.49334">
        <ele>93</ele>
        <time>2022-09-25T12:27:27.029Z</time>
      </trkpt>
      <trkpt lat="48.72613" lon="2.49327">
        <ele>93</ele>
        <time>2022-09-25T12:27:32.016Z</time>
      </trkpt>
      <trkpt lat="48.72613" lon="2.49322">
        <ele>93</ele>
        <time>2022-09-25T12:27:36.028Z</time>
      </trkpt>
      <trkpt lat="48.72612" lon="2.49313">
        <ele>91</ele>
        <time>2022-09-25T12:27:40.035Z</time>
      </trkpt>
      <trkpt lat="48.72611" lon="2.49305">
        <ele>91</ele>
        <time>2022-09-25T12:27:44.042Z</time>
      </trkpt>
      <trkpt lat="48.72609" lon="2.49295">
        <ele>91</ele>
        <time>2022-09-25T12:27:49.017Z</time>
      </trkpt>
      <trkpt lat="48.72608" lon="2.49287">
        <ele>91</ele>
        <time>2022-09-25T12:27:54.011Z</time>
      </trkpt>
      <trkpt lat="48.72607" lon="2.4928">
        <ele>91</ele>
        <time>2022-09-25T12:27:58.017Z</time>
      </trkpt>
      <trkpt lat="48.72607" lon="2.49274">
        <ele>91</ele>
        <time>2022-09-25T12:28:02.025Z</time>
      </trkpt>
      <trkpt lat="48.72605" lon="2.49266">
        <ele>91</ele>
        <time>2022-09-25T12:28:06.031Z</time>
      </trkpt>
      <trkpt lat="48.72604" lon="2.49257">
        <ele>91</ele>
        <time>2022-09-25T12:28:10.986Z</time>
      </trkpt>
      <trkpt lat="48.72604" lon="2.49248">
        <ele>91</ele>
        <time>2022-09-25T12:28:15Z</time>
      </trkpt>
      <trkpt lat="48.72604" lon="2.4924">
        <ele>91</ele>
        <time>2022-09-25T12:28:20.020Z</time>
      </trkpt>
      <trkpt lat="48.72603" lon="2.49232">
        <ele>92</ele>
        <time>2022-09-25T12:28:24.997Z</time>
      </trkpt>
      <trkpt lat="48.72602" lon="2.49223">
        <ele>92</ele>
        <time>2022-09-25T12:28:29.978Z</time>
      </trkpt>
      <trkpt lat="48.72601" lon="2.49216">
        <ele>92</ele>
        <time>2022-09-25T12:28:34.008Z</time>
      </trkpt>
      <trkpt lat="48.72601" lon="2.49209">
        <ele>92</ele>
        <time>2022-09-25T12:28:38.990Z</time>
      </trkpt>
      <trkpt lat="48.72598" lon="2.49202">
        <ele>93</ele>
        <time>2022-09-25T12:28:43.001Z</time>
      </trkpt>
      <trkpt lat="48.72597" lon="2.49193">
        <ele>95</ele>
        <time>2022-09-25T12:28:47.995Z</time>
      </trkpt>
      <trkpt lat="48.72595" lon="2.49187">
        <ele>95</ele>
        <time>2022-09-25T12:28:51.993Z</time>
      </trkpt>
      <trkpt lat="48.72594" lon="2.4918">
        <ele>96</ele>
        <time>2022-09-25T12:28:56.979Z</time>
      </trkpt>
      <trkpt lat="48.72594" lon="2.49173">
        <ele>96</ele>
        <time>2022-09-25T12:29:01.997Z</time>
      </trkpt>
      <trkpt lat="48.72593" lon="2.49162">
        <ele>96</ele>
        <time>2022-09-25T12:29:06.996Z</time>
      </trkpt>
      <trkpt lat="48.72591" lon="2.49152">
        <ele>97</ele>
        <time>2022-09-25T12:29:11.999Z</time>
      </trkpt>
      <trkpt lat="48.72589" lon="2.49143">
        <ele>97</ele>
        <time>2022-09-25T12:29:16.995Z</time>
      </trkpt>
      <trkpt lat="48.72588" lon="2.49135">
        <ele>97</ele>
        <time>2022-09-25T12:29:21.999Z</time>
      </trkpt>
      <trkpt lat="48.72586" lon="2.49127">
        <ele>97</ele>
        <time>2022-09-25T12:29:26.983Z</time>
      </trkpt>
      <trkpt lat="48.72585" lon="2.49118">
        <ele>98</ele>
        <time>2022-09-25T12:29:31.999Z</time>
      </trkpt>
      <trkpt lat="48.72585" lon="2.49111">
        <ele>98</ele>
        <time>2022-09-25T12:29:36.002Z</time>
      </trkpt>
      <trkpt lat="48.72584" lon="2.49102">
        <ele>98</ele>
        <time>2022-09-25T12:29:40.979Z</time>
      </trkpt>
      <trkpt lat="48.72583" lon="2.49096">
        <ele>97</ele>
        <time>2022-09-25T12:29:44.990Z</time>
      </trkpt>
      <trkpt lat="48.72582" lon="2.49086">
        <ele>97</ele>
        <time>2022-09-25T12:29:49.989Z</time>
      </trkpt>
      <trkpt lat="48.72581" lon="2.49076">
        <ele>97</ele>
        <time>2022-09-25T12:29:54.978Z</time>
      </trkpt>
      <trkpt lat="48.7258" lon="2.4907">
        <ele>97</ele>
        <time>2022-09-25T12:29:59.033Z</time>
      </trkpt>
      <trkpt lat="48.72579" lon="2.49063">
        <ele>97</ele>
        <time>2022-09-25T12:30:03.036Z</time>
      </trkpt>
      <trkpt lat="48.72578" lon="2.49054">
        <ele>97</ele>
        <time>2022-09-25T12:30:08.024Z</time>
      </trkpt>
      <trkpt lat="48.72577" lon="2.49046">
        <ele>97</ele>
        <time>2022-09-25T12:30:13.032Z</time>
      </trkpt>
      <trkpt lat="48.72574" lon="2.49037">
        <ele>96</ele>
        <time>2022-09-25T12:30:17.995Z</time>
      </trkpt>
      <trkpt lat="48.72572" lon="2.49029">
        <ele>96</ele>
        <time>2022-09-25T12:30:22.011Z</time>
      </trkpt>
      <trkpt lat="48.72571" lon="2.49022">
        <ele>96</ele>
        <time>2022-09-25T12:30:26.026Z</time>
      </trkpt>
      <trkpt lat="48.72569" lon="2.49016">
        <ele>96</ele>
        <time>2022-09-25T12:30:30.043Z</time>
      </trkpt>
      <trkpt lat="48.72567" lon="2.49009">
        <ele>95</ele>
        <time>2022-09-25T12:30:35.025Z</time>
      </trkpt>
      <trkpt lat="48.72565" lon="2.49002">
        <ele>95</ele>
        <time>2022-09-25T12:30:40.011Z</time>
      </trkpt>
      <trkpt lat="48.72564" lon="2.48993">
        <ele>95</ele>
        <time>2022-09-25T12:30:44.024Z</time>
      </trkpt>
      <trkpt lat="48.72562" lon="2.48983">
        <ele>94</ele>
        <time>2022-09-25T12:30:49.015Z</time>
      </trkpt>
      <trkpt lat="48.7256" lon="2.48973">
        <ele>94</ele>
        <time>2022-09-25T12:30:54.016Z</time>
      </trkpt>
      <trkpt lat="48.72559" lon="2.48966">
        <ele>94</ele>
        <time>2022-09-25T12:30:58.035Z</time>
      </trkpt>
      <trkpt lat="48.72558" lon="2.48959">
        <ele>94</ele>
        <time>2022-09-25T12:31:02.044Z</time>
      </trkpt>
      <trkpt lat="48.72557" lon="2.48949">
        <ele>94</ele>
        <time>2022-09-25T12:31:07.040Z</time>
      </trkpt>
      <trkpt lat="48.72555" lon="2.48939">
        <ele>94</ele>
        <time>2022-09-25T12:31:12.012Z</time>
      </trkpt>
      <trkpt lat="48.72555" lon="2.48932">
        <ele>94</ele>
        <time>2022-09-25T12:31:16.026Z</time>
      </trkpt>
      <trkpt lat="48.72553" lon="2.48922">
        <ele>94</ele>
        <time>2022-09-25T12:31:21.024Z</time>
      </trkpt>
      <trkpt lat="48.72552" lon="2.4891">
        <ele>94</ele>
        <time>2022-09-25T12:31:26.020Z</time>
      </trkpt>
      <trkpt lat="48.72553" lon="2.48906">
        <ele>94</ele>
        <time>2022-09-25T12:31:30.036Z</time>
      </trkpt>
      <trkpt lat="48.72553" lon="2.48897">
        <ele>94</ele>
        <time>2022-09-25T12:31:35.026Z</time>
      </trkpt>
      <trkpt lat="48.72553" lon="2.48888">
        <ele>94</ele>
        <time>2022-09-25T12:31:40.017Z</time>
      </trkpt>
      <trkpt lat="48.72552" lon="2.4888">
        <ele>94</ele>
        <time>2022-09-25T12:31:44.038Z</time>
      </trkpt>
      <trkpt lat="48.7255" lon="2.48869">
        <ele>96</ele>
        <time>2022-09-25T12:31:48.981Z</time>
      </trkpt>
      <trkpt lat="48.72548" lon="2.48863">
        <ele>96</ele>
        <time>2022-09-25T12:31:53.018Z</time>
      </trkpt>
      <trkpt lat="48.72545" lon="2.48854">
        <ele>96</ele>
        <time>2022-09-25T12:31:58.020Z</time>
      </trkpt>
      <trkpt lat="48.72542" lon="2.48848">
        <ele>96</ele>
        <time>2022-09-25T12:32:02.030Z</time>
      </trkpt>
      <trkpt lat="48.72542" lon="2.48841">
        <ele>97</ele>
        <time>2022-09-25T12:32:07.016Z</time>
      </trkpt>
      <trkpt lat="48.72542" lon="2.48832">
        <ele>97</ele>
        <time>2022-09-25T12:32:12.007Z</time>
      </trkpt>
      <trkpt lat="48.7254" lon="2.48823">
        <ele>95</ele>
        <time>2022-09-25T12:32:16.014Z</time>
      </trkpt>
      <trkpt lat="48.72539" lon="2.48817">
        <ele>96</ele>
        <time>2022-09-25T12:32:20.017Z</time>
      </trkpt>
      <trkpt lat="48.72536" lon="2.48811">
        <ele>96</ele>
        <time>2022-09-25T12:32:24.032Z</time>
      </trkpt>
      <trkpt lat="48.72536" lon="2.48802">
        <ele>96</ele>
        <time>2022-09-25T12:32:29.034Z</time>
      </trkpt>
      <trkpt lat="48.72535" lon="2.48794">
        <ele>96</ele>
        <time>2022-09-25T12:32:34.025Z</time>
      </trkpt>
      <trkpt lat="48.72535" lon="2.48787">
        <ele>96</ele>
        <time>2022-09-25T12:32:38.040Z</time>
      </trkpt>
      <trkpt lat="48.72533" lon="2.48778">
        <ele>96</ele>
        <time>2022-09-25T12:32:43.012Z</time>
      </trkpt>
      <trkpt lat="48.7253" lon="2.4877">
        <ele>96</ele>
        <time>2022-09-25T12:32:47.023Z</time>
      </trkpt>
      <trkpt lat="48.72529" lon="2.4876">
        <ele>96</ele>
        <time>2022-09-25T12:32:52.007Z</time>
      </trkpt>
      <trkpt lat="48.72528" lon="2.48751">
        <ele>96</ele>
        <time>2022-09-25T12:32:57.011Z</time>
      </trkpt>
      <trkpt lat="48.72526" lon="2.48745">
        <ele>96</ele>
        <time>2022-09-25T12:33:02.018Z</time>
      </trkpt>
      <trkpt lat="48.72524" lon="2.48737">
        <ele>96</ele>
        <time>2022-09-25T12:33:06.028Z</time>
      </trkpt>
      <trkpt lat="48.72524" lon="2.48729">
        <ele>96</ele>
        <time>2022-09-25T12:33:11.008Z</time>
      </trkpt>
      <trkpt lat="48.72524" lon="2.48722">
        <ele>96</ele>
        <time>2022-09-25T12:33:15.019Z</time>
      </trkpt>
      <trkpt lat="48.72526" lon="2.48716">
        <ele>96</ele>
        <time>2022-09-25T12:33:19.022Z</time>
      </trkpt>
      <trkpt lat="48.72531" lon="2.4871">
        <ele>96</ele>
        <time>2022-09-25T12:33:24.003Z</time>
      </trkpt>
      <trkpt lat="48.72535" lon="2.48708">
        <ele>97</ele>
        <time>2022-09-25T12:33:28.035Z</time>
      </trkpt>
      <trkpt lat="48.7254" lon="2.48705">
        <ele>97</ele>
        <time>2022-09-25T12:33:33.030Z</time>
      </trkpt>
      <trkpt lat="48.72545" lon="2.48702">
        <ele>97</ele>
        <time>2022-09-25T12:33:38.031Z</time>
      </trkpt>
      <trkpt lat="48.72549" lon="2.48699">
        <ele>97</ele>
        <time>2022-09-25T12:33:42.042Z</time>
      </trkpt>
      <trkpt lat="48.72552" lon="2.48694">
        <ele>97</ele>
        <time>2022-09-25T12:33:47.006Z</time>
      </trkpt>
      <trkpt lat="48.72556" lon="2.48691">
        <ele>97</ele>
        <time>2022-09-25T12:33:51.020Z</time>
      </trkpt>
      <trkpt lat="48.7256" lon="2.48688">
        <ele>97</ele>
        <time>2022-09-25T12:33:56.027Z</time>
      </trkpt>
      <trkpt lat="48.72564" lon="2.48685">
        <ele>97</ele>
        <time>2022-09-25T12:34:01.010Z</time>
      </trkpt>
      <trkpt lat="48.72569" lon="2.48679">
        <ele>97</ele>
        <time>2022-09-25T12:34:06.026Z</time>
      </trkpt>
      <trkpt lat="48.72574" lon="2.48676">
        <ele>96</ele>
        <time>2022-09-25T12:34:11.010Z</time>
      </trkpt>
      <trkpt lat="48.72578" lon="2.48673">
        <ele>96</ele>
        <time>2022-09-25T12:34:15.024Z</time>
      </trkpt>
      <trkpt lat="48.72583" lon="2.48669">
        <ele>96</ele>
        <time>2022-09-25T12:34:20.017Z</time>
      </trkpt>
      <trkpt lat="48.72587" lon="2.48667">
        <ele>96</ele>
        <time>2022-09-25T12:34:24.033Z</time>
      </trkpt>
      <trkpt lat="48.72594" lon="2.48665">
        <ele>96</ele>
        <time>2022-09-25T12:34:28.983Z</time>
      </trkpt>
      <trkpt lat="48.72601" lon="2.48661">
        <ele>97</ele>
        <time>2022-09-25T12:34:33.012Z</time>
      </trkpt>
      <trkpt lat="48.72608" lon="2.48655">
        <ele>97</ele>
        <time>2022-09-25T12:34:38.002Z</time>
      </trkpt>
      <trkpt lat="48.72613" lon="2.4865">
        <ele>98</ele>
        <time>2022-09-25T12:34:42.017Z</time>
      </trkpt>
      <trkpt lat="48.72617" lon="2.48648">
        <ele>98</ele>
        <time>2022-09-25T12:34:46.019Z</time>
      </trkpt>
      <trkpt lat="48.72621" lon="2.48646">
        <ele>98</ele>
        <time>2022-09-25T12:34:50.011Z</time>
      </trkpt>
      <trkpt lat="48.72625" lon="2.48643">
        <ele>98</ele>
        <time>2022-09-25T12:34:54.033Z</time>
      </trkpt>
      <trkpt lat="48.72627" lon="2.48641">
        <ele>96</ele>
        <time>2022-09-25T12:34:59.017Z</time>
      </trkpt>
      <trkpt lat="48.72631" lon="2.4864">
        <ele>96</ele>
        <time>2022-09-25T12:35:03.019Z</time>
      </trkpt>
      <trkpt lat="48.72635" lon="2.48637">
        <ele>96</ele>
        <time>2022-09-25T12:35:08.021Z</time>
      </trkpt>
      <trkpt lat="48.72641" lon="2.48635">
        <ele>96</ele>
        <time>2022-09-25T12:35:12.033Z</time>
      </trkpt>
      <trkpt lat="48.72648" lon="2.48632">
        <ele>96</ele>
        <time>2022-09-25T12:35:17.020Z</time>
      </trkpt>
      <trkpt lat="48.72655" lon="2.48626">
        <ele>94</ele>
        <time>2022-09-25T12:35:22.022Z</time>
      </trkpt>
      <trkpt lat="48.7266" lon="2.48621">
        <ele>94</ele>
        <time>2022-09-25T12:35:26.026Z</time>
      </trkpt>
      <trkpt lat="48.72666" lon="2.48613">
        <ele>94</ele>
        <time>2022-09-25T12:35:31.006Z</time>
      </trkpt>
      <trkpt lat="48.72671" lon="2.48604">
        <ele>94</ele>
        <time>2022-09-25T12:35:36.014Z</time>
      </trkpt>
      <trkpt lat="48.72674" lon="2.48598">
        <ele>94</ele>
        <time>2022-09-25T12:35:40.023Z</time>
      </trkpt>
      <trkpt lat="48.72679" lon="2.48591">
        <ele>95</ele>
        <time>2022-09-25T12:35:45.023Z</time>
      </trkpt>
      <trkpt lat="48.72683" lon="2.48588">
        <ele>91</ele>
        <time>2022-09-25T12:35:50.015Z</time>
      </trkpt>
      <trkpt lat="48.72688" lon="2.48584">
        <ele>91</ele>
        <time>2022-09-25T12:35:55.020Z</time>
      </trkpt>
      <trkpt lat="48.72691" lon="2.48583">
        <ele>91</ele>
        <time>2022-09-25T12:35:59.024Z</time>
      </trkpt>
      <trkpt lat="48.72691" lon="2.48581">
        <ele>91</ele>
        <time>2022-09-25T12:36:03.027Z</time>
      </trkpt>
      <trkpt lat="48.72693" lon="2.48576">
        <ele>91</ele>
        <time>2022-09-25T12:36:08.032Z</time>
      </trkpt>
      <trkpt lat="48.72696" lon="2.48572">
        <ele>91</ele>
        <time>2022-09-25T12:36:13.036Z</time>
      </trkpt>
      <trkpt lat="48.72694" lon="2.48567">
        <ele>92</ele>
        <time>2022-09-25T12:36:18.031Z</time>
      </trkpt>
      <trkpt lat="48.72693" lon="2.48565">
        <ele>92</ele>
        <time>2022-09-25T12:36:23.021Z</time>
      </trkpt>
      <trkpt lat="48.72694" lon="2.4856">
        <ele>92</ele>
        <time>2022-09-25T12:36:28.034Z</time>
      </trkpt>
      <trkpt lat="48.72696" lon="2.48552">
        <ele>92</ele>
        <time>2022-09-25T12:36:33.001Z</time>
      </trkpt>
      <trkpt lat="48.72697" lon="2.48546">
        <ele>92</ele>
        <time>2022-09-25T12:36:37.026Z</time>
      </trkpt>
      <trkpt lat="48.72699" lon="2.48542">
        <ele>94</ele>
        <time>2022-09-25T12:36:42.019Z</time>
      </trkpt>
      <trkpt lat="48.727" lon="2.48538">
        <ele>94</ele>
        <time>2022-09-25T12:36:46.036Z</time>
      </trkpt>
      <trkpt lat="48.72702" lon="2.48532">
        <ele>94</ele>
        <time>2022-09-25T12:36:51.036Z</time>
      </trkpt>
      <trkpt lat="48.72702" lon="2.48526">
        <ele>94</ele>
        <time>2022-09-25T12:36:56.015Z</time>
      </trkpt>
      <trkpt lat="48.72703" lon="2.48521">
        <ele>94</ele>
        <time>2022-09-25T12:37:00.035Z</time>
      </trkpt>
      <trkpt lat="48.72705" lon="2.48517">
        <ele>94</ele>
        <time>2022-09-25T12:37:05.022Z</time>
      </trkpt>
      <trkpt lat="48.72706" lon="2.48514">
        <ele>94</ele>
        <time>2022-09-25T12:37:09.028Z</time>
      </trkpt>
      <trkpt lat="48.72709" lon="2.48511">
        <ele>93</ele>
        <time>2022-09-25T12:37:14.019Z</time>
      </trkpt>
      <trkpt lat="48.72708" lon="2.48515">
        <ele>94</ele>
        <time>2022-09-25T12:38:25.024Z</time>
      </trkpt>
      <trkpt lat="48.72704" lon="2.48514">
        <ele>94</ele>
        <time>2022-09-25T12:38:29.033Z</time>
      </trkpt>
      <trkpt lat="48.72701" lon="2.48517">
        <ele>94</ele>
        <time>2022-09-25T12:38:34.003Z</time>
      </trkpt>
      <trkpt lat="48.72701" lon="2.4852">
        <ele>94</ele>
        <time>2022-09-25T12:38:38.005Z</time>
      </trkpt>
      <trkpt lat="48.72699" lon="2.48523">
        <ele>94</ele>
        <time>2022-09-25T12:38:42.014Z</time>
      </trkpt>
      <trkpt lat="48.72696" lon="2.4852">
        <ele>94</ele>
        <time>2022-09-25T12:38:47.020Z</time>
      </trkpt>
      <trkpt lat="48.72694" lon="2.48516">
        <ele>94</ele>
        <time>2022-09-25T12:38:51.983Z</time>
      </trkpt>
      <trkpt lat="48.72693" lon="2.4851">
        <ele>94</ele>
        <time>2022-09-25T12:38:55.997Z</time>
      </trkpt>
      <trkpt lat="48.72693" lon="2.48504">
        <ele>94</ele>
        <time>2022-09-25T12:39:00.017Z</time>
      </trkpt>
      <trkpt lat="48.72691" lon="2.48497">
        <ele>94</ele>
        <time>2022-09-25T12:39:05.011Z</time>
      </trkpt>
      <trkpt lat="48.72689" lon="2.4849">
        <ele>94</ele>
        <time>2022-09-25T12:39:10.005Z</time>
      </trkpt>
      <trkpt lat="48.72687" lon="2.48484">
        <ele>94</ele>
        <time>2022-09-25T12:39:14.032Z</time>
      </trkpt>
      <trkpt lat="48.72684" lon="2.48473">
        <ele>94</ele>
        <time>2022-09-25T12:39:19.006Z</time>
      </trkpt>
      <trkpt lat="48.72682" lon="2.48464">
        <ele>94</ele>
        <time>2022-09-25T12:39:24.044Z</time>
      </trkpt>
      <trkpt lat="48.7268" lon="2.48453">
        <ele>94</ele>
        <time>2022-09-25T12:39:29.028Z</time>
      </trkpt>
      <trkpt lat="48.72678" lon="2.48444">
        <ele>94</ele>
        <time>2022-09-25T12:39:34.028Z</time>
      </trkpt>
      <trkpt lat="48.72677" lon="2.48435">
        <ele>94</ele>
        <time>2022-09-25T12:39:39.020Z</time>
      </trkpt>
      <trkpt lat="48.72675" lon="2.48425">
        <ele>95</ele>
        <time>2022-09-25T12:39:44.010Z</time>
      </trkpt>
      <trkpt lat="48.72675" lon="2.48417">
        <ele>95</ele>
        <time>2022-09-25T12:39:48.039Z</time>
      </trkpt>
      <trkpt lat="48.72674" lon="2.48408">
        <ele>95</ele>
        <time>2022-09-25T12:39:53.030Z</time>
      </trkpt>
      <trkpt lat="48.72672" lon="2.48401">
        <ele>95</ele>
        <time>2022-09-25T12:39:58.034Z</time>
      </trkpt>
      <trkpt lat="48.7267" lon="2.48395">
        <ele>95</ele>
        <time>2022-09-25T12:40:03.005Z</time>
      </trkpt>
      <trkpt lat="48.72669" lon="2.48389">
        <ele>95</ele>
        <time>2022-09-25T12:40:07.026Z</time>
      </trkpt>
      <trkpt lat="48.72668" lon="2.48383">
        <ele>95</ele>
        <time>2022-09-25T12:40:12.015Z</time>
      </trkpt>
      <trkpt lat="48.72666" lon="2.48375">
        <ele>95</ele>
        <time>2022-09-25T12:40:17.031Z</time>
      </trkpt>
      <trkpt lat="48.72663" lon="2.48366">
        <ele>95</ele>
        <time>2022-09-25T12:40:40.027Z</time>
      </trkpt>
      <trkpt lat="48.72662" lon="2.48365">
        <ele>95</ele>
        <time>2022-09-25T12:40:45.024Z</time>
      </trkpt>
      <trkpt lat="48.72661" lon="2.48364">
        <ele>95</ele>
        <time>2022-09-25T12:40:50.030Z</time>
      </trkpt>
      <trkpt lat="48.7266" lon="2.48359">
        <ele>95</ele>
        <time>2022-09-25T12:40:55.032Z</time>
      </trkpt>
      <trkpt lat="48.72661" lon="2.48356">
        <ele>95</ele>
        <time>2022-09-25T12:40:59.033Z</time>
      </trkpt>
      <trkpt lat="48.72657" lon="2.48352">
        <ele>95</ele>
        <time>2022-09-25T12:43:11.012Z</time>
      </trkpt>
      <trkpt lat="48.72658" lon="2.48351">
        <ele>95</ele>
        <time>2022-09-25T12:43:16.012Z</time>
      </trkpt>
      <trkpt lat="48.72658" lon="2.48344">
        <ele>95</ele>
        <time>2022-09-25T12:43:20.013Z</time>
      </trkpt>
      <trkpt lat="48.72658" lon="2.48335">
        <ele>95</ele>
        <time>2022-09-25T12:43:25.003Z</time>
      </trkpt>
      <trkpt lat="48.72657" lon="2.48329">
        <ele>95</ele>
        <time>2022-09-25T12:43:29.019Z</time>
      </trkpt>
      <trkpt lat="48.72655" lon="2.48321">
        <ele>95</ele>
        <time>2022-09-25T12:43:33.026Z</time>
      </trkpt>
      <trkpt lat="48.72654" lon="2.48313">
        <ele>95</ele>
        <time>2022-09-25T12:43:37.027Z</time>
      </trkpt>
      <trkpt lat="48.72651" lon="2.48307">
        <ele>95</ele>
        <time>2022-09-25T12:43:41.022Z</time>
      </trkpt>
      <trkpt lat="48.72649" lon="2.48297">
        <ele>95</ele>
        <time>2022-09-25T12:43:46.005Z</time>
      </trkpt>
      <trkpt lat="48.72648" lon="2.4829">
        <ele>96</ele>
        <time>2022-09-25T12:43:50.020Z</time>
      </trkpt>
      <trkpt lat="48.72647" lon="2.48282">
        <ele>96</ele>
        <time>2022-09-25T12:43:54.031Z</time>
      </trkpt>
      <trkpt lat="48.72646" lon="2.48271">
        <ele>96</ele>
        <time>2022-09-25T12:43:59.019Z</time>
      </trkpt>
      <trkpt lat="48.72643" lon="2.48261">
        <ele>96</ele>
        <time>2022-09-25T12:44:04.029Z</time>
      </trkpt>
      <trkpt lat="48.72642" lon="2.48254">
        <ele>96</ele>
        <time>2022-09-25T12:44:08.031Z</time>
      </trkpt>
      <trkpt lat="48.7264" lon="2.48244">
        <ele>96</ele>
        <time>2022-09-25T12:44:13.018Z</time>
      </trkpt>
      <trkpt lat="48.72639" lon="2.48237">
        <ele>96</ele>
        <time>2022-09-25T12:44:17.029Z</time>
      </trkpt>
      <trkpt lat="48.72638" lon="2.48226">
        <ele>96</ele>
        <time>2022-09-25T12:44:22.037Z</time>
      </trkpt>
      <trkpt lat="48.72637" lon="2.48216">
        <ele>96</ele>
        <time>2022-09-25T12:44:27.012Z</time>
      </trkpt>
      <trkpt lat="48.72635" lon="2.48208">
        <ele>95</ele>
        <time>2022-09-25T12:44:31.030Z</time>
      </trkpt>
      <trkpt lat="48.72633" lon="2.48201">
        <ele>95</ele>
        <time>2022-09-25T12:44:36.036Z</time>
      </trkpt>
      <trkpt lat="48.72632" lon="2.48192">
        <ele>95</ele>
        <time>2022-09-25T12:44:41.012Z</time>
      </trkpt>
      <trkpt lat="48.7263" lon="2.48185">
        <ele>95</ele>
        <time>2022-09-25T12:44:45.040Z</time>
      </trkpt>
      <trkpt lat="48.72628" lon="2.48175">
        <ele>94</ele>
        <time>2022-09-25T12:44:50.047Z</time>
      </trkpt>
      <trkpt lat="48.72624" lon="2.48167">
        <ele>94</ele>
        <time>2022-09-25T12:44:55.022Z</time>
      </trkpt>
      <trkpt lat="48.72621" lon="2.48157">
        <ele>94</ele>
        <time>2022-09-25T12:45:00.026Z</time>
      </trkpt>
      <trkpt lat="48.72619" lon="2.4815">
        <ele>94</ele>
        <time>2022-09-25T12:45:04.041Z</time>
      </trkpt>
      <trkpt lat="48.72618" lon="2.48142">
        <ele>94</ele>
        <time>2022-09-25T12:45:09.032Z</time>
      </trkpt>
      <trkpt lat="48.72616" lon="2.48132">
        <ele>94</ele>
        <time>2022-09-25T12:45:14.017Z</time>
      </trkpt>
      <trkpt lat="48.72615" lon="2.48126">
        <ele>94</ele>
        <time>2022-09-25T12:45:18.026Z</time>
      </trkpt>
      <trkpt lat="48.72614" lon="2.48116">
        <ele>94</ele>
        <time>2022-09-25T12:45:23.004Z</time>
      </trkpt>
      <trkpt lat="48.72613" lon="2.48108">
        <ele>94</ele>
        <time>2022-09-25T12:45:27.037Z</time>
      </trkpt>
      <trkpt lat="48.72611" lon="2.481">
        <ele>94</ele>
        <time>2022-09-25T12:45:31.042Z</time>
      </trkpt>
      <trkpt lat="48.72609" lon="2.48091">
        <ele>95</ele>
        <time>2022-09-25T12:45:36.019Z</time>
      </trkpt>
      <trkpt lat="48.72608" lon="2.48085">
        <ele>95</ele>
        <time>2022-09-25T12:45:40.035Z</time>
      </trkpt>
      <trkpt lat="48.72607" lon="2.48075">
        <ele>95</ele>
        <time>2022-09-25T12:45:45.017Z</time>
      </trkpt>
      <trkpt lat="48.72605" lon="2.48068">
        <ele>95</ele>
        <time>2022-09-25T12:45:49.038Z</time>
      </trkpt>
      <trkpt lat="48.72603" lon="2.48059">
        <ele>95</ele>
        <time>2022-09-25T12:45:54Z</time>
      </trkpt>
      <trkpt lat="48.72601" lon="2.48052">
        <ele>95</ele>
        <time>2022-09-25T12:45:58.039Z</time>
      </trkpt>
      <trkpt lat="48.72595" lon="2.48043">
        <ele>96</ele>
        <time>2022-09-25T12:46:03.015Z</time>
      </trkpt>
      <trkpt lat="48.72592" lon="2.48036">
        <ele>95</ele>
        <time>2022-09-25T12:46:07.029Z</time>
      </trkpt>
      <trkpt lat="48.72589" lon="2.48027">
        <ele>95</ele>
        <time>2022-09-25T12:46:12.020Z</time>
      </trkpt>
      <trkpt lat="48.72589" lon="2.48018">
        <ele>95</ele>
        <time>2022-09-25T12:46:17.043Z</time>
      </trkpt>
      <trkpt lat="48.72589" lon="2.48008">
        <ele>95</ele>
        <time>2022-09-25T12:46:22.032Z</time>
      </trkpt>
      <trkpt lat="48.72586" lon="2.47999">
        <ele>95</ele>
        <time>2022-09-25T12:46:27.028Z</time>
      </trkpt>
      <trkpt lat="48.72585" lon="2.47991">
        <ele>95</ele>
        <time>2022-09-25T12:46:31.026Z</time>
      </trkpt>
      <trkpt lat="48.72583" lon="2.47983">
        <ele>94</ele>
        <time>2022-09-25T12:46:36.017Z</time>
      </trkpt>
      <trkpt lat="48.72579" lon="2.47975">
        <ele>94</ele>
        <time>2022-09-25T12:46:41.029Z</time>
      </trkpt>
      <trkpt lat="48.72578" lon="2.47967">
        <ele>94</ele>
        <time>2022-09-25T12:46:46.032Z</time>
      </trkpt>
      <trkpt lat="48.72576" lon="2.4796">
        <ele>94</ele>
        <time>2022-09-25T12:46:51.024Z</time>
      </trkpt>
      <trkpt lat="48.72575" lon="2.47954">
        <ele>94</ele>
        <time>2022-09-25T12:46:56.014Z</time>
      </trkpt>
      <trkpt lat="48.72573" lon="2.47949">
        <ele>94</ele>
        <time>2022-09-25T12:47:00.042Z</time>
      </trkpt>
      <trkpt lat="48.72571" lon="2.4794">
        <ele>94</ele>
        <time>2022-09-25T12:47:05.033Z</time>
      </trkpt>
      <trkpt lat="48.7257" lon="2.4793">
        <ele>94</ele>
        <time>2022-09-25T12:47:10.004Z</time>
      </trkpt>
      <trkpt lat="48.72569" lon="2.47922">
        <ele>96</ele>
        <time>2022-09-25T12:47:14.027Z</time>
      </trkpt>
      <trkpt lat="48.72568" lon="2.47915">
        <ele>96</ele>
        <time>2022-09-25T12:47:18.053Z</time>
      </trkpt>
      <trkpt lat="48.72566" lon="2.47906">
        <ele>96</ele>
        <time>2022-09-25T12:47:23.016Z</time>
      </trkpt>
      <trkpt lat="48.72564" lon="2.47899">
        <ele>96</ele>
        <time>2022-09-25T12:47:27.032Z</time>
      </trkpt>
      <trkpt lat="48.72561" lon="2.47893">
        <ele>96</ele>
        <time>2022-09-25T12:47:31.032Z</time>
      </trkpt>
      <trkpt lat="48.72559" lon="2.47887">
        <ele>96</ele>
        <time>2022-09-25T12:47:36.019Z</time>
      </trkpt>
      <trkpt lat="48.72557" lon="2.47877">
        <ele>96</ele>
        <time>2022-09-25T12:47:41.002Z</time>
      </trkpt>
      <trkpt lat="48.72554" lon="2.4787">
        <ele>97</ele>
        <time>2022-09-25T12:47:45.023Z</time>
      </trkpt>
      <trkpt lat="48.72554" lon="2.47862">
        <ele>97</ele>
        <time>2022-09-25T12:47:50.008Z</time>
      </trkpt>
      <trkpt lat="48.72551" lon="2.47853">
        <ele>97</ele>
        <time>2022-09-25T12:47:55.011Z</time>
      </trkpt>
      <trkpt lat="48.7255" lon="2.47845">
        <ele>97</ele>
        <time>2022-09-25T12:47:59.012Z</time>
      </trkpt>
      <trkpt lat="48.72549" lon="2.47836">
        <ele>97</ele>
        <time>2022-09-25T12:48:04.016Z</time>
      </trkpt>
      <trkpt lat="48.72547" lon="2.47826">
        <ele>97</ele>
        <time>2022-09-25T12:48:09.023Z</time>
      </trkpt>
      <trkpt lat="48.72545" lon="2.47816">
        <ele>96</ele>
        <time>2022-09-25T12:48:14.015Z</time>
      </trkpt>
      <trkpt lat="48.72544" lon="2.47807">
        <ele>96</ele>
        <time>2022-09-25T12:48:18.009Z</time>
      </trkpt>
      <trkpt lat="48.72543" lon="2.478">
        <ele>96</ele>
        <time>2022-09-25T12:48:22.032Z</time>
      </trkpt>
      <trkpt lat="48.72542" lon="2.47792">
        <ele>96</ele>
        <time>2022-09-25T12:48:27.027Z</time>
      </trkpt>
      <trkpt lat="48.72541" lon="2.47781">
        <ele>95</ele>
        <time>2022-09-25T12:48:32.043Z</time>
      </trkpt>
      <trkpt lat="48.72538" lon="2.47772">
        <ele>95</ele>
        <time>2022-09-25T12:48:37.028Z</time>
      </trkpt>
      <trkpt lat="48.72537" lon="2.4776">
        <ele>95</ele>
        <time>2022-09-25T12:48:42.021Z</time>
      </trkpt>
      <trkpt lat="48.72537" lon="2.47752">
        <ele>95</ele>
        <time>2022-09-25T12:48:47.026Z</time>
      </trkpt>
      <trkpt lat="48.72535" lon="2.47741">
        <ele>95</ele>
        <time>2022-09-25T12:48:52.014Z</time>
      </trkpt>
      <trkpt lat="48.72531" lon="2.47731">
        <ele>95</ele>
        <time>2022-09-25T12:48:56.974Z</time>
      </trkpt>
      <trkpt lat="48.72529" lon="2.47724">
        <ele>95</ele>
        <time>2022-09-25T12:49:01.003Z</time>
      </trkpt>
      <trkpt lat="48.72524" lon="2.47713">
        <ele>95</ele>
        <time>2022-09-25T12:49:06.024Z</time>
      </trkpt>
      <trkpt lat="48.72523" lon="2.47703">
        <ele>95</ele>
        <time>2022-09-25T12:49:10.025Z</time>
      </trkpt>
      <trkpt lat="48.72523" lon="2.47696">
        <ele>95</ele>
        <time>2022-09-25T12:49:14.034Z</time>
      </trkpt>
      <trkpt lat="48.72521" lon="2.47689">
        <ele>95</ele>
        <time>2022-09-25T12:49:18.042Z</time>
      </trkpt>
      <trkpt lat="48.72517" lon="2.47678">
        <ele>95</ele>
        <time>2022-09-25T12:49:23.029Z</time>
      </trkpt>
      <trkpt lat="48.72515" lon="2.4767">
        <ele>95</ele>
        <time>2022-09-25T12:49:28.015Z</time>
      </trkpt>
      <trkpt lat="48.72514" lon="2.47663">
        <ele>95</ele>
        <time>2022-09-25T12:49:32.039Z</time>
      </trkpt>
      <trkpt lat="48.72512" lon="2.47651">
        <ele>92</ele>
        <time>2022-09-25T12:49:37.033Z</time>
      </trkpt>
      <trkpt lat="48.72512" lon="2.47644">
        <ele>92</ele>
        <time>2022-09-25T12:49:42.024Z</time>
      </trkpt>
      <trkpt lat="48.72511" lon="2.47634">
        <ele>92</ele>
        <time>2022-09-25T12:49:47.015Z</time>
      </trkpt>
      <trkpt lat="48.72507" lon="2.47624">
        <ele>92</ele>
        <time>2022-09-25T12:49:51.015Z</time>
      </trkpt>
      <trkpt lat="48.72505" lon="2.47616">
        <ele>92</ele>
        <time>2022-09-25T12:49:55.040Z</time>
      </trkpt>
      <trkpt lat="48.72503" lon="2.47607">
        <ele>92</ele>
        <time>2022-09-25T12:50:00.031Z</time>
      </trkpt>
      <trkpt lat="48.72502" lon="2.47599">
        <ele>92</ele>
        <time>2022-09-25T12:50:05.020Z</time>
      </trkpt>
      <trkpt lat="48.725" lon="2.47591">
        <ele>91</ele>
        <time>2022-09-25T12:50:09.025Z</time>
      </trkpt>
      <trkpt lat="48.72498" lon="2.47584">
        <ele>91</ele>
        <time>2022-09-25T12:50:13.054Z</time>
      </trkpt>
      <trkpt lat="48.72495" lon="2.47573">
        <ele>91</ele>
        <time>2022-09-25T12:50:17.996Z</time>
      </trkpt>
      <trkpt lat="48.72493" lon="2.47568">
        <ele>91</ele>
        <time>2022-09-25T12:50:22.019Z</time>
      </trkpt>
      <trkpt lat="48.72492" lon="2.4756">
        <ele>91</ele>
        <time>2022-09-25T12:50:27.021Z</time>
      </trkpt>
      <trkpt lat="48.72489" lon="2.4755">
        <ele>91</ele>
        <time>2022-09-25T12:50:32.026Z</time>
      </trkpt>
      <trkpt lat="48.72487" lon="2.47541">
        <ele>90</ele>
        <time>2022-09-25T12:50:37.035Z</time>
      </trkpt>
      <trkpt lat="48.72486" lon="2.4753">
        <ele>89</ele>
        <time>2022-09-25T12:50:42.038Z</time>
      </trkpt>
      <trkpt lat="48.72485" lon="2.47522">
        <ele>89</ele>
        <time>2022-09-25T12:50:47.017Z</time>
      </trkpt>
      <trkpt lat="48.72485" lon="2.47515">
        <ele>89</ele>
        <time>2022-09-25T12:50:51.022Z</time>
      </trkpt>
      <trkpt lat="48.72484" lon="2.47506">
        <ele>88</ele>
        <time>2022-09-25T12:50:56.037Z</time>
      </trkpt>
      <trkpt lat="48.72482" lon="2.47496">
        <ele>88</ele>
        <time>2022-09-25T12:51:01.016Z</time>
      </trkpt>
      <trkpt lat="48.72481" lon="2.47488">
        <ele>88</ele>
        <time>2022-09-25T12:51:05.020Z</time>
      </trkpt>
      <trkpt lat="48.7248" lon="2.47481">
        <ele>87</ele>
        <time>2022-09-25T12:51:09.042Z</time>
      </trkpt>
      <trkpt lat="48.72479" lon="2.47471">
        <ele>87</ele>
        <time>2022-09-25T12:51:14.028Z</time>
      </trkpt>
      <trkpt lat="48.72479" lon="2.47463">
        <ele>87</ele>
        <time>2022-09-25T12:51:18.031Z</time>
      </trkpt>
      <trkpt lat="48.72478" lon="2.47455">
        <ele>86</ele>
        <time>2022-09-25T12:51:22.040Z</time>
      </trkpt>
      <trkpt lat="48.72477" lon="2.47445">
        <ele>86</ele>
        <time>2022-09-25T12:51:27.010Z</time>
      </trkpt>
      <trkpt lat="48.72476" lon="2.47437">
        <ele>86</ele>
        <time>2022-09-25T12:51:31.031Z</time>
      </trkpt>
      <trkpt lat="48.72475" lon="2.47428">
        <ele>85</ele>
        <time>2022-09-25T12:51:36.027Z</time>
      </trkpt>
      <trkpt lat="48.72474" lon="2.47419">
        <ele>85</ele>
        <time>2022-09-25T12:51:41.019Z</time>
      </trkpt>
      <trkpt lat="48.72473" lon="2.47409">
        <ele>85</ele>
        <time>2022-09-25T12:51:46.018Z</time>
      </trkpt>
      <trkpt lat="48.72472" lon="2.47401">
        <ele>85</ele>
        <time>2022-09-25T12:51:50.045Z</time>
      </trkpt>
      <trkpt lat="48.72469" lon="2.47391">
        <ele>85</ele>
        <time>2022-09-25T12:51:55.025Z</time>
      </trkpt>
      <trkpt lat="48.72468" lon="2.47381">
        <ele>85</ele>
        <time>2022-09-25T12:52:00.032Z</time>
      </trkpt>
      <trkpt lat="48.72466" lon="2.47373">
        <ele>85</ele>
        <time>2022-09-25T12:52:05.020Z</time>
      </trkpt>
      <trkpt lat="48.72465" lon="2.47366">
        <ele>85</ele>
        <time>2022-09-25T12:52:09.019Z</time>
      </trkpt>
      <trkpt lat="48.72464" lon="2.47357">
        <ele>85</ele>
        <time>2022-09-25T12:52:14.006Z</time>
      </trkpt>
      <trkpt lat="48.72462" lon="2.47349">
        <ele>85</ele>
        <time>2022-09-25T12:52:18.017Z</time>
      </trkpt>
      <trkpt lat="48.72459" lon="2.4734">
        <ele>84</ele>
        <time>2022-09-25T12:52:22.995Z</time>
      </trkpt>
      <trkpt lat="48.72458" lon="2.47332">
        <ele>85</ele>
        <time>2022-09-25T12:52:27.021Z</time>
      </trkpt>
      <trkpt lat="48.72456" lon="2.47327">
        <ele>85</ele>
        <time>2022-09-25T12:52:32.022Z</time>
      </trkpt>
      <trkpt lat="48.72455" lon="2.4732">
        <ele>85</ele>
        <time>2022-09-25T12:52:37.017Z</time>
      </trkpt>
      <trkpt lat="48.72454" lon="2.47312">
        <ele>85</ele>
        <time>2022-09-25T12:52:42.016Z</time>
      </trkpt>
      <trkpt lat="48.72453" lon="2.47304">
        <ele>85</ele>
        <time>2022-09-25T12:52:46.035Z</time>
      </trkpt>
      <trkpt lat="48.72452" lon="2.47297">
        <ele>85</ele>
        <time>2022-09-25T12:52:51.017Z</time>
      </trkpt>
      <trkpt lat="48.72451" lon="2.47289">
        <ele>86</ele>
        <time>2022-09-25T12:52:55.992Z</time>
      </trkpt>
      <trkpt lat="48.7245" lon="2.47282">
        <ele>86</ele>
        <time>2022-09-25T12:53:00.014Z</time>
      </trkpt>
      <trkpt lat="48.72449" lon="2.47275">
        <ele>86</ele>
        <time>2022-09-25T12:53:04.024Z</time>
      </trkpt>
      <trkpt lat="48.72448" lon="2.47267">
        <ele>86</ele>
        <time>2022-09-25T12:53:09.011Z</time>
      </trkpt>
      <trkpt lat="48.72446" lon="2.47259">
        <ele>87</ele>
        <time>2022-09-25T12:53:13.008Z</time>
      </trkpt>
      <trkpt lat="48.72445" lon="2.47252">
        <ele>87</ele>
        <time>2022-09-25T12:53:17.014Z</time>
      </trkpt>
      <trkpt lat="48.72444" lon="2.47245">
        <ele>87</ele>
        <time>2022-09-25T12:53:21.016Z</time>
      </trkpt>
      <trkpt lat="48.72443" lon="2.47237">
        <ele>87</ele>
        <time>2022-09-25T12:53:26.023Z</time>
      </trkpt>
      <trkpt lat="48.72442" lon="2.47231">
        <ele>87</ele>
        <time>2022-09-25T12:53:30.030Z</time>
      </trkpt>
      <trkpt lat="48.7244" lon="2.47221">
        <ele>87</ele>
        <time>2022-09-25T12:53:34.997Z</time>
      </trkpt>
      <trkpt lat="48.7244" lon="2.47213">
        <ele>87</ele>
        <time>2022-09-25T12:53:39.027Z</time>
      </trkpt>
      <trkpt lat="48.7244" lon="2.47204">
        <ele>88</ele>
        <time>2022-09-25T12:53:44.010Z</time>
      </trkpt>
      <trkpt lat="48.72438" lon="2.47195">
        <ele>88</ele>
        <time>2022-09-25T12:53:48.027Z</time>
      </trkpt>
      <trkpt lat="48.72437" lon="2.47184">
        <ele>88</ele>
        <time>2022-09-25T12:53:53.023Z</time>
      </trkpt>
      <trkpt lat="48.72436" lon="2.47176">
        <ele>88</ele>
        <time>2022-09-25T12:53:58.031Z</time>
      </trkpt>
      <trkpt lat="48.72437" lon="2.47168">
        <ele>88</ele>
        <time>2022-09-25T12:54:03.013Z</time>
      </trkpt>
      <trkpt lat="48.72435" lon="2.47164">
        <ele>88</ele>
        <time>2022-09-25T12:54:07.025Z</time>
      </trkpt>
      <trkpt lat="48.72434" lon="2.47157">
        <ele>88</ele>
        <time>2022-09-25T12:54:12.036Z</time>
      </trkpt>
      <trkpt lat="48.72432" lon="2.47148">
        <ele>89</ele>
        <time>2022-09-25T12:55:05.023Z</time>
      </trkpt>
      <trkpt lat="48.72433" lon="2.47147">
        <ele>89</ele>
        <time>2022-09-25T12:55:10.014Z</time>
      </trkpt>
      <trkpt lat="48.72433" lon="2.47144">
        <ele>89</ele>
        <time>2022-09-25T12:55:14.046Z</time>
      </trkpt>
      <trkpt lat="48.72433" lon="2.47136">
        <ele>89</ele>
        <time>2022-09-25T12:55:19.023Z</time>
      </trkpt>
      <trkpt lat="48.72431" lon="2.47131">
        <ele>89</ele>
        <time>2022-09-25T12:55:24.046Z</time>
      </trkpt>
      <trkpt lat="48.7243" lon="2.47128">
        <ele>89</ele>
        <time>2022-09-25T12:55:29.035Z</time>
      </trkpt>
      <trkpt lat="48.72433" lon="2.4712">
        <ele>89</ele>
        <time>2022-09-25T12:55:34.029Z</time>
      </trkpt>
      <trkpt lat="48.72433" lon="2.47109">
        <ele>89</ele>
        <time>2022-09-25T12:55:38.045Z</time>
      </trkpt>
      <trkpt lat="48.72433" lon="2.47098">
        <ele>89</ele>
        <time>2022-09-25T12:55:43.002Z</time>
      </trkpt>
      <trkpt lat="48.72434" lon="2.47091">
        <ele>89</ele>
        <time>2022-09-25T12:55:47.009Z</time>
      </trkpt>
      <trkpt lat="48.72434" lon="2.47082">
        <ele>89</ele>
        <time>2022-09-25T12:55:51.013Z</time>
      </trkpt>
      <trkpt lat="48.72434" lon="2.47072">
        <ele>89</ele>
        <time>2022-09-25T12:55:55.023Z</time>
      </trkpt>
      <trkpt lat="48.72434" lon="2.47062">
        <ele>88</ele>
        <time>2022-09-25T12:56:00.025Z</time>
      </trkpt>
      <trkpt lat="48.72433" lon="2.47053">
        <ele>88</ele>
        <time>2022-09-25T12:56:05.013Z</time>
      </trkpt>
      <trkpt lat="48.72432" lon="2.47043">
        <ele>88</ele>
        <time>2022-09-25T12:56:09.015Z</time>
      </trkpt>
      <trkpt lat="48.72431" lon="2.47036">
        <ele>87</ele>
        <time>2022-09-25T12:56:13.044Z</time>
      </trkpt>
      <trkpt lat="48.7243" lon="2.47027">
        <ele>85</ele>
        <time>2022-09-25T12:56:18.032Z</time>
      </trkpt>
      <trkpt lat="48.7243" lon="2.4702">
        <ele>85</ele>
        <time>2022-09-25T12:56:22.035Z</time>
      </trkpt>
      <trkpt lat="48.72429" lon="2.47008">
        <ele>85</ele>
        <time>2022-09-25T12:56:27.038Z</time>
      </trkpt>
      <trkpt lat="48.72428" lon="2.46999">
        <ele>85</ele>
        <time>2022-09-25T12:56:32.034Z</time>
      </trkpt>
      <trkpt lat="48.72428" lon="2.46989">
        <ele>85</ele>
        <time>2022-09-25T12:56:37.027Z</time>
      </trkpt>
      <trkpt lat="48.72428" lon="2.46981">
        <ele>85</ele>
        <time>2022-09-25T12:56:41.030Z</time>
      </trkpt>
      <trkpt lat="48.72428" lon="2.46973">
        <ele>85</ele>
        <time>2022-09-25T12:56:45.041Z</time>
      </trkpt>
      <trkpt lat="48.72426" lon="2.46962">
        <ele>85</ele>
        <time>2022-09-25T12:56:50.041Z</time>
      </trkpt>
      <trkpt lat="48.72426" lon="2.46956">
        <ele>85</ele>
        <time>2022-09-25T12:56:54.046Z</time>
      </trkpt>
      <trkpt lat="48.72426" lon="2.46946">
        <ele>85</ele>
        <time>2022-09-25T12:56:59.032Z</time>
      </trkpt>
      <trkpt lat="48.72425" lon="2.46935">
        <ele>85</ele>
        <time>2022-09-25T12:57:04.038Z</time>
      </trkpt>
      <trkpt lat="48.72423" lon="2.46925">
        <ele>86</ele>
        <time>2022-09-25T12:57:09.020Z</time>
      </trkpt>
      <trkpt lat="48.72423" lon="2.46918">
        <ele>86</ele>
        <time>2022-09-25T12:57:13.022Z</time>
      </trkpt>
      <trkpt lat="48.72422" lon="2.46909">
        <ele>86</ele>
        <time>2022-09-25T12:57:18.047Z</time>
      </trkpt>
      <trkpt lat="48.72421" lon="2.46898">
        <ele>86</ele>
        <time>2022-09-25T12:57:23.026Z</time>
      </trkpt>
      <trkpt lat="48.7242" lon="2.46888">
        <ele>86</ele>
        <time>2022-09-25T12:57:28.029Z</time>
      </trkpt>
      <trkpt lat="48.7242" lon="2.4688">
        <ele>86</ele>
        <time>2022-09-25T12:57:33.034Z</time>
      </trkpt>
      <trkpt lat="48.72419" lon="2.46872">
        <ele>86</ele>
        <time>2022-09-25T12:57:38.029Z</time>
      </trkpt>
      <trkpt lat="48.72417" lon="2.46863">
        <ele>86</ele>
        <time>2022-09-25T12:57:43.013Z</time>
      </trkpt>
      <trkpt lat="48.72417" lon="2.46855">
        <ele>86</ele>
        <time>2022-09-25T12:57:48.026Z</time>
      </trkpt>
      <trkpt lat="48.72416" lon="2.46845">
        <ele>86</ele>
        <time>2022-09-25T12:57:53.010Z</time>
      </trkpt>
      <trkpt lat="48.72416" lon="2.46836">
        <ele>86</ele>
        <time>2022-09-25T12:57:57.031Z</time>
      </trkpt>
      <trkpt lat="48.72415" lon="2.46826">
        <ele>86</ele>
        <time>2022-09-25T12:58:02.031Z</time>
      </trkpt>
      <trkpt lat="48.72415" lon="2.46814">
        <ele>85</ele>
        <time>2022-09-25T12:58:07.049Z</time>
      </trkpt>
      <trkpt lat="48.72413" lon="2.46807">
        <ele>85</ele>
        <time>2022-09-25T12:58:12.016Z</time>
      </trkpt>
      <trkpt lat="48.72412" lon="2.46799">
        <ele>85</ele>
        <time>2022-09-25T12:58:17.012Z</time>
      </trkpt>
      <trkpt lat="48.72412" lon="2.46789">
        <ele>85</ele>
        <time>2022-09-25T12:58:22.012Z</time>
      </trkpt>
      <trkpt lat="48.72411" lon="2.46781">
        <ele>85</ele>
        <time>2022-09-25T12:58:26.012Z</time>
      </trkpt>
      <trkpt lat="48.7241" lon="2.46773">
        <ele>85</ele>
        <time>2022-09-25T12:58:30.020Z</time>
      </trkpt>
      <trkpt lat="48.72408" lon="2.46763">
        <ele>85</ele>
        <time>2022-09-25T12:58:35.010Z</time>
      </trkpt>
      <trkpt lat="48.72408" lon="2.46755">
        <ele>85</ele>
        <time>2022-09-25T12:58:39.017Z</time>
      </trkpt>
      <trkpt lat="48.72407" lon="2.46746">
        <ele>85</ele>
        <time>2022-09-25T12:58:44.034Z</time>
      </trkpt>
      <trkpt lat="48.72406" lon="2.46737">
        <ele>85</ele>
        <time>2022-09-25T12:58:49.026Z</time>
      </trkpt>
      <trkpt lat="48.72406" lon="2.46727">
        <ele>84</ele>
        <time>2022-09-25T12:58:54.005Z</time>
      </trkpt>
      <trkpt lat="48.72406" lon="2.46721">
        <ele>84</ele>
        <time>2022-09-25T12:58:58.035Z</time>
      </trkpt>
      <trkpt lat="48.72406" lon="2.46711">
        <ele>84</ele>
        <time>2022-09-25T12:59:03.009Z</time>
      </trkpt>
      <trkpt lat="48.72405" lon="2.46701">
        <ele>83</ele>
        <time>2022-09-25T12:59:08.009Z</time>
      </trkpt>
      <trkpt lat="48.72405" lon="2.46692">
        <ele>83</ele>
        <time>2022-09-25T12:59:13.018Z</time>
      </trkpt>
      <trkpt lat="48.72404" lon="2.46685">
        <ele>83</ele>
        <time>2022-09-25T12:59:17.024Z</time>
      </trkpt>
      <trkpt lat="48.72403" lon="2.46675">
        <ele>84</ele>
        <time>2022-09-25T12:59:22.029Z</time>
      </trkpt>
      <trkpt lat="48.72403" lon="2.46666">
        <ele>84</ele>
        <time>2022-09-25T12:59:27.010Z</time>
      </trkpt>
      <trkpt lat="48.72403" lon="2.46656">
        <ele>84</ele>
        <time>2022-09-25T12:59:32.012Z</time>
      </trkpt>
      <trkpt lat="48.72402" lon="2.46647">
        <ele>84</ele>
        <time>2022-09-25T12:59:36.039Z</time>
      </trkpt>
      <trkpt lat="48.72402" lon="2.46638">
        <ele>84</ele>
        <time>2022-09-25T12:59:41.015Z</time>
      </trkpt>
      <trkpt lat="48.72401" lon="2.46629">
        <ele>84</ele>
        <time>2022-09-25T12:59:46.028Z</time>
      </trkpt>
      <trkpt lat="48.72401" lon="2.46622">
        <ele>84</ele>
        <time>2022-09-25T12:59:50.033Z</time>
      </trkpt>
      <trkpt lat="48.72401" lon="2.46614">
        <ele>84</ele>
        <time>2022-09-25T12:59:55.018Z</time>
      </trkpt>
      <trkpt lat="48.72401" lon="2.46607">
        <ele>84</ele>
        <time>2022-09-25T12:59:59.030Z</time>
      </trkpt>
      <trkpt lat="48.724" lon="2.46596">
        <ele>83</ele>
        <time>2022-09-25T13:00:04.017Z</time>
      </trkpt>
      <trkpt lat="48.72399" lon="2.46585">
        <ele>83</ele>
        <time>2022-09-25T13:00:09.023Z</time>
      </trkpt>
      <trkpt lat="48.72399" lon="2.46575">
        <ele>83</ele>
        <time>2022-09-25T13:00:14.022Z</time>
      </trkpt>
      <trkpt lat="48.72397" lon="2.46567">
        <ele>83</ele>
        <time>2022-09-25T13:00:19.016Z</time>
      </trkpt>
      <trkpt lat="48.72396" lon="2.4656">
        <ele>83</ele>
        <time>2022-09-25T13:00:23.016Z</time>
      </trkpt>
      <trkpt lat="48.72397" lon="2.46551">
        <ele>83</ele>
        <time>2022-09-25T13:00:28.020Z</time>
      </trkpt>
      <trkpt lat="48.72396" lon="2.46542">
        <ele>83</ele>
        <time>2022-09-25T13:00:32.027Z</time>
      </trkpt>
      <trkpt lat="48.72396" lon="2.46533">
        <ele>83</ele>
        <time>2022-09-25T13:00:37.012Z</time>
      </trkpt>
      <trkpt lat="48.72395" lon="2.46523">
        <ele>83</ele>
        <time>2022-09-25T13:00:42.013Z</time>
      </trkpt>
      <trkpt lat="48.72394" lon="2.46516">
        <ele>83</ele>
        <time>2022-09-25T13:00:46.016Z</time>
      </trkpt>
      <trkpt lat="48.72394" lon="2.46506">
        <ele>84</ele>
        <time>2022-09-25T13:00:51.008Z</time>
      </trkpt>
      <trkpt lat="48.72394" lon="2.46495">
        <ele>84</ele>
        <time>2022-09-25T13:00:55.991Z</time>
      </trkpt>
      <trkpt lat="48.72394" lon="2.46488">
        <ele>84</ele>
        <time>2022-09-25T13:01:00.005Z</time>
      </trkpt>
      <trkpt lat="48.72395" lon="2.4648">
        <ele>84</ele>
        <time>2022-09-25T13:01:04.006Z</time>
      </trkpt>
      <trkpt lat="48.72394" lon="2.46472">
        <ele>84</ele>
        <time>2022-09-25T13:01:08.995Z</time>
      </trkpt>
      <trkpt lat="48.72393" lon="2.46463">
        <ele>84</ele>
        <time>2022-09-25T13:01:14Z</time>
      </trkpt>
      <trkpt lat="48.72392" lon="2.46454">
        <ele>84</ele>
        <time>2022-09-25T13:01:19.003Z</time>
      </trkpt>
      <trkpt lat="48.7239" lon="2.46444">
        <ele>84</ele>
        <time>2022-09-25T13:01:23.989Z</time>
      </trkpt>
      <trkpt lat="48.72389" lon="2.46435">
        <ele>84</ele>
        <time>2022-09-25T13:01:28.012Z</time>
      </trkpt>
      <trkpt lat="48.72388" lon="2.46424">
        <ele>84</ele>
        <time>2022-09-25T13:01:33.001Z</time>
      </trkpt>
      <trkpt lat="48.72388" lon="2.46416">
        <ele>84</ele>
        <time>2022-09-25T13:01:37.993Z</time>
      </trkpt>
      <trkpt lat="48.72387" lon="2.46407">
        <ele>84</ele>
        <time>2022-09-25T13:01:43.012Z</time>
      </trkpt>
      <trkpt lat="48.72386" lon="2.46397">
        <ele>85</ele>
        <time>2022-09-25T13:01:47.993Z</time>
      </trkpt>
      <trkpt lat="48.72385" lon="2.46389">
        <ele>85</ele>
        <time>2022-09-25T13:01:52.003Z</time>
      </trkpt>
      <trkpt lat="48.72386" lon="2.46382">
        <ele>85</ele>
        <time>2022-09-25T13:01:56.010Z</time>
      </trkpt>
      <trkpt lat="48.72386" lon="2.46373">
        <ele>84</ele>
        <time>2022-09-25T13:02:00.987Z</time>
      </trkpt>
      <trkpt lat="48.72386" lon="2.46364">
        <ele>84</ele>
        <time>2022-09-25T13:02:05.997Z</time>
      </trkpt>
      <trkpt lat="48.72387" lon="2.46358">
        <ele>84</ele>
        <time>2022-09-25T13:02:10.040Z</time>
      </trkpt>
      <trkpt lat="48.72389" lon="2.46349">
        <ele>84</ele>
        <time>2022-09-25T13:02:15.038Z</time>
      </trkpt>
      <trkpt lat="48.72388" lon="2.4634">
        <ele>83</ele>
        <time>2022-09-25T13:02:20.010Z</time>
      </trkpt>
      <trkpt lat="48.72385" lon="2.46335">
        <ele>83</ele>
        <time>2022-09-25T13:02:24.017Z</time>
      </trkpt>
      <trkpt lat="48.7238" lon="2.46329">
        <ele>83</ele>
        <time>2022-09-25T13:02:29.012Z</time>
      </trkpt>
      <trkpt lat="48.72375" lon="2.46327">
        <ele>84</ele>
        <time>2022-09-25T13:02:33.021Z</time>
      </trkpt>
      <trkpt lat="48.7237" lon="2.46329">
        <ele>84</ele>
        <time>2022-09-25T13:02:37.032Z</time>
      </trkpt>
      <trkpt lat="48.72364" lon="2.46331">
        <ele>84</ele>
        <time>2022-09-25T13:02:42.019Z</time>
      </trkpt>
      <trkpt lat="48.72359" lon="2.46329">
        <ele>84</ele>
        <time>2022-09-25T13:02:47.007Z</time>
      </trkpt>
      <trkpt lat="48.72355" lon="2.46333">
        <ele>84</ele>
        <time>2022-09-25T13:02:51.036Z</time>
      </trkpt>
      <trkpt lat="48.72349" lon="2.46341">
        <ele>84</ele>
        <time>2022-09-25T13:02:56.028Z</time>
      </trkpt>
      <trkpt lat="48.72345" lon="2.46348">
        <ele>84</ele>
        <time>2022-09-25T13:03:00.996Z</time>
      </trkpt>
      <trkpt lat="48.72342" lon="2.46355">
        <ele>84</ele>
        <time>2022-09-25T13:03:05.015Z</time>
      </trkpt>
      <trkpt lat="48.72339" lon="2.46362">
        <ele>84</ele>
        <time>2022-09-25T13:03:09.031Z</time>
      </trkpt>
      <trkpt lat="48.72337" lon="2.4637">
        <ele>84</ele>
        <time>2022-09-25T13:03:14.024Z</time>
      </trkpt>
      <trkpt lat="48.72334" lon="2.46377">
        <ele>84</ele>
        <time>2022-09-25T13:03:19.025Z</time>
      </trkpt>
      <trkpt lat="48.7233" lon="2.46378">
        <ele>84</ele>
        <time>2022-09-25T13:03:23.035Z</time>
      </trkpt>
      <trkpt lat="48.72325" lon="2.46378">
        <ele>84</ele>
        <time>2022-09-25T13:03:28.042Z</time>
      </trkpt>
      <trkpt lat="48.7232" lon="2.46376">
        <ele>84</ele>
        <time>2022-09-25T13:03:33.016Z</time>
      </trkpt>
      <trkpt lat="48.72315" lon="2.46376">
        <ele>82</ele>
        <time>2022-09-25T13:03:37.037Z</time>
      </trkpt>
      <trkpt lat="48.72309" lon="2.4638">
        <ele>82</ele>
        <time>2022-09-25T13:03:42.023Z</time>
      </trkpt>
      <trkpt lat="48.72305" lon="2.46387">
        <ele>82</ele>
        <time>2022-09-25T13:03:46.046Z</time>
      </trkpt>
      <trkpt lat="48.723" lon="2.46395">
        <ele>82</ele>
        <time>2022-09-25T13:03:51.028Z</time>
      </trkpt>
      <trkpt lat="48.72295" lon="2.46402">
        <ele>82</ele>
        <time>2022-09-25T13:03:56.028Z</time>
      </trkpt>
      <trkpt lat="48.7229" lon="2.46406">
        <ele>81</ele>
        <time>2022-09-25T13:04:00.041Z</time>
      </trkpt>
      <trkpt lat="48.72284" lon="2.46411">
        <ele>81</ele>
        <time>2022-09-25T13:04:05.013Z</time>
      </trkpt>
      <trkpt lat="48.72279" lon="2.46412">
        <ele>81</ele>
        <time>2022-09-25T13:04:09.024Z</time>
      </trkpt>
      <trkpt lat="48.72272" lon="2.46414">
        <ele>81</ele>
        <time>2022-09-25T13:04:14.014Z</time>
      </trkpt>
      <trkpt lat="48.72267" lon="2.46416">
        <ele>81</ele>
        <time>2022-09-25T13:04:18.026Z</time>
      </trkpt>
      <trkpt lat="48.7226" lon="2.46418">
        <ele>82</ele>
        <time>2022-09-25T13:04:23.016Z</time>
      </trkpt>
      <trkpt lat="48.72254" lon="2.4642">
        <ele>82</ele>
        <time>2022-09-25T13:04:28.018Z</time>
      </trkpt>
      <trkpt lat="48.72248" lon="2.46422">
        <ele>82</ele>
        <time>2022-09-25T13:04:32.026Z</time>
      </trkpt>
      <trkpt lat="48.72243" lon="2.46424">
        <ele>82</ele>
        <time>2022-09-25T13:04:36.020Z</time>
      </trkpt>
      <trkpt lat="48.72239" lon="2.46424">
        <ele>82</ele>
        <time>2022-09-25T13:04:40.035Z</time>
      </trkpt>
      <trkpt lat="48.72232" lon="2.46425">
        <ele>83</ele>
        <time>2022-09-25T13:04:45.008Z</time>
      </trkpt>
      <trkpt lat="48.72228" lon="2.46425">
        <ele>83</ele>
        <time>2022-09-25T13:04:49.031Z</time>
      </trkpt>
      <trkpt lat="48.72224" lon="2.46424">
        <ele>83</ele>
        <time>2022-09-25T13:04:54.027Z</time>
      </trkpt>
      <trkpt lat="48.72218" lon="2.46422">
        <ele>83</ele>
        <time>2022-09-25T13:04:59.024Z</time>
      </trkpt>
      <trkpt lat="48.72212" lon="2.46421">
        <ele>83</ele>
        <time>2022-09-25T13:05:04.041Z</time>
      </trkpt>
      <trkpt lat="48.72204" lon="2.46422">
        <ele>84</ele>
        <time>2022-09-25T13:05:08.985Z</time>
      </trkpt>
      <trkpt lat="48.72201" lon="2.46422">
        <ele>84</ele>
        <time>2022-09-25T13:05:13.992Z</time>
      </trkpt>
      <trkpt lat="48.72193" lon="2.46422">
        <ele>84</ele>
        <time>2022-09-25T13:05:18.986Z</time>
      </trkpt>
      <trkpt lat="48.72186" lon="2.46419">
        <ele>84</ele>
        <time>2022-09-25T13:05:24.010Z</time>
      </trkpt>
      <trkpt lat="48.7218" lon="2.46414">
        <ele>84</ele>
        <time>2022-09-25T13:05:29.001Z</time>
      </trkpt>
      <trkpt lat="48.72179" lon="2.46409">
        <ele>84</ele>
        <time>2022-09-25T13:05:33.986Z</time>
      </trkpt>
      <trkpt lat="48.72175" lon="2.46409">
        <ele>84</ele>
        <time>2022-09-25T13:05:37.989Z</time>
      </trkpt>
      <trkpt lat="48.72169" lon="2.46409">
        <ele>84</ele>
        <time>2022-09-25T13:05:42.994Z</time>
      </trkpt>
      <trkpt lat="48.72165" lon="2.46406">
        <ele>84</ele>
        <time>2022-09-25T13:05:46.999Z</time>
      </trkpt>
      <trkpt lat="48.7216" lon="2.46406">
        <ele>84</ele>
        <time>2022-09-25T13:05:51.986Z</time>
      </trkpt>
      <trkpt lat="48.72157" lon="2.46408">
        <ele>84</ele>
        <time>2022-09-25T13:05:56.031Z</time>
      </trkpt>
      <trkpt lat="48.7216" lon="2.46405">
        <ele>84</ele>
        <time>2022-09-25T13:06:01.003Z</time>
      </trkpt>
      <trkpt lat="48.72162" lon="2.46397">
        <ele>85</ele>
        <time>2022-09-25T13:06:05.985Z</time>
      </trkpt>
      <trkpt lat="48.72162" lon="2.46385">
        <ele>85</ele>
        <time>2022-09-25T13:06:11.007Z</time>
      </trkpt>
      <trkpt lat="48.72161" lon="2.46375">
        <ele>85</ele>
        <time>2022-09-25T13:06:16.015Z</time>
      </trkpt>
      <trkpt lat="48.72159" lon="2.46366">
        <ele>85</ele>
        <time>2022-09-25T13:06:20.980Z</time>
      </trkpt>
      <trkpt lat="48.7216" lon="2.4636">
        <ele>85</ele>
        <time>2022-09-25T13:06:25.032Z</time>
      </trkpt>
      <trkpt lat="48.72163" lon="2.4635">
        <ele>85</ele>
        <time>2022-09-25T13:06:30.014Z</time>
      </trkpt>
      <trkpt lat="48.72165" lon="2.46343">
        <ele>84</ele>
        <time>2022-09-25T13:06:35.018Z</time>
      </trkpt>
      <trkpt lat="48.72167" lon="2.46335">
        <ele>84</ele>
        <time>2022-09-25T13:06:39.048Z</time>
      </trkpt>
      <trkpt lat="48.72169" lon="2.46326">
        <ele>84</ele>
        <time>2022-09-25T13:06:44.047Z</time>
      </trkpt>
      <trkpt lat="48.72169" lon="2.46316">
        <ele>82</ele>
        <time>2022-09-25T13:06:49.016Z</time>
      </trkpt>
      <trkpt lat="48.7217" lon="2.46308">
        <ele>82</ele>
        <time>2022-09-25T13:06:53.023Z</time>
      </trkpt>
      <trkpt lat="48.72172" lon="2.46299">
        <ele>82</ele>
        <time>2022-09-25T13:06:57.997Z</time>
      </trkpt>
      <trkpt lat="48.72174" lon="2.46292">
        <ele>82</ele>
        <time>2022-09-25T13:07:02.014Z</time>
      </trkpt>
      <trkpt lat="48.72177" lon="2.46283">
        <ele>78</ele>
        <time>2022-09-25T13:07:07.028Z</time>
      </trkpt>
      <trkpt lat="48.72179" lon="2.46274">
        <ele>78</ele>
        <time>2022-09-25T13:07:12.022Z</time>
      </trkpt>
      <trkpt lat="48.72181" lon="2.46265">
        <ele>79</ele>
        <time>2022-09-25T13:07:17.038Z</time>
      </trkpt>
      <trkpt lat="48.72184" lon="2.46255">
        <ele>77</ele>
        <time>2022-09-25T13:07:22.016Z</time>
      </trkpt>
      <trkpt lat="48.72186" lon="2.46245">
        <ele>77</ele>
        <time>2022-09-25T13:07:27.026Z</time>
      </trkpt>
      <trkpt lat="48.72186" lon="2.46236">
        <ele>76</ele>
        <time>2022-09-25T13:07:32.042Z</time>
      </trkpt>
      <trkpt lat="48.72185" lon="2.46223">
        <ele>76</ele>
        <time>2022-09-25T13:07:37.036Z</time>
      </trkpt>
      <trkpt lat="48.72183" lon="2.46212">
        <ele>76</ele>
        <time>2022-09-25T13:07:42.024Z</time>
      </trkpt>
      <trkpt lat="48.7218" lon="2.46204">
        <ele>74</ele>
        <time>2022-09-25T13:07:46.047Z</time>
      </trkpt>
      <trkpt lat="48.72175" lon="2.46197">
        <ele>74</ele>
        <time>2022-09-25T13:07:51.036Z</time>
      </trkpt>
      <trkpt lat="48.72169" lon="2.46192">
        <ele>74</ele>
        <time>2022-09-25T13:07:56.039Z</time>
      </trkpt>
      <trkpt lat="48.72164" lon="2.46185">
        <ele>74</ele>
        <time>2022-09-25T13:08:01.030Z</time>
      </trkpt>
      <trkpt lat="48.72161" lon="2.46178">
        <ele>72</ele>
        <time>2022-09-25T13:08:05.047Z</time>
      </trkpt>
      <trkpt lat="48.72159" lon="2.46173">
        <ele>72</ele>
        <time>2022-09-25T13:08:10.015Z</time>
      </trkpt>
      <trkpt lat="48.72159" lon="2.46167">
        <ele>72</ele>
        <time>2022-09-25T13:08:15.002Z</time>
      </trkpt>
      <trkpt lat="48.72155" lon="2.4616">
        <ele>72</ele>
        <time>2022-09-25T13:08:20.015Z</time>
      </trkpt>
      <trkpt lat="48.7215" lon="2.46155">
        <ele>69</ele>
        <time>2022-09-25T13:08:25.018Z</time>
      </trkpt>
      <trkpt lat="48.72144" lon="2.4615">
        <ele>67</ele>
        <time>2022-09-25T13:08:30.013Z</time>
      </trkpt>
      <trkpt lat="48.72138" lon="2.46146">
        <ele>67</ele>
        <time>2022-09-25T13:08:35.022Z</time>
      </trkpt>
      <trkpt lat="48.72131" lon="2.46142">
        <ele>67</ele>
        <time>2022-09-25T13:08:40.034Z</time>
      </trkpt>
      <trkpt lat="48.72122" lon="2.46139">
        <ele>63</ele>
        <time>2022-09-25T13:08:45.016Z</time>
      </trkpt>
      <trkpt lat="48.7212" lon="2.4614">
        <ele>63</ele>
        <time>2022-09-25T13:08:49.032Z</time>
      </trkpt>
      <trkpt lat="48.72118" lon="2.4614">
        <ele>63</ele>
        <time>2022-09-25T13:08:54.024Z</time>
      </trkpt>
      <trkpt lat="48.72114" lon="2.46145">
        <ele>63</ele>
        <time>2022-09-25T13:08:58.036Z</time>
      </trkpt>
      <trkpt lat="48.72109" lon="2.46153">
        <ele>63</ele>
        <time>2022-09-25T13:09:02.040Z</time>
      </trkpt>
      <trkpt lat="48.72104" lon="2.4616">
        <ele>65</ele>
        <time>2022-09-25T13:09:07.011Z</time>
      </trkpt>
      <trkpt lat="48.721" lon="2.46166">
        <ele>65</ele>
        <time>2022-09-25T13:09:11.043Z</time>
      </trkpt>
      <trkpt lat="48.72095" lon="2.4617">
        <ele>63</ele>
        <time>2022-09-25T13:09:16.025Z</time>
      </trkpt>
      <trkpt lat="48.7209" lon="2.46172">
        <ele>63</ele>
        <time>2022-09-25T13:09:21.006Z</time>
      </trkpt>
      <trkpt lat="48.72084" lon="2.46174">
        <ele>63</ele>
        <time>2022-09-25T13:09:25.026Z</time>
      </trkpt>
      <trkpt lat="48.72077" lon="2.46177">
        <ele>63</ele>
        <time>2022-09-25T13:09:30.021Z</time>
      </trkpt>
      <trkpt lat="48.7207" lon="2.46179">
        <ele>63</ele>
        <time>2022-09-25T13:09:35.025Z</time>
      </trkpt>
      <trkpt lat="48.72065" lon="2.46183">
        <ele>61</ele>
        <time>2022-09-25T13:09:39.023Z</time>
      </trkpt>
      <trkpt lat="48.7206" lon="2.46189">
        <ele>61</ele>
        <time>2022-09-25T13:09:44.020Z</time>
      </trkpt>
      <trkpt lat="48.72055" lon="2.46195">
        <ele>61</ele>
        <time>2022-09-25T13:09:49.003Z</time>
      </trkpt>
      <trkpt lat="48.72051" lon="2.462">
        <ele>61</ele>
        <time>2022-09-25T13:09:54.011Z</time>
      </trkpt>
      <trkpt lat="48.72046" lon="2.46204">
        <ele>61</ele>
        <time>2022-09-25T13:09:58.035Z</time>
      </trkpt>
      <trkpt lat="48.72041" lon="2.46209">
        <ele>61</ele>
        <time>2022-09-25T13:10:03.017Z</time>
      </trkpt>
      <trkpt lat="48.72036" lon="2.46214">
        <ele>61</ele>
        <time>2022-09-25T13:10:07.028Z</time>
      </trkpt>
      <trkpt lat="48.7203" lon="2.4622">
        <ele>61</ele>
        <time>2022-09-25T13:10:12.029Z</time>
      </trkpt>
      <trkpt lat="48.72025" lon="2.46226">
        <ele>61</ele>
        <time>2022-09-25T13:10:17.022Z</time>
      </trkpt>
      <trkpt lat="48.72022" lon="2.46233">
        <ele>61</ele>
        <time>2022-09-25T13:10:21.032Z</time>
      </trkpt>
      <trkpt lat="48.72017" lon="2.4624">
        <ele>63</ele>
        <time>2022-09-25T13:10:26.027Z</time>
      </trkpt>
      <trkpt lat="48.72013" lon="2.46247">
        <ele>63</ele>
        <time>2022-09-25T13:10:31.038Z</time>
      </trkpt>
      <trkpt lat="48.7201" lon="2.46254">
        <ele>63</ele>
        <time>2022-09-25T13:10:36.027Z</time>
      </trkpt>
      <trkpt lat="48.72005" lon="2.46261">
        <ele>63</ele>
        <time>2022-09-25T13:10:41.006Z</time>
      </trkpt>
      <trkpt lat="48.72001" lon="2.46263">
        <ele>63</ele>
        <time>2022-09-25T13:10:46.014Z</time>
      </trkpt>
      <trkpt lat="48.71995" lon="2.46261">
        <ele>63</ele>
        <time>2022-09-25T13:10:51.030Z</time>
      </trkpt>
      <trkpt lat="48.71989" lon="2.46258">
        <ele>63</ele>
        <time>2022-09-25T13:10:56.004Z</time>
      </trkpt>
      <trkpt lat="48.71984" lon="2.46257">
        <ele>62</ele>
        <time>2022-09-25T13:11:00.049Z</time>
      </trkpt>
      <trkpt lat="48.71977" lon="2.46255">
        <ele>62</ele>
        <time>2022-09-25T13:11:05.038Z</time>
      </trkpt>
      <trkpt lat="48.7197" lon="2.46252">
        <ele>62</ele>
        <time>2022-09-25T13:11:10.018Z</time>
      </trkpt>
      <trkpt lat="48.71966" lon="2.46249">
        <ele>62</ele>
        <time>2022-09-25T13:11:15.007Z</time>
      </trkpt>
      <trkpt lat="48.7196" lon="2.46244">
        <ele>62</ele>
        <time>2022-09-25T13:11:20.002Z</time>
      </trkpt>
      <trkpt lat="48.71956" lon="2.46239">
        <ele>59</ele>
        <time>2022-09-25T13:11:24.018Z</time>
      </trkpt>
      <trkpt lat="48.71951" lon="2.46233">
        <ele>57</ele>
        <time>2022-09-25T13:11:29.011Z</time>
      </trkpt>
      <trkpt lat="48.71947" lon="2.4623">
        <ele>57</ele>
        <time>2022-09-25T13:11:33.007Z</time>
      </trkpt>
      <trkpt lat="48.71942" lon="2.46227">
        <ele>57</ele>
        <time>2022-09-25T13:11:37.034Z</time>
      </trkpt>
      <trkpt lat="48.71935" lon="2.46221">
        <ele>57</ele>
        <time>2022-09-25T13:11:42.031Z</time>
      </trkpt>
      <trkpt lat="48.71931" lon="2.46216">
        <ele>57</ele>
        <time>2022-09-25T13:11:47.042Z</time>
      </trkpt>
      <trkpt lat="48.71924" lon="2.46211">
        <ele>57</ele>
        <time>2022-09-25T13:11:52.029Z</time>
      </trkpt>
      <trkpt lat="48.7192" lon="2.46207">
        <ele>55</ele>
        <time>2022-09-25T13:11:56.041Z</time>
      </trkpt>
      <trkpt lat="48.71915" lon="2.46203">
        <ele>55</ele>
        <time>2022-09-25T13:12:01.040Z</time>
      </trkpt>
      <trkpt lat="48.71909" lon="2.46197">
        <ele>55</ele>
        <time>2022-09-25T13:12:05.989Z</time>
      </trkpt>
      <trkpt lat="48.71905" lon="2.46194">
        <ele>55</ele>
        <time>2022-09-25T13:12:10.015Z</time>
      </trkpt>
      <trkpt lat="48.71898" lon="2.46188">
        <ele>55</ele>
        <time>2022-09-25T13:12:15.018Z</time>
      </trkpt>
      <trkpt lat="48.71892" lon="2.46184">
        <ele>55</ele>
        <time>2022-09-25T13:12:20.029Z</time>
      </trkpt>
      <trkpt lat="48.71887" lon="2.46179">
        <ele>53</ele>
        <time>2022-09-25T13:12:24.022Z</time>
      </trkpt>
      <trkpt lat="48.7188" lon="2.46174">
        <ele>53</ele>
        <time>2022-09-25T13:12:29.008Z</time>
      </trkpt>
      <trkpt lat="48.71876" lon="2.4617">
        <ele>53</ele>
        <time>2022-09-25T13:12:33.047Z</time>
      </trkpt>
      <trkpt lat="48.7187" lon="2.46165">
        <ele>51</ele>
        <time>2022-09-25T13:12:38.028Z</time>
      </trkpt>
      <trkpt lat="48.71864" lon="2.46159">
        <ele>51</ele>
        <time>2022-09-25T13:12:43.038Z</time>
      </trkpt>
      <trkpt lat="48.71858" lon="2.46154">
        <ele>51</ele>
        <time>2022-09-25T13:12:48.007Z</time>
      </trkpt>
      <trkpt lat="48.71852" lon="2.46149">
        <ele>50</ele>
        <time>2022-09-25T13:12:52.018Z</time>
      </trkpt>
      <trkpt lat="48.71847" lon="2.46144">
        <ele>48</ele>
        <time>2022-09-25T13:12:56.039Z</time>
      </trkpt>
      <trkpt lat="48.71841" lon="2.46139">
        <ele>48</ele>
        <time>2022-09-25T13:13:01.024Z</time>
      </trkpt>
      <trkpt lat="48.71835" lon="2.46134">
        <ele>48</ele>
        <time>2022-09-25T13:13:06.030Z</time>
      </trkpt>
      <trkpt lat="48.71827" lon="2.46133">
        <ele>48</ele>
        <time>2022-09-25T13:13:11.019Z</time>
      </trkpt>
      <trkpt lat="48.71822" lon="2.46139">
        <ele>48</ele>
        <time>2022-09-25T13:13:15.015Z</time>
      </trkpt>
      <trkpt lat="48.71819" lon="2.46146">
        <ele>47</ele>
        <time>2022-09-25T13:13:19.029Z</time>
      </trkpt>
      <trkpt lat="48.71815" lon="2.46154">
        <ele>48</ele>
        <time>2022-09-25T13:13:24.041Z</time>
      </trkpt>
      <trkpt lat="48.7181" lon="2.46164">
        <ele>48</ele>
        <time>2022-09-25T13:13:29.027Z</time>
      </trkpt>
      <trkpt lat="48.71806" lon="2.4617">
        <ele>48</ele>
        <time>2022-09-25T13:13:34.020Z</time>
      </trkpt>
      <trkpt lat="48.71801" lon="2.46177">
        <ele>48</ele>
        <time>2022-09-25T13:13:39.018Z</time>
      </trkpt>
      <trkpt lat="48.71795" lon="2.46185">
        <ele>48</ele>
        <time>2022-09-25T13:13:44.023Z</time>
      </trkpt>
      <trkpt lat="48.71791" lon="2.4619">
        <ele>48</ele>
        <time>2022-09-25T13:13:49.032Z</time>
      </trkpt>
      <trkpt lat="48.71784" lon="2.46195">
        <ele>48</ele>
        <time>2022-09-25T13:13:53.999Z</time>
      </trkpt>
      <trkpt lat="48.71779" lon="2.462">
        <ele>48</ele>
        <time>2022-09-25T13:13:58.029Z</time>
      </trkpt>
      <trkpt lat="48.71774" lon="2.46206">
        <ele>48</ele>
        <time>2022-09-25T13:14:03.010Z</time>
      </trkpt>
      <trkpt lat="48.7177" lon="2.46212">
        <ele>48</ele>
        <time>2022-09-25T13:14:07.026Z</time>
      </trkpt>
      <trkpt lat="48.71763" lon="2.46217">
        <ele>48</ele>
        <time>2022-09-25T13:14:12.033Z</time>
      </trkpt>
      <trkpt lat="48.71757" lon="2.46222">
        <ele>48</ele>
        <time>2022-09-25T13:14:17.026Z</time>
      </trkpt>
      <trkpt lat="48.71751" lon="2.46225">
        <ele>48</ele>
        <time>2022-09-25T13:14:22.026Z</time>
      </trkpt>
      <trkpt lat="48.71746" lon="2.4623">
        <ele>48</ele>
        <time>2022-09-25T13:14:27.003Z</time>
      </trkpt>
      <trkpt lat="48.71741" lon="2.46234">
        <ele>48</ele>
        <time>2022-09-25T13:14:31.011Z</time>
      </trkpt>
      <trkpt lat="48.71737" lon="2.46237">
        <ele>48</ele>
        <time>2022-09-25T13:14:35.026Z</time>
      </trkpt>
      <trkpt lat="48.71731" lon="2.46243">
        <ele>47</ele>
        <time>2022-09-25T13:14:40.011Z</time>
      </trkpt>
      <trkpt lat="48.71727" lon="2.4625">
        <ele>47</ele>
        <time>2022-09-25T13:14:44.022Z</time>
      </trkpt>
      <trkpt lat="48.71722" lon="2.46259">
        <ele>47</ele>
        <time>2022-09-25T13:14:49.028Z</time>
      </trkpt>
      <trkpt lat="48.71717" lon="2.46267">
        <ele>47</ele>
        <time>2022-09-25T13:14:54.018Z</time>
      </trkpt>
      <trkpt lat="48.71713" lon="2.46277">
        <ele>47</ele>
        <time>2022-09-25T13:14:59.031Z</time>
      </trkpt>
      <trkpt lat="48.71708" lon="2.46286">
        <ele>47</ele>
        <time>2022-09-25T13:15:04.041Z</time>
      </trkpt>
      <trkpt lat="48.71704" lon="2.46292">
        <ele>47</ele>
        <time>2022-09-25T13:15:09.012Z</time>
      </trkpt>
      <trkpt lat="48.71702" lon="2.46295">
        <ele>48</ele>
        <time>2022-09-25T13:15:13.037Z</time>
      </trkpt>
      <trkpt lat="48.71698" lon="2.463">
        <ele>48</ele>
        <time>2022-09-25T13:15:18.025Z</time>
      </trkpt>
      <trkpt lat="48.71691" lon="2.46297">
        <ele>48</ele>
        <time>2022-09-25T13:15:23.033Z</time>
      </trkpt>
      <trkpt lat="48.71687" lon="2.46292">
        <ele>48</ele>
        <time>2022-09-25T13:15:28.024Z</time>
      </trkpt>
      <trkpt lat="48.71683" lon="2.46285">
        <ele>47</ele>
        <time>2022-09-25T13:15:32.035Z</time>
      </trkpt>
      <trkpt lat="48.71678" lon="2.46279">
        <ele>45</ele>
        <time>2022-09-25T13:15:37.033Z</time>
      </trkpt>
      <trkpt lat="48.71674" lon="2.46272">
        <ele>45</ele>
        <time>2022-09-25T13:15:42.036Z</time>
      </trkpt>
      <trkpt lat="48.71668" lon="2.46275">
        <ele>45</ele>
        <time>2022-09-25T13:15:47.024Z</time>
      </trkpt>
      <trkpt lat="48.71661" lon="2.46282">
        <ele>45</ele>
        <time>2022-09-25T13:15:52.027Z</time>
      </trkpt>
      <trkpt lat="48.71658" lon="2.46286">
        <ele>45</ele>
        <time>2022-09-25T13:15:56.019Z</time>
      </trkpt>
      <trkpt lat="48.71652" lon="2.46295">
        <ele>45</ele>
        <time>2022-09-25T13:16:01.034Z</time>
      </trkpt>
      <trkpt lat="48.71648" lon="2.46301">
        <ele>45</ele>
        <time>2022-09-25T13:16:05.051Z</time>
      </trkpt>
      <trkpt lat="48.71643" lon="2.46307">
        <ele>45</ele>
        <time>2022-09-25T13:16:10.026Z</time>
      </trkpt>
      <trkpt lat="48.71639" lon="2.46313">
        <ele>45</ele>
        <time>2022-09-25T13:16:15.014Z</time>
      </trkpt>
      <trkpt lat="48.71635" lon="2.46319">
        <ele>45</ele>
        <time>2022-09-25T13:16:19.030Z</time>
      </trkpt>
      <trkpt lat="48.7163" lon="2.46326">
        <ele>46</ele>
        <time>2022-09-25T13:16:24.046Z</time>
      </trkpt>
      <trkpt lat="48.71624" lon="2.46335">
        <ele>45</ele>
        <time>2022-09-25T13:16:29.022Z</time>
      </trkpt>
      <trkpt lat="48.71619" lon="2.46341">
        <ele>45</ele>
        <time>2022-09-25T13:16:34.026Z</time>
      </trkpt>
      <trkpt lat="48.71615" lon="2.46346">
        <ele>45</ele>
        <time>2022-09-25T13:16:38.040Z</time>
      </trkpt>
      <trkpt lat="48.71611" lon="2.46353">
        <ele>46</ele>
        <time>2022-09-25T13:16:43.017Z</time>
      </trkpt>
      <trkpt lat="48.71608" lon="2.46359">
        <ele>46</ele>
        <time>2022-09-25T13:16:47.048Z</time>
      </trkpt>
      <trkpt lat="48.71603" lon="2.46366">
        <ele>46</ele>
        <time>2022-09-25T13:16:52.053Z</time>
      </trkpt>
      <trkpt lat="48.71602" lon="2.46369">
        <ele>46</ele>
        <time>2022-09-25T13:16:56.045Z</time>
      </trkpt>
      <trkpt lat="48.716" lon="2.46374">
        <ele>46</ele>
        <time>2022-09-25T13:17:01.047Z</time>
      </trkpt>
      <trkpt lat="48.71597" lon="2.46379">
        <ele>47</ele>
        <time>2022-09-25T13:17:06.040Z</time>
      </trkpt>
      <trkpt lat="48.71593" lon="2.46385">
        <ele>45</ele>
        <time>2022-09-25T13:17:11.040Z</time>
      </trkpt>
      <trkpt lat="48.71588" lon="2.46393">
        <ele>45</ele>
        <time>2022-09-25T13:17:16.013Z</time>
      </trkpt>
      <trkpt lat="48.71584" lon="2.46398">
        <ele>45</ele>
        <time>2022-09-25T13:17:21.040Z</time>
      </trkpt>
      <trkpt lat="48.71579" lon="2.46404">
        <ele>46</ele>
        <time>2022-09-25T13:17:26.051Z</time>
      </trkpt>
      <trkpt lat="48.71575" lon="2.4641">
        <ele>46</ele>
        <time>2022-09-25T13:17:31.037Z</time>
      </trkpt>
      <trkpt lat="48.71571" lon="2.46416">
        <ele>46</ele>
        <time>2022-09-25T13:17:36.056Z</time>
      </trkpt>
      <trkpt lat="48.71566" lon="2.46422">
        <ele>45</ele>
        <time>2022-09-25T13:17:41.059Z</time>
      </trkpt>
      <trkpt lat="48.71563" lon="2.4643">
        <ele>45</ele>
        <time>2022-09-25T13:17:46.028Z</time>
      </trkpt>
      <trkpt lat="48.71566" lon="2.46437">
        <ele>46</ele>
        <time>2022-09-25T13:17:50.039Z</time>
      </trkpt>
      <trkpt lat="48.7157" lon="2.46442">
        <ele>46</ele>
        <time>2022-09-25T13:17:54.042Z</time>
      </trkpt>
      <trkpt lat="48.71574" lon="2.46449">
        <ele>46</ele>
        <time>2022-09-25T13:17:59.047Z</time>
      </trkpt>
      <trkpt lat="48.71572" lon="2.46457">
        <ele>46</ele>
        <time>2022-09-25T13:18:04.054Z</time>
      </trkpt>
      <trkpt lat="48.71568" lon="2.46465">
        <ele>47</ele>
        <time>2022-09-25T13:18:09.041Z</time>
      </trkpt>
      <trkpt lat="48.71562" lon="2.46471">
        <ele>47</ele>
        <time>2022-09-25T13:18:14.063Z</time>
      </trkpt>
      <trkpt lat="48.71557" lon="2.46478">
        <ele>47</ele>
        <time>2022-09-25T13:18:19.043Z</time>
      </trkpt>
      <trkpt lat="48.71552" lon="2.46485">
        <ele>47</ele>
        <time>2022-09-25T13:18:24.046Z</time>
      </trkpt>
      <trkpt lat="48.71547" lon="2.46491">
        <ele>47</ele>
        <time>2022-09-25T13:18:29.039Z</time>
      </trkpt>
      <trkpt lat="48.71544" lon="2.46497">
        <ele>47</ele>
        <time>2022-09-25T13:18:33.036Z</time>
      </trkpt>
      <trkpt lat="48.7154" lon="2.46503">
        <ele>46</ele>
        <time>2022-09-25T13:18:37.056Z</time>
      </trkpt>
      <trkpt lat="48.71535" lon="2.46509">
        <ele>46</ele>
        <time>2022-09-25T13:18:42.040Z</time>
      </trkpt>
      <trkpt lat="48.71531" lon="2.46516">
        <ele>46</ele>
        <time>2022-09-25T13:18:47.032Z</time>
      </trkpt>
      <trkpt lat="48.71527" lon="2.46521">
        <ele>46</ele>
        <time>2022-09-25T13:18:51.049Z</time>
      </trkpt>
      <trkpt lat="48.71523" lon="2.46529">
        <ele>46</ele>
        <time>2022-09-25T13:18:56.035Z</time>
      </trkpt>
      <trkpt lat="48.71519" lon="2.46534">
        <ele>46</ele>
        <time>2022-09-25T13:19:00.049Z</time>
      </trkpt>
      <trkpt lat="48.71514" lon="2.4654">
        <ele>45</ele>
        <time>2022-09-25T13:19:05.030Z</time>
      </trkpt>
      <trkpt lat="48.7151" lon="2.46543">
        <ele>46</ele>
        <time>2022-09-25T13:19:10.040Z</time>
      </trkpt>
      <trkpt lat="48.71508" lon="2.46546">
        <ele>46</ele>
        <time>2022-09-25T13:22:21.057Z</time>
      </trkpt>
      <trkpt lat="48.71505" lon="2.46552">
        <ele>46</ele>
        <time>2022-09-25T13:22:26.051Z</time>
      </trkpt>
      <trkpt lat="48.71503" lon="2.46559">
        <ele>46</ele>
        <time>2022-09-25T13:22:30.065Z</time>
      </trkpt>
      <trkpt lat="48.715" lon="2.46569">
        <ele>46</ele>
        <time>2022-09-25T13:22:35.046Z</time>
      </trkpt>
      <trkpt lat="48.71497" lon="2.46575">
        <ele>48</ele>
        <time>2022-09-25T13:22:39.044Z</time>
      </trkpt>
      <trkpt lat="48.71495" lon="2.46584">
        <ele>48</ele>
        <time>2022-09-25T13:22:44.042Z</time>
      </trkpt>
      <trkpt lat="48.71493" lon="2.46593">
        <ele>48</ele>
        <time>2022-09-25T13:22:49.049Z</time>
      </trkpt>
      <trkpt lat="48.71491" lon="2.46605">
        <ele>49</ele>
        <time>2022-09-25T13:22:54Z</time>
      </trkpt>
      <trkpt lat="48.71489" lon="2.46615">
        <ele>49</ele>
        <time>2022-09-25T13:22:58.992Z</time>
      </trkpt>
      <trkpt lat="48.71489" lon="2.46622">
        <ele>49</ele>
        <time>2022-09-25T13:23:03.015Z</time>
      </trkpt>
      <trkpt lat="48.7149" lon="2.46631">
        <ele>51</ele>
        <time>2022-09-25T13:23:08.007Z</time>
      </trkpt>
      <trkpt lat="48.7149" lon="2.46639">
        <ele>51</ele>
        <time>2022-09-25T13:23:12.020Z</time>
      </trkpt>
      <trkpt lat="48.71488" lon="2.46647">
        <ele>51</ele>
        <time>2022-09-25T13:23:16.022Z</time>
      </trkpt>
      <trkpt lat="48.71485" lon="2.46656">
        <ele>47</ele>
        <time>2022-09-25T13:23:21.007Z</time>
      </trkpt>
      <trkpt lat="48.71485" lon="2.46664">
        <ele>47</ele>
        <time>2022-09-25T13:23:25.025Z</time>
      </trkpt>
      <trkpt lat="48.71485" lon="2.46673">
        <ele>47</ele>
        <time>2022-09-25T13:23:29.994Z</time>
      </trkpt>
      <trkpt lat="48.71485" lon="2.46681">
        <ele>48</ele>
        <time>2022-09-25T13:23:34.026Z</time>
      </trkpt>
      <trkpt lat="48.71484" lon="2.4669">
        <ele>48</ele>
        <time>2022-09-25T13:23:39.034Z</time>
      </trkpt>
      <trkpt lat="48.71483" lon="2.46699">
        <ele>48</ele>
        <time>2022-09-25T13:23:44.020Z</time>
      </trkpt>
      <trkpt lat="48.71481" lon="2.46707">
        <ele>48</ele>
        <time>2022-09-25T13:23:48.048Z</time>
      </trkpt>
      <trkpt lat="48.7148" lon="2.46716">
        <ele>48</ele>
        <time>2022-09-25T13:23:53.035Z</time>
      </trkpt>
      <trkpt lat="48.71478" lon="2.46726">
        <ele>48</ele>
        <time>2022-09-25T13:23:58.021Z</time>
      </trkpt>
      <trkpt lat="48.71477" lon="2.46733">
        <ele>48</ele>
        <time>2022-09-25T13:24:02.027Z</time>
      </trkpt>
      <trkpt lat="48.71474" lon="2.46741">
        <ele>48</ele>
        <time>2022-09-25T13:24:07.018Z</time>
      </trkpt>
      <trkpt lat="48.71473" lon="2.4675">
        <ele>48</ele>
        <time>2022-09-25T13:24:12.028Z</time>
      </trkpt>
      <trkpt lat="48.71473" lon="2.4676">
        <ele>48</ele>
        <time>2022-09-25T13:24:17.031Z</time>
      </trkpt>
      <trkpt lat="48.71471" lon="2.46768">
        <ele>49</ele>
        <time>2022-09-25T13:24:21.037Z</time>
      </trkpt>
      <trkpt lat="48.7147" lon="2.46778">
        <ele>49</ele>
        <time>2022-09-25T13:24:26.050Z</time>
      </trkpt>
      <trkpt lat="48.71471" lon="2.46787">
        <ele>49</ele>
        <time>2022-09-25T13:24:30.994Z</time>
      </trkpt>
      <trkpt lat="48.71475" lon="2.46791">
        <ele>49</ele>
        <time>2022-09-25T13:24:35.027Z</time>
      </trkpt>
      <trkpt lat="48.7148" lon="2.46796">
        <ele>51</ele>
        <time>2022-09-25T13:24:40.006Z</time>
      </trkpt>
      <trkpt lat="48.71484" lon="2.46799">
        <ele>51</ele>
        <time>2022-09-25T13:24:44.050Z</time>
      </trkpt>
      <trkpt lat="48.71488" lon="2.46801">
        <ele>54</ele>
        <time>2022-09-25T13:24:49.042Z</time>
      </trkpt>
      <trkpt lat="48.71492" lon="2.46804">
        <ele>54</ele>
        <time>2022-09-25T13:24:54.032Z</time>
      </trkpt>
      <trkpt lat="48.71496" lon="2.46805">
        <ele>54</ele>
        <time>2022-09-25T13:24:59.029Z</time>
      </trkpt>
      <trkpt lat="48.715" lon="2.46807">
        <ele>54</ele>
        <time>2022-09-25T13:25:03.029Z</time>
      </trkpt>
      <trkpt lat="48.71506" lon="2.46811">
        <ele>54</ele>
        <time>2022-09-25T13:25:08.036Z</time>
      </trkpt>
      <trkpt lat="48.71509" lon="2.46817">
        <ele>54</ele>
        <time>2022-09-25T13:25:13.036Z</time>
      </trkpt>
      <trkpt lat="48.7151" lon="2.46826">
        <ele>54</ele>
        <time>2022-09-25T13:25:18.035Z</time>
      </trkpt>
      <trkpt lat="48.71511" lon="2.46835">
        <ele>54</ele>
        <time>2022-09-25T13:25:23.040Z</time>
      </trkpt>
      <trkpt lat="48.71514" lon="2.46844">
        <ele>57</ele>
        <time>2022-09-25T13:25:28.039Z</time>
      </trkpt>
      <trkpt lat="48.7152" lon="2.46851">
        <ele>57</ele>
        <time>2022-09-25T13:25:33.041Z</time>
      </trkpt>
      <trkpt lat="48.71526" lon="2.46856">
        <ele>57</ele>
        <time>2022-09-25T13:25:38.040Z</time>
      </trkpt>
      <trkpt lat="48.71531" lon="2.4686">
        <ele>57</ele>
        <time>2022-09-25T13:25:43.036Z</time>
      </trkpt>
      <trkpt lat="48.71537" lon="2.46864">
        <ele>57</ele>
        <time>2022-09-25T13:25:48.023Z</time>
      </trkpt>
      <trkpt lat="48.71544" lon="2.46866">
        <ele>60</ele>
        <time>2022-09-25T13:25:53.014Z</time>
      </trkpt>
      <trkpt lat="48.71546" lon="2.46868">
        <ele>60</ele>
        <time>2022-09-25T13:25:57.036Z</time>
      </trkpt>
      <trkpt lat="48.71551" lon="2.46871">
        <ele>60</ele>
        <time>2022-09-25T13:26:02.023Z</time>
      </trkpt>
      <trkpt lat="48.71554" lon="2.46873">
        <ele>60</ele>
        <time>2022-09-25T13:26:06.034Z</time>
      </trkpt>
      <trkpt lat="48.71558" lon="2.46878">
        <ele>59</ele>
        <time>2022-09-25T13:26:11.028Z</time>
      </trkpt>
      <trkpt lat="48.7156" lon="2.4688">
        <ele>59</ele>
        <time>2022-09-25T13:26:16.041Z</time>
      </trkpt>
      <trkpt lat="48.7156" lon="2.46888">
        <ele>59</ele>
        <time>2022-09-25T13:26:21.030Z</time>
      </trkpt>
      <trkpt lat="48.71558" lon="2.46893">
        <ele>59</ele>
        <time>2022-09-25T13:26:25.035Z</time>
      </trkpt>
      <trkpt lat="48.71556" lon="2.469">
        <ele>59</ele>
        <time>2022-09-25T13:26:30.048Z</time>
      </trkpt>
      <trkpt lat="48.71552" lon="2.4691">
        <ele>59</ele>
        <time>2022-09-25T13:26:35.042Z</time>
      </trkpt>
      <trkpt lat="48.7155" lon="2.46919">
        <ele>59</ele>
        <time>2022-09-25T13:26:40.039Z</time>
      </trkpt>
      <trkpt lat="48.71548" lon="2.46931">
        <ele>61</ele>
        <time>2022-09-25T13:26:45.024Z</time>
      </trkpt>
      <trkpt lat="48.71544" lon="2.46937">
        <ele>61</ele>
        <time>2022-09-25T13:26:49.036Z</time>
      </trkpt>
      <trkpt lat="48.71537" lon="2.46938">
        <ele>60</ele>
        <time>2022-09-25T13:26:54.035Z</time>
      </trkpt>
      <trkpt lat="48.7153" lon="2.46935">
        <ele>60</ele>
        <time>2022-09-25T13:26:58.999Z</time>
      </trkpt>
      <trkpt lat="48.71525" lon="2.46933">
        <ele>60</ele>
        <time>2022-09-25T13:27:03.014Z</time>
      </trkpt>
      <trkpt lat="48.7152" lon="2.4693">
        <ele>59</ele>
        <time>2022-09-25T13:27:07.015Z</time>
      </trkpt>
      <trkpt lat="48.71513" lon="2.46927">
        <ele>56</ele>
        <time>2022-09-25T13:27:11.017Z</time>
      </trkpt>
      <trkpt lat="48.71506" lon="2.46922">
        <ele>56</ele>
        <time>2022-09-25T13:27:16.005Z</time>
      </trkpt>
      <trkpt lat="48.715" lon="2.46918">
        <ele>56</ele>
        <time>2022-09-25T13:27:20.031Z</time>
      </trkpt>
      <trkpt lat="48.71495" lon="2.46917">
        <ele>56</ele>
        <time>2022-09-25T13:27:24.064Z</time>
      </trkpt>
      <trkpt lat="48.71489" lon="2.46917">
        <ele>56</ele>
        <time>2022-09-25T13:27:29.015Z</time>
      </trkpt>
      <trkpt lat="48.71483" lon="2.46916">
        <ele>53</ele>
        <time>2022-09-25T13:27:33.034Z</time>
      </trkpt>
      <trkpt lat="48.71477" lon="2.46915">
        <ele>53</ele>
        <time>2022-09-25T13:27:38.029Z</time>
      </trkpt>
      <trkpt lat="48.71473" lon="2.46913">
        <ele>53</ele>
        <time>2022-09-25T13:27:42.037Z</time>
      </trkpt>
      <trkpt lat="48.71466" lon="2.46912">
        <ele>53</ele>
        <time>2022-09-25T13:27:47.034Z</time>
      </trkpt>
      <trkpt lat="48.71461" lon="2.46911">
        <ele>53</ele>
        <time>2022-09-25T13:27:51.036Z</time>
      </trkpt>
      <trkpt lat="48.71454" lon="2.46908">
        <ele>51</ele>
        <time>2022-09-25T13:27:56.023Z</time>
      </trkpt>
      <trkpt lat="48.71449" lon="2.4691">
        <ele>51</ele>
        <time>2022-09-25T13:28:01.016Z</time>
      </trkpt>
      <trkpt lat="48.71446" lon="2.46918">
        <ele>51</ele>
        <time>2022-09-25T13:28:06.022Z</time>
      </trkpt>
      <trkpt lat="48.71445" lon="2.4693">
        <ele>51</ele>
        <time>2022-09-25T13:28:11.023Z</time>
      </trkpt>
      <trkpt lat="48.71444" lon="2.46938">
        <ele>52</ele>
        <time>2022-09-25T13:28:15.034Z</time>
      </trkpt>
      <trkpt lat="48.7144" lon="2.46956">
        <ele>52</ele>
        <time>2022-09-25T13:28:38.021Z</time>
      </trkpt>
      <trkpt lat="48.71439" lon="2.46956">
        <ele>52</ele>
        <time>2022-09-25T13:28:43.023Z</time>
      </trkpt>
      <trkpt lat="48.71436" lon="2.46956">
        <ele>52</ele>
        <time>2022-09-25T13:28:48.010Z</time>
      </trkpt>
      <trkpt lat="48.71434" lon="2.46955">
        <ele>52</ele>
        <time>2022-09-25T13:28:52.031Z</time>
      </trkpt>
      <trkpt lat="48.71429" lon="2.46957">
        <ele>50</ele>
        <time>2022-09-25T13:28:57.022Z</time>
      </trkpt>
      <trkpt lat="48.71424" lon="2.46957">
        <ele>50</ele>
        <time>2022-09-25T13:29:02.012Z</time>
      </trkpt>
      <trkpt lat="48.71417" lon="2.46958">
        <ele>50</ele>
        <time>2022-09-25T13:29:07.015Z</time>
      </trkpt>
      <trkpt lat="48.71412" lon="2.4696">
        <ele>51</ele>
        <time>2022-09-25T13:29:11.009Z</time>
      </trkpt>
      <trkpt lat="48.71407" lon="2.46961">
        <ele>51</ele>
        <time>2022-09-25T13:29:16.031Z</time>
      </trkpt>
      <trkpt lat="48.71403" lon="2.46967">
        <ele>51</ele>
        <time>2022-09-25T13:29:20.045Z</time>
      </trkpt>
      <trkpt lat="48.71401" lon="2.46978">
        <ele>47</ele>
        <time>2022-09-25T13:29:25.021Z</time>
      </trkpt>
      <trkpt lat="48.714" lon="2.46988">
        <ele>47</ele>
        <time>2022-09-25T13:29:30.012Z</time>
      </trkpt>
      <trkpt lat="48.714" lon="2.46996">
        <ele>47</ele>
        <time>2022-09-25T13:29:34.023Z</time>
      </trkpt>
      <trkpt lat="48.714" lon="2.47004">
        <ele>47</ele>
        <time>2022-09-25T13:29:38.027Z</time>
      </trkpt>
      <trkpt lat="48.71399" lon="2.47014">
        <ele>47</ele>
        <time>2022-09-25T13:29:43.017Z</time>
      </trkpt>
      <trkpt lat="48.71399" lon="2.47025">
        <ele>47</ele>
        <time>2022-09-25T13:29:48.016Z</time>
      </trkpt>
      <trkpt lat="48.71399" lon="2.47036">
        <ele>47</ele>
        <time>2022-09-25T13:29:52.991Z</time>
      </trkpt>
      <trkpt lat="48.714" lon="2.47045">
        <ele>46</ele>
        <time>2022-09-25T13:29:57.997Z</time>
      </trkpt>
      <trkpt lat="48.714" lon="2.47051">
        <ele>46</ele>
        <time>2022-09-25T13:30:02.018Z</time>
      </trkpt>
      <trkpt lat="48.714" lon="2.47061">
        <ele>46</ele>
        <time>2022-09-25T13:30:07.001Z</time>
      </trkpt>
      <trkpt lat="48.71401" lon="2.47071">
        <ele>45</ele>
        <time>2022-09-25T13:30:11.012Z</time>
      </trkpt>
      <trkpt lat="48.71401" lon="2.47081">
        <ele>45</ele>
        <time>2022-09-25T13:30:16.009Z</time>
      </trkpt>
      <trkpt lat="48.71402" lon="2.47091">
        <ele>45</ele>
        <time>2022-09-25T13:30:21.014Z</time>
      </trkpt>
      <trkpt lat="48.71405" lon="2.471">
        <ele>48</ele>
        <time>2022-09-25T13:30:26.023Z</time>
      </trkpt>
      <trkpt lat="48.71408" lon="2.47106">
        <ele>48</ele>
        <time>2022-09-25T13:30:30.030Z</time>
      </trkpt>
      <trkpt lat="48.71411" lon="2.47115">
        <ele>48</ele>
        <time>2022-09-25T13:30:35.004Z</time>
      </trkpt>
      <trkpt lat="48.71415" lon="2.47123">
        <ele>48</ele>
        <time>2022-09-25T13:30:40.033Z</time>
      </trkpt>
      <trkpt lat="48.71419" lon="2.47131">
        <ele>47</ele>
        <time>2022-09-25T13:30:45.030Z</time>
      </trkpt>
      <trkpt lat="48.71421" lon="2.47139">
        <ele>47</ele>
        <time>2022-09-25T13:30:49.041Z</time>
      </trkpt>
      <trkpt lat="48.71424" lon="2.47149">
        <ele>47</ele>
        <time>2022-09-25T13:30:54.035Z</time>
      </trkpt>
      <trkpt lat="48.71428" lon="2.47156">
        <ele>45</ele>
        <time>2022-09-25T13:30:59.029Z</time>
      </trkpt>
      <trkpt lat="48.71429" lon="2.47165">
        <ele>45</ele>
        <time>2022-09-25T13:31:04.041Z</time>
      </trkpt>
      <trkpt lat="48.71432" lon="2.47173">
        <ele>48</ele>
        <time>2022-09-25T13:31:09.037Z</time>
      </trkpt>
      <trkpt lat="48.71434" lon="2.47181">
        <ele>47</ele>
        <time>2022-09-25T13:31:14.029Z</time>
      </trkpt>
      <trkpt lat="48.71438" lon="2.4719">
        <ele>47</ele>
        <time>2022-09-25T13:31:19.027Z</time>
      </trkpt>
      <trkpt lat="48.71441" lon="2.47199">
        <ele>47</ele>
        <time>2022-09-25T13:31:24.028Z</time>
      </trkpt>
      <trkpt lat="48.71445" lon="2.47208">
        <ele>47</ele>
        <time>2022-09-25T13:31:29.029Z</time>
      </trkpt>
      <trkpt lat="48.71448" lon="2.47216">
        <ele>46</ele>
        <time>2022-09-25T13:31:34.024Z</time>
      </trkpt>
      <trkpt lat="48.71451" lon="2.47224">
        <ele>46</ele>
        <time>2022-09-25T13:31:39.027Z</time>
      </trkpt>
      <trkpt lat="48.71454" lon="2.47231">
        <ele>46</ele>
        <time>2022-09-25T13:31:43.032Z</time>
      </trkpt>
      <trkpt lat="48.71457" lon="2.47239">
        <ele>45</ele>
        <time>2022-09-25T13:31:48.017Z</time>
      </trkpt>
      <trkpt lat="48.71459" lon="2.47248">
        <ele>49</ele>
        <time>2022-09-25T13:31:52.996Z</time>
      </trkpt>
      <trkpt lat="48.71461" lon="2.47255">
        <ele>49</ele>
        <time>2022-09-25T13:31:57.013Z</time>
      </trkpt>
      <trkpt lat="48.71462" lon="2.47263">
        <ele>49</ele>
        <time>2022-09-25T13:32:01.026Z</time>
      </trkpt>
      <trkpt lat="48.71463" lon="2.47274">
        <ele>46</ele>
        <time>2022-09-25T13:32:06.032Z</time>
      </trkpt>
      <trkpt lat="48.71462" lon="2.47283">
        <ele>46</ele>
        <time>2022-09-25T13:32:11.023Z</time>
      </trkpt>
      <trkpt lat="48.71462" lon="2.47294">
        <ele>43</ele>
        <time>2022-09-25T13:32:16.012Z</time>
      </trkpt>
      <trkpt lat="48.71461" lon="2.47302">
        <ele>43</ele>
        <time>2022-09-25T13:32:20.019Z</time>
      </trkpt>
      <trkpt lat="48.71464" lon="2.47312">
        <ele>43</ele>
        <time>2022-09-25T13:32:25.002Z</time>
      </trkpt>
      <trkpt lat="48.71467" lon="2.47321">
        <ele>42</ele>
        <time>2022-09-25T13:32:29.024Z</time>
      </trkpt>
      <trkpt lat="48.7147" lon="2.47329">
        <ele>42</ele>
        <time>2022-09-25T13:32:34.023Z</time>
      </trkpt>
      <trkpt lat="48.71473" lon="2.47335">
        <ele>42</ele>
        <time>2022-09-25T13:32:38.063Z</time>
      </trkpt>
      <trkpt lat="48.71476" lon="2.47343">
        <ele>42</ele>
        <time>2022-09-25T13:32:43.023Z</time>
      </trkpt>
      <trkpt lat="48.71477" lon="2.47352">
        <ele>41</ele>
        <time>2022-09-25T13:32:47.038Z</time>
      </trkpt>
      <trkpt lat="48.71482" lon="2.47361">
        <ele>41</ele>
        <time>2022-09-25T13:32:52.016Z</time>
      </trkpt>
      <trkpt lat="48.71485" lon="2.47367">
        <ele>41</ele>
        <time>2022-09-25T13:32:56.026Z</time>
      </trkpt>
      <trkpt lat="48.71488" lon="2.47374">
        <ele>43</ele>
        <time>2022-09-25T13:33:00.024Z</time>
      </trkpt>
      <trkpt lat="48.71491" lon="2.47384">
        <ele>42</ele>
        <time>2022-09-25T13:33:05.037Z</time>
      </trkpt>
      <trkpt lat="48.71494" lon="2.47394">
        <ele>42</ele>
        <time>2022-09-25T13:33:10.029Z</time>
      </trkpt>
      <trkpt lat="48.71497" lon="2.47401">
        <ele>42</ele>
        <time>2022-09-25T13:33:15.026Z</time>
      </trkpt>
      <trkpt lat="48.71499" lon="2.47409">
        <ele>41</ele>
        <time>2022-09-25T13:33:19.034Z</time>
      </trkpt>
      <trkpt lat="48.71502" lon="2.47418">
        <ele>41</ele>
        <time>2022-09-25T13:33:24.015Z</time>
      </trkpt>
      <trkpt lat="48.71505" lon="2.47423">
        <ele>41</ele>
        <time>2022-09-25T13:33:28.036Z</time>
      </trkpt>
      <trkpt lat="48.71507" lon="2.4743">
        <ele>41</ele>
        <time>2022-09-25T13:33:33.016Z</time>
      </trkpt>
      <trkpt lat="48.7151" lon="2.47435">
        <ele>39</ele>
        <time>2022-09-25T13:33:37.031Z</time>
      </trkpt>
      <trkpt lat="48.71514" lon="2.47441">
        <ele>39</ele>
        <time>2022-09-25T13:33:42.037Z</time>
      </trkpt>
      <trkpt lat="48.71517" lon="2.47448">
        <ele>42</ele>
        <time>2022-09-25T13:33:47.018Z</time>
      </trkpt>
      <trkpt lat="48.71521" lon="2.47454">
        <ele>42</ele>
        <time>2022-09-25T13:33:52.026Z</time>
      </trkpt>
      <trkpt lat="48.71525" lon="2.47462">
        <ele>41</ele>
        <time>2022-09-25T13:33:57.025Z</time>
      </trkpt>
      <trkpt lat="48.71529" lon="2.47469">
        <ele>41</ele>
        <time>2022-09-25T13:34:02Z</time>
      </trkpt>
      <trkpt lat="48.71532" lon="2.47474">
        <ele>41</ele>
        <time>2022-09-25T13:34:06.022Z</time>
      </trkpt>
      <trkpt lat="48.71536" lon="2.47482">
        <ele>41</ele>
        <time>2022-09-25T13:34:11.017Z</time>
      </trkpt>
      <trkpt lat="48.7154" lon="2.47487">
        <ele>41</ele>
        <time>2022-09-25T13:34:15.037Z</time>
      </trkpt>
      <trkpt lat="48.71544" lon="2.47494">
        <ele>43</ele>
        <time>2022-09-25T13:34:20.031Z</time>
      </trkpt>
      <trkpt lat="48.71548" lon="2.47496">
        <ele>43</ele>
        <time>2022-09-25T13:34:24.029Z</time>
      </trkpt>
      <trkpt lat="48.71554" lon="2.47496">
        <ele>43</ele>
        <time>2022-09-25T13:34:29.031Z</time>
      </trkpt>
      <trkpt lat="48.71557" lon="2.475">
        <ele>43</ele>
        <time>2022-09-25T13:34:34.036Z</time>
      </trkpt>
      <trkpt lat="48.71559" lon="2.47508">
        <ele>43</ele>
        <time>2022-09-25T13:34:39.012Z</time>
      </trkpt>
      <trkpt lat="48.71563" lon="2.47516">
        <ele>42</ele>
        <time>2022-09-25T13:34:43.014Z</time>
      </trkpt>
      <trkpt lat="48.71566" lon="2.47525">
        <ele>42</ele>
        <time>2022-09-25T13:34:48.013Z</time>
      </trkpt>
      <trkpt lat="48.71569" lon="2.47531">
        <ele>42</ele>
        <time>2022-09-25T13:34:52.032Z</time>
      </trkpt>
      <trkpt lat="48.71572" lon="2.47539">
        <ele>46</ele>
        <time>2022-09-25T13:34:57.016Z</time>
      </trkpt>
      <trkpt lat="48.71574" lon="2.47547">
        <ele>45</ele>
        <time>2022-09-25T13:35:02.031Z</time>
      </trkpt>
      <trkpt lat="48.71576" lon="2.47556">
        <ele>45</ele>
        <time>2022-09-25T13:35:07.003Z</time>
      </trkpt>
      <trkpt lat="48.71578" lon="2.47564">
        <ele>45</ele>
        <time>2022-09-25T13:35:12.020Z</time>
      </trkpt>
      <trkpt lat="48.7158" lon="2.47571">
        <ele>44</ele>
        <time>2022-09-25T13:35:16.028Z</time>
      </trkpt>
      <trkpt lat="48.71581" lon="2.47579">
        <ele>44</ele>
        <time>2022-09-25T13:35:21.016Z</time>
      </trkpt>
      <trkpt lat="48.71582" lon="2.47586">
        <ele>44</ele>
        <time>2022-09-25T13:35:25.031Z</time>
      </trkpt>
      <trkpt lat="48.71583" lon="2.47593">
        <ele>44</ele>
        <time>2022-09-25T13:35:29.070Z</time>
      </trkpt>
      <trkpt lat="48.71584" lon="2.47603">
        <ele>43</ele>
        <time>2022-09-25T13:35:34.035Z</time>
      </trkpt>
      <trkpt lat="48.71585" lon="2.47612">
        <ele>43</ele>
        <time>2022-09-25T13:35:39.027Z</time>
      </trkpt>
      <trkpt lat="48.71589" lon="2.4762">
        <ele>43</ele>
        <time>2022-09-25T13:35:44.020Z</time>
      </trkpt>
      <trkpt lat="48.71591" lon="2.47628">
        <ele>42</ele>
        <time>2022-09-25T13:35:48.992Z</time>
      </trkpt>
      <trkpt lat="48.71594" lon="2.47633">
        <ele>42</ele>
        <time>2022-09-25T13:35:53.021Z</time>
      </trkpt>
      <trkpt lat="48.71597" lon="2.47641">
        <ele>42</ele>
        <time>2022-09-25T13:35:57.032Z</time>
      </trkpt>
      <trkpt lat="48.71598" lon="2.47649">
        <ele>48</ele>
        <time>2022-09-25T13:36:02.024Z</time>
      </trkpt>
      <trkpt lat="48.71601" lon="2.47657">
        <ele>48</ele>
        <time>2022-09-25T13:36:06.047Z</time>
      </trkpt>
      <trkpt lat="48.71605" lon="2.47665">
        <ele>48</ele>
        <time>2022-09-25T13:36:11.013Z</time>
      </trkpt>
      <trkpt lat="48.71607" lon="2.47674">
        <ele>48</ele>
        <time>2022-09-25T13:36:16.027Z</time>
      </trkpt>
      <trkpt lat="48.71609" lon="2.4768">
        <ele>48</ele>
        <time>2022-09-25T13:36:20.033Z</time>
      </trkpt>
      <trkpt lat="48.71612" lon="2.47688">
        <ele>46</ele>
        <time>2022-09-25T13:36:25.026Z</time>
      </trkpt>
      <trkpt lat="48.71616" lon="2.47696">
        <ele>46</ele>
        <time>2022-09-25T13:36:30.007Z</time>
      </trkpt>
      <trkpt lat="48.71619" lon="2.47702">
        <ele>46</ele>
        <time>2022-09-25T13:36:34.013Z</time>
      </trkpt>
      <trkpt lat="48.71621" lon="2.47709">
        <ele>43</ele>
        <time>2022-09-25T13:36:38.032Z</time>
      </trkpt>
      <trkpt lat="48.71623" lon="2.47718">
        <ele>43</ele>
        <time>2022-09-25T13:36:43.025Z</time>
      </trkpt>
      <trkpt lat="48.71626" lon="2.47727">
        <ele>50</ele>
        <time>2022-09-25T13:36:48.023Z</time>
      </trkpt>
      <trkpt lat="48.71629" lon="2.47734">
        <ele>50</ele>
        <time>2022-09-25T13:36:53.018Z</time>
      </trkpt>
      <trkpt lat="48.71632" lon="2.47742">
        <ele>49</ele>
        <time>2022-09-25T13:36:58.005Z</time>
      </trkpt>
      <trkpt lat="48.71633" lon="2.47752">
        <ele>49</ele>
        <time>2022-09-25T13:37:03.021Z</time>
      </trkpt>
      <trkpt lat="48.71636" lon="2.4776">
        <ele>49</ele>
        <time>2022-09-25T13:37:08.019Z</time>
      </trkpt>
      <trkpt lat="48.71638" lon="2.47768">
        <ele>49</ele>
        <time>2022-09-25T13:37:12.021Z</time>
      </trkpt>
      <trkpt lat="48.7164" lon="2.47776">
        <ele>49</ele>
        <time>2022-09-25T13:37:17.005Z</time>
      </trkpt>
      <trkpt lat="48.71643" lon="2.47784">
        <ele>49</ele>
        <time>2022-09-25T13:37:22.015Z</time>
      </trkpt>
      <trkpt lat="48.71645" lon="2.47792">
        <ele>48</ele>
        <time>2022-09-25T13:37:26.016Z</time>
      </trkpt>
      <trkpt lat="48.71646" lon="2.47802">
        <ele>48</ele>
        <time>2022-09-25T13:37:31.007Z</time>
      </trkpt>
      <trkpt lat="48.71647" lon="2.47812">
        <ele>48</ele>
        <time>2022-09-25T13:37:36.020Z</time>
      </trkpt>
      <trkpt lat="48.71648" lon="2.4782">
        <ele>47</ele>
        <time>2022-09-25T13:37:40.031Z</time>
      </trkpt>
      <trkpt lat="48.71649" lon="2.47828">
        <ele>47</ele>
        <time>2022-09-25T13:37:45.002Z</time>
      </trkpt>
      <trkpt lat="48.71649" lon="2.47828">
        <ele>47</ele>
        <time>2022-09-25T13:37:50.012Z</time>
      </trkpt>
      <trkpt lat="48.7165" lon="2.47832">
        <ele>47</ele>
        <time>2022-09-25T13:37:55.002Z</time>
      </trkpt>
      <trkpt lat="48.71651" lon="2.47837">
        <ele>47</ele>
        <time>2022-09-25T13:37:59.014Z</time>
      </trkpt>
      <trkpt lat="48.71651" lon="2.47841">
        <ele>47</ele>
        <time>2022-09-25T13:38:03.014Z</time>
      </trkpt>
      <trkpt lat="48.71653" lon="2.4785">
        <ele>49</ele>
        <time>2022-09-25T13:38:08.014Z</time>
      </trkpt>
      <trkpt lat="48.71655" lon="2.47858">
        <ele>49</ele>
        <time>2022-09-25T13:38:12.018Z</time>
      </trkpt>
      <trkpt lat="48.71657" lon="2.47866">
        <ele>49</ele>
        <time>2022-09-25T13:38:16.039Z</time>
      </trkpt>
      <trkpt lat="48.71659" lon="2.47876">
        <ele>48</ele>
        <time>2022-09-25T13:38:21.016Z</time>
      </trkpt>
      <trkpt lat="48.7166" lon="2.47885">
        <ele>48</ele>
        <time>2022-09-25T13:38:26.010Z</time>
      </trkpt>
      <trkpt lat="48.71661" lon="2.47892">
        <ele>48</ele>
        <time>2022-09-25T13:38:30.021Z</time>
      </trkpt>
      <trkpt lat="48.71662" lon="2.47898">
        <ele>48</ele>
        <time>2022-09-25T13:38:34.035Z</time>
      </trkpt>
      <trkpt lat="48.71663" lon="2.47907">
        <ele>47</ele>
        <time>2022-09-25T13:38:39.036Z</time>
      </trkpt>
      <trkpt lat="48.71662" lon="2.47915">
        <ele>47</ele>
        <time>2022-09-25T13:38:44.047Z</time>
      </trkpt>
      <trkpt lat="48.71658" lon="2.47924">
        <ele>47</ele>
        <time>2022-09-25T13:38:49.034Z</time>
      </trkpt>
      <trkpt lat="48.71657" lon="2.47931">
        <ele>47</ele>
        <time>2022-09-25T13:38:54.037Z</time>
      </trkpt>
      <trkpt lat="48.71657" lon="2.4794">
        <ele>47</ele>
        <time>2022-09-25T13:38:59.020Z</time>
      </trkpt>
      <trkpt lat="48.71658" lon="2.4795">
        <ele>47</ele>
        <time>2022-09-25T13:39:04.020Z</time>
      </trkpt>
      <trkpt lat="48.71659" lon="2.47958">
        <ele>47</ele>
        <time>2022-09-25T13:39:08.045Z</time>
      </trkpt>
      <trkpt lat="48.71658" lon="2.47966">
        <ele>47</ele>
        <time>2022-09-25T13:39:13.015Z</time>
      </trkpt>
      <trkpt lat="48.71658" lon="2.47974">
        <ele>47</ele>
        <time>2022-09-25T13:39:17.027Z</time>
      </trkpt>
      <trkpt lat="48.71658" lon="2.47983">
        <ele>47</ele>
        <time>2022-09-25T13:39:22.014Z</time>
      </trkpt>
      <trkpt lat="48.71658" lon="2.4799">
        <ele>47</ele>
        <time>2022-09-25T13:39:26.027Z</time>
      </trkpt>
      <trkpt lat="48.71658" lon="2.47996">
        <ele>47</ele>
        <time>2022-09-25T13:39:30.033Z</time>
      </trkpt>
      <trkpt lat="48.7166" lon="2.48006">
        <ele>47</ele>
        <time>2022-09-25T13:39:35.035Z</time>
      </trkpt>
      <trkpt lat="48.71662" lon="2.48015">
        <ele>46</ele>
        <time>2022-09-25T13:39:40.025Z</time>
      </trkpt>
      <trkpt lat="48.71663" lon="2.48023">
        <ele>46</ele>
        <time>2022-09-25T13:39:45.019Z</time>
      </trkpt>
      <trkpt lat="48.71665" lon="2.48032">
        <ele>46</ele>
        <time>2022-09-25T13:39:49.982Z</time>
      </trkpt>
      <trkpt lat="48.71666" lon="2.48039">
        <ele>46</ele>
        <time>2022-09-25T13:39:54.004Z</time>
      </trkpt>
      <trkpt lat="48.71668" lon="2.48047">
        <ele>45</ele>
        <time>2022-09-25T13:39:58.028Z</time>
      </trkpt>
      <trkpt lat="48.71669" lon="2.48057">
        <ele>45</ele>
        <time>2022-09-25T13:40:03.011Z</time>
      </trkpt>
      <trkpt lat="48.71672" lon="2.48063">
        <ele>45</ele>
        <time>2022-09-25T13:40:07.029Z</time>
      </trkpt>
      <trkpt lat="48.71673" lon="2.48073">
        <ele>45</ele>
        <time>2022-09-25T13:40:12.020Z</time>
      </trkpt>
      <trkpt lat="48.71672" lon="2.48084">
        <ele>45</ele>
        <time>2022-09-25T13:40:17.028Z</time>
      </trkpt>
      <trkpt lat="48.71673" lon="2.48093">
        <ele>45</ele>
        <time>2022-09-25T13:40:22.041Z</time>
      </trkpt>
      <trkpt lat="48.71673" lon="2.481">
        <ele>45</ele>
        <time>2022-09-25T13:40:27.032Z</time>
      </trkpt>
      <trkpt lat="48.71673" lon="2.48111">
        <ele>45</ele>
        <time>2022-09-25T13:40:32.001Z</time>
      </trkpt>
      <trkpt lat="48.71673" lon="2.48119">
        <ele>45</ele>
        <time>2022-09-25T13:40:36.025Z</time>
      </trkpt>
      <trkpt lat="48.71672" lon="2.48128">
        <ele>45</ele>
        <time>2022-09-25T13:40:41.003Z</time>
      </trkpt>
      <trkpt lat="48.71672" lon="2.48135">
        <ele>45</ele>
        <time>2022-09-25T13:40:45.020Z</time>
      </trkpt>
      <trkpt lat="48.71671" lon="2.48141">
        <ele>45</ele>
        <time>2022-09-25T13:40:49.032Z</time>
      </trkpt>
      <trkpt lat="48.71672" lon="2.48149">
        <ele>45</ele>
        <time>2022-09-25T13:40:54.042Z</time>
      </trkpt>
      <trkpt lat="48.71672" lon="2.4816">
        <ele>45</ele>
        <time>2022-09-25T13:40:59.016Z</time>
      </trkpt>
      <trkpt lat="48.71672" lon="2.4817">
        <ele>45</ele>
        <time>2022-09-25T13:41:04.031Z</time>
      </trkpt>
      <trkpt lat="48.71673" lon="2.48177">
        <ele>45</ele>
        <time>2022-09-25T13:41:09.011Z</time>
      </trkpt>
      <trkpt lat="48.71673" lon="2.48185">
        <ele>46</ele>
        <time>2022-09-25T13:41:14.031Z</time>
      </trkpt>
      <trkpt lat="48.71674" lon="2.48191">
        <ele>46</ele>
        <time>2022-09-25T13:41:18.029Z</time>
      </trkpt>
      <trkpt lat="48.71676" lon="2.48199">
        <ele>46</ele>
        <time>2022-09-25T13:41:23.008Z</time>
      </trkpt>
      <trkpt lat="48.71679" lon="2.48206">
        <ele>46</ele>
        <time>2022-09-25T13:41:28.025Z</time>
      </trkpt>
      <trkpt lat="48.71682" lon="2.48216">
        <ele>50</ele>
        <time>2022-09-25T13:41:33.023Z</time>
      </trkpt>
      <trkpt lat="48.71683" lon="2.48222">
        <ele>50</ele>
        <time>2022-09-25T13:41:38.039Z</time>
      </trkpt>
      <trkpt lat="48.71683" lon="2.48228">
        <ele>50</ele>
        <time>2022-09-25T13:41:42.045Z</time>
      </trkpt>
      <trkpt lat="48.71684" lon="2.48236">
        <ele>50</ele>
        <time>2022-09-25T13:41:47.039Z</time>
      </trkpt>
      <trkpt lat="48.71683" lon="2.48244">
        <ele>50</ele>
        <time>2022-09-25T13:41:52.039Z</time>
      </trkpt>
      <trkpt lat="48.71684" lon="2.48254">
        <ele>50</ele>
        <time>2022-09-25T13:41:57.014Z</time>
      </trkpt>
      <trkpt lat="48.71684" lon="2.48264">
        <ele>50</ele>
        <time>2022-09-25T13:42:02.006Z</time>
      </trkpt>
      <trkpt lat="48.71685" lon="2.48269">
        <ele>50</ele>
        <time>2022-09-25T13:42:06.035Z</time>
      </trkpt>
      <trkpt lat="48.71685" lon="2.48279">
        <ele>50</ele>
        <time>2022-09-25T13:42:11.016Z</time>
      </trkpt>
      <trkpt lat="48.71686" lon="2.48286">
        <ele>50</ele>
        <time>2022-09-25T13:42:15.020Z</time>
      </trkpt>
      <trkpt lat="48.71686" lon="2.48297">
        <ele>50</ele>
        <time>2022-09-25T13:42:20.047Z</time>
      </trkpt>
      <trkpt lat="48.71687" lon="2.48306">
        <ele>50</ele>
        <time>2022-09-25T13:42:25.025Z</time>
      </trkpt>
      <trkpt lat="48.71688" lon="2.48313">
        <ele>50</ele>
        <time>2022-09-25T13:42:30.017Z</time>
      </trkpt>
      <trkpt lat="48.71689" lon="2.4832">
        <ele>49</ele>
        <time>2022-09-25T13:42:34.010Z</time>
      </trkpt>
      <trkpt lat="48.71689" lon="2.48331">
        <ele>49</ele>
        <time>2022-09-25T13:42:39.019Z</time>
      </trkpt>
      <trkpt lat="48.71691" lon="2.48342">
        <ele>49</ele>
        <time>2022-09-25T13:42:44.004Z</time>
      </trkpt>
      <trkpt lat="48.71691" lon="2.48349">
        <ele>48</ele>
        <time>2022-09-25T13:42:48.020Z</time>
      </trkpt>
      <trkpt lat="48.71692" lon="2.48355">
        <ele>48</ele>
        <time>2022-09-25T13:42:52.024Z</time>
      </trkpt>
      <trkpt lat="48.71693" lon="2.48364">
        <ele>48</ele>
        <time>2022-09-25T13:42:57.010Z</time>
      </trkpt>
      <trkpt lat="48.71693" lon="2.48372">
        <ele>48</ele>
        <time>2022-09-25T13:43:00.992Z</time>
      </trkpt>
      <trkpt lat="48.71692" lon="2.4838">
        <ele>47</ele>
        <time>2022-09-25T13:43:06.016Z</time>
      </trkpt>
      <trkpt lat="48.71693" lon="2.4839">
        <ele>47</ele>
        <time>2022-09-25T13:43:11.016Z</time>
      </trkpt>
      <trkpt lat="48.71694" lon="2.48397">
        <ele>47</ele>
        <time>2022-09-25T13:43:15.029Z</time>
      </trkpt>
      <trkpt lat="48.71695" lon="2.48402">
        <ele>47</ele>
        <time>2022-09-25T13:43:20.034Z</time>
      </trkpt>
      <trkpt lat="48.71694" lon="2.48408">
        <ele>47</ele>
        <time>2022-09-25T13:43:29.033Z</time>
      </trkpt>
      <trkpt lat="48.71695" lon="2.48414">
        <ele>47</ele>
        <time>2022-09-25T13:43:33.995Z</time>
      </trkpt>
      <trkpt lat="48.71694" lon="2.48416">
        <ele>47</ele>
        <time>2022-09-25T13:43:38.024Z</time>
      </trkpt>
      <trkpt lat="48.71692" lon="2.48419">
        <ele>47</ele>
        <time>2022-09-25T13:43:43.009Z</time>
      </trkpt>
      <trkpt lat="48.71692" lon="2.48425">
        <ele>47</ele>
        <time>2022-09-25T13:43:48.009Z</time>
      </trkpt>
      <trkpt lat="48.71692" lon="2.48431">
        <ele>47</ele>
        <time>2022-09-25T13:44:37.041Z</time>
      </trkpt>
      <trkpt lat="48.7169" lon="2.48436">
        <ele>47</ele>
        <time>2022-09-25T13:44:41.988Z</time>
      </trkpt>
      <trkpt lat="48.71688" lon="2.4844">
        <ele>47</ele>
        <time>2022-09-25T13:44:46.019Z</time>
      </trkpt>
      <trkpt lat="48.71686" lon="2.48445">
        <ele>47</ele>
        <time>2022-09-25T13:44:51.011Z</time>
      </trkpt>
      <trkpt lat="48.71684" lon="2.48447">
        <ele>47</ele>
        <time>2022-09-25T13:44:55.998Z</time>
      </trkpt>
      <trkpt lat="48.71681" lon="2.48448">
        <ele>47</ele>
        <time>2022-09-25T13:45:00.014Z</time>
      </trkpt>
      <trkpt lat="48.71678" lon="2.48455">
        <ele>45</ele>
        <time>2022-09-25T13:45:04.988Z</time>
      </trkpt>
      <trkpt lat="48.71675" lon="2.48464">
        <ele>45</ele>
        <time>2022-09-25T13:45:10.001Z</time>
      </trkpt>
      <trkpt lat="48.71673" lon="2.48471">
        <ele>45</ele>
        <time>2022-09-25T13:45:14.008Z</time>
      </trkpt>
      <trkpt lat="48.71674" lon="2.48481">
        <ele>45</ele>
        <time>2022-09-25T13:45:18.024Z</time>
      </trkpt>
      <trkpt lat="48.71673" lon="2.4849">
        <ele>46</ele>
        <time>2022-09-25T13:45:23.055Z</time>
      </trkpt>
      <trkpt lat="48.71672" lon="2.48498">
        <ele>46</ele>
        <time>2022-09-25T13:45:28.052Z</time>
      </trkpt>
      <trkpt lat="48.71672" lon="2.48506">
        <ele>46</ele>
        <time>2022-09-25T13:45:33.019Z</time>
      </trkpt>
      <trkpt lat="48.71672" lon="2.48514">
        <ele>46</ele>
        <time>2022-09-25T13:45:37.039Z</time>
      </trkpt>
      <trkpt lat="48.71672" lon="2.48523">
        <ele>47</ele>
        <time>2022-09-25T13:45:42.022Z</time>
      </trkpt>
      <trkpt lat="48.71671" lon="2.48532">
        <ele>47</ele>
        <time>2022-09-25T13:45:46.028Z</time>
      </trkpt>
      <trkpt lat="48.7167" lon="2.48542">
        <ele>48</ele>
        <time>2022-09-25T13:45:51.022Z</time>
      </trkpt>
      <trkpt lat="48.7167" lon="2.4855">
        <ele>48</ele>
        <time>2022-09-25T13:45:55.041Z</time>
      </trkpt>
      <trkpt lat="48.71669" lon="2.4856">
        <ele>48</ele>
        <time>2022-09-25T13:46:00.023Z</time>
      </trkpt>
      <trkpt lat="48.71669" lon="2.48567">
        <ele>48</ele>
        <time>2022-09-25T13:46:04.036Z</time>
      </trkpt>
      <trkpt lat="48.71667" lon="2.48575">
        <ele>49</ele>
        <time>2022-09-25T13:46:08.041Z</time>
      </trkpt>
      <trkpt lat="48.71667" lon="2.48586">
        <ele>49</ele>
        <time>2022-09-25T13:46:13.022Z</time>
      </trkpt>
      <trkpt lat="48.71666" lon="2.48596">
        <ele>49</ele>
        <time>2022-09-25T13:46:18.039Z</time>
      </trkpt>
      <trkpt lat="48.71665" lon="2.48607">
        <ele>49</ele>
        <time>2022-09-25T13:46:23.033Z</time>
      </trkpt>
      <trkpt lat="48.71664" lon="2.48615">
        <ele>49</ele>
        <time>2022-09-25T13:46:28.030Z</time>
      </trkpt>
      <trkpt lat="48.71663" lon="2.48623">
        <ele>49</ele>
        <time>2022-09-25T13:46:33.015Z</time>
      </trkpt>
      <trkpt lat="48.71662" lon="2.4863">
        <ele>48</ele>
        <time>2022-09-25T13:46:37.127Z</time>
      </trkpt>
      <trkpt lat="48.71661" lon="2.48639">
        <ele>48</ele>
        <time>2022-09-25T13:46:42.003Z</time>
      </trkpt>
      <trkpt lat="48.71659" lon="2.48646">
        <ele>48</ele>
        <time>2022-09-25T13:46:46.015Z</time>
      </trkpt>
      <trkpt lat="48.71659" lon="2.48654">
        <ele>47</ele>
        <time>2022-09-25T13:46:51.012Z</time>
      </trkpt>
      <trkpt lat="48.71659" lon="2.48662">
        <ele>47</ele>
        <time>2022-09-25T13:46:55.019Z</time>
      </trkpt>
      <trkpt lat="48.71657" lon="2.48671">
        <ele>47</ele>
        <time>2022-09-25T13:47:00.034Z</time>
      </trkpt>
      <trkpt lat="48.71656" lon="2.48679">
        <ele>47</ele>
        <time>2022-09-25T13:47:04.036Z</time>
      </trkpt>
      <trkpt lat="48.71655" lon="2.4869">
        <ele>48</ele>
        <time>2022-09-25T13:47:09.027Z</time>
      </trkpt>
      <trkpt lat="48.71655" lon="2.487">
        <ele>48</ele>
        <time>2022-09-25T13:47:14.036Z</time>
      </trkpt>
      <trkpt lat="48.71654" lon="2.48708">
        <ele>48</ele>
        <time>2022-09-25T13:47:19.030Z</time>
      </trkpt>
      <trkpt lat="48.71651" lon="2.48715">
        <ele>44</ele>
        <time>2022-09-25T13:47:23.989Z</time>
      </trkpt>
      <trkpt lat="48.71649" lon="2.4872">
        <ele>44</ele>
        <time>2022-09-25T13:47:28.023Z</time>
      </trkpt>
      <trkpt lat="48.71647" lon="2.48726">
        <ele>44</ele>
        <time>2022-09-25T13:47:32.037Z</time>
      </trkpt>
      <trkpt lat="48.71644" lon="2.48736">
        <ele>44</ele>
        <time>2022-09-25T13:47:37.030Z</time>
      </trkpt>
      <trkpt lat="48.71641" lon="2.48743">
        <ele>44</ele>
        <time>2022-09-25T13:47:41.034Z</time>
      </trkpt>
      <trkpt lat="48.71636" lon="2.4875">
        <ele>44</ele>
        <time>2022-09-25T13:47:46.009Z</time>
      </trkpt>
      <trkpt lat="48.71632" lon="2.48756">
        <ele>44</ele>
        <time>2022-09-25T13:47:50.039Z</time>
      </trkpt>
      <trkpt lat="48.71628" lon="2.48758">
        <ele>44</ele>
        <time>2022-09-25T13:47:54.035Z</time>
      </trkpt>
      <trkpt lat="48.71622" lon="2.48759">
        <ele>38</ele>
        <time>2022-09-25T13:47:59.041Z</time>
      </trkpt>
      <trkpt lat="48.71617" lon="2.48758">
        <ele>38</ele>
        <time>2022-09-25T13:48:04.008Z</time>
      </trkpt>
      <trkpt lat="48.71613" lon="2.48754">
        <ele>38</ele>
        <time>2022-09-25T13:48:08.021Z</time>
      </trkpt>
      <trkpt lat="48.71609" lon="2.48748">
        <ele>38</ele>
        <time>2022-09-25T13:48:13.039Z</time>
      </trkpt>
      <trkpt lat="48.71604" lon="2.48745">
        <ele>38</ele>
        <time>2022-09-25T13:48:18.038Z</time>
      </trkpt>
      <trkpt lat="48.71599" lon="2.48744">
        <ele>38</ele>
        <time>2022-09-25T13:48:22.044Z</time>
      </trkpt>
      <trkpt lat="48.71594" lon="2.48743">
        <ele>37</ele>
        <time>2022-09-25T13:48:27.054Z</time>
      </trkpt>
      <trkpt lat="48.71585" lon="2.48744">
        <ele>37</ele>
        <time>2022-09-25T13:48:32.005Z</time>
      </trkpt>
      <trkpt lat="48.71581" lon="2.48743">
        <ele>37</ele>
        <time>2022-09-25T13:48:36.027Z</time>
      </trkpt>
      <trkpt lat="48.71576" lon="2.4874">
        <ele>37</ele>
        <time>2022-09-25T13:48:41.006Z</time>
      </trkpt>
      <trkpt lat="48.7157" lon="2.48737">
        <ele>37</ele>
        <time>2022-09-25T13:48:46.002Z</time>
      </trkpt>
      <trkpt lat="48.71566" lon="2.48737">
        <ele>37</ele>
        <time>2022-09-25T13:48:50.039Z</time>
      </trkpt>
      <trkpt lat="48.7156" lon="2.48745">
        <ele>37</ele>
        <time>2022-09-25T13:48:55.018Z</time>
      </trkpt>
      <trkpt lat="48.71556" lon="2.48753">
        <ele>37</ele>
        <time>2022-09-25T13:48:59.047Z</time>
      </trkpt>
      <trkpt lat="48.71552" lon="2.48762">
        <ele>37</ele>
        <time>2022-09-25T13:49:04.038Z</time>
      </trkpt>
      <trkpt lat="48.71548" lon="2.48773">
        <ele>37</ele>
        <time>2022-09-25T13:49:09.006Z</time>
      </trkpt>
      <trkpt lat="48.71545" lon="2.48779">
        <ele>37</ele>
        <time>2022-09-25T13:49:13.015Z</time>
      </trkpt>
      <trkpt lat="48.71539" lon="2.48786">
        <ele>36</ele>
        <time>2022-09-25T13:49:18.028Z</time>
      </trkpt>
      <trkpt lat="48.71535" lon="2.48794">
        <ele>37</ele>
        <time>2022-09-25T13:49:23.018Z</time>
      </trkpt>
      <trkpt lat="48.71531" lon="2.48803">
        <ele>37</ele>
        <time>2022-09-25T13:49:27.025Z</time>
      </trkpt>
      <trkpt lat="48.71528" lon="2.48807">
        <ele>37</ele>
        <time>2022-09-25T13:49:32.008Z</time>
      </trkpt>
      <trkpt lat="48.71523" lon="2.4881">
        <ele>37</ele>
        <time>2022-09-25T13:49:36.034Z</time>
      </trkpt>
      <trkpt lat="48.71517" lon="2.48813">
        <ele>37</ele>
        <time>2022-09-25T13:49:41.020Z</time>
      </trkpt>
      <trkpt lat="48.71513" lon="2.48816">
        <ele>38</ele>
        <time>2022-09-25T13:49:46.009Z</time>
      </trkpt>
      <trkpt lat="48.71508" lon="2.48819">
        <ele>38</ele>
        <time>2022-09-25T13:49:51.021Z</time>
      </trkpt>
      <trkpt lat="48.71504" lon="2.48823">
        <ele>37</ele>
        <time>2022-09-25T13:49:55.021Z</time>
      </trkpt>
      <trkpt lat="48.71498" lon="2.48825">
        <ele>37</ele>
        <time>2022-09-25T13:49:59.022Z</time>
      </trkpt>
      <trkpt lat="48.71493" lon="2.48825">
        <ele>37</ele>
        <time>2022-09-25T13:50:04.028Z</time>
      </trkpt>
      <trkpt lat="48.71489" lon="2.48829">
        <ele>37</ele>
        <time>2022-09-25T13:50:08.036Z</time>
      </trkpt>
      <trkpt lat="48.71486" lon="2.48836">
        <ele>40</ele>
        <time>2022-09-25T13:50:12.044Z</time>
      </trkpt>
      <trkpt lat="48.71481" lon="2.48843">
        <ele>40</ele>
        <time>2022-09-25T13:50:17.033Z</time>
      </trkpt>
      <trkpt lat="48.71477" lon="2.48852">
        <ele>39</ele>
        <time>2022-09-25T13:50:22.025Z</time>
      </trkpt>
      <trkpt lat="48.71474" lon="2.48863">
        <ele>39</ele>
        <time>2022-09-25T13:50:27.036Z</time>
      </trkpt>
      <trkpt lat="48.71472" lon="2.48872">
        <ele>39</ele>
        <time>2022-09-25T13:50:31.035Z</time>
      </trkpt>
      <trkpt lat="48.71468" lon="2.48882">
        <ele>39</ele>
        <time>2022-09-25T13:50:36.032Z</time>
      </trkpt>
      <trkpt lat="48.71467" lon="2.4889">
        <ele>39</ele>
        <time>2022-09-25T13:50:41.013Z</time>
      </trkpt>
      <trkpt lat="48.71466" lon="2.48898">
        <ele>39</ele>
        <time>2022-09-25T13:50:46.030Z</time>
      </trkpt>
      <trkpt lat="48.7147" lon="2.48912">
        <ele>38</ele>
        <time>2022-09-25T13:52:40.023Z</time>
      </trkpt>
      <trkpt lat="48.71468" lon="2.48915">
        <ele>38</ele>
        <time>2022-09-25T13:52:45.040Z</time>
      </trkpt>
      <trkpt lat="48.71466" lon="2.48924">
        <ele>38</ele>
        <time>2022-09-25T13:52:50.060Z</time>
      </trkpt>
      <trkpt lat="48.71466" lon="2.48933">
        <ele>39</ele>
        <time>2022-09-25T13:52:55.039Z</time>
      </trkpt>
      <trkpt lat="48.71468" lon="2.4894">
        <ele>39</ele>
        <time>2022-09-25T13:53:00.036Z</time>
      </trkpt>
      <trkpt lat="48.71471" lon="2.48944">
        <ele>39</ele>
        <time>2022-09-25T13:53:05.034Z</time>
      </trkpt>
      <trkpt lat="48.71474" lon="2.48947">
        <ele>39</ele>
        <time>2022-09-25T13:53:10.060Z</time>
      </trkpt>
      <trkpt lat="48.71477" lon="2.4895">
        <ele>39</ele>
        <time>2022-09-25T13:53:15.020Z</time>
      </trkpt>
      <trkpt lat="48.71481" lon="2.48948">
        <ele>39</ele>
        <time>2022-09-25T13:53:20.018Z</time>
      </trkpt>
    </trkseg>
  </trk>
</gpx>